<?xml version="1.0" encoding="UTF-8" standalone="no" ?>
<gpx xmlns="http://www.topografix.com/GPX/1/1" xmlns:xsi="http://www.w3.org/2001/XMLSchema-instance" xsi:schemaLocation="http://www.topografix.com/GPX/1/1 http://www.topografix.com/GPX/1/1/gpx.xsd" version="1.1" creator="VisuGPX - https://www.visugpx.com">
  <metadata>
    <name>Rando du lundi 23/09</name>
    <desc><![CDATA[Rando du lundi 23/09]]></desc>
  </metadata>
  <trk>
    <name><![CDATA[23/09/2013 20:20]]></name>
    <desc><![CDATA[]]></desc>
    <trkseg>
      <trkpt lat="48.8576" lon="2.34714">
        <ele>69.5</ele>
        <time>2013-09-23T18:21:18.396Z</time>
      </trkpt>
      <trkpt lat="48.85765" lon="2.34716">
        <ele>63.1</ele>
        <time>2013-09-23T18:21:19.399Z</time>
      </trkpt>
      <trkpt lat="48.85773" lon="2.34717">
        <ele>66.6</ele>
        <time>2013-09-23T18:21:20.445Z</time>
      </trkpt>
      <trkpt lat="48.85767" lon="2.34711">
        <ele>56.7</ele>
        <time>2013-09-23T18:21:31.459Z</time>
      </trkpt>
      <trkpt lat="48.85764" lon="2.34709">
        <ele>56.6</ele>
        <time>2013-09-23T18:21:32.588Z</time>
      </trkpt>
      <trkpt lat="48.85757" lon="2.34706">
        <ele>55</ele>
        <time>2013-09-23T18:21:35.555Z</time>
      </trkpt>
      <trkpt lat="48.85754" lon="2.34705">
        <ele>55</ele>
        <time>2013-09-23T18:21:36.496Z</time>
      </trkpt>
      <trkpt lat="48.85748" lon="2.34702">
        <ele>56.2</ele>
        <time>2013-09-23T18:21:38.415Z</time>
      </trkpt>
      <trkpt lat="48.85744" lon="2.34701">
        <ele>55.7</ele>
        <time>2013-09-23T18:21:39.562Z</time>
      </trkpt>
      <trkpt lat="48.85736" lon="2.34701">
        <ele>56.2</ele>
        <time>2013-09-23T18:21:41.581Z</time>
      </trkpt>
      <trkpt lat="48.85732" lon="2.34702">
        <ele>56.7</ele>
        <time>2013-09-23T18:21:42.511Z</time>
      </trkpt>
      <trkpt lat="48.85727" lon="2.34704">
        <ele>57.7</ele>
        <time>2013-09-23T18:21:43.516Z</time>
      </trkpt>
      <trkpt lat="48.85723" lon="2.34706">
        <ele>58.5</ele>
        <time>2013-09-23T18:21:44.404Z</time>
      </trkpt>
      <trkpt lat="48.85718" lon="2.34708">
        <ele>59.3</ele>
        <time>2013-09-23T18:21:45.447Z</time>
      </trkpt>
      <trkpt lat="48.85712" lon="2.34709">
        <ele>59.9</ele>
        <time>2013-09-23T18:21:46.618Z</time>
      </trkpt>
      <trkpt lat="48.85704" lon="2.34708">
        <ele>60.6</ele>
        <time>2013-09-23T18:21:48.601Z</time>
      </trkpt>
      <trkpt lat="48.85701" lon="2.34707">
        <ele>61</ele>
        <time>2013-09-23T18:21:49.531Z</time>
      </trkpt>
      <trkpt lat="48.85693" lon="2.34703">
        <ele>61.9</ele>
        <time>2013-09-23T18:21:51.595Z</time>
      </trkpt>
      <trkpt lat="48.8569" lon="2.34701">
        <ele>62.1</ele>
        <time>2013-09-23T18:21:52.485Z</time>
      </trkpt>
      <trkpt lat="48.85683" lon="2.34697">
        <ele>62.2</ele>
        <time>2013-09-23T18:21:54.404Z</time>
      </trkpt>
      <trkpt lat="48.8568" lon="2.34695">
        <ele>62</ele>
        <time>2013-09-23T18:21:55.413Z</time>
      </trkpt>
      <trkpt lat="48.85671" lon="2.34694">
        <ele>70.3</ele>
        <time>2013-09-23T18:21:57.562Z</time>
      </trkpt>
      <trkpt lat="48.85667" lon="2.34692">
        <ele>72</ele>
        <time>2013-09-23T18:21:58.421Z</time>
      </trkpt>
      <trkpt lat="48.85659" lon="2.34688">
        <ele>73.9</ele>
        <time>2013-09-23T18:22:00.623Z</time>
      </trkpt>
      <trkpt lat="48.85656" lon="2.34686">
        <ele>73.8</ele>
        <time>2013-09-23T18:22:01.478Z</time>
      </trkpt>
      <trkpt lat="48.85649" lon="2.3468">
        <ele>75.3</ele>
        <time>2013-09-23T18:22:03.437Z</time>
      </trkpt>
      <trkpt lat="48.85646" lon="2.34677">
        <ele>75.7</ele>
        <time>2013-09-23T18:22:04.614Z</time>
      </trkpt>
      <trkpt lat="48.85639" lon="2.34672">
        <ele>76.5</ele>
        <time>2013-09-23T18:22:06.596Z</time>
      </trkpt>
      <trkpt lat="48.85636" lon="2.3467">
        <ele>77</ele>
        <time>2013-09-23T18:22:07.416Z</time>
      </trkpt>
      <trkpt lat="48.8563" lon="2.34665">
        <ele>76.8</ele>
        <time>2013-09-23T18:22:09.432Z</time>
      </trkpt>
      <trkpt lat="48.85627" lon="2.34662">
        <ele>76.4</ele>
        <time>2013-09-23T18:22:10.394Z</time>
      </trkpt>
      <trkpt lat="48.8562" lon="2.34656">
        <ele>76.8</ele>
        <time>2013-09-23T18:22:13.367Z</time>
      </trkpt>
      <trkpt lat="48.85619" lon="2.34654">
        <ele>76.6</ele>
        <time>2013-09-23T18:22:14.397Z</time>
      </trkpt>
      <trkpt lat="48.85611" lon="2.34656">
        <ele>74.1</ele>
        <time>2013-09-23T18:22:20.464Z</time>
      </trkpt>
      <trkpt lat="48.8561" lon="2.34658">
        <ele>74</ele>
        <time>2013-09-23T18:22:21.614Z</time>
      </trkpt>
      <trkpt lat="48.85606" lon="2.3467">
        <ele>73.3</ele>
        <time>2013-09-23T18:22:24.427Z</time>
      </trkpt>
      <trkpt lat="48.85604" lon="2.34675">
        <ele>73.4</ele>
        <time>2013-09-23T18:22:25.541Z</time>
      </trkpt>
      <trkpt lat="48.85602" lon="2.34685">
        <ele>72.9</ele>
        <time>2013-09-23T18:22:27.508Z</time>
      </trkpt>
      <trkpt lat="48.85601" lon="2.3469">
        <ele>72.1</ele>
        <time>2013-09-23T18:22:28.365Z</time>
      </trkpt>
      <trkpt lat="48.85598" lon="2.34701">
        <ele>71.6</ele>
        <time>2013-09-23T18:22:30.399Z</time>
      </trkpt>
      <trkpt lat="48.85597" lon="2.34705">
        <ele>71.6</ele>
        <time>2013-09-23T18:22:31.376Z</time>
      </trkpt>
      <trkpt lat="48.85595" lon="2.34715">
        <ele>70.8</ele>
        <time>2013-09-23T18:22:33.373Z</time>
      </trkpt>
      <trkpt lat="48.85594" lon="2.3472">
        <ele>70.4</ele>
        <time>2013-09-23T18:22:34.395Z</time>
      </trkpt>
      <trkpt lat="48.85591" lon="2.34729">
        <ele>69.1</ele>
        <time>2013-09-23T18:22:36.483Z</time>
      </trkpt>
      <trkpt lat="48.85589" lon="2.34734">
        <ele>67</ele>
        <time>2013-09-23T18:22:37.640Z</time>
      </trkpt>
      <trkpt lat="48.85584" lon="2.34742">
        <ele>67</ele>
        <time>2013-09-23T18:22:39.393Z</time>
      </trkpt>
      <trkpt lat="48.85582" lon="2.34747">
        <ele>67.5</ele>
        <time>2013-09-23T18:22:40.405Z</time>
      </trkpt>
      <trkpt lat="48.85579" lon="2.34758">
        <ele>67.8</ele>
        <time>2013-09-23T18:22:42.602Z</time>
      </trkpt>
      <trkpt lat="48.85578" lon="2.34763">
        <ele>67.9</ele>
        <time>2013-09-23T18:22:43.425Z</time>
      </trkpt>
      <trkpt lat="48.85575" lon="2.34773">
        <ele>67.9</ele>
        <time>2013-09-23T18:22:45.444Z</time>
      </trkpt>
      <trkpt lat="48.85573" lon="2.34779">
        <ele>67.9</ele>
        <time>2013-09-23T18:22:46.654Z</time>
      </trkpt>
      <trkpt lat="48.8557" lon="2.34789">
        <ele>68.3</ele>
        <time>2013-09-23T18:22:48.602Z</time>
      </trkpt>
      <trkpt lat="48.85568" lon="2.34794">
        <ele>68.8</ele>
        <time>2013-09-23T18:22:49.497Z</time>
      </trkpt>
      <trkpt lat="48.85561" lon="2.34796">
        <ele>65.1</ele>
        <time>2013-09-23T18:22:51.636Z</time>
      </trkpt>
      <trkpt lat="48.85558" lon="2.34793">
        <ele>64.4</ele>
        <time>2013-09-23T18:22:52.462Z</time>
      </trkpt>
      <trkpt lat="48.85554" lon="2.34789">
        <ele>64</ele>
        <time>2013-09-23T18:22:53.414Z</time>
      </trkpt>
      <trkpt lat="48.8555" lon="2.34784">
        <ele>64</ele>
        <time>2013-09-23T18:22:54.408Z</time>
      </trkpt>
      <trkpt lat="48.85543" lon="2.34777">
        <ele>63.7</ele>
        <time>2013-09-23T18:22:56.384Z</time>
      </trkpt>
      <trkpt lat="48.8554" lon="2.34774">
        <ele>63.8</ele>
        <time>2013-09-23T18:22:57.414Z</time>
      </trkpt>
      <trkpt lat="48.85532" lon="2.34771">
        <ele>64.8</ele>
        <time>2013-09-23T18:22:59.713Z</time>
      </trkpt>
      <trkpt lat="48.85529" lon="2.34769">
        <ele>64.2</ele>
        <time>2013-09-23T18:23:00.434Z</time>
      </trkpt>
      <trkpt lat="48.85522" lon="2.34764">
        <ele>64.6</ele>
        <time>2013-09-23T18:23:02.484Z</time>
      </trkpt>
      <trkpt lat="48.85518" lon="2.34761">
        <ele>64.6</ele>
        <time>2013-09-23T18:23:03.484Z</time>
      </trkpt>
      <trkpt lat="48.85511" lon="2.34756">
        <ele>65.6</ele>
        <time>2013-09-23T18:23:05.473Z</time>
      </trkpt>
      <trkpt lat="48.85508" lon="2.34754">
        <ele>65.7</ele>
        <time>2013-09-23T18:23:06.573Z</time>
      </trkpt>
      <trkpt lat="48.855" lon="2.34751">
        <ele>65.3</ele>
        <time>2013-09-23T18:23:09.422Z</time>
      </trkpt>
      <trkpt lat="48.85498" lon="2.3475">
        <ele>65.3</ele>
        <time>2013-09-23T18:23:10.526Z</time>
      </trkpt>
      <trkpt lat="48.85492" lon="2.34758">
        <ele>69</ele>
        <time>2013-09-23T18:23:15.416Z</time>
      </trkpt>
      <trkpt lat="48.85491" lon="2.34761">
        <ele>69</ele>
        <time>2013-09-23T18:23:16.614Z</time>
      </trkpt>
      <trkpt lat="48.85484" lon="2.34769">
        <ele>68.1</ele>
        <time>2013-09-23T18:23:20.414Z</time>
      </trkpt>
      <trkpt lat="48.85482" lon="2.34771">
        <ele>68</ele>
        <time>2013-09-23T18:23:21.424Z</time>
      </trkpt>
      <trkpt lat="48.85474" lon="2.34767">
        <ele>69.1</ele>
        <time>2013-09-23T18:23:24.403Z</time>
      </trkpt>
      <trkpt lat="48.85471" lon="2.34765">
        <ele>69.3</ele>
        <time>2013-09-23T18:23:25.393Z</time>
      </trkpt>
      <trkpt lat="48.85463" lon="2.34762">
        <ele>69.8</ele>
        <time>2013-09-23T18:23:27.382Z</time>
      </trkpt>
      <trkpt lat="48.85459" lon="2.3476">
        <ele>69.7</ele>
        <time>2013-09-23T18:23:28.395Z</time>
      </trkpt>
      <trkpt lat="48.85454" lon="2.34758">
        <ele>66.3</ele>
        <time>2013-09-23T18:23:29.454Z</time>
      </trkpt>
      <trkpt lat="48.8545" lon="2.34757">
        <ele>65.4</ele>
        <time>2013-09-23T18:23:30.428Z</time>
      </trkpt>
      <trkpt lat="48.85441" lon="2.34754">
        <ele>63.6</ele>
        <time>2013-09-23T18:23:32.413Z</time>
      </trkpt>
      <trkpt lat="48.85437" lon="2.34752">
        <ele>62.7</ele>
        <time>2013-09-23T18:23:33.431Z</time>
      </trkpt>
      <trkpt lat="48.8543" lon="2.34749">
        <ele>62.4</ele>
        <time>2013-09-23T18:23:35.513Z</time>
      </trkpt>
      <trkpt lat="48.85426" lon="2.34747">
        <ele>62.4</ele>
        <time>2013-09-23T18:23:36.492Z</time>
      </trkpt>
      <trkpt lat="48.85419" lon="2.34745">
        <ele>62.7</ele>
        <time>2013-09-23T18:23:38.447Z</time>
      </trkpt>
      <trkpt lat="48.85415" lon="2.34745">
        <ele>62.2</ele>
        <time>2013-09-23T18:23:39.553Z</time>
      </trkpt>
      <trkpt lat="48.85407" lon="2.34743">
        <ele>59.8</ele>
        <time>2013-09-23T18:23:42.406Z</time>
      </trkpt>
      <trkpt lat="48.85403" lon="2.34741">
        <ele>58.3</ele>
        <time>2013-09-23T18:23:43.512Z</time>
      </trkpt>
      <trkpt lat="48.85397" lon="2.3474">
        <ele>58.9</ele>
        <time>2013-09-23T18:23:45.467Z</time>
      </trkpt>
      <trkpt lat="48.85393" lon="2.3474">
        <ele>58.5</ele>
        <time>2013-09-23T18:23:46.443Z</time>
      </trkpt>
      <trkpt lat="48.85385" lon="2.34739">
        <ele>55.2</ele>
        <time>2013-09-23T18:23:48.430Z</time>
      </trkpt>
      <trkpt lat="48.85382" lon="2.34739">
        <ele>55.8</ele>
        <time>2013-09-23T18:23:49.543Z</time>
      </trkpt>
      <trkpt lat="48.85375" lon="2.34737">
        <ele>58</ele>
        <time>2013-09-23T18:23:51.403Z</time>
      </trkpt>
      <trkpt lat="48.85371" lon="2.34736">
        <ele>60.8</ele>
        <time>2013-09-23T18:23:52.394Z</time>
      </trkpt>
      <trkpt lat="48.85363" lon="2.34735">
        <ele>66.2</ele>
        <time>2013-09-23T18:23:55.452Z</time>
      </trkpt>
      <trkpt lat="48.8536" lon="2.34735">
        <ele>67.1</ele>
        <time>2013-09-23T18:23:56.437Z</time>
      </trkpt>
      <trkpt lat="48.85359" lon="2.34723">
        <ele>65.5</ele>
        <time>2013-09-23T18:24:05.423Z</time>
      </trkpt>
      <trkpt lat="48.8536" lon="2.34721">
        <ele>65</ele>
        <time>2013-09-23T18:24:06.429Z</time>
      </trkpt>
      <trkpt lat="48.85361" lon="2.34718">
        <ele>65.3</ele>
        <time>2013-09-23T18:24:11.408Z</time>
      </trkpt>
      <trkpt lat="48.85361" lon="2.34718">
        <ele>65.5</ele>
        <time>2013-09-23T18:24:12.404Z</time>
      </trkpt>
      <trkpt lat="48.8536" lon="2.34719">
        <ele>66.5</ele>
        <time>2013-09-23T18:24:27.414Z</time>
      </trkpt>
      <trkpt lat="48.8536" lon="2.34721">
        <ele>67.4</ele>
        <time>2013-09-23T18:24:28.402Z</time>
      </trkpt>
      <trkpt lat="48.85361" lon="2.34732">
        <ele>77.2</ele>
        <time>2013-09-23T18:24:32.397Z</time>
      </trkpt>
      <trkpt lat="48.85361" lon="2.34735">
        <ele>81.2</ele>
        <time>2013-09-23T18:24:33.402Z</time>
      </trkpt>
      <trkpt lat="48.85364" lon="2.34746">
        <ele>81.3</ele>
        <time>2013-09-23T18:24:36.616Z</time>
      </trkpt>
      <trkpt lat="48.85366" lon="2.34748">
        <ele>82.8</ele>
        <time>2013-09-23T18:24:37.399Z</time>
      </trkpt>
      <trkpt lat="48.85372" lon="2.34752">
        <ele>84</ele>
        <time>2013-09-23T18:24:39.572Z</time>
      </trkpt>
      <trkpt lat="48.85375" lon="2.34752">
        <ele>83.7</ele>
        <time>2013-09-23T18:24:40.503Z</time>
      </trkpt>
      <trkpt lat="48.85381" lon="2.34755">
        <ele>83.4</ele>
        <time>2013-09-23T18:24:42.452Z</time>
      </trkpt>
      <trkpt lat="48.85384" lon="2.34758">
        <ele>83</ele>
        <time>2013-09-23T18:24:43.612Z</time>
      </trkpt>
      <trkpt lat="48.85387" lon="2.34767">
        <ele>83</ele>
        <time>2013-09-23T18:24:45.604Z</time>
      </trkpt>
      <trkpt lat="48.85387" lon="2.34773">
        <ele>83.1</ele>
        <time>2013-09-23T18:24:46.412Z</time>
      </trkpt>
      <trkpt lat="48.85386" lon="2.34781">
        <ele>82.9</ele>
        <time>2013-09-23T18:24:47.446Z</time>
      </trkpt>
      <trkpt lat="48.85384" lon="2.3479">
        <ele>83.2</ele>
        <time>2013-09-23T18:24:48.613Z</time>
      </trkpt>
      <trkpt lat="48.8538" lon="2.34799">
        <ele>84.1</ele>
        <time>2013-09-23T18:24:49.441Z</time>
      </trkpt>
      <trkpt lat="48.85377" lon="2.34809">
        <ele>84.9</ele>
        <time>2013-09-23T18:24:50.663Z</time>
      </trkpt>
      <trkpt lat="48.85375" lon="2.34815">
        <ele>85.1</ele>
        <time>2013-09-23T18:24:51.465Z</time>
      </trkpt>
      <trkpt lat="48.85373" lon="2.34824">
        <ele>84.6</ele>
        <time>2013-09-23T18:24:52.591Z</time>
      </trkpt>
      <trkpt lat="48.85371" lon="2.34831">
        <ele>84.6</ele>
        <time>2013-09-23T18:24:53.432Z</time>
      </trkpt>
      <trkpt lat="48.85371" lon="2.34839">
        <ele>85.2</ele>
        <time>2013-09-23T18:24:54.398Z</time>
      </trkpt>
      <trkpt lat="48.85368" lon="2.34846">
        <ele>85.5</ele>
        <time>2013-09-23T18:24:55.423Z</time>
      </trkpt>
      <trkpt lat="48.85367" lon="2.34852">
        <ele>85</ele>
        <time>2013-09-23T18:24:56.403Z</time>
      </trkpt>
      <trkpt lat="48.85366" lon="2.34859">
        <ele>85.2</ele>
        <time>2013-09-23T18:24:57.418Z</time>
      </trkpt>
      <trkpt lat="48.85366" lon="2.34866">
        <ele>84.8</ele>
        <time>2013-09-23T18:24:58.407Z</time>
      </trkpt>
      <trkpt lat="48.85364" lon="2.34878">
        <ele>84.8</ele>
        <time>2013-09-23T18:25:00.456Z</time>
      </trkpt>
      <trkpt lat="48.85363" lon="2.34883">
        <ele>84.4</ele>
        <time>2013-09-23T18:25:01.424Z</time>
      </trkpt>
      <trkpt lat="48.85364" lon="2.34894">
        <ele>84.7</ele>
        <time>2013-09-23T18:25:04.420Z</time>
      </trkpt>
      <trkpt lat="48.85364" lon="2.34898">
        <ele>85</ele>
        <time>2013-09-23T18:25:05.421Z</time>
      </trkpt>
      <trkpt lat="48.85361" lon="2.34908">
        <ele>84.4</ele>
        <time>2013-09-23T18:25:07.413Z</time>
      </trkpt>
      <trkpt lat="48.85359" lon="2.34914">
        <ele>84.4</ele>
        <time>2013-09-23T18:25:08.382Z</time>
      </trkpt>
      <trkpt lat="48.85355" lon="2.34921">
        <ele>83.8</ele>
        <time>2013-09-23T18:25:09.374Z</time>
      </trkpt>
      <trkpt lat="48.85352" lon="2.34927">
        <ele>83.9</ele>
        <time>2013-09-23T18:25:10.433Z</time>
      </trkpt>
      <trkpt lat="48.85349" lon="2.34933">
        <ele>84.4</ele>
        <time>2013-09-23T18:25:11.408Z</time>
      </trkpt>
      <trkpt lat="48.85347" lon="2.34938">
        <ele>84.1</ele>
        <time>2013-09-23T18:25:12.404Z</time>
      </trkpt>
      <trkpt lat="48.85343" lon="2.34949">
        <ele>84.5</ele>
        <time>2013-09-23T18:25:14.375Z</time>
      </trkpt>
      <trkpt lat="48.8534" lon="2.34955">
        <ele>84.8</ele>
        <time>2013-09-23T18:25:15.414Z</time>
      </trkpt>
      <trkpt lat="48.85339" lon="2.34961">
        <ele>84.3</ele>
        <time>2013-09-23T18:25:16.402Z</time>
      </trkpt>
      <trkpt lat="48.85336" lon="2.34967">
        <ele>83</ele>
        <time>2013-09-23T18:25:17.408Z</time>
      </trkpt>
      <trkpt lat="48.85333" lon="2.3498">
        <ele>82.7</ele>
        <time>2013-09-23T18:25:19.375Z</time>
      </trkpt>
      <trkpt lat="48.85331" lon="2.34986">
        <ele>82.6</ele>
        <time>2013-09-23T18:25:20.423Z</time>
      </trkpt>
      <trkpt lat="48.85329" lon="2.34992">
        <ele>82.4</ele>
        <time>2013-09-23T18:25:21.445Z</time>
      </trkpt>
      <trkpt lat="48.85326" lon="2.34998">
        <ele>82.4</ele>
        <time>2013-09-23T18:25:22.402Z</time>
      </trkpt>
      <trkpt lat="48.85321" lon="2.35009">
        <ele>80.8</ele>
        <time>2013-09-23T18:25:24.421Z</time>
      </trkpt>
      <trkpt lat="48.85319" lon="2.35014">
        <ele>81</ele>
        <time>2013-09-23T18:25:25.412Z</time>
      </trkpt>
      <trkpt lat="48.85316" lon="2.3502">
        <ele>79.6</ele>
        <time>2013-09-23T18:25:26.403Z</time>
      </trkpt>
      <trkpt lat="48.85314" lon="2.35026">
        <ele>78.9</ele>
        <time>2013-09-23T18:25:27.424Z</time>
      </trkpt>
      <trkpt lat="48.85312" lon="2.35033">
        <ele>78.9</ele>
        <time>2013-09-23T18:25:28.426Z</time>
      </trkpt>
      <trkpt lat="48.85311" lon="2.35039">
        <ele>78.9</ele>
        <time>2013-09-23T18:25:29.421Z</time>
      </trkpt>
      <trkpt lat="48.85309" lon="2.35045">
        <ele>78.6</ele>
        <time>2013-09-23T18:25:30.412Z</time>
      </trkpt>
      <trkpt lat="48.85308" lon="2.35053">
        <ele>80.4</ele>
        <time>2013-09-23T18:25:31.404Z</time>
      </trkpt>
      <trkpt lat="48.85307" lon="2.35061">
        <ele>80.6</ele>
        <time>2013-09-23T18:25:32.423Z</time>
      </trkpt>
      <trkpt lat="48.85304" lon="2.35069">
        <ele>79</ele>
        <time>2013-09-23T18:25:33.403Z</time>
      </trkpt>
      <trkpt lat="48.85302" lon="2.35076">
        <ele>78.8</ele>
        <time>2013-09-23T18:25:34.412Z</time>
      </trkpt>
      <trkpt lat="48.85301" lon="2.35082">
        <ele>79.3</ele>
        <time>2013-09-23T18:25:35.379Z</time>
      </trkpt>
      <trkpt lat="48.853" lon="2.35089">
        <ele>80.6</ele>
        <time>2013-09-23T18:25:36.432Z</time>
      </trkpt>
      <trkpt lat="48.85298" lon="2.35096">
        <ele>79.5</ele>
        <time>2013-09-23T18:25:37.403Z</time>
      </trkpt>
      <trkpt lat="48.85297" lon="2.35104">
        <ele>78.3</ele>
        <time>2013-09-23T18:25:38.424Z</time>
      </trkpt>
      <trkpt lat="48.85296" lon="2.35111">
        <ele>77.8</ele>
        <time>2013-09-23T18:25:39.408Z</time>
      </trkpt>
      <trkpt lat="48.85294" lon="2.35119">
        <ele>77.5</ele>
        <time>2013-09-23T18:25:40.423Z</time>
      </trkpt>
      <trkpt lat="48.85293" lon="2.35127">
        <ele>76.9</ele>
        <time>2013-09-23T18:25:41.402Z</time>
      </trkpt>
      <trkpt lat="48.8529" lon="2.35134">
        <ele>76.6</ele>
        <time>2013-09-23T18:25:42.415Z</time>
      </trkpt>
      <trkpt lat="48.85289" lon="2.35142">
        <ele>74.9</ele>
        <time>2013-09-23T18:25:43.413Z</time>
      </trkpt>
      <trkpt lat="48.85287" lon="2.35151">
        <ele>73.3</ele>
        <time>2013-09-23T18:25:44.416Z</time>
      </trkpt>
      <trkpt lat="48.85286" lon="2.3516">
        <ele>72.4</ele>
        <time>2013-09-23T18:25:45.443Z</time>
      </trkpt>
      <trkpt lat="48.85284" lon="2.35167">
        <ele>72.1</ele>
        <time>2013-09-23T18:25:46.423Z</time>
      </trkpt>
      <trkpt lat="48.85283" lon="2.35175">
        <ele>71.6</ele>
        <time>2013-09-23T18:25:47.422Z</time>
      </trkpt>
      <trkpt lat="48.85282" lon="2.35182">
        <ele>69.7</ele>
        <time>2013-09-23T18:25:48.412Z</time>
      </trkpt>
      <trkpt lat="48.85282" lon="2.35188">
        <ele>67</ele>
        <time>2013-09-23T18:25:49.448Z</time>
      </trkpt>
      <trkpt lat="48.85279" lon="2.35198">
        <ele>67.6</ele>
        <time>2013-09-23T18:25:51.424Z</time>
      </trkpt>
      <trkpt lat="48.85278" lon="2.35202">
        <ele>68.8</ele>
        <time>2013-09-23T18:25:52.421Z</time>
      </trkpt>
      <trkpt lat="48.85274" lon="2.3521">
        <ele>71.2</ele>
        <time>2013-09-23T18:25:54.494Z</time>
      </trkpt>
      <trkpt lat="48.85273" lon="2.35213">
        <ele>72.2</ele>
        <time>2013-09-23T18:25:55.427Z</time>
      </trkpt>
      <trkpt lat="48.85273" lon="2.35224">
        <ele>73.9</ele>
        <time>2013-09-23T18:25:58.422Z</time>
      </trkpt>
      <trkpt lat="48.85274" lon="2.35228">
        <ele>73.9</ele>
        <time>2013-09-23T18:25:59.452Z</time>
      </trkpt>
      <trkpt lat="48.85278" lon="2.3524">
        <ele>74</ele>
        <time>2013-09-23T18:26:02.433Z</time>
      </trkpt>
      <trkpt lat="48.85279" lon="2.35244">
        <ele>73.6</ele>
        <time>2013-09-23T18:26:03.445Z</time>
      </trkpt>
      <trkpt lat="48.85282" lon="2.35256">
        <ele>74.6</ele>
        <time>2013-09-23T18:26:06.414Z</time>
      </trkpt>
      <trkpt lat="48.85283" lon="2.35261">
        <ele>75.6</ele>
        <time>2013-09-23T18:26:07.423Z</time>
      </trkpt>
      <trkpt lat="48.85283" lon="2.3527">
        <ele>75.1</ele>
        <time>2013-09-23T18:26:09.387Z</time>
      </trkpt>
      <trkpt lat="48.85284" lon="2.35275">
        <ele>75</ele>
        <time>2013-09-23T18:26:10.434Z</time>
      </trkpt>
      <trkpt lat="48.85284" lon="2.35284">
        <ele>74.9</ele>
        <time>2013-09-23T18:26:12.419Z</time>
      </trkpt>
      <trkpt lat="48.85285" lon="2.35289">
        <ele>73.9</ele>
        <time>2013-09-23T18:26:13.443Z</time>
      </trkpt>
      <trkpt lat="48.85286" lon="2.35298">
        <ele>73.8</ele>
        <time>2013-09-23T18:26:15.422Z</time>
      </trkpt>
      <trkpt lat="48.85287" lon="2.35302">
        <ele>74.1</ele>
        <time>2013-09-23T18:26:16.425Z</time>
      </trkpt>
      <trkpt lat="48.85293" lon="2.35311">
        <ele>76.8</ele>
        <time>2013-09-23T18:26:27.402Z</time>
      </trkpt>
      <trkpt lat="48.85294" lon="2.35312">
        <ele>77.1</ele>
        <time>2013-09-23T18:26:28.423Z</time>
      </trkpt>
      <trkpt lat="48.85295" lon="2.35325">
        <ele>77.7</ele>
        <time>2013-09-23T18:26:32.445Z</time>
      </trkpt>
      <trkpt lat="48.85295" lon="2.35329">
        <ele>77.6</ele>
        <time>2013-09-23T18:26:33.413Z</time>
      </trkpt>
      <trkpt lat="48.85298" lon="2.3534">
        <ele>76.8</ele>
        <time>2013-09-23T18:26:37.404Z</time>
      </trkpt>
      <trkpt lat="48.85299" lon="2.35343">
        <ele>76.3</ele>
        <time>2013-09-23T18:26:38.413Z</time>
      </trkpt>
      <trkpt lat="48.85306" lon="2.35346">
        <ele>76.2</ele>
        <time>2013-09-23T18:26:42.444Z</time>
      </trkpt>
      <trkpt lat="48.85308" lon="2.35346">
        <ele>76.3</ele>
        <time>2013-09-23T18:26:43.381Z</time>
      </trkpt>
      <trkpt lat="48.85315" lon="2.35352">
        <ele>75.1</ele>
        <time>2013-09-23T18:26:46.403Z</time>
      </trkpt>
      <trkpt lat="48.85318" lon="2.35355">
        <ele>74.5</ele>
        <time>2013-09-23T18:26:47.424Z</time>
      </trkpt>
      <trkpt lat="48.85325" lon="2.35364">
        <ele>73.8</ele>
        <time>2013-09-23T18:26:49.573Z</time>
      </trkpt>
      <trkpt lat="48.85327" lon="2.35368">
        <ele>72.5</ele>
        <time>2013-09-23T18:26:50.444Z</time>
      </trkpt>
      <trkpt lat="48.85333" lon="2.35378">
        <ele>71.3</ele>
        <time>2013-09-23T18:26:52.459Z</time>
      </trkpt>
      <trkpt lat="48.85336" lon="2.3538">
        <ele>72.7</ele>
        <time>2013-09-23T18:26:53.409Z</time>
      </trkpt>
      <trkpt lat="48.85344" lon="2.35383">
        <ele>72.2</ele>
        <time>2013-09-23T18:26:56.414Z</time>
      </trkpt>
      <trkpt lat="48.85346" lon="2.35383">
        <ele>71.8</ele>
        <time>2013-09-23T18:26:57.410Z</time>
      </trkpt>
      <trkpt lat="48.85353" lon="2.35388">
        <ele>71.9</ele>
        <time>2013-09-23T18:27:00.653Z</time>
      </trkpt>
      <trkpt lat="48.85356" lon="2.3539">
        <ele>70.8</ele>
        <time>2013-09-23T18:27:01.445Z</time>
      </trkpt>
      <trkpt lat="48.85362" lon="2.35397">
        <ele>70.1</ele>
        <time>2013-09-23T18:27:03.684Z</time>
      </trkpt>
      <trkpt lat="48.85365" lon="2.35399">
        <ele>69.6</ele>
        <time>2013-09-23T18:27:04.545Z</time>
      </trkpt>
      <trkpt lat="48.8537" lon="2.35404">
        <ele>70.6</ele>
        <time>2013-09-23T18:27:06.454Z</time>
      </trkpt>
      <trkpt lat="48.85373" lon="2.35407">
        <ele>71</ele>
        <time>2013-09-23T18:27:07.645Z</time>
      </trkpt>
      <trkpt lat="48.85379" lon="2.35414">
        <ele>72</ele>
        <time>2013-09-23T18:27:10.533Z</time>
      </trkpt>
      <trkpt lat="48.85382" lon="2.35417">
        <ele>71.2</ele>
        <time>2013-09-23T18:27:11.545Z</time>
      </trkpt>
      <trkpt lat="48.85388" lon="2.35424">
        <ele>69.2</ele>
        <time>2013-09-23T18:27:14.694Z</time>
      </trkpt>
      <trkpt lat="48.8539" lon="2.35426">
        <ele>68.2</ele>
        <time>2013-09-23T18:27:15.454Z</time>
      </trkpt>
      <trkpt lat="48.85396" lon="2.35434">
        <ele>68.2</ele>
        <time>2013-09-23T18:27:18.566Z</time>
      </trkpt>
      <trkpt lat="48.85398" lon="2.35436">
        <ele>67.3</ele>
        <time>2013-09-23T18:27:19.645Z</time>
      </trkpt>
      <trkpt lat="48.85404" lon="2.35443">
        <ele>68.7</ele>
        <time>2013-09-23T18:27:22.461Z</time>
      </trkpt>
      <trkpt lat="48.85406" lon="2.35446">
        <ele>68.6</ele>
        <time>2013-09-23T18:27:23.621Z</time>
      </trkpt>
      <trkpt lat="48.85412" lon="2.35453">
        <ele>67.5</ele>
        <time>2013-09-23T18:27:26.533Z</time>
      </trkpt>
      <trkpt lat="48.85415" lon="2.35455">
        <ele>66.7</ele>
        <time>2013-09-23T18:27:27.541Z</time>
      </trkpt>
      <trkpt lat="48.85422" lon="2.35463">
        <ele>66.3</ele>
        <time>2013-09-23T18:27:31.434Z</time>
      </trkpt>
      <trkpt lat="48.85423" lon="2.35464">
        <ele>66.2</ele>
        <time>2013-09-23T18:27:32.622Z</time>
      </trkpt>
      <trkpt lat="48.85429" lon="2.35465">
        <ele>69.3</ele>
        <time>2013-09-23T18:27:40.425Z</time>
      </trkpt>
      <trkpt lat="48.85429" lon="2.35465">
        <ele>69.1</ele>
        <time>2013-09-23T18:27:41.565Z</time>
      </trkpt>
      <trkpt lat="48.85428" lon="2.35467">
        <ele>69.2</ele>
        <time>2013-09-23T18:28:21.426Z</time>
      </trkpt>
      <trkpt lat="48.85429" lon="2.35467">
        <ele>67.8</ele>
        <time>2013-09-23T18:28:22.441Z</time>
      </trkpt>
      <trkpt lat="48.85434" lon="2.35478">
        <ele>66.5</ele>
        <time>2013-09-23T18:28:26.433Z</time>
      </trkpt>
      <trkpt lat="48.85436" lon="2.35481">
        <ele>66.9</ele>
        <time>2013-09-23T18:28:27.442Z</time>
      </trkpt>
      <trkpt lat="48.85441" lon="2.35488">
        <ele>67.1</ele>
        <time>2013-09-23T18:28:29.433Z</time>
      </trkpt>
      <trkpt lat="48.85445" lon="2.35491">
        <ele>66.9</ele>
        <time>2013-09-23T18:28:30.433Z</time>
      </trkpt>
      <trkpt lat="48.85452" lon="2.35498">
        <ele>66.1</ele>
        <time>2013-09-23T18:28:32.403Z</time>
      </trkpt>
      <trkpt lat="48.85457" lon="2.35502">
        <ele>65.9</ele>
        <time>2013-09-23T18:28:33.432Z</time>
      </trkpt>
      <trkpt lat="48.85461" lon="2.35507">
        <ele>66.2</ele>
        <time>2013-09-23T18:28:34.423Z</time>
      </trkpt>
      <trkpt lat="48.85466" lon="2.35511">
        <ele>66.9</ele>
        <time>2013-09-23T18:28:35.444Z</time>
      </trkpt>
      <trkpt lat="48.8547" lon="2.35515">
        <ele>67.5</ele>
        <time>2013-09-23T18:28:36.441Z</time>
      </trkpt>
      <trkpt lat="48.85475" lon="2.35518">
        <ele>68</ele>
        <time>2013-09-23T18:28:37.445Z</time>
      </trkpt>
      <trkpt lat="48.85481" lon="2.35524">
        <ele>68.1</ele>
        <time>2013-09-23T18:28:39.453Z</time>
      </trkpt>
      <trkpt lat="48.85484" lon="2.35527">
        <ele>68.6</ele>
        <time>2013-09-23T18:28:40.433Z</time>
      </trkpt>
      <trkpt lat="48.8549" lon="2.35532">
        <ele>68.5</ele>
        <time>2013-09-23T18:28:42.414Z</time>
      </trkpt>
      <trkpt lat="48.85493" lon="2.35534">
        <ele>69.7</ele>
        <time>2013-09-23T18:28:43.421Z</time>
      </trkpt>
      <trkpt lat="48.85501" lon="2.3554">
        <ele>71.8</ele>
        <time>2013-09-23T18:28:45.432Z</time>
      </trkpt>
      <trkpt lat="48.85504" lon="2.35543">
        <ele>71.6</ele>
        <time>2013-09-23T18:28:46.444Z</time>
      </trkpt>
      <trkpt lat="48.85511" lon="2.3555">
        <ele>72.6</ele>
        <time>2013-09-23T18:28:48.423Z</time>
      </trkpt>
      <trkpt lat="48.85515" lon="2.35554">
        <ele>73.9</ele>
        <time>2013-09-23T18:28:49.583Z</time>
      </trkpt>
      <trkpt lat="48.85521" lon="2.35562">
        <ele>73.8</ele>
        <time>2013-09-23T18:28:51.444Z</time>
      </trkpt>
      <trkpt lat="48.85523" lon="2.35567">
        <ele>71.7</ele>
        <time>2013-09-23T18:28:52.425Z</time>
      </trkpt>
      <trkpt lat="48.85529" lon="2.35576">
        <ele>70.9</ele>
        <time>2013-09-23T18:28:54.470Z</time>
      </trkpt>
      <trkpt lat="48.85532" lon="2.35581">
        <ele>70.5</ele>
        <time>2013-09-23T18:28:55.424Z</time>
      </trkpt>
      <trkpt lat="48.85535" lon="2.35585">
        <ele>71</ele>
        <time>2013-09-23T18:28:56.435Z</time>
      </trkpt>
      <trkpt lat="48.85539" lon="2.35589">
        <ele>71.7</ele>
        <time>2013-09-23T18:28:57.444Z</time>
      </trkpt>
      <trkpt lat="48.85543" lon="2.35593">
        <ele>71</ele>
        <time>2013-09-23T18:28:58.433Z</time>
      </trkpt>
      <trkpt lat="48.85547" lon="2.35596">
        <ele>72</ele>
        <time>2013-09-23T18:28:59.436Z</time>
      </trkpt>
      <trkpt lat="48.85554" lon="2.35602">
        <ele>71.5</ele>
        <time>2013-09-23T18:29:01.424Z</time>
      </trkpt>
      <trkpt lat="48.85558" lon="2.35605">
        <ele>71.6</ele>
        <time>2013-09-23T18:29:02.433Z</time>
      </trkpt>
      <trkpt lat="48.85564" lon="2.35611">
        <ele>70.2</ele>
        <time>2013-09-23T18:29:04.423Z</time>
      </trkpt>
      <trkpt lat="48.85568" lon="2.35614">
        <ele>69.9</ele>
        <time>2013-09-23T18:29:05.453Z</time>
      </trkpt>
      <trkpt lat="48.85575" lon="2.35619">
        <ele>71.7</ele>
        <time>2013-09-23T18:29:07.434Z</time>
      </trkpt>
      <trkpt lat="48.85578" lon="2.35622">
        <ele>72.4</ele>
        <time>2013-09-23T18:29:08.438Z</time>
      </trkpt>
      <trkpt lat="48.85584" lon="2.35627">
        <ele>72</ele>
        <time>2013-09-23T18:29:10.434Z</time>
      </trkpt>
      <trkpt lat="48.85588" lon="2.35629">
        <ele>72.8</ele>
        <time>2013-09-23T18:29:11.422Z</time>
      </trkpt>
      <trkpt lat="48.85595" lon="2.35631">
        <ele>74.7</ele>
        <time>2013-09-23T18:29:13.442Z</time>
      </trkpt>
      <trkpt lat="48.85599" lon="2.35632">
        <ele>75</ele>
        <time>2013-09-23T18:29:14.453Z</time>
      </trkpt>
      <trkpt lat="48.85606" lon="2.35635">
        <ele>77.2</ele>
        <time>2013-09-23T18:29:17.443Z</time>
      </trkpt>
      <trkpt lat="48.85608" lon="2.35636">
        <ele>77.4</ele>
        <time>2013-09-23T18:29:18.394Z</time>
      </trkpt>
      <trkpt lat="48.85611" lon="2.35636">
        <ele>75</ele>
        <time>2013-09-23T18:29:25.455Z</time>
      </trkpt>
      <trkpt lat="48.85611" lon="2.35636">
        <ele>76</ele>
        <time>2013-09-23T18:29:26.442Z</time>
      </trkpt>
      <trkpt lat="48.85611" lon="2.35635">
        <ele>76.1</ele>
        <time>2013-09-23T18:29:28.423Z</time>
      </trkpt>
      <trkpt lat="48.85611" lon="2.35635">
        <ele>76.4</ele>
        <time>2013-09-23T18:29:29.438Z</time>
      </trkpt>
      <trkpt lat="48.85614" lon="2.35636">
        <ele>77.5</ele>
        <time>2013-09-23T18:29:41.423Z</time>
      </trkpt>
      <trkpt lat="48.85614" lon="2.35636">
        <ele>77.5</ele>
        <time>2013-09-23T18:29:42.437Z</time>
      </trkpt>
      <trkpt lat="48.85615" lon="2.35636">
        <ele>76.6</ele>
        <time>2013-09-23T18:30:02.443Z</time>
      </trkpt>
      <trkpt lat="48.85615" lon="2.35636">
        <ele>76.6</ele>
        <time>2013-09-23T18:30:03.455Z</time>
      </trkpt>
      <trkpt lat="48.85623" lon="2.35643">
        <ele>75.1</ele>
        <time>2013-09-23T18:30:08.449Z</time>
      </trkpt>
      <trkpt lat="48.85625" lon="2.35644">
        <ele>74.7</ele>
        <time>2013-09-23T18:30:09.441Z</time>
      </trkpt>
      <trkpt lat="48.85633" lon="2.35649">
        <ele>72.4</ele>
        <time>2013-09-23T18:30:12.422Z</time>
      </trkpt>
      <trkpt lat="48.85637" lon="2.35652">
        <ele>71.7</ele>
        <time>2013-09-23T18:30:13.465Z</time>
      </trkpt>
      <trkpt lat="48.85643" lon="2.35656">
        <ele>70.9</ele>
        <time>2013-09-23T18:30:15.455Z</time>
      </trkpt>
      <trkpt lat="48.85646" lon="2.35657">
        <ele>71.2</ele>
        <time>2013-09-23T18:30:16.429Z</time>
      </trkpt>
      <trkpt lat="48.85652" lon="2.35661">
        <ele>70.5</ele>
        <time>2013-09-23T18:30:18.399Z</time>
      </trkpt>
      <trkpt lat="48.85655" lon="2.35662">
        <ele>69.1</ele>
        <time>2013-09-23T18:30:19.469Z</time>
      </trkpt>
      <trkpt lat="48.85663" lon="2.35666">
        <ele>68.8</ele>
        <time>2013-09-23T18:30:22.433Z</time>
      </trkpt>
      <trkpt lat="48.85666" lon="2.35668">
        <ele>68.3</ele>
        <time>2013-09-23T18:30:23.422Z</time>
      </trkpt>
      <trkpt lat="48.85671" lon="2.35673">
        <ele>67.2</ele>
        <time>2013-09-23T18:30:25.443Z</time>
      </trkpt>
      <trkpt lat="48.85673" lon="2.35676">
        <ele>65.9</ele>
        <time>2013-09-23T18:30:26.448Z</time>
      </trkpt>
      <trkpt lat="48.8568" lon="2.35682">
        <ele>68</ele>
        <time>2013-09-23T18:30:28.433Z</time>
      </trkpt>
      <trkpt lat="48.85684" lon="2.35685">
        <ele>67.3</ele>
        <time>2013-09-23T18:30:29.444Z</time>
      </trkpt>
      <trkpt lat="48.85691" lon="2.35691">
        <ele>68.3</ele>
        <time>2013-09-23T18:30:31.432Z</time>
      </trkpt>
      <trkpt lat="48.85694" lon="2.35694">
        <ele>68.1</ele>
        <time>2013-09-23T18:30:32.446Z</time>
      </trkpt>
      <trkpt lat="48.857" lon="2.35702">
        <ele>67.9</ele>
        <time>2013-09-23T18:30:34.434Z</time>
      </trkpt>
      <trkpt lat="48.85703" lon="2.35705">
        <ele>67.3</ele>
        <time>2013-09-23T18:30:35.444Z</time>
      </trkpt>
      <trkpt lat="48.85709" lon="2.35711">
        <ele>65.7</ele>
        <time>2013-09-23T18:30:37.443Z</time>
      </trkpt>
      <trkpt lat="48.85711" lon="2.35713">
        <ele>65</ele>
        <time>2013-09-23T18:30:38.433Z</time>
      </trkpt>
      <trkpt lat="48.85718" lon="2.35719">
        <ele>62.9</ele>
        <time>2013-09-23T18:30:41.435Z</time>
      </trkpt>
      <trkpt lat="48.85721" lon="2.35721">
        <ele>60.9</ele>
        <time>2013-09-23T18:30:42.446Z</time>
      </trkpt>
      <trkpt lat="48.85727" lon="2.35725">
        <ele>60.6</ele>
        <time>2013-09-23T18:30:44.440Z</time>
      </trkpt>
      <trkpt lat="48.85731" lon="2.35728">
        <ele>60.8</ele>
        <time>2013-09-23T18:30:45.448Z</time>
      </trkpt>
      <trkpt lat="48.85739" lon="2.35733">
        <ele>63</ele>
        <time>2013-09-23T18:30:47.447Z</time>
      </trkpt>
      <trkpt lat="48.85743" lon="2.35735">
        <ele>63.2</ele>
        <time>2013-09-23T18:30:48.424Z</time>
      </trkpt>
      <trkpt lat="48.85751" lon="2.35739">
        <ele>62.7</ele>
        <time>2013-09-23T18:30:50.444Z</time>
      </trkpt>
      <trkpt lat="48.85755" lon="2.35741">
        <ele>62.6</ele>
        <time>2013-09-23T18:30:51.444Z</time>
      </trkpt>
      <trkpt lat="48.85762" lon="2.35745">
        <ele>63.4</ele>
        <time>2013-09-23T18:30:53.444Z</time>
      </trkpt>
      <trkpt lat="48.85765" lon="2.35747">
        <ele>63.7</ele>
        <time>2013-09-23T18:30:54.434Z</time>
      </trkpt>
      <trkpt lat="48.85771" lon="2.35751">
        <ele>64.4</ele>
        <time>2013-09-23T18:30:56.443Z</time>
      </trkpt>
      <trkpt lat="48.85775" lon="2.35754">
        <ele>61.7</ele>
        <time>2013-09-23T18:30:57.455Z</time>
      </trkpt>
      <trkpt lat="48.85778" lon="2.35758">
        <ele>59.7</ele>
        <time>2013-09-23T18:30:58.434Z</time>
      </trkpt>
      <trkpt lat="48.85782" lon="2.35763">
        <ele>56.2</ele>
        <time>2013-09-23T18:30:59.426Z</time>
      </trkpt>
      <trkpt lat="48.85786" lon="2.35768">
        <ele>56.4</ele>
        <time>2013-09-23T18:31:00.462Z</time>
      </trkpt>
      <trkpt lat="48.8579" lon="2.35773">
        <ele>56.9</ele>
        <time>2013-09-23T18:31:01.441Z</time>
      </trkpt>
      <trkpt lat="48.85794" lon="2.35777">
        <ele>56.8</ele>
        <time>2013-09-23T18:31:02.422Z</time>
      </trkpt>
      <trkpt lat="48.85798" lon="2.35782">
        <ele>56.5</ele>
        <time>2013-09-23T18:31:03.437Z</time>
      </trkpt>
      <trkpt lat="48.85802" lon="2.35787">
        <ele>56.6</ele>
        <time>2013-09-23T18:31:04.402Z</time>
      </trkpt>
      <trkpt lat="48.85806" lon="2.35791">
        <ele>57</ele>
        <time>2013-09-23T18:31:05.455Z</time>
      </trkpt>
      <trkpt lat="48.8581" lon="2.35795">
        <ele>55.9</ele>
        <time>2013-09-23T18:31:06.497Z</time>
      </trkpt>
      <trkpt lat="48.85813" lon="2.35799">
        <ele>54.4</ele>
        <time>2013-09-23T18:31:07.463Z</time>
      </trkpt>
      <trkpt lat="48.8582" lon="2.35808">
        <ele>53.3</ele>
        <time>2013-09-23T18:31:09.410Z</time>
      </trkpt>
      <trkpt lat="48.85823" lon="2.35812">
        <ele>51.3</ele>
        <time>2013-09-23T18:31:10.466Z</time>
      </trkpt>
      <trkpt lat="48.85829" lon="2.35818">
        <ele>51.6</ele>
        <time>2013-09-23T18:31:12.431Z</time>
      </trkpt>
      <trkpt lat="48.85832" lon="2.35821">
        <ele>51.5</ele>
        <time>2013-09-23T18:31:13.432Z</time>
      </trkpt>
      <trkpt lat="48.85838" lon="2.35829">
        <ele>54.1</ele>
        <time>2013-09-23T18:31:15.433Z</time>
      </trkpt>
      <trkpt lat="48.85841" lon="2.35832">
        <ele>57.6</ele>
        <time>2013-09-23T18:31:16.433Z</time>
      </trkpt>
      <trkpt lat="48.85849" lon="2.35839">
        <ele>58.1</ele>
        <time>2013-09-23T18:31:18.481Z</time>
      </trkpt>
      <trkpt lat="48.85851" lon="2.35842">
        <ele>60.2</ele>
        <time>2013-09-23T18:31:19.439Z</time>
      </trkpt>
      <trkpt lat="48.85857" lon="2.35848">
        <ele>62.2</ele>
        <time>2013-09-23T18:31:22.449Z</time>
      </trkpt>
      <trkpt lat="48.85858" lon="2.3585">
        <ele>63.5</ele>
        <time>2013-09-23T18:31:23.403Z</time>
      </trkpt>
      <trkpt lat="48.85863" lon="2.35857">
        <ele>63.2</ele>
        <time>2013-09-23T18:31:26.443Z</time>
      </trkpt>
      <trkpt lat="48.85865" lon="2.3586">
        <ele>62.6</ele>
        <time>2013-09-23T18:31:27.463Z</time>
      </trkpt>
      <trkpt lat="48.8587" lon="2.35869">
        <ele>62.7</ele>
        <time>2013-09-23T18:31:30.433Z</time>
      </trkpt>
      <trkpt lat="48.85871" lon="2.35872">
        <ele>64.7</ele>
        <time>2013-09-23T18:31:31.449Z</time>
      </trkpt>
      <trkpt lat="48.85877" lon="2.35882">
        <ele>64.5</ele>
        <time>2013-09-23T18:31:34.447Z</time>
      </trkpt>
      <trkpt lat="48.8588" lon="2.35885">
        <ele>64.2</ele>
        <time>2013-09-23T18:31:35.464Z</time>
      </trkpt>
      <trkpt lat="48.85886" lon="2.35892">
        <ele>64.1</ele>
        <time>2013-09-23T18:31:38.436Z</time>
      </trkpt>
      <trkpt lat="48.85888" lon="2.35894">
        <ele>63.9</ele>
        <time>2013-09-23T18:31:39.433Z</time>
      </trkpt>
      <trkpt lat="48.85894" lon="2.35902">
        <ele>64.5</ele>
        <time>2013-09-23T18:31:42.432Z</time>
      </trkpt>
      <trkpt lat="48.85896" lon="2.35906">
        <ele>65.1</ele>
        <time>2013-09-23T18:31:43.445Z</time>
      </trkpt>
      <trkpt lat="48.85901" lon="2.35913">
        <ele>64.5</ele>
        <time>2013-09-23T18:31:45.451Z</time>
      </trkpt>
      <trkpt lat="48.85904" lon="2.35916">
        <ele>64.3</ele>
        <time>2013-09-23T18:31:46.434Z</time>
      </trkpt>
      <trkpt lat="48.8591" lon="2.35923">
        <ele>63.9</ele>
        <time>2013-09-23T18:31:48.443Z</time>
      </trkpt>
      <trkpt lat="48.85913" lon="2.35926">
        <ele>64.1</ele>
        <time>2013-09-23T18:31:49.457Z</time>
      </trkpt>
      <trkpt lat="48.85919" lon="2.35933">
        <ele>64.1</ele>
        <time>2013-09-23T18:31:51.453Z</time>
      </trkpt>
      <trkpt lat="48.85922" lon="2.35937">
        <ele>64.6</ele>
        <time>2013-09-23T18:31:52.433Z</time>
      </trkpt>
      <trkpt lat="48.85928" lon="2.35944">
        <ele>68</ele>
        <time>2013-09-23T18:31:54.496Z</time>
      </trkpt>
      <trkpt lat="48.85931" lon="2.35948">
        <ele>66.5</ele>
        <time>2013-09-23T18:31:55.474Z</time>
      </trkpt>
      <trkpt lat="48.85935" lon="2.35955">
        <ele>66.4</ele>
        <time>2013-09-23T18:31:57.465Z</time>
      </trkpt>
      <trkpt lat="48.85936" lon="2.35959">
        <ele>67.1</ele>
        <time>2013-09-23T18:31:58.443Z</time>
      </trkpt>
      <trkpt lat="48.8594" lon="2.35966">
        <ele>66.8</ele>
        <time>2013-09-23T18:32:00.503Z</time>
      </trkpt>
      <trkpt lat="48.85942" lon="2.35969">
        <ele>68.6</ele>
        <time>2013-09-23T18:32:01.443Z</time>
      </trkpt>
      <trkpt lat="48.85947" lon="2.35977">
        <ele>68.9</ele>
        <time>2013-09-23T18:32:03.446Z</time>
      </trkpt>
      <trkpt lat="48.8595" lon="2.3598">
        <ele>69.1</ele>
        <time>2013-09-23T18:32:04.407Z</time>
      </trkpt>
      <trkpt lat="48.85953" lon="2.35985">
        <ele>68.1</ele>
        <time>2013-09-23T18:32:05.442Z</time>
      </trkpt>
      <trkpt lat="48.85956" lon="2.3599">
        <ele>67.6</ele>
        <time>2013-09-23T18:32:06.454Z</time>
      </trkpt>
      <trkpt lat="48.85959" lon="2.35996">
        <ele>66.5</ele>
        <time>2013-09-23T18:32:07.469Z</time>
      </trkpt>
      <trkpt lat="48.85962" lon="2.36001">
        <ele>64.7</ele>
        <time>2013-09-23T18:32:08.443Z</time>
      </trkpt>
      <trkpt lat="48.85966" lon="2.36007">
        <ele>67.1</ele>
        <time>2013-09-23T18:32:09.441Z</time>
      </trkpt>
      <trkpt lat="48.85969" lon="2.36013">
        <ele>68.5</ele>
        <time>2013-09-23T18:32:10.503Z</time>
      </trkpt>
      <trkpt lat="48.85972" lon="2.36019">
        <ele>69.5</ele>
        <time>2013-09-23T18:32:11.423Z</time>
      </trkpt>
      <trkpt lat="48.85976" lon="2.36024">
        <ele>70.1</ele>
        <time>2013-09-23T18:32:12.443Z</time>
      </trkpt>
      <trkpt lat="48.85979" lon="2.3603">
        <ele>70</ele>
        <time>2013-09-23T18:32:13.456Z</time>
      </trkpt>
      <trkpt lat="48.85982" lon="2.36035">
        <ele>70.4</ele>
        <time>2013-09-23T18:32:14.458Z</time>
      </trkpt>
      <trkpt lat="48.85985" lon="2.36041">
        <ele>71.9</ele>
        <time>2013-09-23T18:32:15.469Z</time>
      </trkpt>
      <trkpt lat="48.85988" lon="2.36046">
        <ele>72.2</ele>
        <time>2013-09-23T18:32:16.443Z</time>
      </trkpt>
      <trkpt lat="48.85991" lon="2.36051">
        <ele>73.7</ele>
        <time>2013-09-23T18:32:17.432Z</time>
      </trkpt>
      <trkpt lat="48.85994" lon="2.36057">
        <ele>72.3</ele>
        <time>2013-09-23T18:32:18.442Z</time>
      </trkpt>
      <trkpt lat="48.85999" lon="2.36067">
        <ele>71.8</ele>
        <time>2013-09-23T18:32:20.436Z</time>
      </trkpt>
      <trkpt lat="48.86001" lon="2.36073">
        <ele>71.4</ele>
        <time>2013-09-23T18:32:21.451Z</time>
      </trkpt>
      <trkpt lat="48.86004" lon="2.36083">
        <ele>71.3</ele>
        <time>2013-09-23T18:32:23.408Z</time>
      </trkpt>
      <trkpt lat="48.86006" lon="2.36088">
        <ele>71.2</ele>
        <time>2013-09-23T18:32:24.447Z</time>
      </trkpt>
      <trkpt lat="48.86011" lon="2.36097">
        <ele>71.2</ele>
        <time>2013-09-23T18:32:26.431Z</time>
      </trkpt>
      <trkpt lat="48.86013" lon="2.36101">
        <ele>72.9</ele>
        <time>2013-09-23T18:32:27.463Z</time>
      </trkpt>
      <trkpt lat="48.8602" lon="2.36111">
        <ele>74.8</ele>
        <time>2013-09-23T18:32:29.457Z</time>
      </trkpt>
      <trkpt lat="48.86023" lon="2.36115">
        <ele>74.8</ele>
        <time>2013-09-23T18:32:30.444Z</time>
      </trkpt>
      <trkpt lat="48.8603" lon="2.36124">
        <ele>73.4</ele>
        <time>2013-09-23T18:32:32.470Z</time>
      </trkpt>
      <trkpt lat="48.86032" lon="2.36128">
        <ele>72.5</ele>
        <time>2013-09-23T18:32:33.409Z</time>
      </trkpt>
      <trkpt lat="48.86038" lon="2.36137">
        <ele>73.4</ele>
        <time>2013-09-23T18:32:35.452Z</time>
      </trkpt>
      <trkpt lat="48.8604" lon="2.36143">
        <ele>74</ele>
        <time>2013-09-23T18:32:36.655Z</time>
      </trkpt>
      <trkpt lat="48.86044" lon="2.36152">
        <ele>76.5</ele>
        <time>2013-09-23T18:32:38.456Z</time>
      </trkpt>
      <trkpt lat="48.86045" lon="2.36157">
        <ele>76.8</ele>
        <time>2013-09-23T18:32:39.456Z</time>
      </trkpt>
      <trkpt lat="48.86048" lon="2.36166">
        <ele>78.8</ele>
        <time>2013-09-23T18:32:41.458Z</time>
      </trkpt>
      <trkpt lat="48.8605" lon="2.3617">
        <ele>79</ele>
        <time>2013-09-23T18:32:42.452Z</time>
      </trkpt>
      <trkpt lat="48.86054" lon="2.36178">
        <ele>78.8</ele>
        <time>2013-09-23T18:32:44.442Z</time>
      </trkpt>
      <trkpt lat="48.86056" lon="2.36181">
        <ele>78.9</ele>
        <time>2013-09-23T18:32:45.463Z</time>
      </trkpt>
      <trkpt lat="48.8606" lon="2.36188">
        <ele>80.3</ele>
        <time>2013-09-23T18:32:47.464Z</time>
      </trkpt>
      <trkpt lat="48.86062" lon="2.36191">
        <ele>79.9</ele>
        <time>2013-09-23T18:32:48.453Z</time>
      </trkpt>
      <trkpt lat="48.86067" lon="2.362">
        <ele>82.7</ele>
        <time>2013-09-23T18:32:52.453Z</time>
      </trkpt>
      <trkpt lat="48.86068" lon="2.36202">
        <ele>84.1</ele>
        <time>2013-09-23T18:32:53.438Z</time>
      </trkpt>
      <trkpt lat="48.86072" lon="2.36211">
        <ele>85.8</ele>
        <time>2013-09-23T18:32:56.453Z</time>
      </trkpt>
      <trkpt lat="48.86074" lon="2.36214">
        <ele>86.2</ele>
        <time>2013-09-23T18:32:57.452Z</time>
      </trkpt>
      <trkpt lat="48.86078" lon="2.36222">
        <ele>85.8</ele>
        <time>2013-09-23T18:32:59.472Z</time>
      </trkpt>
      <trkpt lat="48.8608" lon="2.36227">
        <ele>85.9</ele>
        <time>2013-09-23T18:33:00.483Z</time>
      </trkpt>
      <trkpt lat="48.86085" lon="2.36237">
        <ele>84.2</ele>
        <time>2013-09-23T18:33:02.448Z</time>
      </trkpt>
      <trkpt lat="48.86088" lon="2.36242">
        <ele>84.8</ele>
        <time>2013-09-23T18:33:03.424Z</time>
      </trkpt>
      <trkpt lat="48.86094" lon="2.36252">
        <ele>82.6</ele>
        <time>2013-09-23T18:33:05.447Z</time>
      </trkpt>
      <trkpt lat="48.86097" lon="2.36256">
        <ele>81.8</ele>
        <time>2013-09-23T18:33:06.453Z</time>
      </trkpt>
      <trkpt lat="48.86103" lon="2.36264">
        <ele>79.6</ele>
        <time>2013-09-23T18:33:08.433Z</time>
      </trkpt>
      <trkpt lat="48.86106" lon="2.36268">
        <ele>79.8</ele>
        <time>2013-09-23T18:33:09.468Z</time>
      </trkpt>
      <trkpt lat="48.86111" lon="2.36277">
        <ele>79.2</ele>
        <time>2013-09-23T18:33:11.453Z</time>
      </trkpt>
      <trkpt lat="48.86113" lon="2.36281">
        <ele>79.6</ele>
        <time>2013-09-23T18:33:12.464Z</time>
      </trkpt>
      <trkpt lat="48.86118" lon="2.36291">
        <ele>78.4</ele>
        <time>2013-09-23T18:33:14.463Z</time>
      </trkpt>
      <trkpt lat="48.8612" lon="2.36295">
        <ele>78</ele>
        <time>2013-09-23T18:33:15.424Z</time>
      </trkpt>
      <trkpt lat="48.86124" lon="2.36304">
        <ele>77.1</ele>
        <time>2013-09-23T18:33:17.444Z</time>
      </trkpt>
      <trkpt lat="48.86126" lon="2.36309">
        <ele>75.8</ele>
        <time>2013-09-23T18:33:18.443Z</time>
      </trkpt>
      <trkpt lat="48.86131" lon="2.36318">
        <ele>76.6</ele>
        <time>2013-09-23T18:33:20.443Z</time>
      </trkpt>
      <trkpt lat="48.86133" lon="2.36322">
        <ele>76.9</ele>
        <time>2013-09-23T18:33:21.466Z</time>
      </trkpt>
      <trkpt lat="48.86139" lon="2.36329">
        <ele>79.6</ele>
        <time>2013-09-23T18:33:23.475Z</time>
      </trkpt>
      <trkpt lat="48.86141" lon="2.36332">
        <ele>79.2</ele>
        <time>2013-09-23T18:33:24.455Z</time>
      </trkpt>
      <trkpt lat="48.86149" lon="2.36334">
        <ele>78.6</ele>
        <time>2013-09-23T18:33:27.438Z</time>
      </trkpt>
      <trkpt lat="48.86151" lon="2.36331">
        <ele>77.3</ele>
        <time>2013-09-23T18:33:28.454Z</time>
      </trkpt>
      <trkpt lat="48.86156" lon="2.36321">
        <ele>76.2</ele>
        <time>2013-09-23T18:33:30.452Z</time>
      </trkpt>
      <trkpt lat="48.86158" lon="2.36316">
        <ele>76</ele>
        <time>2013-09-23T18:33:31.442Z</time>
      </trkpt>
      <trkpt lat="48.86164" lon="2.36309">
        <ele>74.3</ele>
        <time>2013-09-23T18:33:33.493Z</time>
      </trkpt>
      <trkpt lat="48.86167" lon="2.36309">
        <ele>74</ele>
        <time>2013-09-23T18:33:34.433Z</time>
      </trkpt>
      <trkpt lat="48.86174" lon="2.36312">
        <ele>74.2</ele>
        <time>2013-09-23T18:33:36.435Z</time>
      </trkpt>
      <trkpt lat="48.86177" lon="2.36315">
        <ele>74.1</ele>
        <time>2013-09-23T18:33:37.445Z</time>
      </trkpt>
      <trkpt lat="48.86183" lon="2.36321">
        <ele>73.4</ele>
        <time>2013-09-23T18:33:39.443Z</time>
      </trkpt>
      <trkpt lat="48.86186" lon="2.36325">
        <ele>73.2</ele>
        <time>2013-09-23T18:33:40.453Z</time>
      </trkpt>
      <trkpt lat="48.86192" lon="2.3633">
        <ele>72.9</ele>
        <time>2013-09-23T18:33:42.455Z</time>
      </trkpt>
      <trkpt lat="48.86194" lon="2.36332">
        <ele>72.6</ele>
        <time>2013-09-23T18:33:43.464Z</time>
      </trkpt>
      <trkpt lat="48.862" lon="2.36337">
        <ele>71.9</ele>
        <time>2013-09-23T18:33:45.443Z</time>
      </trkpt>
      <trkpt lat="48.86203" lon="2.3634">
        <ele>71.8</ele>
        <time>2013-09-23T18:33:46.443Z</time>
      </trkpt>
      <trkpt lat="48.86209" lon="2.36345">
        <ele>70.9</ele>
        <time>2013-09-23T18:33:48.453Z</time>
      </trkpt>
      <trkpt lat="48.86212" lon="2.36347">
        <ele>71.4</ele>
        <time>2013-09-23T18:33:49.514Z</time>
      </trkpt>
      <trkpt lat="48.8622" lon="2.36352">
        <ele>71</ele>
        <time>2013-09-23T18:33:53.442Z</time>
      </trkpt>
      <trkpt lat="48.86222" lon="2.36352">
        <ele>73.1</ele>
        <time>2013-09-23T18:33:54.445Z</time>
      </trkpt>
      <trkpt lat="48.86228" lon="2.36342">
        <ele>74</ele>
        <time>2013-09-23T18:33:59.463Z</time>
      </trkpt>
      <trkpt lat="48.86229" lon="2.36339">
        <ele>73.9</ele>
        <time>2013-09-23T18:34:00.468Z</time>
      </trkpt>
      <trkpt lat="48.86234" lon="2.36329">
        <ele>74</ele>
        <time>2013-09-23T18:34:03.462Z</time>
      </trkpt>
      <trkpt lat="48.86235" lon="2.36325">
        <ele>73.2</ele>
        <time>2013-09-23T18:34:04.418Z</time>
      </trkpt>
      <trkpt lat="48.86238" lon="2.36313">
        <ele>73</ele>
        <time>2013-09-23T18:34:07.445Z</time>
      </trkpt>
      <trkpt lat="48.86239" lon="2.36311">
        <ele>73.1</ele>
        <time>2013-09-23T18:34:08.455Z</time>
      </trkpt>
      <trkpt lat="48.86243" lon="2.363">
        <ele>74.8</ele>
        <time>2013-09-23T18:34:12.464Z</time>
      </trkpt>
      <trkpt lat="48.86244" lon="2.36297">
        <ele>74.4</ele>
        <time>2013-09-23T18:34:13.465Z</time>
      </trkpt>
      <trkpt lat="48.86248" lon="2.36286">
        <ele>73.9</ele>
        <time>2013-09-23T18:34:16.468Z</time>
      </trkpt>
      <trkpt lat="48.8625" lon="2.36283">
        <ele>74.1</ele>
        <time>2013-09-23T18:34:17.469Z</time>
      </trkpt>
      <trkpt lat="48.86255" lon="2.36273">
        <ele>75.9</ele>
        <time>2013-09-23T18:34:20.462Z</time>
      </trkpt>
      <trkpt lat="48.86257" lon="2.3627">
        <ele>76.9</ele>
        <time>2013-09-23T18:34:21.465Z</time>
      </trkpt>
      <trkpt lat="48.86262" lon="2.36262">
        <ele>73.1</ele>
        <time>2013-09-23T18:34:23.452Z</time>
      </trkpt>
      <trkpt lat="48.86264" lon="2.36258">
        <ele>71.7</ele>
        <time>2013-09-23T18:34:24.464Z</time>
      </trkpt>
      <trkpt lat="48.86267" lon="2.36248">
        <ele>69.5</ele>
        <time>2013-09-23T18:34:26.455Z</time>
      </trkpt>
      <trkpt lat="48.86269" lon="2.36243">
        <ele>67.8</ele>
        <time>2013-09-23T18:34:27.463Z</time>
      </trkpt>
      <trkpt lat="48.86271" lon="2.36233">
        <ele>63.5</ele>
        <time>2013-09-23T18:34:29.457Z</time>
      </trkpt>
      <trkpt lat="48.86273" lon="2.36228">
        <ele>62.6</ele>
        <time>2013-09-23T18:34:30.484Z</time>
      </trkpt>
      <trkpt lat="48.86277" lon="2.36218">
        <ele>62.8</ele>
        <time>2013-09-23T18:34:32.466Z</time>
      </trkpt>
      <trkpt lat="48.8628" lon="2.36213">
        <ele>62.8</ele>
        <time>2013-09-23T18:34:33.455Z</time>
      </trkpt>
      <trkpt lat="48.86285" lon="2.36202">
        <ele>61</ele>
        <time>2013-09-23T18:34:35.445Z</time>
      </trkpt>
      <trkpt lat="48.86288" lon="2.36198">
        <ele>59.9</ele>
        <time>2013-09-23T18:34:36.461Z</time>
      </trkpt>
      <trkpt lat="48.86294" lon="2.36189">
        <ele>56.1</ele>
        <time>2013-09-23T18:34:38.474Z</time>
      </trkpt>
      <trkpt lat="48.86297" lon="2.36184">
        <ele>57.1</ele>
        <time>2013-09-23T18:34:39.467Z</time>
      </trkpt>
      <trkpt lat="48.86302" lon="2.36177">
        <ele>54.2</ele>
        <time>2013-09-23T18:34:41.461Z</time>
      </trkpt>
      <trkpt lat="48.86304" lon="2.36175">
        <ele>53.6</ele>
        <time>2013-09-23T18:34:42.444Z</time>
      </trkpt>
      <trkpt lat="48.86311" lon="2.3617">
        <ele>54</ele>
        <time>2013-09-23T18:34:45.473Z</time>
      </trkpt>
      <trkpt lat="48.86313" lon="2.36167">
        <ele>52.2</ele>
        <time>2013-09-23T18:34:46.453Z</time>
      </trkpt>
      <trkpt lat="48.86319" lon="2.36158">
        <ele>54.6</ele>
        <time>2013-09-23T18:34:54.421Z</time>
      </trkpt>
      <trkpt lat="48.86319" lon="2.36158">
        <ele>54.1</ele>
        <time>2013-09-23T18:34:55.473Z</time>
      </trkpt>
      <trkpt lat="48.86319" lon="2.36158">
        <ele>54.5</ele>
        <time>2013-09-23T18:34:57.420Z</time>
      </trkpt>
      <trkpt lat="48.86319" lon="2.36157">
        <ele>60.7</ele>
        <time>2013-09-23T18:34:58.460Z</time>
      </trkpt>
      <trkpt lat="48.86318" lon="2.36157">
        <ele>63.3</ele>
        <time>2013-09-23T18:34:59.473Z</time>
      </trkpt>
      <trkpt lat="48.86324" lon="2.36149">
        <ele>66</ele>
        <time>2013-09-23T18:35:06.453Z</time>
      </trkpt>
      <trkpt lat="48.86326" lon="2.36147">
        <ele>66.2</ele>
        <time>2013-09-23T18:35:07.443Z</time>
      </trkpt>
      <trkpt lat="48.86333" lon="2.36139">
        <ele>65.9</ele>
        <time>2013-09-23T18:35:10.484Z</time>
      </trkpt>
      <trkpt lat="48.86335" lon="2.36136">
        <ele>67.1</ele>
        <time>2013-09-23T18:35:11.457Z</time>
      </trkpt>
      <trkpt lat="48.8634" lon="2.36127">
        <ele>67.2</ele>
        <time>2013-09-23T18:35:13.476Z</time>
      </trkpt>
      <trkpt lat="48.86343" lon="2.36122">
        <ele>65.7</ele>
        <time>2013-09-23T18:35:14.457Z</time>
      </trkpt>
      <trkpt lat="48.86346" lon="2.36117">
        <ele>65.9</ele>
        <time>2013-09-23T18:35:15.512Z</time>
      </trkpt>
      <trkpt lat="48.86349" lon="2.36111">
        <ele>66.2</ele>
        <time>2013-09-23T18:35:16.674Z</time>
      </trkpt>
      <trkpt lat="48.86352" lon="2.36106">
        <ele>67</ele>
        <time>2013-09-23T18:35:17.443Z</time>
      </trkpt>
      <trkpt lat="48.86356" lon="2.36099">
        <ele>67</ele>
        <time>2013-09-23T18:35:18.693Z</time>
      </trkpt>
      <trkpt lat="48.86359" lon="2.36094">
        <ele>66.3</ele>
        <time>2013-09-23T18:35:19.448Z</time>
      </trkpt>
      <trkpt lat="48.86363" lon="2.36087">
        <ele>65.9</ele>
        <time>2013-09-23T18:35:20.633Z</time>
      </trkpt>
      <trkpt lat="48.86367" lon="2.36081">
        <ele>67.1</ele>
        <time>2013-09-23T18:35:21.614Z</time>
      </trkpt>
      <trkpt lat="48.8637" lon="2.36075">
        <ele>67.1</ele>
        <time>2013-09-23T18:35:22.503Z</time>
      </trkpt>
      <trkpt lat="48.86373" lon="2.36069">
        <ele>67.2</ele>
        <time>2013-09-23T18:35:23.433Z</time>
      </trkpt>
      <trkpt lat="48.86376" lon="2.36064">
        <ele>66.6</ele>
        <time>2013-09-23T18:35:24.495Z</time>
      </trkpt>
      <trkpt lat="48.86382" lon="2.36056">
        <ele>66.5</ele>
        <time>2013-09-23T18:35:26.445Z</time>
      </trkpt>
      <trkpt lat="48.86385" lon="2.36053">
        <ele>66.6</ele>
        <time>2013-09-23T18:35:27.484Z</time>
      </trkpt>
      <trkpt lat="48.86389" lon="2.36046">
        <ele>68.1</ele>
        <time>2013-09-23T18:35:29.458Z</time>
      </trkpt>
      <trkpt lat="48.86391" lon="2.36043">
        <ele>68.6</ele>
        <time>2013-09-23T18:35:30.455Z</time>
      </trkpt>
      <trkpt lat="48.86396" lon="2.36037">
        <ele>66.7</ele>
        <time>2013-09-23T18:35:32.465Z</time>
      </trkpt>
      <trkpt lat="48.86398" lon="2.36033">
        <ele>66.8</ele>
        <time>2013-09-23T18:35:33.453Z</time>
      </trkpt>
      <trkpt lat="48.86403" lon="2.36027">
        <ele>66</ele>
        <time>2013-09-23T18:35:35.443Z</time>
      </trkpt>
      <trkpt lat="48.86405" lon="2.36023">
        <ele>66.4</ele>
        <time>2013-09-23T18:35:36.484Z</time>
      </trkpt>
      <trkpt lat="48.8641" lon="2.36016">
        <ele>67.7</ele>
        <time>2013-09-23T18:35:38.463Z</time>
      </trkpt>
      <trkpt lat="48.86412" lon="2.36012">
        <ele>66.7</ele>
        <time>2013-09-23T18:35:39.453Z</time>
      </trkpt>
      <trkpt lat="48.86416" lon="2.36004">
        <ele>67.9</ele>
        <time>2013-09-23T18:35:41.455Z</time>
      </trkpt>
      <trkpt lat="48.86418" lon="2.36">
        <ele>67.1</ele>
        <time>2013-09-23T18:35:42.463Z</time>
      </trkpt>
      <trkpt lat="48.86423" lon="2.35992">
        <ele>67.3</ele>
        <time>2013-09-23T18:35:44.474Z</time>
      </trkpt>
      <trkpt lat="48.86425" lon="2.35989">
        <ele>67.4</ele>
        <time>2013-09-23T18:35:45.492Z</time>
      </trkpt>
      <trkpt lat="48.86431" lon="2.35982">
        <ele>67.7</ele>
        <time>2013-09-23T18:35:47.464Z</time>
      </trkpt>
      <trkpt lat="48.86433" lon="2.35979">
        <ele>67.4</ele>
        <time>2013-09-23T18:35:48.468Z</time>
      </trkpt>
      <trkpt lat="48.8644" lon="2.35972">
        <ele>68.8</ele>
        <time>2013-09-23T18:35:51.465Z</time>
      </trkpt>
      <trkpt lat="48.86442" lon="2.3597">
        <ele>69.9</ele>
        <time>2013-09-23T18:35:52.453Z</time>
      </trkpt>
      <trkpt lat="48.8645" lon="2.35965">
        <ele>73.7</ele>
        <time>2013-09-23T18:35:56.694Z</time>
      </trkpt>
      <trkpt lat="48.86453" lon="2.35965">
        <ele>75.8</ele>
        <time>2013-09-23T18:35:57.495Z</time>
      </trkpt>
      <trkpt lat="48.86459" lon="2.35966">
        <ele>77</ele>
        <time>2013-09-23T18:35:59.479Z</time>
      </trkpt>
      <trkpt lat="48.86464" lon="2.35969">
        <ele>78.2</ele>
        <time>2013-09-23T18:36:00.624Z</time>
      </trkpt>
      <trkpt lat="48.86469" lon="2.35974">
        <ele>79.4</ele>
        <time>2013-09-23T18:36:01.592Z</time>
      </trkpt>
      <trkpt lat="48.86475" lon="2.3598">
        <ele>78.9</ele>
        <time>2013-09-23T18:36:02.545Z</time>
      </trkpt>
      <trkpt lat="48.86481" lon="2.35986">
        <ele>78.3</ele>
        <time>2013-09-23T18:36:03.696Z</time>
      </trkpt>
      <trkpt lat="48.86486" lon="2.35992">
        <ele>80.5</ele>
        <time>2013-09-23T18:36:04.507Z</time>
      </trkpt>
      <trkpt lat="48.86495" lon="2.36002">
        <ele>78.6</ele>
        <time>2013-09-23T18:36:05.625Z</time>
      </trkpt>
      <trkpt lat="48.86502" lon="2.36009">
        <ele>78.4</ele>
        <time>2013-09-23T18:36:06.473Z</time>
      </trkpt>
      <trkpt lat="48.8651" lon="2.36015">
        <ele>78.1</ele>
        <time>2013-09-23T18:36:07.622Z</time>
      </trkpt>
      <trkpt lat="48.86516" lon="2.36019">
        <ele>78.6</ele>
        <time>2013-09-23T18:36:08.583Z</time>
      </trkpt>
      <trkpt lat="48.86521" lon="2.36024">
        <ele>78.4</ele>
        <time>2013-09-23T18:36:09.592Z</time>
      </trkpt>
      <trkpt lat="48.86528" lon="2.36029">
        <ele>80.6</ele>
        <time>2013-09-23T18:36:11.536Z</time>
      </trkpt>
      <trkpt lat="48.86531" lon="2.36031">
        <ele>80.7</ele>
        <time>2013-09-23T18:36:12.674Z</time>
      </trkpt>
      <trkpt lat="48.86537" lon="2.36022">
        <ele>79.3</ele>
        <time>2013-09-23T18:36:15.483Z</time>
      </trkpt>
      <trkpt lat="48.86539" lon="2.36016">
        <ele>79</ele>
        <time>2013-09-23T18:36:16.463Z</time>
      </trkpt>
      <trkpt lat="48.86542" lon="2.36004">
        <ele>79.5</ele>
        <time>2013-09-23T18:36:18.462Z</time>
      </trkpt>
      <trkpt lat="48.86543" lon="2.35998">
        <ele>79.5</ele>
        <time>2013-09-23T18:36:19.481Z</time>
      </trkpt>
      <trkpt lat="48.86545" lon="2.35985">
        <ele>80.4</ele>
        <time>2013-09-23T18:36:21.474Z</time>
      </trkpt>
      <trkpt lat="48.86545" lon="2.35979">
        <ele>81.7</ele>
        <time>2013-09-23T18:36:22.419Z</time>
      </trkpt>
      <trkpt lat="48.86547" lon="2.35967">
        <ele>82</ele>
        <time>2013-09-23T18:36:24.450Z</time>
      </trkpt>
      <trkpt lat="48.86549" lon="2.35961">
        <ele>82.3</ele>
        <time>2013-09-23T18:36:25.485Z</time>
      </trkpt>
      <trkpt lat="48.86552" lon="2.35949">
        <ele>81.3</ele>
        <time>2013-09-23T18:36:27.479Z</time>
      </trkpt>
      <trkpt lat="48.86554" lon="2.35944">
        <ele>80.5</ele>
        <time>2013-09-23T18:36:28.471Z</time>
      </trkpt>
      <trkpt lat="48.86557" lon="2.35933">
        <ele>79.6</ele>
        <time>2013-09-23T18:36:30.468Z</time>
      </trkpt>
      <trkpt lat="48.86559" lon="2.35927">
        <ele>79.7</ele>
        <time>2013-09-23T18:36:31.464Z</time>
      </trkpt>
      <trkpt lat="48.86561" lon="2.35921">
        <ele>79.4</ele>
        <time>2013-09-23T18:36:32.468Z</time>
      </trkpt>
      <trkpt lat="48.86563" lon="2.35915">
        <ele>79.7</ele>
        <time>2013-09-23T18:36:33.498Z</time>
      </trkpt>
      <trkpt lat="48.86565" lon="2.35908">
        <ele>81</ele>
        <time>2013-09-23T18:36:34.476Z</time>
      </trkpt>
      <trkpt lat="48.86567" lon="2.35902">
        <ele>80.6</ele>
        <time>2013-09-23T18:36:35.463Z</time>
      </trkpt>
      <trkpt lat="48.86569" lon="2.35895">
        <ele>80.9</ele>
        <time>2013-09-23T18:36:36.473Z</time>
      </trkpt>
      <trkpt lat="48.86571" lon="2.35889">
        <ele>80.8</ele>
        <time>2013-09-23T18:36:37.483Z</time>
      </trkpt>
      <trkpt lat="48.86573" lon="2.35883">
        <ele>80.2</ele>
        <time>2013-09-23T18:36:38.465Z</time>
      </trkpt>
      <trkpt lat="48.86575" lon="2.35876">
        <ele>79.7</ele>
        <time>2013-09-23T18:36:39.478Z</time>
      </trkpt>
      <trkpt lat="48.86578" lon="2.35864">
        <ele>79.8</ele>
        <time>2013-09-23T18:36:41.490Z</time>
      </trkpt>
      <trkpt lat="48.86579" lon="2.35858">
        <ele>79.1</ele>
        <time>2013-09-23T18:36:42.485Z</time>
      </trkpt>
      <trkpt lat="48.86581" lon="2.35846">
        <ele>78.8</ele>
        <time>2013-09-23T18:36:44.487Z</time>
      </trkpt>
      <trkpt lat="48.86582" lon="2.35841">
        <ele>78.4</ele>
        <time>2013-09-23T18:36:45.472Z</time>
      </trkpt>
      <trkpt lat="48.86584" lon="2.35831">
        <ele>79.2</ele>
        <time>2013-09-23T18:36:47.473Z</time>
      </trkpt>
      <trkpt lat="48.86586" lon="2.35827">
        <ele>79.4</ele>
        <time>2013-09-23T18:36:48.464Z</time>
      </trkpt>
      <trkpt lat="48.86588" lon="2.35816">
        <ele>80.5</ele>
        <time>2013-09-23T18:36:51.473Z</time>
      </trkpt>
      <trkpt lat="48.86588" lon="2.35813">
        <ele>81.6</ele>
        <time>2013-09-23T18:36:52.444Z</time>
      </trkpt>
      <trkpt lat="48.8659" lon="2.35816">
        <ele>84.5</ele>
        <time>2013-09-23T18:37:04.430Z</time>
      </trkpt>
      <trkpt lat="48.8659" lon="2.35816">
        <ele>83.9</ele>
        <time>2013-09-23T18:37:05.494Z</time>
      </trkpt>
      <trkpt lat="48.8659" lon="2.35814">
        <ele>82.8</ele>
        <time>2013-09-23T18:37:07.462Z</time>
      </trkpt>
      <trkpt lat="48.8659" lon="2.35813">
        <ele>81.5</ele>
        <time>2013-09-23T18:37:08.430Z</time>
      </trkpt>
      <trkpt lat="48.86593" lon="2.35806">
        <ele>80.9</ele>
        <time>2013-09-23T18:37:10.473Z</time>
      </trkpt>
      <trkpt lat="48.86595" lon="2.358">
        <ele>79.4</ele>
        <time>2013-09-23T18:37:11.477Z</time>
      </trkpt>
      <trkpt lat="48.86597" lon="2.35794">
        <ele>79.4</ele>
        <time>2013-09-23T18:37:12.484Z</time>
      </trkpt>
      <trkpt lat="48.86598" lon="2.35787">
        <ele>78.3</ele>
        <time>2013-09-23T18:37:13.486Z</time>
      </trkpt>
      <trkpt lat="48.86599" lon="2.3578">
        <ele>77.4</ele>
        <time>2013-09-23T18:37:14.470Z</time>
      </trkpt>
      <trkpt lat="48.866" lon="2.35773">
        <ele>76.1</ele>
        <time>2013-09-23T18:37:15.462Z</time>
      </trkpt>
      <trkpt lat="48.86602" lon="2.35767">
        <ele>76</ele>
        <time>2013-09-23T18:37:16.474Z</time>
      </trkpt>
      <trkpt lat="48.86603" lon="2.3576">
        <ele>75.9</ele>
        <time>2013-09-23T18:37:17.477Z</time>
      </trkpt>
      <trkpt lat="48.86606" lon="2.35748">
        <ele>75.2</ele>
        <time>2013-09-23T18:37:19.460Z</time>
      </trkpt>
      <trkpt lat="48.86608" lon="2.35742">
        <ele>74.8</ele>
        <time>2013-09-23T18:37:20.520Z</time>
      </trkpt>
      <trkpt lat="48.86611" lon="2.35733">
        <ele>75.4</ele>
        <time>2013-09-23T18:37:22.480Z</time>
      </trkpt>
      <trkpt lat="48.86612" lon="2.35729">
        <ele>75.8</ele>
        <time>2013-09-23T18:37:23.434Z</time>
      </trkpt>
      <trkpt lat="48.86618" lon="2.35725">
        <ele>78.4</ele>
        <time>2013-09-23T18:37:26.487Z</time>
      </trkpt>
      <trkpt lat="48.86621" lon="2.35727">
        <ele>78.5</ele>
        <time>2013-09-23T18:37:27.473Z</time>
      </trkpt>
      <trkpt lat="48.86628" lon="2.35734">
        <ele>77.8</ele>
        <time>2013-09-23T18:37:29.475Z</time>
      </trkpt>
      <trkpt lat="48.86632" lon="2.35739">
        <ele>77.5</ele>
        <time>2013-09-23T18:37:30.513Z</time>
      </trkpt>
      <trkpt lat="48.86636" lon="2.35743">
        <ele>77</ele>
        <time>2013-09-23T18:37:31.443Z</time>
      </trkpt>
      <trkpt lat="48.86641" lon="2.35748">
        <ele>75.5</ele>
        <time>2013-09-23T18:37:32.464Z</time>
      </trkpt>
      <trkpt lat="48.86646" lon="2.35751">
        <ele>74.6</ele>
        <time>2013-09-23T18:37:33.476Z</time>
      </trkpt>
      <trkpt lat="48.86651" lon="2.35755">
        <ele>73.8</ele>
        <time>2013-09-23T18:37:34.486Z</time>
      </trkpt>
      <trkpt lat="48.86656" lon="2.35757">
        <ele>73.1</ele>
        <time>2013-09-23T18:37:35.493Z</time>
      </trkpt>
      <trkpt lat="48.8666" lon="2.3576">
        <ele>74.8</ele>
        <time>2013-09-23T18:37:36.478Z</time>
      </trkpt>
      <trkpt lat="48.86664" lon="2.35763">
        <ele>73.6</ele>
        <time>2013-09-23T18:37:37.473Z</time>
      </trkpt>
      <trkpt lat="48.86671" lon="2.35765">
        <ele>72.9</ele>
        <time>2013-09-23T18:37:38.463Z</time>
      </trkpt>
      <trkpt lat="48.86677" lon="2.35768">
        <ele>72.5</ele>
        <time>2013-09-23T18:37:39.484Z</time>
      </trkpt>
      <trkpt lat="48.86682" lon="2.35771">
        <ele>72.2</ele>
        <time>2013-09-23T18:37:40.493Z</time>
      </trkpt>
      <trkpt lat="48.86687" lon="2.35773">
        <ele>72.2</ele>
        <time>2013-09-23T18:37:41.463Z</time>
      </trkpt>
      <trkpt lat="48.86691" lon="2.35776">
        <ele>72.3</ele>
        <time>2013-09-23T18:37:42.464Z</time>
      </trkpt>
      <trkpt lat="48.86698" lon="2.35775">
        <ele>71.1</ele>
        <time>2013-09-23T18:37:43.452Z</time>
      </trkpt>
      <trkpt lat="48.86704" lon="2.35774">
        <ele>72.1</ele>
        <time>2013-09-23T18:37:44.461Z</time>
      </trkpt>
      <trkpt lat="48.8671" lon="2.35772">
        <ele>72.4</ele>
        <time>2013-09-23T18:37:45.463Z</time>
      </trkpt>
      <trkpt lat="48.86716" lon="2.35768">
        <ele>72.7</ele>
        <time>2013-09-23T18:37:46.473Z</time>
      </trkpt>
      <trkpt lat="48.86721" lon="2.35761">
        <ele>73</ele>
        <time>2013-09-23T18:37:47.458Z</time>
      </trkpt>
      <trkpt lat="48.86725" lon="2.35754">
        <ele>73</ele>
        <time>2013-09-23T18:37:48.462Z</time>
      </trkpt>
      <trkpt lat="48.86727" lon="2.35746">
        <ele>72.4</ele>
        <time>2013-09-23T18:37:49.474Z</time>
      </trkpt>
      <trkpt lat="48.86728" lon="2.35738">
        <ele>72.7</ele>
        <time>2013-09-23T18:37:50.494Z</time>
      </trkpt>
      <trkpt lat="48.8673" lon="2.35729">
        <ele>73.3</ele>
        <time>2013-09-23T18:37:51.453Z</time>
      </trkpt>
      <trkpt lat="48.8673" lon="2.35719">
        <ele>73.7</ele>
        <time>2013-09-23T18:37:52.461Z</time>
      </trkpt>
      <trkpt lat="48.86729" lon="2.3571">
        <ele>73.6</ele>
        <time>2013-09-23T18:37:53.473Z</time>
      </trkpt>
      <trkpt lat="48.86729" lon="2.357">
        <ele>73.5</ele>
        <time>2013-09-23T18:37:54.531Z</time>
      </trkpt>
      <trkpt lat="48.86729" lon="2.35692">
        <ele>73.6</ele>
        <time>2013-09-23T18:37:55.463Z</time>
      </trkpt>
      <trkpt lat="48.8673" lon="2.35684">
        <ele>74</ele>
        <time>2013-09-23T18:37:56.452Z</time>
      </trkpt>
      <trkpt lat="48.86728" lon="2.35675">
        <ele>72.8</ele>
        <time>2013-09-23T18:37:57.463Z</time>
      </trkpt>
      <trkpt lat="48.86728" lon="2.35668">
        <ele>72.8</ele>
        <time>2013-09-23T18:37:58.456Z</time>
      </trkpt>
      <trkpt lat="48.86728" lon="2.3566">
        <ele>72.6</ele>
        <time>2013-09-23T18:37:59.485Z</time>
      </trkpt>
      <trkpt lat="48.8673" lon="2.35654">
        <ele>71.5</ele>
        <time>2013-09-23T18:38:00.454Z</time>
      </trkpt>
      <trkpt lat="48.86733" lon="2.35641">
        <ele>70.2</ele>
        <time>2013-09-23T18:38:02.465Z</time>
      </trkpt>
      <trkpt lat="48.86735" lon="2.35633">
        <ele>69.7</ele>
        <time>2013-09-23T18:38:03.472Z</time>
      </trkpt>
      <trkpt lat="48.86736" lon="2.35625">
        <ele>69.5</ele>
        <time>2013-09-23T18:38:04.484Z</time>
      </trkpt>
      <trkpt lat="48.86738" lon="2.35619">
        <ele>67.3</ele>
        <time>2013-09-23T18:38:05.463Z</time>
      </trkpt>
      <trkpt lat="48.86743" lon="2.35611">
        <ele>58.1</ele>
        <time>2013-09-23T18:38:07.473Z</time>
      </trkpt>
      <trkpt lat="48.86744" lon="2.35607">
        <ele>56.5</ele>
        <time>2013-09-23T18:38:08.434Z</time>
      </trkpt>
      <trkpt lat="48.86746" lon="2.35596">
        <ele>52.1</ele>
        <time>2013-09-23T18:38:10.470Z</time>
      </trkpt>
      <trkpt lat="48.86747" lon="2.35589">
        <ele>51.8</ele>
        <time>2013-09-23T18:38:11.473Z</time>
      </trkpt>
      <trkpt lat="48.86748" lon="2.35581">
        <ele>51.2</ele>
        <time>2013-09-23T18:38:12.474Z</time>
      </trkpt>
      <trkpt lat="48.8675" lon="2.35573">
        <ele>50.8</ele>
        <time>2013-09-23T18:38:13.474Z</time>
      </trkpt>
      <trkpt lat="48.86751" lon="2.35565">
        <ele>50.4</ele>
        <time>2013-09-23T18:38:14.444Z</time>
      </trkpt>
      <trkpt lat="48.86754" lon="2.35558">
        <ele>48.4</ele>
        <time>2013-09-23T18:38:15.485Z</time>
      </trkpt>
      <trkpt lat="48.86756" lon="2.35552">
        <ele>45.2</ele>
        <time>2013-09-23T18:38:16.463Z</time>
      </trkpt>
      <trkpt lat="48.86757" lon="2.35546">
        <ele>44.9</ele>
        <time>2013-09-23T18:38:17.473Z</time>
      </trkpt>
      <trkpt lat="48.8676" lon="2.35533">
        <ele>44.3</ele>
        <time>2013-09-23T18:38:19.480Z</time>
      </trkpt>
      <trkpt lat="48.86761" lon="2.35527">
        <ele>44.8</ele>
        <time>2013-09-23T18:38:20.462Z</time>
      </trkpt>
      <trkpt lat="48.86763" lon="2.35517">
        <ele>44.6</ele>
        <time>2013-09-23T18:38:22.463Z</time>
      </trkpt>
      <trkpt lat="48.86764" lon="2.35512">
        <ele>43.9</ele>
        <time>2013-09-23T18:38:23.439Z</time>
      </trkpt>
      <trkpt lat="48.86766" lon="2.35501">
        <ele>45.7</ele>
        <time>2013-09-23T18:38:26.485Z</time>
      </trkpt>
      <trkpt lat="48.86767" lon="2.35497">
        <ele>47.4</ele>
        <time>2013-09-23T18:38:27.503Z</time>
      </trkpt>
      <trkpt lat="48.86775" lon="2.35499">
        <ele>51.3</ele>
        <time>2013-09-23T18:38:31.476Z</time>
      </trkpt>
      <trkpt lat="48.86776" lon="2.35501">
        <ele>53</ele>
        <time>2013-09-23T18:38:32.472Z</time>
      </trkpt>
      <trkpt lat="48.86784" lon="2.35507">
        <ele>59.1</ele>
        <time>2013-09-23T18:38:37.475Z</time>
      </trkpt>
      <trkpt lat="48.86785" lon="2.35508">
        <ele>59.8</ele>
        <time>2013-09-23T18:38:38.437Z</time>
      </trkpt>
      <trkpt lat="48.86792" lon="2.355">
        <ele>71.2</ele>
        <time>2013-09-23T18:38:50.469Z</time>
      </trkpt>
      <trkpt lat="48.86792" lon="2.35497">
        <ele>71.3</ele>
        <time>2013-09-23T18:38:51.500Z</time>
      </trkpt>
      <trkpt lat="48.86793" lon="2.35485">
        <ele>67.9</ele>
        <time>2013-09-23T18:38:54.549Z</time>
      </trkpt>
      <trkpt lat="48.86794" lon="2.3548">
        <ele>67.5</ele>
        <time>2013-09-23T18:38:55.474Z</time>
      </trkpt>
      <trkpt lat="48.86795" lon="2.35469">
        <ele>67.9</ele>
        <time>2013-09-23T18:38:57.483Z</time>
      </trkpt>
      <trkpt lat="48.86795" lon="2.35462">
        <ele>67.3</ele>
        <time>2013-09-23T18:38:58.463Z</time>
      </trkpt>
      <trkpt lat="48.86794" lon="2.35449">
        <ele>68.3</ele>
        <time>2013-09-23T18:39:00.504Z</time>
      </trkpt>
      <trkpt lat="48.86793" lon="2.35443">
        <ele>67.9</ele>
        <time>2013-09-23T18:39:01.499Z</time>
      </trkpt>
      <trkpt lat="48.86794" lon="2.35431">
        <ele>68.6</ele>
        <time>2013-09-23T18:39:03.485Z</time>
      </trkpt>
      <trkpt lat="48.86795" lon="2.35425">
        <ele>68.4</ele>
        <time>2013-09-23T18:39:04.442Z</time>
      </trkpt>
      <trkpt lat="48.86796" lon="2.35418">
        <ele>68.2</ele>
        <time>2013-09-23T18:39:05.523Z</time>
      </trkpt>
      <trkpt lat="48.86798" lon="2.35412">
        <ele>68.5</ele>
        <time>2013-09-23T18:39:06.455Z</time>
      </trkpt>
      <trkpt lat="48.86801" lon="2.35406">
        <ele>68.7</ele>
        <time>2013-09-23T18:39:07.478Z</time>
      </trkpt>
      <trkpt lat="48.86804" lon="2.354">
        <ele>68.8</ele>
        <time>2013-09-23T18:39:08.484Z</time>
      </trkpt>
      <trkpt lat="48.86806" lon="2.35394">
        <ele>69.8</ele>
        <time>2013-09-23T18:39:09.441Z</time>
      </trkpt>
      <trkpt lat="48.86809" lon="2.35389">
        <ele>69.1</ele>
        <time>2013-09-23T18:39:10.503Z</time>
      </trkpt>
      <trkpt lat="48.86814" lon="2.3538">
        <ele>70</ele>
        <time>2013-09-23T18:39:12.479Z</time>
      </trkpt>
      <trkpt lat="48.86815" lon="2.35376">
        <ele>71.1</ele>
        <time>2013-09-23T18:39:13.484Z</time>
      </trkpt>
      <trkpt lat="48.8682" lon="2.35367">
        <ele>80</ele>
        <time>2013-09-23T18:39:17.486Z</time>
      </trkpt>
      <trkpt lat="48.86821" lon="2.35366">
        <ele>79.6</ele>
        <time>2013-09-23T18:39:18.474Z</time>
      </trkpt>
      <trkpt lat="48.86829" lon="2.35368">
        <ele>83</ele>
        <time>2013-09-23T18:39:21.483Z</time>
      </trkpt>
      <trkpt lat="48.86832" lon="2.35371">
        <ele>83.8</ele>
        <time>2013-09-23T18:39:22.485Z</time>
      </trkpt>
      <trkpt lat="48.86839" lon="2.35377">
        <ele>83.2</ele>
        <time>2013-09-23T18:39:24.484Z</time>
      </trkpt>
      <trkpt lat="48.86843" lon="2.35379">
        <ele>84.2</ele>
        <time>2013-09-23T18:39:25.483Z</time>
      </trkpt>
      <trkpt lat="48.8685" lon="2.35382">
        <ele>83.8</ele>
        <time>2013-09-23T18:39:27.484Z</time>
      </trkpt>
      <trkpt lat="48.86854" lon="2.35384">
        <ele>84</ele>
        <time>2013-09-23T18:39:28.475Z</time>
      </trkpt>
      <trkpt lat="48.86861" lon="2.35389">
        <ele>84</ele>
        <time>2013-09-23T18:39:30.463Z</time>
      </trkpt>
      <trkpt lat="48.86866" lon="2.35392">
        <ele>84.6</ele>
        <time>2013-09-23T18:39:31.501Z</time>
      </trkpt>
      <trkpt lat="48.86874" lon="2.35397">
        <ele>85</ele>
        <time>2013-09-23T18:39:33.496Z</time>
      </trkpt>
      <trkpt lat="48.86878" lon="2.35399">
        <ele>86.4</ele>
        <time>2013-09-23T18:39:34.491Z</time>
      </trkpt>
      <trkpt lat="48.86886" lon="2.35403">
        <ele>85.3</ele>
        <time>2013-09-23T18:39:36.464Z</time>
      </trkpt>
      <trkpt lat="48.8689" lon="2.35404">
        <ele>86.8</ele>
        <time>2013-09-23T18:39:37.479Z</time>
      </trkpt>
      <trkpt lat="48.86898" lon="2.35407">
        <ele>86</ele>
        <time>2013-09-23T18:39:39.555Z</time>
      </trkpt>
      <trkpt lat="48.86901" lon="2.35408">
        <ele>84.6</ele>
        <time>2013-09-23T18:39:40.491Z</time>
      </trkpt>
      <trkpt lat="48.86907" lon="2.35409">
        <ele>84.8</ele>
        <time>2013-09-23T18:39:42.483Z</time>
      </trkpt>
      <trkpt lat="48.86911" lon="2.35409">
        <ele>84.4</ele>
        <time>2013-09-23T18:39:43.487Z</time>
      </trkpt>
      <trkpt lat="48.86917" lon="2.35411">
        <ele>85.3</ele>
        <time>2013-09-23T18:39:45.462Z</time>
      </trkpt>
      <trkpt lat="48.86921" lon="2.35413">
        <ele>85.6</ele>
        <time>2013-09-23T18:39:46.674Z</time>
      </trkpt>
      <trkpt lat="48.86928" lon="2.35419">
        <ele>85.9</ele>
        <time>2013-09-23T18:39:48.644Z</time>
      </trkpt>
      <trkpt lat="48.86932" lon="2.35422">
        <ele>85.7</ele>
        <time>2013-09-23T18:39:49.504Z</time>
      </trkpt>
      <trkpt lat="48.86939" lon="2.35427">
        <ele>85.3</ele>
        <time>2013-09-23T18:39:51.490Z</time>
      </trkpt>
      <trkpt lat="48.86943" lon="2.35429">
        <ele>86.4</ele>
        <time>2013-09-23T18:39:52.471Z</time>
      </trkpt>
      <trkpt lat="48.86951" lon="2.35434">
        <ele>89.1</ele>
        <time>2013-09-23T18:39:54.544Z</time>
      </trkpt>
      <trkpt lat="48.86955" lon="2.35437">
        <ele>89.4</ele>
        <time>2013-09-23T18:39:55.494Z</time>
      </trkpt>
      <trkpt lat="48.8696" lon="2.35439">
        <ele>89.6</ele>
        <time>2013-09-23T18:39:56.466Z</time>
      </trkpt>
      <trkpt lat="48.86964" lon="2.35442">
        <ele>90.8</ele>
        <time>2013-09-23T18:39:57.443Z</time>
      </trkpt>
      <trkpt lat="48.86969" lon="2.35445">
        <ele>90.5</ele>
        <time>2013-09-23T18:39:58.472Z</time>
      </trkpt>
      <trkpt lat="48.86973" lon="2.35448">
        <ele>90.4</ele>
        <time>2013-09-23T18:39:59.486Z</time>
      </trkpt>
      <trkpt lat="48.86978" lon="2.3545">
        <ele>90.1</ele>
        <time>2013-09-23T18:40:00.472Z</time>
      </trkpt>
      <trkpt lat="48.86983" lon="2.35453">
        <ele>90.1</ele>
        <time>2013-09-23T18:40:01.473Z</time>
      </trkpt>
      <trkpt lat="48.86988" lon="2.35456">
        <ele>90.7</ele>
        <time>2013-09-23T18:40:02.480Z</time>
      </trkpt>
      <trkpt lat="48.86993" lon="2.35459">
        <ele>91.4</ele>
        <time>2013-09-23T18:40:03.483Z</time>
      </trkpt>
      <trkpt lat="48.86998" lon="2.35461">
        <ele>90.8</ele>
        <time>2013-09-23T18:40:04.469Z</time>
      </trkpt>
      <trkpt lat="48.87003" lon="2.35464">
        <ele>91.2</ele>
        <time>2013-09-23T18:40:05.484Z</time>
      </trkpt>
      <trkpt lat="48.87011" lon="2.35468">
        <ele>90.8</ele>
        <time>2013-09-23T18:40:07.483Z</time>
      </trkpt>
      <trkpt lat="48.87016" lon="2.35472">
        <ele>91</ele>
        <time>2013-09-23T18:40:08.485Z</time>
      </trkpt>
      <trkpt lat="48.87021" lon="2.35475">
        <ele>91.1</ele>
        <time>2013-09-23T18:40:09.444Z</time>
      </trkpt>
      <trkpt lat="48.87025" lon="2.35479">
        <ele>90.7</ele>
        <time>2013-09-23T18:40:10.493Z</time>
      </trkpt>
      <trkpt lat="48.87032" lon="2.35483">
        <ele>90.4</ele>
        <time>2013-09-23T18:40:12.478Z</time>
      </trkpt>
      <trkpt lat="48.87036" lon="2.35485">
        <ele>91</ele>
        <time>2013-09-23T18:40:13.481Z</time>
      </trkpt>
      <trkpt lat="48.87044" lon="2.35489">
        <ele>95.7</ele>
        <time>2013-09-23T18:40:16.523Z</time>
      </trkpt>
      <trkpt lat="48.87046" lon="2.3549">
        <ele>95.8</ele>
        <time>2013-09-23T18:40:17.495Z</time>
      </trkpt>
      <trkpt lat="48.87054" lon="2.35493">
        <ele>97</ele>
        <time>2013-09-23T18:40:21.495Z</time>
      </trkpt>
      <trkpt lat="48.87055" lon="2.35494">
        <ele>96.7</ele>
        <time>2013-09-23T18:40:22.664Z</time>
      </trkpt>
      <trkpt lat="48.87056" lon="2.35494">
        <ele>95.4</ele>
        <time>2013-09-23T18:40:26.486Z</time>
      </trkpt>
      <trkpt lat="48.87055" lon="2.35494">
        <ele>95.9</ele>
        <time>2013-09-23T18:40:27.483Z</time>
      </trkpt>
      <trkpt lat="48.87055" lon="2.35493">
        <ele>96</ele>
        <time>2013-09-23T18:40:28.482Z</time>
      </trkpt>
      <trkpt lat="48.87054" lon="2.35493">
        <ele>96</ele>
        <time>2013-09-23T18:40:29.497Z</time>
      </trkpt>
      <trkpt lat="48.87054" lon="2.35493">
        <ele>96.5</ele>
        <time>2013-09-23T18:40:31.475Z</time>
      </trkpt>
      <trkpt lat="48.87054" lon="2.35494">
        <ele>96.4</ele>
        <time>2013-09-23T18:40:32.513Z</time>
      </trkpt>
      <trkpt lat="48.87053" lon="2.35494">
        <ele>98.3</ele>
        <time>2013-09-23T18:40:41.486Z</time>
      </trkpt>
      <trkpt lat="48.87054" lon="2.35492">
        <ele>98.5</ele>
        <time>2013-09-23T18:40:42.472Z</time>
      </trkpt>
      <trkpt lat="48.87056" lon="2.35482">
        <ele>89</ele>
        <time>2013-09-23T18:40:45.472Z</time>
      </trkpt>
      <trkpt lat="48.87057" lon="2.35478">
        <ele>87.4</ele>
        <time>2013-09-23T18:40:46.502Z</time>
      </trkpt>
      <trkpt lat="48.87061" lon="2.35468">
        <ele>82.4</ele>
        <time>2013-09-23T18:40:49.448Z</time>
      </trkpt>
      <trkpt lat="48.87062" lon="2.35465">
        <ele>80.8</ele>
        <time>2013-09-23T18:40:50.463Z</time>
      </trkpt>
      <trkpt lat="48.87065" lon="2.35456">
        <ele>79.6</ele>
        <time>2013-09-23T18:40:52.519Z</time>
      </trkpt>
      <trkpt lat="48.87066" lon="2.35451">
        <ele>79.1</ele>
        <time>2013-09-23T18:40:53.494Z</time>
      </trkpt>
      <trkpt lat="48.87068" lon="2.35444">
        <ele>79.1</ele>
        <time>2013-09-23T18:40:54.491Z</time>
      </trkpt>
      <trkpt lat="48.87069" lon="2.35437">
        <ele>80.2</ele>
        <time>2013-09-23T18:40:55.473Z</time>
      </trkpt>
      <trkpt lat="48.87071" lon="2.3543">
        <ele>80</ele>
        <time>2013-09-23T18:40:56.484Z</time>
      </trkpt>
      <trkpt lat="48.87073" lon="2.35424">
        <ele>80.1</ele>
        <time>2013-09-23T18:40:57.484Z</time>
      </trkpt>
      <trkpt lat="48.87075" lon="2.35417">
        <ele>79.3</ele>
        <time>2013-09-23T18:40:58.493Z</time>
      </trkpt>
      <trkpt lat="48.87077" lon="2.35411">
        <ele>81.2</ele>
        <time>2013-09-23T18:40:59.478Z</time>
      </trkpt>
      <trkpt lat="48.87078" lon="2.35404">
        <ele>81.1</ele>
        <time>2013-09-23T18:41:00.505Z</time>
      </trkpt>
      <trkpt lat="48.87079" lon="2.35395">
        <ele>80.3</ele>
        <time>2013-09-23T18:41:01.494Z</time>
      </trkpt>
      <trkpt lat="48.87081" lon="2.35386">
        <ele>80.1</ele>
        <time>2013-09-23T18:41:02.473Z</time>
      </trkpt>
      <trkpt lat="48.87082" lon="2.35377">
        <ele>82</ele>
        <time>2013-09-23T18:41:03.491Z</time>
      </trkpt>
      <trkpt lat="48.87083" lon="2.35369">
        <ele>82.2</ele>
        <time>2013-09-23T18:41:04.522Z</time>
      </trkpt>
      <trkpt lat="48.87085" lon="2.35363">
        <ele>82</ele>
        <time>2013-09-23T18:41:05.503Z</time>
      </trkpt>
      <trkpt lat="48.87087" lon="2.35357">
        <ele>82.7</ele>
        <time>2013-09-23T18:41:06.509Z</time>
      </trkpt>
      <trkpt lat="48.8709" lon="2.35351">
        <ele>82.5</ele>
        <time>2013-09-23T18:41:07.493Z</time>
      </trkpt>
      <trkpt lat="48.87094" lon="2.35339">
        <ele>84</ele>
        <time>2013-09-23T18:41:09.450Z</time>
      </trkpt>
      <trkpt lat="48.87093" lon="2.35335">
        <ele>84.4</ele>
        <time>2013-09-23T18:41:10.482Z</time>
      </trkpt>
      <trkpt lat="48.87092" lon="2.35322">
        <ele>82.2</ele>
        <time>2013-09-23T18:41:12.462Z</time>
      </trkpt>
      <trkpt lat="48.87093" lon="2.35316">
        <ele>82.6</ele>
        <time>2013-09-23T18:41:13.524Z</time>
      </trkpt>
      <trkpt lat="48.87096" lon="2.35305">
        <ele>81.6</ele>
        <time>2013-09-23T18:41:15.503Z</time>
      </trkpt>
      <trkpt lat="48.87097" lon="2.35299">
        <ele>80.9</ele>
        <time>2013-09-23T18:41:16.482Z</time>
      </trkpt>
      <trkpt lat="48.871" lon="2.35288">
        <ele>79</ele>
        <time>2013-09-23T18:41:18.494Z</time>
      </trkpt>
      <trkpt lat="48.87102" lon="2.35282">
        <ele>79.3</ele>
        <time>2013-09-23T18:41:19.492Z</time>
      </trkpt>
      <trkpt lat="48.87103" lon="2.35275">
        <ele>79.9</ele>
        <time>2013-09-23T18:41:20.494Z</time>
      </trkpt>
      <trkpt lat="48.87106" lon="2.35268">
        <ele>79.6</ele>
        <time>2013-09-23T18:41:21.484Z</time>
      </trkpt>
      <trkpt lat="48.87108" lon="2.35262">
        <ele>78.3</ele>
        <time>2013-09-23T18:41:22.493Z</time>
      </trkpt>
      <trkpt lat="48.8711" lon="2.35255">
        <ele>77.8</ele>
        <time>2013-09-23T18:41:23.503Z</time>
      </trkpt>
      <trkpt lat="48.87111" lon="2.35248">
        <ele>77.3</ele>
        <time>2013-09-23T18:41:24.505Z</time>
      </trkpt>
      <trkpt lat="48.87113" lon="2.35241">
        <ele>77.6</ele>
        <time>2013-09-23T18:41:25.507Z</time>
      </trkpt>
      <trkpt lat="48.87113" lon="2.35229">
        <ele>77.9</ele>
        <time>2013-09-23T18:41:27.483Z</time>
      </trkpt>
      <trkpt lat="48.87114" lon="2.35222">
        <ele>78</ele>
        <time>2013-09-23T18:41:28.491Z</time>
      </trkpt>
      <trkpt lat="48.87116" lon="2.3521">
        <ele>77.8</ele>
        <time>2013-09-23T18:41:30.482Z</time>
      </trkpt>
      <trkpt lat="48.87117" lon="2.35204">
        <ele>77.1</ele>
        <time>2013-09-23T18:41:31.463Z</time>
      </trkpt>
      <trkpt lat="48.87119" lon="2.35191">
        <ele>77</ele>
        <time>2013-09-23T18:41:33.483Z</time>
      </trkpt>
      <trkpt lat="48.87121" lon="2.35185">
        <ele>77.2</ele>
        <time>2013-09-23T18:41:34.472Z</time>
      </trkpt>
      <trkpt lat="48.87123" lon="2.35178">
        <ele>77.5</ele>
        <time>2013-09-23T18:41:35.484Z</time>
      </trkpt>
      <trkpt lat="48.87125" lon="2.35171">
        <ele>77.9</ele>
        <time>2013-09-23T18:41:36.480Z</time>
      </trkpt>
      <trkpt lat="48.87127" lon="2.35158">
        <ele>79.6</ele>
        <time>2013-09-23T18:41:38.494Z</time>
      </trkpt>
      <trkpt lat="48.87129" lon="2.35152">
        <ele>79.6</ele>
        <time>2013-09-23T18:41:39.495Z</time>
      </trkpt>
      <trkpt lat="48.87131" lon="2.35146">
        <ele>79.8</ele>
        <time>2013-09-23T18:41:40.483Z</time>
      </trkpt>
      <trkpt lat="48.87133" lon="2.35139">
        <ele>80.6</ele>
        <time>2013-09-23T18:41:41.483Z</time>
      </trkpt>
      <trkpt lat="48.87134" lon="2.35131">
        <ele>81.1</ele>
        <time>2013-09-23T18:41:42.494Z</time>
      </trkpt>
      <trkpt lat="48.87136" lon="2.35125">
        <ele>81.3</ele>
        <time>2013-09-23T18:41:43.483Z</time>
      </trkpt>
      <trkpt lat="48.87139" lon="2.35117">
        <ele>81.6</ele>
        <time>2013-09-23T18:41:44.508Z</time>
      </trkpt>
      <trkpt lat="48.87144" lon="2.35109">
        <ele>81.9</ele>
        <time>2013-09-23T18:41:45.514Z</time>
      </trkpt>
      <trkpt lat="48.87148" lon="2.35102">
        <ele>82</ele>
        <time>2013-09-23T18:41:46.495Z</time>
      </trkpt>
      <trkpt lat="48.87151" lon="2.35095">
        <ele>82.3</ele>
        <time>2013-09-23T18:41:47.493Z</time>
      </trkpt>
      <trkpt lat="48.87153" lon="2.35087">
        <ele>82.2</ele>
        <time>2013-09-23T18:41:48.482Z</time>
      </trkpt>
      <trkpt lat="48.87155" lon="2.35079">
        <ele>82.4</ele>
        <time>2013-09-23T18:41:49.522Z</time>
      </trkpt>
      <trkpt lat="48.87155" lon="2.3507">
        <ele>82.3</ele>
        <time>2013-09-23T18:41:50.467Z</time>
      </trkpt>
      <trkpt lat="48.87156" lon="2.35062">
        <ele>81.7</ele>
        <time>2013-09-23T18:41:51.493Z</time>
      </trkpt>
      <trkpt lat="48.87157" lon="2.35054">
        <ele>82.3</ele>
        <time>2013-09-23T18:41:52.483Z</time>
      </trkpt>
      <trkpt lat="48.87158" lon="2.35047">
        <ele>82.3</ele>
        <time>2013-09-23T18:41:53.474Z</time>
      </trkpt>
      <trkpt lat="48.8716" lon="2.35035">
        <ele>81.7</ele>
        <time>2013-09-23T18:41:55.499Z</time>
      </trkpt>
      <trkpt lat="48.87162" lon="2.35029">
        <ele>81.5</ele>
        <time>2013-09-23T18:41:56.483Z</time>
      </trkpt>
      <trkpt lat="48.87162" lon="2.35018">
        <ele>81.3</ele>
        <time>2013-09-23T18:41:58.519Z</time>
      </trkpt>
      <trkpt lat="48.87161" lon="2.35013">
        <ele>81.6</ele>
        <time>2013-09-23T18:41:59.501Z</time>
      </trkpt>
      <trkpt lat="48.87162" lon="2.35002">
        <ele>81.2</ele>
        <time>2013-09-23T18:42:01.491Z</time>
      </trkpt>
      <trkpt lat="48.87162" lon="2.34996">
        <ele>81.5</ele>
        <time>2013-09-23T18:42:02.492Z</time>
      </trkpt>
      <trkpt lat="48.87163" lon="2.34985">
        <ele>80.6</ele>
        <time>2013-09-23T18:42:04.461Z</time>
      </trkpt>
      <trkpt lat="48.87163" lon="2.34978">
        <ele>80.8</ele>
        <time>2013-09-23T18:42:05.514Z</time>
      </trkpt>
      <trkpt lat="48.87166" lon="2.34969">
        <ele>80.9</ele>
        <time>2013-09-23T18:42:07.514Z</time>
      </trkpt>
      <trkpt lat="48.87169" lon="2.34966">
        <ele>81</ele>
        <time>2013-09-23T18:42:08.524Z</time>
      </trkpt>
      <trkpt lat="48.87177" lon="2.34963">
        <ele>80.4</ele>
        <time>2013-09-23T18:42:10.515Z</time>
      </trkpt>
      <trkpt lat="48.87181" lon="2.34963">
        <ele>80.1</ele>
        <time>2013-09-23T18:42:11.485Z</time>
      </trkpt>
      <trkpt lat="48.87186" lon="2.34963">
        <ele>79.6</ele>
        <time>2013-09-23T18:42:12.515Z</time>
      </trkpt>
      <trkpt lat="48.87191" lon="2.34964">
        <ele>79.6</ele>
        <time>2013-09-23T18:42:13.457Z</time>
      </trkpt>
      <trkpt lat="48.87196" lon="2.34966">
        <ele>79.8</ele>
        <time>2013-09-23T18:42:14.454Z</time>
      </trkpt>
      <trkpt lat="48.87202" lon="2.34969">
        <ele>79.8</ele>
        <time>2013-09-23T18:42:15.504Z</time>
      </trkpt>
      <trkpt lat="48.87206" lon="2.34972">
        <ele>78.5</ele>
        <time>2013-09-23T18:42:16.483Z</time>
      </trkpt>
      <trkpt lat="48.8721" lon="2.34974">
        <ele>78.4</ele>
        <time>2013-09-23T18:42:17.494Z</time>
      </trkpt>
      <trkpt lat="48.87217" lon="2.34967">
        <ele>79.2</ele>
        <time>2013-09-23T18:42:20.493Z</time>
      </trkpt>
      <trkpt lat="48.87218" lon="2.34962">
        <ele>79.6</ele>
        <time>2013-09-23T18:42:21.493Z</time>
      </trkpt>
      <trkpt lat="48.87218" lon="2.3495">
        <ele>80.6</ele>
        <time>2013-09-23T18:42:23.522Z</time>
      </trkpt>
      <trkpt lat="48.87219" lon="2.34944">
        <ele>80.2</ele>
        <time>2013-09-23T18:42:24.509Z</time>
      </trkpt>
      <trkpt lat="48.8722" lon="2.34934">
        <ele>78.6</ele>
        <time>2013-09-23T18:42:26.493Z</time>
      </trkpt>
      <trkpt lat="48.87221" lon="2.3493">
        <ele>78.9</ele>
        <time>2013-09-23T18:42:27.483Z</time>
      </trkpt>
      <trkpt lat="48.87224" lon="2.34919">
        <ele>77.8</ele>
        <time>2013-09-23T18:42:30.482Z</time>
      </trkpt>
      <trkpt lat="48.87225" lon="2.34916">
        <ele>77.9</ele>
        <time>2013-09-23T18:42:31.492Z</time>
      </trkpt>
      <trkpt lat="48.87226" lon="2.34905">
        <ele>79.7</ele>
        <time>2013-09-23T18:42:35.513Z</time>
      </trkpt>
      <trkpt lat="48.87227" lon="2.34902">
        <ele>79.2</ele>
        <time>2013-09-23T18:42:36.483Z</time>
      </trkpt>
      <trkpt lat="48.87227" lon="2.34891">
        <ele>78.2</ele>
        <time>2013-09-23T18:42:40.510Z</time>
      </trkpt>
      <trkpt lat="48.87227" lon="2.34887">
        <ele>79.4</ele>
        <time>2013-09-23T18:42:41.493Z</time>
      </trkpt>
      <trkpt lat="48.87226" lon="2.34875">
        <ele>80.3</ele>
        <time>2013-09-23T18:42:44.494Z</time>
      </trkpt>
      <trkpt lat="48.87226" lon="2.34871">
        <ele>80.7</ele>
        <time>2013-09-23T18:42:45.503Z</time>
      </trkpt>
      <trkpt lat="48.87229" lon="2.34862">
        <ele>81.7</ele>
        <time>2013-09-23T18:42:47.495Z</time>
      </trkpt>
      <trkpt lat="48.87231" lon="2.34857">
        <ele>83.2</ele>
        <time>2013-09-23T18:42:48.471Z</time>
      </trkpt>
      <trkpt lat="48.87235" lon="2.34848">
        <ele>84.3</ele>
        <time>2013-09-23T18:42:50.513Z</time>
      </trkpt>
      <trkpt lat="48.87237" lon="2.34843">
        <ele>84.4</ele>
        <time>2013-09-23T18:42:51.492Z</time>
      </trkpt>
      <trkpt lat="48.8724" lon="2.34831">
        <ele>84.3</ele>
        <time>2013-09-23T18:42:53.485Z</time>
      </trkpt>
      <trkpt lat="48.87241" lon="2.34825">
        <ele>84.4</ele>
        <time>2013-09-23T18:42:54.528Z</time>
      </trkpt>
      <trkpt lat="48.87243" lon="2.34814">
        <ele>85.9</ele>
        <time>2013-09-23T18:42:56.473Z</time>
      </trkpt>
      <trkpt lat="48.87244" lon="2.34808">
        <ele>85.9</ele>
        <time>2013-09-23T18:42:57.502Z</time>
      </trkpt>
      <trkpt lat="48.87245" lon="2.34795">
        <ele>85.4</ele>
        <time>2013-09-23T18:43:00.482Z</time>
      </trkpt>
      <trkpt lat="48.87245" lon="2.34793">
        <ele>84.4</ele>
        <time>2013-09-23T18:43:01.503Z</time>
      </trkpt>
      <trkpt lat="48.87253" lon="2.34795">
        <ele>83.1</ele>
        <time>2013-09-23T18:43:10.484Z</time>
      </trkpt>
      <trkpt lat="48.87257" lon="2.34796">
        <ele>83.1</ele>
        <time>2013-09-23T18:43:11.493Z</time>
      </trkpt>
      <trkpt lat="48.87264" lon="2.34798">
        <ele>82</ele>
        <time>2013-09-23T18:43:13.469Z</time>
      </trkpt>
      <trkpt lat="48.87267" lon="2.348">
        <ele>81.6</ele>
        <time>2013-09-23T18:43:14.458Z</time>
      </trkpt>
      <trkpt lat="48.87274" lon="2.34803">
        <ele>81.1</ele>
        <time>2013-09-23T18:43:16.493Z</time>
      </trkpt>
      <trkpt lat="48.87278" lon="2.34805">
        <ele>82.6</ele>
        <time>2013-09-23T18:43:17.534Z</time>
      </trkpt>
      <trkpt lat="48.87284" lon="2.34807">
        <ele>83.2</ele>
        <time>2013-09-23T18:43:19.474Z</time>
      </trkpt>
      <trkpt lat="48.87288" lon="2.34807">
        <ele>82.9</ele>
        <time>2013-09-23T18:43:20.516Z</time>
      </trkpt>
      <trkpt lat="48.87294" lon="2.34805">
        <ele>80</ele>
        <time>2013-09-23T18:43:22.492Z</time>
      </trkpt>
      <trkpt lat="48.87298" lon="2.34801">
        <ele>80.4</ele>
        <time>2013-09-23T18:43:23.514Z</time>
      </trkpt>
      <trkpt lat="48.87302" lon="2.34797">
        <ele>80.3</ele>
        <time>2013-09-23T18:43:24.503Z</time>
      </trkpt>
      <trkpt lat="48.87305" lon="2.34792">
        <ele>79.6</ele>
        <time>2013-09-23T18:43:25.485Z</time>
      </trkpt>
      <trkpt lat="48.8731" lon="2.34782">
        <ele>78.7</ele>
        <time>2013-09-23T18:43:27.533Z</time>
      </trkpt>
      <trkpt lat="48.87312" lon="2.34777">
        <ele>79.4</ele>
        <time>2013-09-23T18:43:28.493Z</time>
      </trkpt>
      <trkpt lat="48.87313" lon="2.34764">
        <ele>80.8</ele>
        <time>2013-09-23T18:43:30.494Z</time>
      </trkpt>
      <trkpt lat="48.87313" lon="2.34757">
        <ele>79.4</ele>
        <time>2013-09-23T18:43:31.494Z</time>
      </trkpt>
      <trkpt lat="48.87312" lon="2.34744">
        <ele>78.4</ele>
        <time>2013-09-23T18:43:33.483Z</time>
      </trkpt>
      <trkpt lat="48.87312" lon="2.34737">
        <ele>78</ele>
        <time>2013-09-23T18:43:34.514Z</time>
      </trkpt>
      <trkpt lat="48.87311" lon="2.34726">
        <ele>78.6</ele>
        <time>2013-09-23T18:43:36.503Z</time>
      </trkpt>
      <trkpt lat="48.87311" lon="2.3472">
        <ele>76.9</ele>
        <time>2013-09-23T18:43:37.493Z</time>
      </trkpt>
      <trkpt lat="48.87311" lon="2.3471">
        <ele>78.1</ele>
        <time>2013-09-23T18:43:39.493Z</time>
      </trkpt>
      <trkpt lat="48.87311" lon="2.34704">
        <ele>77.8</ele>
        <time>2013-09-23T18:43:40.514Z</time>
      </trkpt>
      <trkpt lat="48.87312" lon="2.34694">
        <ele>77.7</ele>
        <time>2013-09-23T18:43:42.531Z</time>
      </trkpt>
      <trkpt lat="48.87312" lon="2.34689">
        <ele>77.4</ele>
        <time>2013-09-23T18:43:43.489Z</time>
      </trkpt>
      <trkpt lat="48.87312" lon="2.34678">
        <ele>76.7</ele>
        <time>2013-09-23T18:43:45.514Z</time>
      </trkpt>
      <trkpt lat="48.87311" lon="2.34672">
        <ele>74.6</ele>
        <time>2013-09-23T18:43:46.514Z</time>
      </trkpt>
      <trkpt lat="48.8731" lon="2.34661">
        <ele>62.9</ele>
        <time>2013-09-23T18:43:48.523Z</time>
      </trkpt>
      <trkpt lat="48.87309" lon="2.34655">
        <ele>63.4</ele>
        <time>2013-09-23T18:43:49.562Z</time>
      </trkpt>
      <trkpt lat="48.87308" lon="2.34643">
        <ele>65.6</ele>
        <time>2013-09-23T18:43:51.496Z</time>
      </trkpt>
      <trkpt lat="48.87308" lon="2.34637">
        <ele>66</ele>
        <time>2013-09-23T18:43:52.503Z</time>
      </trkpt>
      <trkpt lat="48.87309" lon="2.34624">
        <ele>67.2</ele>
        <time>2013-09-23T18:43:54.496Z</time>
      </trkpt>
      <trkpt lat="48.87309" lon="2.34616">
        <ele>67.8</ele>
        <time>2013-09-23T18:43:55.493Z</time>
      </trkpt>
      <trkpt lat="48.8731" lon="2.34608">
        <ele>68.2</ele>
        <time>2013-09-23T18:43:56.503Z</time>
      </trkpt>
      <trkpt lat="48.87311" lon="2.346">
        <ele>67.8</ele>
        <time>2013-09-23T18:43:57.493Z</time>
      </trkpt>
      <trkpt lat="48.87311" lon="2.34592">
        <ele>68.6</ele>
        <time>2013-09-23T18:43:58.505Z</time>
      </trkpt>
      <trkpt lat="48.87311" lon="2.34585">
        <ele>70</ele>
        <time>2013-09-23T18:43:59.554Z</time>
      </trkpt>
      <trkpt lat="48.87312" lon="2.34573">
        <ele>70.2</ele>
        <time>2013-09-23T18:44:01.515Z</time>
      </trkpt>
      <trkpt lat="48.87312" lon="2.34567">
        <ele>70.2</ele>
        <time>2013-09-23T18:44:02.493Z</time>
      </trkpt>
      <trkpt lat="48.87312" lon="2.3456">
        <ele>70.6</ele>
        <time>2013-09-23T18:44:03.520Z</time>
      </trkpt>
      <trkpt lat="48.87313" lon="2.34552">
        <ele>71.8</ele>
        <time>2013-09-23T18:44:04.524Z</time>
      </trkpt>
      <trkpt lat="48.87314" lon="2.34545">
        <ele>72.2</ele>
        <time>2013-09-23T18:44:05.497Z</time>
      </trkpt>
      <trkpt lat="48.87314" lon="2.34538">
        <ele>72.5</ele>
        <time>2013-09-23T18:44:06.513Z</time>
      </trkpt>
      <trkpt lat="48.87314" lon="2.34527">
        <ele>72.9</ele>
        <time>2013-09-23T18:44:08.529Z</time>
      </trkpt>
      <trkpt lat="48.87314" lon="2.34523">
        <ele>73.9</ele>
        <time>2013-09-23T18:44:09.462Z</time>
      </trkpt>
      <trkpt lat="48.87316" lon="2.34513">
        <ele>77</ele>
        <time>2013-09-23T18:44:12.495Z</time>
      </trkpt>
      <trkpt lat="48.87318" lon="2.34511">
        <ele>78</ele>
        <time>2013-09-23T18:44:13.497Z</time>
      </trkpt>
      <trkpt lat="48.87324" lon="2.34507">
        <ele>78.9</ele>
        <time>2013-09-23T18:44:15.524Z</time>
      </trkpt>
      <trkpt lat="48.87328" lon="2.34506">
        <ele>79.4</ele>
        <time>2013-09-23T18:44:16.503Z</time>
      </trkpt>
      <trkpt lat="48.87333" lon="2.34506">
        <ele>79.2</ele>
        <time>2013-09-23T18:44:17.503Z</time>
      </trkpt>
      <trkpt lat="48.87337" lon="2.34507">
        <ele>78.8</ele>
        <time>2013-09-23T18:44:18.503Z</time>
      </trkpt>
      <trkpt lat="48.87342" lon="2.3451">
        <ele>77.4</ele>
        <time>2013-09-23T18:44:19.463Z</time>
      </trkpt>
      <trkpt lat="48.87346" lon="2.34514">
        <ele>77.6</ele>
        <time>2013-09-23T18:44:20.493Z</time>
      </trkpt>
      <trkpt lat="48.87354" lon="2.3452">
        <ele>78.5</ele>
        <time>2013-09-23T18:44:22.498Z</time>
      </trkpt>
      <trkpt lat="48.87358" lon="2.34522">
        <ele>79.5</ele>
        <time>2013-09-23T18:44:23.482Z</time>
      </trkpt>
      <trkpt lat="48.87366" lon="2.34525">
        <ele>78.1</ele>
        <time>2013-09-23T18:44:26.503Z</time>
      </trkpt>
      <trkpt lat="48.87369" lon="2.34524">
        <ele>80.3</ele>
        <time>2013-09-23T18:44:27.503Z</time>
      </trkpt>
      <trkpt lat="48.87375" lon="2.34526">
        <ele>79.6</ele>
        <time>2013-09-23T18:44:29.496Z</time>
      </trkpt>
      <trkpt lat="48.87378" lon="2.34527">
        <ele>80</ele>
        <time>2013-09-23T18:44:30.501Z</time>
      </trkpt>
      <trkpt lat="48.87384" lon="2.3453">
        <ele>80.7</ele>
        <time>2013-09-23T18:44:32.504Z</time>
      </trkpt>
      <trkpt lat="48.87387" lon="2.34532">
        <ele>80.9</ele>
        <time>2013-09-23T18:44:33.495Z</time>
      </trkpt>
      <trkpt lat="48.87396" lon="2.34531">
        <ele>78.1</ele>
        <time>2013-09-23T18:44:36.499Z</time>
      </trkpt>
      <trkpt lat="48.87399" lon="2.3453">
        <ele>79</ele>
        <time>2013-09-23T18:44:37.504Z</time>
      </trkpt>
      <trkpt lat="48.87407" lon="2.34529">
        <ele>79.4</ele>
        <time>2013-09-23T18:44:39.492Z</time>
      </trkpt>
      <trkpt lat="48.87412" lon="2.34529">
        <ele>80.1</ele>
        <time>2013-09-23T18:44:40.516Z</time>
      </trkpt>
      <trkpt lat="48.87417" lon="2.34529">
        <ele>80.3</ele>
        <time>2013-09-23T18:44:41.493Z</time>
      </trkpt>
      <trkpt lat="48.87424" lon="2.34531">
        <ele>78.9</ele>
        <time>2013-09-23T18:44:42.505Z</time>
      </trkpt>
      <trkpt lat="48.87431" lon="2.34532">
        <ele>79.3</ele>
        <time>2013-09-23T18:44:43.492Z</time>
      </trkpt>
      <trkpt lat="48.87438" lon="2.34532">
        <ele>81.2</ele>
        <time>2013-09-23T18:44:44.529Z</time>
      </trkpt>
      <trkpt lat="48.87444" lon="2.34533">
        <ele>81.1</ele>
        <time>2013-09-23T18:44:45.523Z</time>
      </trkpt>
      <trkpt lat="48.8745" lon="2.34533">
        <ele>82.2</ele>
        <time>2013-09-23T18:44:46.502Z</time>
      </trkpt>
      <trkpt lat="48.87456" lon="2.34533">
        <ele>83.7</ele>
        <time>2013-09-23T18:44:47.533Z</time>
      </trkpt>
      <trkpt lat="48.87461" lon="2.34534">
        <ele>83.9</ele>
        <time>2013-09-23T18:44:48.503Z</time>
      </trkpt>
      <trkpt lat="48.87466" lon="2.34534">
        <ele>84.2</ele>
        <time>2013-09-23T18:44:49.547Z</time>
      </trkpt>
      <trkpt lat="48.87471" lon="2.34537">
        <ele>84.2</ele>
        <time>2013-09-23T18:44:50.515Z</time>
      </trkpt>
      <trkpt lat="48.87476" lon="2.34542">
        <ele>84.2</ele>
        <time>2013-09-23T18:44:51.503Z</time>
      </trkpt>
      <trkpt lat="48.87482" lon="2.34543">
        <ele>84.3</ele>
        <time>2013-09-23T18:44:52.518Z</time>
      </trkpt>
      <trkpt lat="48.87489" lon="2.34542">
        <ele>84.4</ele>
        <time>2013-09-23T18:44:53.522Z</time>
      </trkpt>
      <trkpt lat="48.87496" lon="2.34544">
        <ele>85</ele>
        <time>2013-09-23T18:44:54.570Z</time>
      </trkpt>
      <trkpt lat="48.87503" lon="2.34544">
        <ele>85.4</ele>
        <time>2013-09-23T18:44:55.510Z</time>
      </trkpt>
      <trkpt lat="48.87509" lon="2.34546">
        <ele>85.2</ele>
        <time>2013-09-23T18:44:56.524Z</time>
      </trkpt>
      <trkpt lat="48.87518" lon="2.34546">
        <ele>87.9</ele>
        <time>2013-09-23T18:44:58.503Z</time>
      </trkpt>
      <trkpt lat="48.87523" lon="2.34544">
        <ele>88.6</ele>
        <time>2013-09-23T18:44:59.511Z</time>
      </trkpt>
      <trkpt lat="48.87528" lon="2.34544">
        <ele>88.2</ele>
        <time>2013-09-23T18:45:00.505Z</time>
      </trkpt>
      <trkpt lat="48.87534" lon="2.34543">
        <ele>89.1</ele>
        <time>2013-09-23T18:45:01.514Z</time>
      </trkpt>
      <trkpt lat="48.87539" lon="2.34541">
        <ele>89.6</ele>
        <time>2013-09-23T18:45:02.493Z</time>
      </trkpt>
      <trkpt lat="48.87545" lon="2.3454">
        <ele>89.5</ele>
        <time>2013-09-23T18:45:03.490Z</time>
      </trkpt>
      <trkpt lat="48.87551" lon="2.34542">
        <ele>90.6</ele>
        <time>2013-09-23T18:45:04.554Z</time>
      </trkpt>
      <trkpt lat="48.87555" lon="2.34548">
        <ele>91.2</ele>
        <time>2013-09-23T18:45:05.516Z</time>
      </trkpt>
      <trkpt lat="48.87558" lon="2.34555">
        <ele>90.6</ele>
        <time>2013-09-23T18:45:06.500Z</time>
      </trkpt>
      <trkpt lat="48.87562" lon="2.34561">
        <ele>89.4</ele>
        <time>2013-09-23T18:45:07.513Z</time>
      </trkpt>
      <trkpt lat="48.87569" lon="2.34564">
        <ele>88.8</ele>
        <time>2013-09-23T18:45:09.468Z</time>
      </trkpt>
      <trkpt lat="48.87572" lon="2.34565">
        <ele>88.3</ele>
        <time>2013-09-23T18:45:10.531Z</time>
      </trkpt>
      <trkpt lat="48.87581" lon="2.34568">
        <ele>90.8</ele>
        <time>2013-09-23T18:45:13.480Z</time>
      </trkpt>
      <trkpt lat="48.87584" lon="2.3456">
        <ele>88.6</ele>
        <time>2013-09-23T18:45:14.475Z</time>
      </trkpt>
      <trkpt lat="48.87589" lon="2.3455">
        <ele>87.5</ele>
        <time>2013-09-23T18:45:16.525Z</time>
      </trkpt>
      <trkpt lat="48.87591" lon="2.34549">
        <ele>88.5</ele>
        <time>2013-09-23T18:45:17.509Z</time>
      </trkpt>
      <trkpt lat="48.87598" lon="2.34555">
        <ele>87</ele>
        <time>2013-09-23T18:45:24.505Z</time>
      </trkpt>
      <trkpt lat="48.87599" lon="2.34555">
        <ele>86.8</ele>
        <time>2013-09-23T18:45:25.505Z</time>
      </trkpt>
      <trkpt lat="48.87608" lon="2.34556">
        <ele>87.9</ele>
        <time>2013-09-23T18:45:29.518Z</time>
      </trkpt>
      <trkpt lat="48.87609" lon="2.34556">
        <ele>88.2</ele>
        <time>2013-09-23T18:45:30.534Z</time>
      </trkpt>
      <trkpt lat="48.87617" lon="2.34552">
        <ele>89.6</ele>
        <time>2013-09-23T18:45:35.513Z</time>
      </trkpt>
      <trkpt lat="48.87619" lon="2.34551">
        <ele>89.7</ele>
        <time>2013-09-23T18:45:36.534Z</time>
      </trkpt>
      <trkpt lat="48.87627" lon="2.34552">
        <ele>79.6</ele>
        <time>2013-09-23T18:45:43.491Z</time>
      </trkpt>
      <trkpt lat="48.87629" lon="2.34553">
        <ele>77.8</ele>
        <time>2013-09-23T18:45:44.503Z</time>
      </trkpt>
      <trkpt lat="48.87636" lon="2.34561">
        <ele>78.6</ele>
        <time>2013-09-23T18:45:47.506Z</time>
      </trkpt>
      <trkpt lat="48.87638" lon="2.34566">
        <ele>80</ele>
        <time>2013-09-23T18:45:48.512Z</time>
      </trkpt>
      <trkpt lat="48.87642" lon="2.34577">
        <ele>77.6</ele>
        <time>2013-09-23T18:45:50.496Z</time>
      </trkpt>
      <trkpt lat="48.87644" lon="2.34582">
        <ele>75</ele>
        <time>2013-09-23T18:45:51.492Z</time>
      </trkpt>
      <trkpt lat="48.87719" lon="2.34521">
        <ele>95.4</ele>
        <time>2013-09-23T18:46:28.329Z</time>
      </trkpt>
      <trkpt lat="48.87725" lon="2.34516">
        <ele>104.8</ele>
        <time>2013-09-23T18:46:31.238Z</time>
      </trkpt>
      <trkpt lat="48.87725" lon="2.34512">
        <ele>106.2</ele>
        <time>2013-09-23T18:46:32.222Z</time>
      </trkpt>
      <trkpt lat="48.87729" lon="2.34499">
        <ele>97.1</ele>
        <time>2013-09-23T18:46:35.256Z</time>
      </trkpt>
      <trkpt lat="48.87731" lon="2.34496">
        <ele>96.1</ele>
        <time>2013-09-23T18:46:36.173Z</time>
      </trkpt>
      <trkpt lat="48.87735" lon="2.34485">
        <ele>100</ele>
        <time>2013-09-23T18:46:39.223Z</time>
      </trkpt>
      <trkpt lat="48.87736" lon="2.34482">
        <ele>99.2</ele>
        <time>2013-09-23T18:46:40.246Z</time>
      </trkpt>
      <trkpt lat="48.87735" lon="2.3447">
        <ele>75.8</ele>
        <time>2013-09-23T18:46:47.230Z</time>
      </trkpt>
      <trkpt lat="48.87732" lon="2.34469">
        <ele>77.3</ele>
        <time>2013-09-23T18:46:48.222Z</time>
      </trkpt>
      <trkpt lat="48.87724" lon="2.34468">
        <ele>78.5</ele>
        <time>2013-09-23T18:46:51.359Z</time>
      </trkpt>
      <trkpt lat="48.87722" lon="2.34468">
        <ele>79.7</ele>
        <time>2013-09-23T18:46:52.175Z</time>
      </trkpt>
      <trkpt lat="48.87714" lon="2.34469">
        <ele>81.5</ele>
        <time>2013-09-23T18:46:54.201Z</time>
      </trkpt>
      <trkpt lat="48.8771" lon="2.34469">
        <ele>83.2</ele>
        <time>2013-09-23T18:46:55.266Z</time>
      </trkpt>
      <trkpt lat="48.87702" lon="2.34468">
        <ele>81.9</ele>
        <time>2013-09-23T18:46:57.200Z</time>
      </trkpt>
      <trkpt lat="48.87698" lon="2.34467">
        <ele>79</ele>
        <time>2013-09-23T18:46:58.294Z</time>
      </trkpt>
      <trkpt lat="48.87695" lon="2.34458">
        <ele>79.2</ele>
        <time>2013-09-23T18:47:00.225Z</time>
      </trkpt>
      <trkpt lat="48.87696" lon="2.34452">
        <ele>79.7</ele>
        <time>2013-09-23T18:47:01.180Z</time>
      </trkpt>
      <trkpt lat="48.87698" lon="2.34442">
        <ele>80.9</ele>
        <time>2013-09-23T18:47:03.199Z</time>
      </trkpt>
      <trkpt lat="48.87699" lon="2.34437">
        <ele>81.4</ele>
        <time>2013-09-23T18:47:04.208Z</time>
      </trkpt>
      <trkpt lat="48.87701" lon="2.34424">
        <ele>82</ele>
        <time>2013-09-23T18:47:07.218Z</time>
      </trkpt>
      <trkpt lat="48.87701" lon="2.34419">
        <ele>82.3</ele>
        <time>2013-09-23T18:47:08.176Z</time>
      </trkpt>
      <trkpt lat="48.87705" lon="2.34411">
        <ele>82.1</ele>
        <time>2013-09-23T18:47:10.184Z</time>
      </trkpt>
      <trkpt lat="48.87707" lon="2.34407">
        <ele>81.6</ele>
        <time>2013-09-23T18:47:11.176Z</time>
      </trkpt>
      <trkpt lat="48.87711" lon="2.34399">
        <ele>81.4</ele>
        <time>2013-09-23T18:47:13.184Z</time>
      </trkpt>
      <trkpt lat="48.87713" lon="2.34395">
        <ele>82.6</ele>
        <time>2013-09-23T18:47:14.175Z</time>
      </trkpt>
      <trkpt lat="48.87719" lon="2.34387">
        <ele>83.2</ele>
        <time>2013-09-23T18:47:16.233Z</time>
      </trkpt>
      <trkpt lat="48.87721" lon="2.34384">
        <ele>83</ele>
        <time>2013-09-23T18:47:17.183Z</time>
      </trkpt>
      <trkpt lat="48.87724" lon="2.34375">
        <ele>82</ele>
        <time>2013-09-23T18:47:19.176Z</time>
      </trkpt>
      <trkpt lat="48.87724" lon="2.3437">
        <ele>83</ele>
        <time>2013-09-23T18:47:20.213Z</time>
      </trkpt>
      <trkpt lat="48.87724" lon="2.3436">
        <ele>83.1</ele>
        <time>2013-09-23T18:47:22.181Z</time>
      </trkpt>
      <trkpt lat="48.87724" lon="2.34355">
        <ele>83.1</ele>
        <time>2013-09-23T18:47:23.218Z</time>
      </trkpt>
      <trkpt lat="48.87725" lon="2.34345">
        <ele>83.3</ele>
        <time>2013-09-23T18:47:25.201Z</time>
      </trkpt>
      <trkpt lat="48.87725" lon="2.3434">
        <ele>83.7</ele>
        <time>2013-09-23T18:47:26.180Z</time>
      </trkpt>
      <trkpt lat="48.87724" lon="2.34328">
        <ele>84.4</ele>
        <time>2013-09-23T18:47:29.188Z</time>
      </trkpt>
      <trkpt lat="48.87723" lon="2.34325">
        <ele>84.3</ele>
        <time>2013-09-23T18:47:30.186Z</time>
      </trkpt>
      <trkpt lat="48.87719" lon="2.34314">
        <ele>90.7</ele>
        <time>2013-09-23T18:47:39.177Z</time>
      </trkpt>
      <trkpt lat="48.87718" lon="2.34312">
        <ele>90.8</ele>
        <time>2013-09-23T18:47:40.209Z</time>
      </trkpt>
      <trkpt lat="48.87715" lon="2.34301">
        <ele>88.8</ele>
        <time>2013-09-23T18:47:44.183Z</time>
      </trkpt>
      <trkpt lat="48.87714" lon="2.34297">
        <ele>90.4</ele>
        <time>2013-09-23T18:47:45.217Z</time>
      </trkpt>
      <trkpt lat="48.87714" lon="2.34285">
        <ele>96.1</ele>
        <time>2013-09-23T18:47:49.184Z</time>
      </trkpt>
      <trkpt lat="48.87713" lon="2.34283">
        <ele>96.6</ele>
        <time>2013-09-23T18:47:50.820Z</time>
      </trkpt>
      <trkpt lat="48.87719" lon="2.34286">
        <ele>85.2</ele>
        <time>2013-09-23T18:47:53.257Z</time>
      </trkpt>
      <trkpt lat="48.87723" lon="2.34287">
        <ele>84.4</ele>
        <time>2013-09-23T18:47:54.149Z</time>
      </trkpt>
      <trkpt lat="48.87725" lon="2.34275">
        <ele>79.9</ele>
        <time>2013-09-23T18:48:01.191Z</time>
      </trkpt>
      <trkpt lat="48.87725" lon="2.3427">
        <ele>80.9</ele>
        <time>2013-09-23T18:48:02.261Z</time>
      </trkpt>
      <trkpt lat="48.87724" lon="2.34257">
        <ele>80.1</ele>
        <time>2013-09-23T18:48:06.183Z</time>
      </trkpt>
      <trkpt lat="48.87723" lon="2.34255">
        <ele>80.8</ele>
        <time>2013-09-23T18:48:07.071Z</time>
      </trkpt>
      <trkpt lat="48.87725" lon="2.34246">
        <ele>82.6</ele>
        <time>2013-09-23T18:48:10.072Z</time>
      </trkpt>
      <trkpt lat="48.87726" lon="2.34242">
        <ele>82.5</ele>
        <time>2013-09-23T18:48:11.174Z</time>
      </trkpt>
      <trkpt lat="48.8773" lon="2.34235">
        <ele>80.8</ele>
        <time>2013-09-23T18:48:13.038Z</time>
      </trkpt>
      <trkpt lat="48.87733" lon="2.34232">
        <ele>79.7</ele>
        <time>2013-09-23T18:48:14.047Z</time>
      </trkpt>
      <trkpt lat="48.87738" lon="2.3423">
        <ele>76</ele>
        <time>2013-09-23T18:48:16.111Z</time>
      </trkpt>
      <trkpt lat="48.87742" lon="2.34231">
        <ele>76.4</ele>
        <time>2013-09-23T18:48:17.104Z</time>
      </trkpt>
      <trkpt lat="48.87749" lon="2.34233">
        <ele>77</ele>
        <time>2013-09-23T18:48:19.033Z</time>
      </trkpt>
      <trkpt lat="48.87753" lon="2.34235">
        <ele>76.3</ele>
        <time>2013-09-23T18:48:20.170Z</time>
      </trkpt>
      <trkpt lat="48.8776" lon="2.34237">
        <ele>79.1</ele>
        <time>2013-09-23T18:48:22.032Z</time>
      </trkpt>
      <trkpt lat="48.87764" lon="2.34238">
        <ele>80.1</ele>
        <time>2013-09-23T18:48:23.020Z</time>
      </trkpt>
      <trkpt lat="48.87771" lon="2.34237">
        <ele>82</ele>
        <time>2013-09-23T18:48:25.049Z</time>
      </trkpt>
      <trkpt lat="48.87774" lon="2.34237">
        <ele>84.2</ele>
        <time>2013-09-23T18:48:26.035Z</time>
      </trkpt>
      <trkpt lat="48.87782" lon="2.34238">
        <ele>85.8</ele>
        <time>2013-09-23T18:48:29.113Z</time>
      </trkpt>
      <trkpt lat="48.87785" lon="2.34239">
        <ele>87.1</ele>
        <time>2013-09-23T18:48:30.051Z</time>
      </trkpt>
      <trkpt lat="48.87791" lon="2.34241">
        <ele>88.5</ele>
        <time>2013-09-23T18:48:32.042Z</time>
      </trkpt>
      <trkpt lat="48.87794" lon="2.34244">
        <ele>90.9</ele>
        <time>2013-09-23T18:48:33.080Z</time>
      </trkpt>
      <trkpt lat="48.87799" lon="2.34248">
        <ele>91.5</ele>
        <time>2013-09-23T18:48:35.034Z</time>
      </trkpt>
      <trkpt lat="48.87801" lon="2.34252">
        <ele>92.8</ele>
        <time>2013-09-23T18:48:36.097Z</time>
      </trkpt>
      <trkpt lat="48.87806" lon="2.34258">
        <ele>93.4</ele>
        <time>2013-09-23T18:48:38.105Z</time>
      </trkpt>
      <trkpt lat="48.87809" lon="2.3426">
        <ele>96.4</ele>
        <time>2013-09-23T18:48:39.027Z</time>
      </trkpt>
      <trkpt lat="48.87816" lon="2.34264">
        <ele>97.7</ele>
        <time>2013-09-23T18:48:41.041Z</time>
      </trkpt>
      <trkpt lat="48.87819" lon="2.34265">
        <ele>96.8</ele>
        <time>2013-09-23T18:48:42.025Z</time>
      </trkpt>
      <trkpt lat="48.87825" lon="2.34265">
        <ele>97.1</ele>
        <time>2013-09-23T18:48:44.035Z</time>
      </trkpt>
      <trkpt lat="48.87828" lon="2.34266">
        <ele>96.3</ele>
        <time>2013-09-23T18:48:45.145Z</time>
      </trkpt>
      <trkpt lat="48.87836" lon="2.34269">
        <ele>94.5</ele>
        <time>2013-09-23T18:48:48.035Z</time>
      </trkpt>
      <trkpt lat="48.87839" lon="2.3427">
        <ele>95.9</ele>
        <time>2013-09-23T18:48:49.090Z</time>
      </trkpt>
      <trkpt lat="48.87845" lon="2.34273">
        <ele>97.2</ele>
        <time>2013-09-23T18:48:51.034Z</time>
      </trkpt>
      <trkpt lat="48.87848" lon="2.34274">
        <ele>98.1</ele>
        <time>2013-09-23T18:48:52.137Z</time>
      </trkpt>
      <trkpt lat="48.87855" lon="2.34277">
        <ele>98.9</ele>
        <time>2013-09-23T18:48:54.140Z</time>
      </trkpt>
      <trkpt lat="48.87857" lon="2.34279">
        <ele>99.7</ele>
        <time>2013-09-23T18:48:55.035Z</time>
      </trkpt>
      <trkpt lat="48.87864" lon="2.34283">
        <ele>100.2</ele>
        <time>2013-09-23T18:48:57.035Z</time>
      </trkpt>
      <trkpt lat="48.87867" lon="2.34285">
        <ele>99.6</ele>
        <time>2013-09-23T18:48:58.026Z</time>
      </trkpt>
      <trkpt lat="48.87873" lon="2.34288">
        <ele>99.3</ele>
        <time>2013-09-23T18:49:00.081Z</time>
      </trkpt>
      <trkpt lat="48.87877" lon="2.3429">
        <ele>98.4</ele>
        <time>2013-09-23T18:49:01.029Z</time>
      </trkpt>
      <trkpt lat="48.87884" lon="2.34292">
        <ele>101.1</ele>
        <time>2013-09-23T18:49:03.035Z</time>
      </trkpt>
      <trkpt lat="48.87888" lon="2.34293">
        <ele>101.6</ele>
        <time>2013-09-23T18:49:04.044Z</time>
      </trkpt>
      <trkpt lat="48.87896" lon="2.34295">
        <ele>102</ele>
        <time>2013-09-23T18:49:06.131Z</time>
      </trkpt>
      <trkpt lat="48.87899" lon="2.34295">
        <ele>102.7</ele>
        <time>2013-09-23T18:49:07.045Z</time>
      </trkpt>
      <trkpt lat="48.87905" lon="2.34297">
        <ele>103.3</ele>
        <time>2013-09-23T18:49:09.031Z</time>
      </trkpt>
      <trkpt lat="48.87908" lon="2.34298">
        <ele>104.2</ele>
        <time>2013-09-23T18:49:10.123Z</time>
      </trkpt>
      <trkpt lat="48.87915" lon="2.34305">
        <ele>105.3</ele>
        <time>2013-09-23T18:49:13.190Z</time>
      </trkpt>
      <trkpt lat="48.87917" lon="2.34307">
        <ele>105.3</ele>
        <time>2013-09-23T18:49:14.050Z</time>
      </trkpt>
      <trkpt lat="48.87925" lon="2.34313">
        <ele>104.8</ele>
        <time>2013-09-23T18:49:18.092Z</time>
      </trkpt>
      <trkpt lat="48.87926" lon="2.34313">
        <ele>104.5</ele>
        <time>2013-09-23T18:49:19.116Z</time>
      </trkpt>
      <trkpt lat="48.87935" lon="2.34317">
        <ele>101.3</ele>
        <time>2013-09-23T18:49:24.256Z</time>
      </trkpt>
      <trkpt lat="48.87937" lon="2.3432">
        <ele>100.3</ele>
        <time>2013-09-23T18:49:25.063Z</time>
      </trkpt>
      <trkpt lat="48.87944" lon="2.34325">
        <ele>99.3</ele>
        <time>2013-09-23T18:49:27.158Z</time>
      </trkpt>
      <trkpt lat="48.87947" lon="2.34326">
        <ele>98.3</ele>
        <time>2013-09-23T18:49:28.069Z</time>
      </trkpt>
      <trkpt lat="48.87954" lon="2.3433">
        <ele>97.5</ele>
        <time>2013-09-23T18:49:30.036Z</time>
      </trkpt>
      <trkpt lat="48.87958" lon="2.34333">
        <ele>98.3</ele>
        <time>2013-09-23T18:49:31.143Z</time>
      </trkpt>
      <trkpt lat="48.87964" lon="2.34338">
        <ele>97.8</ele>
        <time>2013-09-23T18:49:33.174Z</time>
      </trkpt>
      <trkpt lat="48.87967" lon="2.34341">
        <ele>99.4</ele>
        <time>2013-09-23T18:49:34.084Z</time>
      </trkpt>
      <trkpt lat="48.87974" lon="2.34346">
        <ele>101.2</ele>
        <time>2013-09-23T18:49:36.141Z</time>
      </trkpt>
      <trkpt lat="48.87977" lon="2.34349">
        <ele>99.8</ele>
        <time>2013-09-23T18:49:37.030Z</time>
      </trkpt>
      <trkpt lat="48.87983" lon="2.34353">
        <ele>101.2</ele>
        <time>2013-09-23T18:49:39.036Z</time>
      </trkpt>
      <trkpt lat="48.87986" lon="2.34356">
        <ele>102</ele>
        <time>2013-09-23T18:49:40.150Z</time>
      </trkpt>
      <trkpt lat="48.87992" lon="2.34361">
        <ele>100.6</ele>
        <time>2013-09-23T18:49:42.139Z</time>
      </trkpt>
      <trkpt lat="48.87995" lon="2.34364">
        <ele>100.7</ele>
        <time>2013-09-23T18:49:43.095Z</time>
      </trkpt>
      <trkpt lat="48.88002" lon="2.34367">
        <ele>102.1</ele>
        <time>2013-09-23T18:49:45.167Z</time>
      </trkpt>
      <trkpt lat="48.88005" lon="2.34369">
        <ele>101</ele>
        <time>2013-09-23T18:49:46.037Z</time>
      </trkpt>
      <trkpt lat="48.88012" lon="2.34373">
        <ele>100.4</ele>
        <time>2013-09-23T18:49:49.033Z</time>
      </trkpt>
      <trkpt lat="48.88014" lon="2.34374">
        <ele>100.3</ele>
        <time>2013-09-23T18:49:50.031Z</time>
      </trkpt>
      <trkpt lat="48.8802" lon="2.34377">
        <ele>102</ele>
        <time>2013-09-23T18:49:53.059Z</time>
      </trkpt>
      <trkpt lat="48.88023" lon="2.34378">
        <ele>100.2</ele>
        <time>2013-09-23T18:49:54.163Z</time>
      </trkpt>
      <trkpt lat="48.88029" lon="2.34379">
        <ele>102.1</ele>
        <time>2013-09-23T18:49:56.188Z</time>
      </trkpt>
      <trkpt lat="48.88032" lon="2.34379">
        <ele>102.6</ele>
        <time>2013-09-23T18:49:57.083Z</time>
      </trkpt>
      <trkpt lat="48.88039" lon="2.34381">
        <ele>102.9</ele>
        <time>2013-09-23T18:49:59.154Z</time>
      </trkpt>
      <trkpt lat="48.88042" lon="2.34382">
        <ele>102.6</ele>
        <time>2013-09-23T18:50:00.098Z</time>
      </trkpt>
      <trkpt lat="48.88049" lon="2.34383">
        <ele>102.8</ele>
        <time>2013-09-23T18:50:02.038Z</time>
      </trkpt>
      <trkpt lat="48.88052" lon="2.34385">
        <ele>103.2</ele>
        <time>2013-09-23T18:50:03.191Z</time>
      </trkpt>
      <trkpt lat="48.88058" lon="2.34389">
        <ele>103</ele>
        <time>2013-09-23T18:50:05.153Z</time>
      </trkpt>
      <trkpt lat="48.88061" lon="2.34392">
        <ele>103.3</ele>
        <time>2013-09-23T18:50:06.078Z</time>
      </trkpt>
      <trkpt lat="48.88067" lon="2.34398">
        <ele>103.6</ele>
        <time>2013-09-23T18:50:08.146Z</time>
      </trkpt>
      <trkpt lat="48.8807" lon="2.344">
        <ele>102.8</ele>
        <time>2013-09-23T18:50:09.056Z</time>
      </trkpt>
      <trkpt lat="48.88076" lon="2.34405">
        <ele>104.8</ele>
        <time>2013-09-23T18:50:11.040Z</time>
      </trkpt>
      <trkpt lat="48.8808" lon="2.34407">
        <ele>106.1</ele>
        <time>2013-09-23T18:50:12.212Z</time>
      </trkpt>
      <trkpt lat="48.88086" lon="2.3441">
        <ele>106.4</ele>
        <time>2013-09-23T18:50:14.066Z</time>
      </trkpt>
      <trkpt lat="48.88089" lon="2.3441">
        <ele>107.1</ele>
        <time>2013-09-23T18:50:15.074Z</time>
      </trkpt>
      <trkpt lat="48.88096" lon="2.3441">
        <ele>107.8</ele>
        <time>2013-09-23T18:50:17.162Z</time>
      </trkpt>
      <trkpt lat="48.88099" lon="2.3441">
        <ele>108.2</ele>
        <time>2013-09-23T18:50:18.034Z</time>
      </trkpt>
      <trkpt lat="48.88105" lon="2.34411">
        <ele>107.7</ele>
        <time>2013-09-23T18:50:20.042Z</time>
      </trkpt>
      <trkpt lat="48.88109" lon="2.34412">
        <ele>107.7</ele>
        <time>2013-09-23T18:50:21.146Z</time>
      </trkpt>
      <trkpt lat="48.88115" lon="2.34414">
        <ele>105.8</ele>
        <time>2013-09-23T18:50:23.102Z</time>
      </trkpt>
      <trkpt lat="48.88119" lon="2.34415">
        <ele>106.4</ele>
        <time>2013-09-23T18:50:24.173Z</time>
      </trkpt>
      <trkpt lat="48.88125" lon="2.34419">
        <ele>106.9</ele>
        <time>2013-09-23T18:50:26.148Z</time>
      </trkpt>
      <trkpt lat="48.88128" lon="2.3442">
        <ele>107.4</ele>
        <time>2013-09-23T18:50:27.042Z</time>
      </trkpt>
      <trkpt lat="48.88136" lon="2.34426">
        <ele>106.9</ele>
        <time>2013-09-23T18:50:31.056Z</time>
      </trkpt>
      <trkpt lat="48.88136" lon="2.34428">
        <ele>106.6</ele>
        <time>2013-09-23T18:50:32.037Z</time>
      </trkpt>
      <trkpt lat="48.88134" lon="2.34435">
        <ele>109.7</ele>
        <time>2013-09-23T18:50:47.181Z</time>
      </trkpt>
      <trkpt lat="48.88134" lon="2.34435">
        <ele>109.4</ele>
        <time>2013-09-23T18:50:48.085Z</time>
      </trkpt>
      <trkpt lat="48.88134" lon="2.34435">
        <ele>109.2</ele>
        <time>2013-09-23T18:50:49.187Z</time>
      </trkpt>
      <trkpt lat="48.88135" lon="2.34435">
        <ele>109</ele>
        <time>2013-09-23T18:50:50.043Z</time>
      </trkpt>
      <trkpt lat="48.8814" lon="2.34444">
        <ele>113</ele>
        <time>2013-09-23T18:51:03.228Z</time>
      </trkpt>
      <trkpt lat="48.88141" lon="2.34446">
        <ele>113.1</ele>
        <time>2013-09-23T18:51:04.046Z</time>
      </trkpt>
      <trkpt lat="48.88148" lon="2.34454">
        <ele>118.8</ele>
        <time>2013-09-23T18:51:10.244Z</time>
      </trkpt>
      <trkpt lat="48.88149" lon="2.34454">
        <ele>117.2</ele>
        <time>2013-09-23T18:51:11.069Z</time>
      </trkpt>
      <trkpt lat="48.88157" lon="2.3445">
        <ele>114.9</ele>
        <time>2013-09-23T18:51:17.234Z</time>
      </trkpt>
      <trkpt lat="48.88158" lon="2.34449">
        <ele>115.7</ele>
        <time>2013-09-23T18:51:18.144Z</time>
      </trkpt>
      <trkpt lat="48.88164" lon="2.34458">
        <ele>113.6</ele>
        <time>2013-09-23T18:51:25.159Z</time>
      </trkpt>
      <trkpt lat="48.88166" lon="2.34464">
        <ele>113.6</ele>
        <time>2013-09-23T18:51:26.207Z</time>
      </trkpt>
      <trkpt lat="48.88168" lon="2.34475">
        <ele>114.2</ele>
        <time>2013-09-23T18:51:28.222Z</time>
      </trkpt>
      <trkpt lat="48.88169" lon="2.3448">
        <ele>114.3</ele>
        <time>2013-09-23T18:51:29.057Z</time>
      </trkpt>
      <trkpt lat="48.88171" lon="2.34488">
        <ele>118.1</ele>
        <time>2013-09-23T18:51:31.042Z</time>
      </trkpt>
      <trkpt lat="48.88173" lon="2.34493">
        <ele>119.1</ele>
        <time>2013-09-23T18:51:32.171Z</time>
      </trkpt>
      <trkpt lat="48.88179" lon="2.345">
        <ele>118.8</ele>
        <time>2013-09-23T18:51:35.171Z</time>
      </trkpt>
      <trkpt lat="48.88182" lon="2.34501">
        <ele>118.8</ele>
        <time>2013-09-23T18:51:36.226Z</time>
      </trkpt>
      <trkpt lat="48.88188" lon="2.34506">
        <ele>119.2</ele>
        <time>2013-09-23T18:51:39.048Z</time>
      </trkpt>
      <trkpt lat="48.8819" lon="2.34509">
        <ele>119.6</ele>
        <time>2013-09-23T18:51:40.241Z</time>
      </trkpt>
      <trkpt lat="48.88195" lon="2.34514">
        <ele>119.9</ele>
        <time>2013-09-23T18:51:42.194Z</time>
      </trkpt>
      <trkpt lat="48.88198" lon="2.34517">
        <ele>120.1</ele>
        <time>2013-09-23T18:51:43.203Z</time>
      </trkpt>
      <trkpt lat="48.88204" lon="2.34524">
        <ele>119.1</ele>
        <time>2013-09-23T18:51:45.173Z</time>
      </trkpt>
      <trkpt lat="48.88207" lon="2.34527">
        <ele>118.6</ele>
        <time>2013-09-23T18:51:46.047Z</time>
      </trkpt>
      <trkpt lat="48.88214" lon="2.34533">
        <ele>118</ele>
        <time>2013-09-23T18:51:48.041Z</time>
      </trkpt>
      <trkpt lat="48.88217" lon="2.34536">
        <ele>118.1</ele>
        <time>2013-09-23T18:51:49.045Z</time>
      </trkpt>
      <trkpt lat="48.88224" lon="2.34541">
        <ele>117.6</ele>
        <time>2013-09-23T18:51:51.160Z</time>
      </trkpt>
      <trkpt lat="48.88227" lon="2.34544">
        <ele>114.3</ele>
        <time>2013-09-23T18:51:52.123Z</time>
      </trkpt>
      <trkpt lat="48.88232" lon="2.34553">
        <ele>113.3</ele>
        <time>2013-09-23T18:51:54.187Z</time>
      </trkpt>
      <trkpt lat="48.88234" lon="2.34557">
        <ele>112.3</ele>
        <time>2013-09-23T18:51:55.050Z</time>
      </trkpt>
      <trkpt lat="48.88238" lon="2.34566">
        <ele>113.9</ele>
        <time>2013-09-23T18:51:57.043Z</time>
      </trkpt>
      <trkpt lat="48.88238" lon="2.3457">
        <ele>113.1</ele>
        <time>2013-09-23T18:51:58.044Z</time>
      </trkpt>
      <trkpt lat="48.8824" lon="2.34582">
        <ele>113.1</ele>
        <time>2013-09-23T18:52:01.166Z</time>
      </trkpt>
      <trkpt lat="48.88241" lon="2.34584">
        <ele>113.4</ele>
        <time>2013-09-23T18:52:02.074Z</time>
      </trkpt>
      <trkpt lat="48.88248" lon="2.34591">
        <ele>114.7</ele>
        <time>2013-09-23T18:52:05.164Z</time>
      </trkpt>
      <trkpt lat="48.8825" lon="2.34592">
        <ele>113.3</ele>
        <time>2013-09-23T18:52:06.052Z</time>
      </trkpt>
      <trkpt lat="48.88257" lon="2.34598">
        <ele>112.5</ele>
        <time>2013-09-23T18:52:09.108Z</time>
      </trkpt>
      <trkpt lat="48.8826" lon="2.346">
        <ele>112.3</ele>
        <time>2013-09-23T18:52:10.172Z</time>
      </trkpt>
      <trkpt lat="48.88267" lon="2.34607">
        <ele>113.2</ele>
        <time>2013-09-23T18:52:13.069Z</time>
      </trkpt>
      <trkpt lat="48.88269" lon="2.3461">
        <ele>115.4</ele>
        <time>2013-09-23T18:52:14.209Z</time>
      </trkpt>
      <trkpt lat="48.88275" lon="2.34619">
        <ele>115.4</ele>
        <time>2013-09-23T18:52:17.175Z</time>
      </trkpt>
      <trkpt lat="48.88277" lon="2.34622">
        <ele>112.4</ele>
        <time>2013-09-23T18:52:18.062Z</time>
      </trkpt>
      <trkpt lat="48.88284" lon="2.34629">
        <ele>109.7</ele>
        <time>2013-09-23T18:52:20.054Z</time>
      </trkpt>
      <trkpt lat="48.88288" lon="2.34631">
        <ele>108.4</ele>
        <time>2013-09-23T18:52:21.047Z</time>
      </trkpt>
      <trkpt lat="48.88296" lon="2.34637">
        <ele>109.5</ele>
        <time>2013-09-23T18:52:23.062Z</time>
      </trkpt>
      <trkpt lat="48.883" lon="2.34639">
        <ele>110.1</ele>
        <time>2013-09-23T18:52:24.053Z</time>
      </trkpt>
      <trkpt lat="48.88307" lon="2.34645">
        <ele>110.1</ele>
        <time>2013-09-23T18:52:27.054Z</time>
      </trkpt>
      <trkpt lat="48.88308" lon="2.34648">
        <ele>109.9</ele>
        <time>2013-09-23T18:52:28.055Z</time>
      </trkpt>
      <trkpt lat="48.88309" lon="2.3466">
        <ele>106</ele>
        <time>2013-09-23T18:52:32.132Z</time>
      </trkpt>
      <trkpt lat="48.88309" lon="2.34664">
        <ele>104.1</ele>
        <time>2013-09-23T18:52:33.193Z</time>
      </trkpt>
      <trkpt lat="48.88315" lon="2.34673">
        <ele>105</ele>
        <time>2013-09-23T18:52:37.172Z</time>
      </trkpt>
      <trkpt lat="48.88316" lon="2.34673">
        <ele>104.5</ele>
        <time>2013-09-23T18:52:38.045Z</time>
      </trkpt>
      <trkpt lat="48.88324" lon="2.34674">
        <ele>109.3</ele>
        <time>2013-09-23T18:52:53.165Z</time>
      </trkpt>
      <trkpt lat="48.88325" lon="2.34673">
        <ele>109.4</ele>
        <time>2013-09-23T18:52:53.996Z</time>
      </trkpt>
      <trkpt lat="48.88333" lon="2.34669">
        <ele>108.6</ele>
        <time>2013-09-23T18:52:58.117Z</time>
      </trkpt>
      <trkpt lat="48.88335" lon="2.34669">
        <ele>113</ele>
        <time>2013-09-23T18:52:58.988Z</time>
      </trkpt>
      <trkpt lat="48.88343" lon="2.34669">
        <ele>109.2</ele>
        <time>2013-09-23T18:53:06.022Z</time>
      </trkpt>
      <trkpt lat="48.88345" lon="2.34671">
        <ele>108.4</ele>
        <time>2013-09-23T18:53:07.181Z</time>
      </trkpt>
      <trkpt lat="48.88345" lon="2.34681">
        <ele>109.1</ele>
        <time>2013-09-23T18:53:10.016Z</time>
      </trkpt>
      <trkpt lat="48.88345" lon="2.34686">
        <ele>109.4</ele>
        <time>2013-09-23T18:53:11.103Z</time>
      </trkpt>
      <trkpt lat="48.8835" lon="2.34697">
        <ele>109.2</ele>
        <time>2013-09-23T18:53:16.202Z</time>
      </trkpt>
      <trkpt lat="48.88352" lon="2.34697">
        <ele>109.7</ele>
        <time>2013-09-23T18:53:16.984Z</time>
      </trkpt>
      <trkpt lat="48.88359" lon="2.347">
        <ele>107.6</ele>
        <time>2013-09-23T18:53:21.255Z</time>
      </trkpt>
      <trkpt lat="48.88362" lon="2.34701">
        <ele>106.4</ele>
        <time>2013-09-23T18:53:22.028Z</time>
      </trkpt>
      <trkpt lat="48.8837" lon="2.34705">
        <ele>102.5</ele>
        <time>2013-09-23T18:53:25.164Z</time>
      </trkpt>
      <trkpt lat="48.88371" lon="2.34706">
        <ele>101.1</ele>
        <time>2013-09-23T18:53:26.000Z</time>
      </trkpt>
      <trkpt lat="48.88375" lon="2.34695">
        <ele>102.9</ele>
        <time>2013-09-23T18:53:34.985Z</time>
      </trkpt>
      <trkpt lat="48.88375" lon="2.34693">
        <ele>103</ele>
        <time>2013-09-23T18:53:35.991Z</time>
      </trkpt>
      <trkpt lat="48.8838" lon="2.34684">
        <ele>98.1</ele>
        <time>2013-09-23T18:53:39.995Z</time>
      </trkpt>
      <trkpt lat="48.88382" lon="2.34681">
        <ele>97.2</ele>
        <time>2013-09-23T18:53:41.120Z</time>
      </trkpt>
      <trkpt lat="48.88388" lon="2.34672">
        <ele>98.8</ele>
        <time>2013-09-23T18:53:44.118Z</time>
      </trkpt>
      <trkpt lat="48.8839" lon="2.3467">
        <ele>100</ele>
        <time>2013-09-23T18:53:45.059Z</time>
      </trkpt>
      <trkpt lat="48.88397" lon="2.34661">
        <ele>99</ele>
        <time>2013-09-23T18:53:48.152Z</time>
      </trkpt>
      <trkpt lat="48.88398" lon="2.34658">
        <ele>99.5</ele>
        <time>2013-09-23T18:53:48.984Z</time>
      </trkpt>
      <trkpt lat="48.88402" lon="2.34651">
        <ele>99.2</ele>
        <time>2013-09-23T18:53:51.050Z</time>
      </trkpt>
      <trkpt lat="48.88404" lon="2.34647">
        <ele>99.5</ele>
        <time>2013-09-23T18:53:52.076Z</time>
      </trkpt>
      <trkpt lat="48.88406" lon="2.34639">
        <ele>99.5</ele>
        <time>2013-09-23T18:53:54.003Z</time>
      </trkpt>
      <trkpt lat="48.88408" lon="2.34635">
        <ele>98.6</ele>
        <time>2013-09-23T18:53:55.166Z</time>
      </trkpt>
      <trkpt lat="48.88411" lon="2.34624">
        <ele>99.8</ele>
        <time>2013-09-23T18:53:57.109Z</time>
      </trkpt>
      <trkpt lat="48.88412" lon="2.34618">
        <ele>100.7</ele>
        <time>2013-09-23T18:53:57.994Z</time>
      </trkpt>
      <trkpt lat="48.88412" lon="2.34608">
        <ele>102.1</ele>
        <time>2013-09-23T18:54:00.053Z</time>
      </trkpt>
      <trkpt lat="48.88412" lon="2.34604">
        <ele>101.5</ele>
        <time>2013-09-23T18:54:01.047Z</time>
      </trkpt>
      <trkpt lat="48.88415" lon="2.34595">
        <ele>104</ele>
        <time>2013-09-23T18:54:03.992Z</time>
      </trkpt>
      <trkpt lat="48.88416" lon="2.34592">
        <ele>102.7</ele>
        <time>2013-09-23T18:54:04.995Z</time>
      </trkpt>
      <trkpt lat="48.88421" lon="2.34583">
        <ele>101.4</ele>
        <time>2013-09-23T18:54:08.131Z</time>
      </trkpt>
      <trkpt lat="48.88422" lon="2.34581">
        <ele>100.8</ele>
        <time>2013-09-23T18:54:09.061Z</time>
      </trkpt>
      <trkpt lat="48.88427" lon="2.34572">
        <ele>103</ele>
        <time>2013-09-23T18:54:11.996Z</time>
      </trkpt>
      <trkpt lat="48.88428" lon="2.34568">
        <ele>104</ele>
        <time>2013-09-23T18:54:13.226Z</time>
      </trkpt>
      <trkpt lat="48.88431" lon="2.34559">
        <ele>111.3</ele>
        <time>2013-09-23T18:54:15.994Z</time>
      </trkpt>
      <trkpt lat="48.88432" lon="2.34555">
        <ele>113.1</ele>
        <time>2013-09-23T18:54:17.046Z</time>
      </trkpt>
      <trkpt lat="48.88435" lon="2.34543">
        <ele>116.3</ele>
        <time>2013-09-23T18:54:20.998Z</time>
      </trkpt>
      <trkpt lat="48.88436" lon="2.3454">
        <ele>114.5</ele>
        <time>2013-09-23T18:54:22.133Z</time>
      </trkpt>
      <trkpt lat="48.8844" lon="2.34529">
        <ele>118.8</ele>
        <time>2013-09-23T18:54:25.150Z</time>
      </trkpt>
      <trkpt lat="48.8844" lon="2.34525">
        <ele>120.1</ele>
        <time>2013-09-23T18:54:26.034Z</time>
      </trkpt>
      <trkpt lat="48.88439" lon="2.34515">
        <ele>121.2</ele>
        <time>2013-09-23T18:54:27.998Z</time>
      </trkpt>
      <trkpt lat="48.88438" lon="2.3451">
        <ele>121.9</ele>
        <time>2013-09-23T18:54:29.022Z</time>
      </trkpt>
      <trkpt lat="48.88438" lon="2.345">
        <ele>123.3</ele>
        <time>2013-09-23T18:54:31.066Z</time>
      </trkpt>
      <trkpt lat="48.88439" lon="2.34495">
        <ele>124.9</ele>
        <time>2013-09-23T18:54:32.110Z</time>
      </trkpt>
      <trkpt lat="48.88443" lon="2.34485">
        <ele>129.3</ele>
        <time>2013-09-23T18:54:35.997Z</time>
      </trkpt>
      <trkpt lat="48.88444" lon="2.34484">
        <ele>129.3</ele>
        <time>2013-09-23T18:54:37.108Z</time>
      </trkpt>
      <trkpt lat="48.88447" lon="2.34481">
        <ele>133.2</ele>
        <time>2013-09-23T18:54:46.201Z</time>
      </trkpt>
      <trkpt lat="48.88447" lon="2.34481">
        <ele>133.6</ele>
        <time>2013-09-23T18:54:47.094Z</time>
      </trkpt>
      <trkpt lat="48.88446" lon="2.3448">
        <ele>136.6</ele>
        <time>2013-09-23T18:55:06.050Z</time>
      </trkpt>
      <trkpt lat="48.88447" lon="2.34481">
        <ele>137.3</ele>
        <time>2013-09-23T18:55:07.104Z</time>
      </trkpt>
      <trkpt lat="48.88453" lon="2.34484">
        <ele>136.5</ele>
        <time>2013-09-23T18:55:09.994Z</time>
      </trkpt>
      <trkpt lat="48.88456" lon="2.34486">
        <ele>136.5</ele>
        <time>2013-09-23T18:55:11.162Z</time>
      </trkpt>
      <trkpt lat="48.88461" lon="2.3449">
        <ele>138.4</ele>
        <time>2013-09-23T18:55:13.056Z</time>
      </trkpt>
      <trkpt lat="48.88464" lon="2.34493">
        <ele>137.4</ele>
        <time>2013-09-23T18:55:14.096Z</time>
      </trkpt>
      <trkpt lat="48.88469" lon="2.34497">
        <ele>137.3</ele>
        <time>2013-09-23T18:55:16.137Z</time>
      </trkpt>
      <trkpt lat="48.88472" lon="2.34499">
        <ele>134.3</ele>
        <time>2013-09-23T18:55:17.002Z</time>
      </trkpt>
      <trkpt lat="48.88478" lon="2.345">
        <ele>133.9</ele>
        <time>2013-09-23T18:55:19.015Z</time>
      </trkpt>
      <trkpt lat="48.88482" lon="2.34501">
        <ele>133</ele>
        <time>2013-09-23T18:55:20.083Z</time>
      </trkpt>
      <trkpt lat="48.88488" lon="2.34501">
        <ele>133.4</ele>
        <time>2013-09-23T18:55:22.043Z</time>
      </trkpt>
      <trkpt lat="48.88491" lon="2.34501">
        <ele>133.8</ele>
        <time>2013-09-23T18:55:23.199Z</time>
      </trkpt>
      <trkpt lat="48.88498" lon="2.34501">
        <ele>133</ele>
        <time>2013-09-23T18:55:25.158Z</time>
      </trkpt>
      <trkpt lat="48.88501" lon="2.345">
        <ele>132.6</ele>
        <time>2013-09-23T18:55:26.062Z</time>
      </trkpt>
      <trkpt lat="48.88508" lon="2.34496">
        <ele>132.1</ele>
        <time>2013-09-23T18:55:28.122Z</time>
      </trkpt>
      <trkpt lat="48.88511" lon="2.34495">
        <ele>131.9</ele>
        <time>2013-09-23T18:55:29.075Z</time>
      </trkpt>
      <trkpt lat="48.88517" lon="2.34492">
        <ele>134.6</ele>
        <time>2013-09-23T18:55:31.028Z</time>
      </trkpt>
      <trkpt lat="48.8852" lon="2.34492">
        <ele>133.7</ele>
        <time>2013-09-23T18:55:32.099Z</time>
      </trkpt>
      <trkpt lat="48.88529" lon="2.34492">
        <ele>134.3</ele>
        <time>2013-09-23T18:55:36.015Z</time>
      </trkpt>
      <trkpt lat="48.88531" lon="2.34493">
        <ele>134.5</ele>
        <time>2013-09-23T18:55:37.106Z</time>
      </trkpt>
      <trkpt lat="48.88539" lon="2.34492">
        <ele>134.9</ele>
        <time>2013-09-23T18:55:40.995Z</time>
      </trkpt>
      <trkpt lat="48.88541" lon="2.34492">
        <ele>135.1</ele>
        <time>2013-09-23T18:55:41.985Z</time>
      </trkpt>
      <trkpt lat="48.88548" lon="2.34494">
        <ele>136.2</ele>
        <time>2013-09-23T18:55:46.084Z</time>
      </trkpt>
      <trkpt lat="48.8855" lon="2.34494">
        <ele>136.4</ele>
        <time>2013-09-23T18:55:47.013Z</time>
      </trkpt>
      <trkpt lat="48.88557" lon="2.34489">
        <ele>137.4</ele>
        <time>2013-09-23T18:55:50.169Z</time>
      </trkpt>
      <trkpt lat="48.88559" lon="2.34488">
        <ele>137.2</ele>
        <time>2013-09-23T18:55:51.068Z</time>
      </trkpt>
      <trkpt lat="48.88567" lon="2.34492">
        <ele>130.1</ele>
        <time>2013-09-23T18:55:54.044Z</time>
      </trkpt>
      <trkpt lat="48.8857" lon="2.34494">
        <ele>130.5</ele>
        <time>2013-09-23T18:55:55.163Z</time>
      </trkpt>
      <trkpt lat="48.88578" lon="2.34496">
        <ele>132.4</ele>
        <time>2013-09-23T18:56:02.085Z</time>
      </trkpt>
      <trkpt lat="48.88579" lon="2.34497">
        <ele>133.4</ele>
        <time>2013-09-23T18:56:03.044Z</time>
      </trkpt>
      <trkpt lat="48.88582" lon="2.34506">
        <ele>133.9</ele>
        <time>2013-09-23T18:56:13.148Z</time>
      </trkpt>
      <trkpt lat="48.88582" lon="2.34505">
        <ele>134</ele>
        <time>2013-09-23T18:56:14.031Z</time>
      </trkpt>
      <trkpt lat="48.88583" lon="2.34504">
        <ele>133.8</ele>
        <time>2013-09-23T18:56:15.162Z</time>
      </trkpt>
      <trkpt lat="48.88583" lon="2.34504">
        <ele>133.7</ele>
        <time>2013-09-23T18:56:16.095Z</time>
      </trkpt>
      <trkpt lat="48.88583" lon="2.34502">
        <ele>133.7</ele>
        <time>2013-09-23T18:56:20.998Z</time>
      </trkpt>
      <trkpt lat="48.88583" lon="2.34502">
        <ele>133.7</ele>
        <time>2013-09-23T18:56:22.133Z</time>
      </trkpt>
      <trkpt lat="48.88583" lon="2.34502">
        <ele>133.9</ele>
        <time>2013-09-23T18:56:42.032Z</time>
      </trkpt>
      <trkpt lat="48.88584" lon="2.34502">
        <ele>134.4</ele>
        <time>2013-09-23T18:56:43.087Z</time>
      </trkpt>
      <trkpt lat="48.88592" lon="2.34505">
        <ele>134.5</ele>
        <time>2013-09-23T18:56:48.064Z</time>
      </trkpt>
      <trkpt lat="48.88594" lon="2.34504">
        <ele>134.9</ele>
        <time>2013-09-23T18:56:49.062Z</time>
      </trkpt>
      <trkpt lat="48.88601" lon="2.34499">
        <ele>133.4</ele>
        <time>2013-09-23T18:56:54.111Z</time>
      </trkpt>
      <trkpt lat="48.88602" lon="2.34499">
        <ele>132.8</ele>
        <time>2013-09-23T18:56:55.016Z</time>
      </trkpt>
      <trkpt lat="48.88611" lon="2.345">
        <ele>133</ele>
        <time>2013-09-23T18:57:01.079Z</time>
      </trkpt>
      <trkpt lat="48.88611" lon="2.345">
        <ele>131.9</ele>
        <time>2013-09-23T18:57:02.007Z</time>
      </trkpt>
      <trkpt lat="48.88619" lon="2.34494">
        <ele>129.2</ele>
        <time>2013-09-23T18:57:10.155Z</time>
      </trkpt>
      <trkpt lat="48.88621" lon="2.34493">
        <ele>128.9</ele>
        <time>2013-09-23T18:57:11.064Z</time>
      </trkpt>
      <trkpt lat="48.88628" lon="2.34487">
        <ele>126</ele>
        <time>2013-09-23T18:57:21.071Z</time>
      </trkpt>
      <trkpt lat="48.88629" lon="2.34487">
        <ele>126.5</ele>
        <time>2013-09-23T18:57:22.125Z</time>
      </trkpt>
      <trkpt lat="48.88623" lon="2.34492">
        <ele>128.2</ele>
        <time>2013-09-23T18:57:51.167Z</time>
      </trkpt>
      <trkpt lat="48.88623" lon="2.34492">
        <ele>128.2</ele>
        <time>2013-09-23T18:57:52.192Z</time>
      </trkpt>
      <trkpt lat="48.88622" lon="2.34491">
        <ele>128.4</ele>
        <time>2013-09-23T18:57:54.181Z</time>
      </trkpt>
      <trkpt lat="48.88622" lon="2.34491">
        <ele>128.8</ele>
        <time>2013-09-23T18:57:55.021Z</time>
      </trkpt>
      <trkpt lat="48.88621" lon="2.34478">
        <ele>123.1</ele>
        <time>2013-09-23T18:58:01.997Z</time>
      </trkpt>
      <trkpt lat="48.88621" lon="2.34475">
        <ele>123.9</ele>
        <time>2013-09-23T18:58:03.011Z</time>
      </trkpt>
      <trkpt lat="48.88617" lon="2.34468">
        <ele>123.9</ele>
        <time>2013-09-23T18:58:17.095Z</time>
      </trkpt>
      <trkpt lat="48.88617" lon="2.34468">
        <ele>124.3</ele>
        <time>2013-09-23T18:58:18.192Z</time>
      </trkpt>
      <trkpt lat="48.88617" lon="2.34468">
        <ele>124.4</ele>
        <time>2013-09-23T18:58:20.688Z</time>
      </trkpt>
      <trkpt lat="48.88617" lon="2.34467">
        <ele>124.7</ele>
        <time>2013-09-23T18:58:20.933Z</time>
      </trkpt>
      <trkpt lat="48.88619" lon="2.34456">
        <ele>121.1</ele>
        <time>2013-09-23T18:58:27.942Z</time>
      </trkpt>
      <trkpt lat="48.8862" lon="2.34453">
        <ele>120.4</ele>
        <time>2013-09-23T18:58:29.082Z</time>
      </trkpt>
      <trkpt lat="48.88621" lon="2.3444">
        <ele>121.3</ele>
        <time>2013-09-23T18:58:33.928Z</time>
      </trkpt>
      <trkpt lat="48.88622" lon="2.34439">
        <ele>120.4</ele>
        <time>2013-09-23T18:58:34.928Z</time>
      </trkpt>
      <trkpt lat="48.88618" lon="2.34426">
        <ele>118.3</ele>
        <time>2013-09-23T18:58:45.937Z</time>
      </trkpt>
      <trkpt lat="48.88618" lon="2.34426">
        <ele>118.2</ele>
        <time>2013-09-23T18:58:46.917Z</time>
      </trkpt>
      <trkpt lat="48.88614" lon="2.34415">
        <ele>125.3</ele>
        <time>2013-09-23T18:58:55.920Z</time>
      </trkpt>
      <trkpt lat="48.88613" lon="2.34412">
        <ele>126.2</ele>
        <time>2013-09-23T18:58:56.934Z</time>
      </trkpt>
      <trkpt lat="48.88613" lon="2.34398">
        <ele>129.4</ele>
        <time>2013-09-23T18:59:03.935Z</time>
      </trkpt>
      <trkpt lat="48.88613" lon="2.34397">
        <ele>129.6</ele>
        <time>2013-09-23T18:59:04.934Z</time>
      </trkpt>
      <trkpt lat="48.88613" lon="2.34396">
        <ele>129.2</ele>
        <time>2013-09-23T18:59:06.923Z</time>
      </trkpt>
      <trkpt lat="48.88613" lon="2.34396">
        <ele>129.1</ele>
        <time>2013-09-23T18:59:07.935Z</time>
      </trkpt>
      <trkpt lat="48.88614" lon="2.34397">
        <ele>128.9</ele>
        <time>2013-09-23T18:59:41.923Z</time>
      </trkpt>
      <trkpt lat="48.88614" lon="2.34396">
        <ele>130.1</ele>
        <time>2013-09-23T18:59:42.994Z</time>
      </trkpt>
      <trkpt lat="48.88618" lon="2.34385">
        <ele>133.4</ele>
        <time>2013-09-23T19:00:02.970Z</time>
      </trkpt>
      <trkpt lat="48.88619" lon="2.34384">
        <ele>133.6</ele>
        <time>2013-09-23T19:00:04.092Z</time>
      </trkpt>
      <trkpt lat="48.88622" lon="2.34373">
        <ele>140.7</ele>
        <time>2013-09-23T19:00:20.937Z</time>
      </trkpt>
      <trkpt lat="48.88622" lon="2.34372">
        <ele>140.8</ele>
        <time>2013-09-23T19:00:22.105Z</time>
      </trkpt>
      <trkpt lat="48.88622" lon="2.34358">
        <ele>146.1</ele>
        <time>2013-09-23T19:00:29.947Z</time>
      </trkpt>
      <trkpt lat="48.88622" lon="2.34355">
        <ele>148.7</ele>
        <time>2013-09-23T19:00:30.935Z</time>
      </trkpt>
      <trkpt lat="48.88619" lon="2.34343">
        <ele>149.3</ele>
        <time>2013-09-23T19:00:34.936Z</time>
      </trkpt>
      <trkpt lat="48.88619" lon="2.34341">
        <ele>149.4</ele>
        <time>2013-09-23T19:00:35.929Z</time>
      </trkpt>
      <trkpt lat="48.88624" lon="2.3433">
        <ele>153.4</ele>
        <time>2013-09-23T19:00:48.932Z</time>
      </trkpt>
      <trkpt lat="48.88624" lon="2.34329">
        <ele>153.8</ele>
        <time>2013-09-23T19:00:49.939Z</time>
      </trkpt>
      <trkpt lat="48.88624" lon="2.34328">
        <ele>155.2</ele>
        <time>2013-09-23T19:01:45.951Z</time>
      </trkpt>
      <trkpt lat="48.88624" lon="2.34329">
        <ele>154.7</ele>
        <time>2013-09-23T19:01:46.945Z</time>
      </trkpt>
      <trkpt lat="48.88625" lon="2.34331">
        <ele>155</ele>
        <time>2013-09-23T19:01:51.945Z</time>
      </trkpt>
      <trkpt lat="48.88625" lon="2.3433">
        <ele>155.3</ele>
        <time>2013-09-23T19:01:52.990Z</time>
      </trkpt>
      <trkpt lat="48.88627" lon="2.34329">
        <ele>157.5</ele>
        <time>2013-09-23T19:03:32.965Z</time>
      </trkpt>
      <trkpt lat="48.88627" lon="2.34329">
        <ele>157.8</ele>
        <time>2013-09-23T19:03:34.129Z</time>
      </trkpt>
      <trkpt lat="48.88628" lon="2.34329">
        <ele>158.1</ele>
        <time>2013-09-23T19:03:38.017Z</time>
      </trkpt>
      <trkpt lat="48.88628" lon="2.34329">
        <ele>158.1</ele>
        <time>2013-09-23T19:03:39.117Z</time>
      </trkpt>
      <trkpt lat="48.88628" lon="2.34328">
        <ele>160.2</ele>
        <time>2013-09-23T19:03:58.023Z</time>
      </trkpt>
      <trkpt lat="48.88627" lon="2.34329">
        <ele>160.7</ele>
        <time>2013-09-23T19:03:59.097Z</time>
      </trkpt>
      <trkpt lat="48.88626" lon="2.3433">
        <ele>160.6</ele>
        <time>2013-09-23T19:04:02.986Z</time>
      </trkpt>
      <trkpt lat="48.88626" lon="2.3433">
        <ele>160.7</ele>
        <time>2013-09-23T19:04:03.955Z</time>
      </trkpt>
      <trkpt lat="48.88627" lon="2.34328">
        <ele>158.3</ele>
        <time>2013-09-23T19:04:59.972Z</time>
      </trkpt>
      <trkpt lat="48.88627" lon="2.34328">
        <ele>158.5</ele>
        <time>2013-09-23T19:05:01.155Z</time>
      </trkpt>
      <trkpt lat="48.88627" lon="2.34327">
        <ele>158.5</ele>
        <time>2013-09-23T19:05:01.984Z</time>
      </trkpt>
      <trkpt lat="48.88627" lon="2.34327">
        <ele>158.5</ele>
        <time>2013-09-23T19:05:03.129Z</time>
      </trkpt>
      <trkpt lat="48.88628" lon="2.34326">
        <ele>158.3</ele>
        <time>2013-09-23T19:05:27.034Z</time>
      </trkpt>
      <trkpt lat="48.88628" lon="2.34325">
        <ele>157.6</ele>
        <time>2013-09-23T19:05:28.095Z</time>
      </trkpt>
      <trkpt lat="48.88628" lon="2.34324">
        <ele>158</ele>
        <time>2013-09-23T19:05:31.159Z</time>
      </trkpt>
      <trkpt lat="48.88628" lon="2.34324">
        <ele>157.9</ele>
        <time>2013-09-23T19:05:31.966Z</time>
      </trkpt>
      <trkpt lat="48.88628" lon="2.34326">
        <ele>158.1</ele>
        <time>2013-09-23T19:06:28.167Z</time>
      </trkpt>
      <trkpt lat="48.88628" lon="2.34327">
        <ele>156.8</ele>
        <time>2013-09-23T19:06:28.985Z</time>
      </trkpt>
      <trkpt lat="48.8863" lon="2.34338">
        <ele>162.7</ele>
        <time>2013-09-23T19:06:35.196Z</time>
      </trkpt>
      <trkpt lat="48.8863" lon="2.34342">
        <ele>163.6</ele>
        <time>2013-09-23T19:06:35.973Z</time>
      </trkpt>
      <trkpt lat="48.88629" lon="2.34354">
        <ele>166.5</ele>
        <time>2013-09-23T19:06:40.129Z</time>
      </trkpt>
      <trkpt lat="48.88628" lon="2.34356">
        <ele>166.8</ele>
        <time>2013-09-23T19:06:41.045Z</time>
      </trkpt>
      <trkpt lat="48.88625" lon="2.3436">
        <ele>164.3</ele>
        <time>2013-09-23T19:06:51.975Z</time>
      </trkpt>
      <trkpt lat="48.88625" lon="2.3436">
        <ele>164.5</ele>
        <time>2013-09-23T19:06:53.166Z</time>
      </trkpt>
      <trkpt lat="48.88625" lon="2.3436">
        <ele>164</ele>
        <time>2013-09-23T19:06:53.975Z</time>
      </trkpt>
      <trkpt lat="48.88625" lon="2.34361">
        <ele>163.9</ele>
        <time>2013-09-23T19:06:55.093Z</time>
      </trkpt>
      <trkpt lat="48.88625" lon="2.34361">
        <ele>162.9</ele>
        <time>2013-09-23T19:06:56.105Z</time>
      </trkpt>
      <trkpt lat="48.88624" lon="2.34365">
        <ele>162.6</ele>
        <time>2013-09-23T19:07:04.069Z</time>
      </trkpt>
      <trkpt lat="48.88624" lon="2.34365">
        <ele>162</ele>
        <time>2013-09-23T19:07:05.112Z</time>
      </trkpt>
      <trkpt lat="48.88623" lon="2.34367">
        <ele>161.2</ele>
        <time>2013-09-23T19:07:20.108Z</time>
      </trkpt>
      <trkpt lat="48.88623" lon="2.34368">
        <ele>161.3</ele>
        <time>2013-09-23T19:07:21.161Z</time>
      </trkpt>
      <trkpt lat="48.88621" lon="2.34377">
        <ele>158.7</ele>
        <time>2013-09-23T19:07:39.169Z</time>
      </trkpt>
      <trkpt lat="48.88621" lon="2.34377">
        <ele>158.7</ele>
        <time>2013-09-23T19:07:39.977Z</time>
      </trkpt>
      <trkpt lat="48.88621" lon="2.34377">
        <ele>158.7</ele>
        <time>2013-09-23T19:07:44.131Z</time>
      </trkpt>
      <trkpt lat="48.88621" lon="2.34377">
        <ele>158.8</ele>
        <time>2013-09-23T19:07:45.048Z</time>
      </trkpt>
      <trkpt lat="48.88627" lon="2.34383">
        <ele>158.9</ele>
        <time>2013-09-23T19:07:48.986Z</time>
      </trkpt>
      <trkpt lat="48.8863" lon="2.34386">
        <ele>159.3</ele>
        <time>2013-09-23T19:07:50.123Z</time>
      </trkpt>
      <trkpt lat="48.88636" lon="2.34391">
        <ele>157.9</ele>
        <time>2013-09-23T19:07:53.152Z</time>
      </trkpt>
      <trkpt lat="48.88638" lon="2.34392">
        <ele>157.7</ele>
        <time>2013-09-23T19:07:54.012Z</time>
      </trkpt>
      <trkpt lat="48.88645" lon="2.34399">
        <ele>155.4</ele>
        <time>2013-09-23T19:07:57.178Z</time>
      </trkpt>
      <trkpt lat="48.88646" lon="2.34401">
        <ele>156.7</ele>
        <time>2013-09-23T19:07:58.051Z</time>
      </trkpt>
      <trkpt lat="48.88652" lon="2.34407">
        <ele>158.9</ele>
        <time>2013-09-23T19:08:01.044Z</time>
      </trkpt>
      <trkpt lat="48.88654" lon="2.34409">
        <ele>158.9</ele>
        <time>2013-09-23T19:08:02.146Z</time>
      </trkpt>
      <trkpt lat="48.88662" lon="2.34412">
        <ele>159.3</ele>
        <time>2013-09-23T19:08:06.133Z</time>
      </trkpt>
      <trkpt lat="48.88664" lon="2.34412">
        <ele>158.8</ele>
        <time>2013-09-23T19:08:06.995Z</time>
      </trkpt>
      <trkpt lat="48.88672" lon="2.34417">
        <ele>160.5</ele>
        <time>2013-09-23T19:08:11.980Z</time>
      </trkpt>
      <trkpt lat="48.88673" lon="2.34418">
        <ele>161.2</ele>
        <time>2013-09-23T19:08:13.101Z</time>
      </trkpt>
      <trkpt lat="48.8868" lon="2.3442">
        <ele>165.4</ele>
        <time>2013-09-23T19:08:18.980Z</time>
      </trkpt>
      <trkpt lat="48.88683" lon="2.34419">
        <ele>165.1</ele>
        <time>2013-09-23T19:08:19.973Z</time>
      </trkpt>
      <trkpt lat="48.8869" lon="2.34419">
        <ele>164.9</ele>
        <time>2013-09-23T19:08:22.160Z</time>
      </trkpt>
      <trkpt lat="48.88693" lon="2.3442">
        <ele>164.7</ele>
        <time>2013-09-23T19:08:22.997Z</time>
      </trkpt>
      <trkpt lat="48.887" lon="2.34421">
        <ele>165</ele>
        <time>2013-09-23T19:08:25.179Z</time>
      </trkpt>
      <trkpt lat="48.88703" lon="2.34422">
        <ele>164.5</ele>
        <time>2013-09-23T19:08:26.039Z</time>
      </trkpt>
      <trkpt lat="48.88708" lon="2.34424">
        <ele>161.4</ele>
        <time>2013-09-23T19:08:27.157Z</time>
      </trkpt>
      <trkpt lat="48.88712" lon="2.34426">
        <ele>156.3</ele>
        <time>2013-09-23T19:08:27.981Z</time>
      </trkpt>
      <trkpt lat="48.88717" lon="2.3443">
        <ele>156</ele>
        <time>2013-09-23T19:08:29.164Z</time>
      </trkpt>
      <trkpt lat="48.88721" lon="2.34433">
        <ele>156.3</ele>
        <time>2013-09-23T19:08:29.982Z</time>
      </trkpt>
      <trkpt lat="48.88726" lon="2.34436">
        <ele>155.5</ele>
        <time>2013-09-23T19:08:31.127Z</time>
      </trkpt>
      <trkpt lat="48.88729" lon="2.34439">
        <ele>155.3</ele>
        <time>2013-09-23T19:08:32.078Z</time>
      </trkpt>
      <trkpt lat="48.88736" lon="2.34445">
        <ele>151.4</ele>
        <time>2013-09-23T19:08:35.015Z</time>
      </trkpt>
      <trkpt lat="48.88739" lon="2.34446">
        <ele>151.5</ele>
        <time>2013-09-23T19:08:36.172Z</time>
      </trkpt>
      <trkpt lat="48.88747" lon="2.34446">
        <ele>152.3</ele>
        <time>2013-09-23T19:08:41.248Z</time>
      </trkpt>
      <trkpt lat="48.88748" lon="2.34445">
        <ele>152.8</ele>
        <time>2013-09-23T19:08:42.030Z</time>
      </trkpt>
      <trkpt lat="48.88755" lon="2.34443">
        <ele>151.4</ele>
        <time>2013-09-23T19:08:45.182Z</time>
      </trkpt>
      <trkpt lat="48.88758" lon="2.34442">
        <ele>151</ele>
        <time>2013-09-23T19:08:45.985Z</time>
      </trkpt>
      <trkpt lat="48.88764" lon="2.34439">
        <ele>150.8</ele>
        <time>2013-09-23T19:08:48.166Z</time>
      </trkpt>
      <trkpt lat="48.88768" lon="2.34438">
        <ele>150.7</ele>
        <time>2013-09-23T19:08:49.050Z</time>
      </trkpt>
      <trkpt lat="48.88776" lon="2.34435">
        <ele>151.1</ele>
        <time>2013-09-23T19:08:51.003Z</time>
      </trkpt>
      <trkpt lat="48.88782" lon="2.34433">
        <ele>150.8</ele>
        <time>2013-09-23T19:08:52.136Z</time>
      </trkpt>
      <trkpt lat="48.88786" lon="2.34431">
        <ele>149.9</ele>
        <time>2013-09-23T19:08:52.999Z</time>
      </trkpt>
      <trkpt lat="48.8879" lon="2.34429">
        <ele>149.3</ele>
        <time>2013-09-23T19:08:54.152Z</time>
      </trkpt>
      <trkpt lat="48.88799" lon="2.34426">
        <ele>147.7</ele>
        <time>2013-09-23T19:08:56.067Z</time>
      </trkpt>
      <trkpt lat="48.88803" lon="2.34425">
        <ele>147.9</ele>
        <time>2013-09-23T19:08:57.136Z</time>
      </trkpt>
      <trkpt lat="48.88811" lon="2.34423">
        <ele>148.2</ele>
        <time>2013-09-23T19:08:59.144Z</time>
      </trkpt>
      <trkpt lat="48.88814" lon="2.34422">
        <ele>148.8</ele>
        <time>2013-09-23T19:08:59.983Z</time>
      </trkpt>
      <trkpt lat="48.88823" lon="2.34419">
        <ele>150.1</ele>
        <time>2013-09-23T19:09:03.109Z</time>
      </trkpt>
      <trkpt lat="48.88825" lon="2.34417">
        <ele>150.6</ele>
        <time>2013-09-23T19:09:04.047Z</time>
      </trkpt>
      <trkpt lat="48.88833" lon="2.34411">
        <ele>152.1</ele>
        <time>2013-09-23T19:09:06.985Z</time>
      </trkpt>
      <trkpt lat="48.88836" lon="2.3441">
        <ele>152.4</ele>
        <time>2013-09-23T19:09:08.104Z</time>
      </trkpt>
      <trkpt lat="48.88844" lon="2.34409">
        <ele>154.8</ele>
        <time>2013-09-23T19:09:10.987Z</time>
      </trkpt>
      <trkpt lat="48.88847" lon="2.34408">
        <ele>155.6</ele>
        <time>2013-09-23T19:09:12.079Z</time>
      </trkpt>
      <trkpt lat="48.88855" lon="2.34405">
        <ele>154.4</ele>
        <time>2013-09-23T19:09:15.113Z</time>
      </trkpt>
      <trkpt lat="48.88858" lon="2.34403">
        <ele>154.1</ele>
        <time>2013-09-23T19:09:15.986Z</time>
      </trkpt>
      <trkpt lat="48.88864" lon="2.34398">
        <ele>151.1</ele>
        <time>2013-09-23T19:09:17.984Z</time>
      </trkpt>
      <trkpt lat="48.88867" lon="2.34395">
        <ele>148.5</ele>
        <time>2013-09-23T19:09:19.120Z</time>
      </trkpt>
      <trkpt lat="48.88874" lon="2.34392">
        <ele>147.5</ele>
        <time>2013-09-23T19:09:21.064Z</time>
      </trkpt>
      <trkpt lat="48.88877" lon="2.3439">
        <ele>146.9</ele>
        <time>2013-09-23T19:09:22.151Z</time>
      </trkpt>
      <trkpt lat="48.88883" lon="2.34385">
        <ele>147.8</ele>
        <time>2013-09-23T19:09:24.205Z</time>
      </trkpt>
      <trkpt lat="48.88885" lon="2.34382">
        <ele>145.3</ele>
        <time>2013-09-23T19:09:24.986Z</time>
      </trkpt>
      <trkpt lat="48.88888" lon="2.34373">
        <ele>143.2</ele>
        <time>2013-09-23T19:09:27.038Z</time>
      </trkpt>
      <trkpt lat="48.88889" lon="2.34369">
        <ele>143.1</ele>
        <time>2013-09-23T19:09:28.083Z</time>
      </trkpt>
      <trkpt lat="48.88889" lon="2.34358">
        <ele>145.6</ele>
        <time>2013-09-23T19:09:31.163Z</time>
      </trkpt>
      <trkpt lat="48.88889" lon="2.34355">
        <ele>145.1</ele>
        <time>2013-09-23T19:09:31.996Z</time>
      </trkpt>
      <trkpt lat="48.88892" lon="2.34342">
        <ele>144.8</ele>
        <time>2013-09-23T19:09:35.122Z</time>
      </trkpt>
      <trkpt lat="48.88894" lon="2.34338">
        <ele>145.3</ele>
        <time>2013-09-23T19:09:36.081Z</time>
      </trkpt>
      <trkpt lat="48.88896" lon="2.34325">
        <ele>144.3</ele>
        <time>2013-09-23T19:09:39.002Z</time>
      </trkpt>
      <trkpt lat="48.88896" lon="2.3432">
        <ele>144.4</ele>
        <time>2013-09-23T19:09:40.211Z</time>
      </trkpt>
      <trkpt lat="48.88896" lon="2.34308">
        <ele>145.6</ele>
        <time>2013-09-23T19:09:43.019Z</time>
      </trkpt>
      <trkpt lat="48.88896" lon="2.34303">
        <ele>145.4</ele>
        <time>2013-09-23T19:09:44.089Z</time>
      </trkpt>
      <trkpt lat="48.88897" lon="2.34294">
        <ele>145.1</ele>
        <time>2013-09-23T19:09:46.027Z</time>
      </trkpt>
      <trkpt lat="48.88897" lon="2.34288">
        <ele>144.7</ele>
        <time>2013-09-23T19:09:47.108Z</time>
      </trkpt>
      <trkpt lat="48.889" lon="2.34276">
        <ele>144.5</ele>
        <time>2013-09-23T19:09:49.139Z</time>
      </trkpt>
      <trkpt lat="48.88901" lon="2.34271">
        <ele>144.8</ele>
        <time>2013-09-23T19:09:49.992Z</time>
      </trkpt>
      <trkpt lat="48.88903" lon="2.34264">
        <ele>145</ele>
        <time>2013-09-23T19:09:51.005Z</time>
      </trkpt>
      <trkpt lat="48.88904" lon="2.34258">
        <ele>146.5</ele>
        <time>2013-09-23T19:09:52.124Z</time>
      </trkpt>
      <trkpt lat="48.88907" lon="2.34245">
        <ele>145</ele>
        <time>2013-09-23T19:09:54.167Z</time>
      </trkpt>
      <trkpt lat="48.88909" lon="2.3424">
        <ele>145.5</ele>
        <time>2013-09-23T19:09:54.994Z</time>
      </trkpt>
      <trkpt lat="48.88913" lon="2.34228">
        <ele>145.8</ele>
        <time>2013-09-23T19:09:56.986Z</time>
      </trkpt>
      <trkpt lat="48.88915" lon="2.34221">
        <ele>145.9</ele>
        <time>2013-09-23T19:09:58.156Z</time>
      </trkpt>
      <trkpt lat="48.88919" lon="2.3421">
        <ele>145.2</ele>
        <time>2013-09-23T19:10:00.083Z</time>
      </trkpt>
      <trkpt lat="48.8892" lon="2.34205">
        <ele>145.9</ele>
        <time>2013-09-23T19:10:00.990Z</time>
      </trkpt>
      <trkpt lat="48.8892" lon="2.34193">
        <ele>147.9</ele>
        <time>2013-09-23T19:10:02.996Z</time>
      </trkpt>
      <trkpt lat="48.8892" lon="2.34188">
        <ele>147.8</ele>
        <time>2013-09-23T19:10:03.982Z</time>
      </trkpt>
      <trkpt lat="48.88919" lon="2.34177">
        <ele>143.2</ele>
        <time>2013-09-23T19:10:06.009Z</time>
      </trkpt>
      <trkpt lat="48.88919" lon="2.34172">
        <ele>140.8</ele>
        <time>2013-09-23T19:10:07.117Z</time>
      </trkpt>
      <trkpt lat="48.88922" lon="2.34161">
        <ele>139</ele>
        <time>2013-09-23T19:10:08.987Z</time>
      </trkpt>
      <trkpt lat="48.88926" lon="2.3415">
        <ele>139.9</ele>
        <time>2013-09-23T19:10:10.056Z</time>
      </trkpt>
      <trkpt lat="48.8893" lon="2.34141">
        <ele>139.4</ele>
        <time>2013-09-23T19:10:11.006Z</time>
      </trkpt>
      <trkpt lat="48.88933" lon="2.34133">
        <ele>138.4</ele>
        <time>2013-09-23T19:10:12.015Z</time>
      </trkpt>
      <trkpt lat="48.88936" lon="2.3412">
        <ele>138</ele>
        <time>2013-09-23T19:10:13.993Z</time>
      </trkpt>
      <trkpt lat="48.88936" lon="2.34116">
        <ele>137.6</ele>
        <time>2013-09-23T19:10:15.112Z</time>
      </trkpt>
      <trkpt lat="48.88938" lon="2.34105">
        <ele>139.1</ele>
        <time>2013-09-23T19:10:17.093Z</time>
      </trkpt>
      <trkpt lat="48.88939" lon="2.34099">
        <ele>139</ele>
        <time>2013-09-23T19:10:18.119Z</time>
      </trkpt>
      <trkpt lat="48.88941" lon="2.34086">
        <ele>134.1</ele>
        <time>2013-09-23T19:10:20.994Z</time>
      </trkpt>
      <trkpt lat="48.88941" lon="2.34081">
        <ele>135</ele>
        <time>2013-09-23T19:10:22.162Z</time>
      </trkpt>
      <trkpt lat="48.88943" lon="2.3407">
        <ele>133.6</ele>
        <time>2013-09-23T19:10:26.078Z</time>
      </trkpt>
      <trkpt lat="48.88945" lon="2.34068">
        <ele>134.8</ele>
        <time>2013-09-23T19:10:27.177Z</time>
      </trkpt>
      <trkpt lat="48.8895" lon="2.34058">
        <ele>137.9</ele>
        <time>2013-09-23T19:10:29.992Z</time>
      </trkpt>
      <trkpt lat="48.88951" lon="2.34053">
        <ele>138.7</ele>
        <time>2013-09-23T19:10:31.160Z</time>
      </trkpt>
      <trkpt lat="48.88952" lon="2.34041">
        <ele>138</ele>
        <time>2013-09-23T19:10:35.040Z</time>
      </trkpt>
      <trkpt lat="48.88952" lon="2.34039">
        <ele>138.6</ele>
        <time>2013-09-23T19:10:36.159Z</time>
      </trkpt>
      <trkpt lat="48.8896" lon="2.34032">
        <ele>142.3</ele>
        <time>2013-09-23T19:10:44.009Z</time>
      </trkpt>
      <trkpt lat="48.8896" lon="2.34032">
        <ele>142.1</ele>
        <time>2013-09-23T19:10:45.233Z</time>
      </trkpt>
      <trkpt lat="48.88967" lon="2.34029">
        <ele>143.6</ele>
        <time>2013-09-23T19:10:55.004Z</time>
      </trkpt>
      <trkpt lat="48.88967" lon="2.34029">
        <ele>143.1</ele>
        <time>2013-09-23T19:10:56.159Z</time>
      </trkpt>
      <trkpt lat="48.88967" lon="2.34029">
        <ele>142.8</ele>
        <time>2013-09-23T19:11:32.011Z</time>
      </trkpt>
      <trkpt lat="48.88966" lon="2.34028">
        <ele>140.7</ele>
        <time>2013-09-23T19:11:33.165Z</time>
      </trkpt>
      <trkpt lat="48.88962" lon="2.34016">
        <ele>139.8</ele>
        <time>2013-09-23T19:11:41.155Z</time>
      </trkpt>
      <trkpt lat="48.88961" lon="2.34015">
        <ele>139.8</ele>
        <time>2013-09-23T19:11:42.003Z</time>
      </trkpt>
      <trkpt lat="48.88963" lon="2.34009">
        <ele>142</ele>
        <time>2013-09-23T19:11:58.034Z</time>
      </trkpt>
      <trkpt lat="48.88963" lon="2.34009">
        <ele>142</ele>
        <time>2013-09-23T19:11:59.166Z</time>
      </trkpt>
      <trkpt lat="48.88963" lon="2.34009">
        <ele>143</ele>
        <time>2013-09-23T19:12:01.088Z</time>
      </trkpt>
      <trkpt lat="48.88963" lon="2.3401">
        <ele>145</ele>
        <time>2013-09-23T19:12:02.192Z</time>
      </trkpt>
      <trkpt lat="48.8897" lon="2.34017">
        <ele>147.9</ele>
        <time>2013-09-23T19:12:14.003Z</time>
      </trkpt>
      <trkpt lat="48.8897" lon="2.34018">
        <ele>148.2</ele>
        <time>2013-09-23T19:12:15.144Z</time>
      </trkpt>
      <trkpt lat="48.88975" lon="2.34026">
        <ele>145</ele>
        <time>2013-09-23T19:12:29.157Z</time>
      </trkpt>
      <trkpt lat="48.88975" lon="2.34026">
        <ele>144.8</ele>
        <time>2013-09-23T19:12:29.998Z</time>
      </trkpt>
      <trkpt lat="48.88975" lon="2.34025">
        <ele>140.9</ele>
        <time>2013-09-23T19:13:03.191Z</time>
      </trkpt>
      <trkpt lat="48.88974" lon="2.34024">
        <ele>139.3</ele>
        <time>2013-09-23T19:13:04.176Z</time>
      </trkpt>
      <trkpt lat="48.88971" lon="2.34014">
        <ele>145.7</ele>
        <time>2013-09-23T19:13:13.034Z</time>
      </trkpt>
      <trkpt lat="48.88971" lon="2.3401">
        <ele>147</ele>
        <time>2013-09-23T19:13:14.055Z</time>
      </trkpt>
      <trkpt lat="48.88973" lon="2.34">
        <ele>149.2</ele>
        <time>2013-09-23T19:13:17.215Z</time>
      </trkpt>
      <trkpt lat="48.88974" lon="2.33997">
        <ele>149.6</ele>
        <time>2013-09-23T19:13:18.000Z</time>
      </trkpt>
      <trkpt lat="48.88976" lon="2.33984">
        <ele>151.7</ele>
        <time>2013-09-23T19:13:22.137Z</time>
      </trkpt>
      <trkpt lat="48.88976" lon="2.33982">
        <ele>151.9</ele>
        <time>2013-09-23T19:13:23.025Z</time>
      </trkpt>
      <trkpt lat="48.88979" lon="2.33971">
        <ele>153.6</ele>
        <time>2013-09-23T19:13:28.112Z</time>
      </trkpt>
      <trkpt lat="48.88979" lon="2.33968">
        <ele>154.1</ele>
        <time>2013-09-23T19:13:29.128Z</time>
      </trkpt>
      <trkpt lat="48.8898" lon="2.33959">
        <ele>154.2</ele>
        <time>2013-09-23T19:13:32.010Z</time>
      </trkpt>
      <trkpt lat="48.8898" lon="2.33954">
        <ele>153.6</ele>
        <time>2013-09-23T19:13:33.177Z</time>
      </trkpt>
      <trkpt lat="48.8898" lon="2.33943">
        <ele>153.8</ele>
        <time>2013-09-23T19:13:35.123Z</time>
      </trkpt>
      <trkpt lat="48.8898" lon="2.33937">
        <ele>153.2</ele>
        <time>2013-09-23T19:13:36.153Z</time>
      </trkpt>
      <trkpt lat="48.8898" lon="2.33925">
        <ele>151.2</ele>
        <time>2013-09-23T19:13:38.067Z</time>
      </trkpt>
      <trkpt lat="48.8898" lon="2.33919">
        <ele>150.7</ele>
        <time>2013-09-23T19:13:38.995Z</time>
      </trkpt>
      <trkpt lat="48.88981" lon="2.33906">
        <ele>151.2</ele>
        <time>2013-09-23T19:13:41.010Z</time>
      </trkpt>
      <trkpt lat="48.88983" lon="2.33899">
        <ele>151</ele>
        <time>2013-09-23T19:13:42.123Z</time>
      </trkpt>
      <trkpt lat="48.88985" lon="2.33887">
        <ele>150.2</ele>
        <time>2013-09-23T19:13:44.099Z</time>
      </trkpt>
      <trkpt lat="48.88986" lon="2.33881">
        <ele>150.1</ele>
        <time>2013-09-23T19:13:45.142Z</time>
      </trkpt>
      <trkpt lat="48.88984" lon="2.33869">
        <ele>153.9</ele>
        <time>2013-09-23T19:13:48.049Z</time>
      </trkpt>
      <trkpt lat="48.88983" lon="2.33865">
        <ele>153.6</ele>
        <time>2013-09-23T19:13:49.177Z</time>
      </trkpt>
      <trkpt lat="48.88979" lon="2.33858">
        <ele>146.2</ele>
        <time>2013-09-23T19:13:51.162Z</time>
      </trkpt>
      <trkpt lat="48.88976" lon="2.33853">
        <ele>146.8</ele>
        <time>2013-09-23T19:13:52.209Z</time>
      </trkpt>
      <trkpt lat="48.8897" lon="2.33844">
        <ele>146.6</ele>
        <time>2013-09-23T19:13:54.186Z</time>
      </trkpt>
      <trkpt lat="48.88967" lon="2.33838">
        <ele>147.7</ele>
        <time>2013-09-23T19:13:55.036Z</time>
      </trkpt>
      <trkpt lat="48.88964" lon="2.33832">
        <ele>148.4</ele>
        <time>2013-09-23T19:13:56.178Z</time>
      </trkpt>
      <trkpt lat="48.88962" lon="2.33827">
        <ele>148.7</ele>
        <time>2013-09-23T19:13:57.084Z</time>
      </trkpt>
      <trkpt lat="48.88957" lon="2.33817">
        <ele>146.6</ele>
        <time>2013-09-23T19:13:59.051Z</time>
      </trkpt>
      <trkpt lat="48.88955" lon="2.33812">
        <ele>147.3</ele>
        <time>2013-09-23T19:14:00.113Z</time>
      </trkpt>
      <trkpt lat="48.88951" lon="2.33804">
        <ele>147.3</ele>
        <time>2013-09-23T19:14:02.060Z</time>
      </trkpt>
      <trkpt lat="48.88951" lon="2.338">
        <ele>147.1</ele>
        <time>2013-09-23T19:14:03.208Z</time>
      </trkpt>
      <trkpt lat="48.88951" lon="2.3379">
        <ele>145.8</ele>
        <time>2013-09-23T19:14:05.155Z</time>
      </trkpt>
      <trkpt lat="48.88951" lon="2.33785">
        <ele>146.3</ele>
        <time>2013-09-23T19:14:06.030Z</time>
      </trkpt>
      <trkpt lat="48.88952" lon="2.33774">
        <ele>146.5</ele>
        <time>2013-09-23T19:14:08.157Z</time>
      </trkpt>
      <trkpt lat="48.88953" lon="2.33768">
        <ele>146.2</ele>
        <time>2013-09-23T19:14:09.092Z</time>
      </trkpt>
      <trkpt lat="48.88953" lon="2.33756">
        <ele>146.2</ele>
        <time>2013-09-23T19:14:11.029Z</time>
      </trkpt>
      <trkpt lat="48.88953" lon="2.33749">
        <ele>146.6</ele>
        <time>2013-09-23T19:14:12.164Z</time>
      </trkpt>
      <trkpt lat="48.88953" lon="2.33736">
        <ele>148.2</ele>
        <time>2013-09-23T19:14:14.198Z</time>
      </trkpt>
      <trkpt lat="48.88952" lon="2.33731">
        <ele>148.5</ele>
        <time>2013-09-23T19:14:15.076Z</time>
      </trkpt>
      <trkpt lat="48.88952" lon="2.33719">
        <ele>149.8</ele>
        <time>2013-09-23T19:14:17.219Z</time>
      </trkpt>
      <trkpt lat="48.88951" lon="2.33714">
        <ele>150.4</ele>
        <time>2013-09-23T19:14:18.062Z</time>
      </trkpt>
      <trkpt lat="48.88951" lon="2.33703">
        <ele>150.1</ele>
        <time>2013-09-23T19:14:20.005Z</time>
      </trkpt>
      <trkpt lat="48.8895" lon="2.33697">
        <ele>149.4</ele>
        <time>2013-09-23T19:14:21.163Z</time>
      </trkpt>
      <trkpt lat="48.88951" lon="2.33687">
        <ele>149</ele>
        <time>2013-09-23T19:14:23.143Z</time>
      </trkpt>
      <trkpt lat="48.88951" lon="2.33683">
        <ele>149.6</ele>
        <time>2013-09-23T19:14:24.108Z</time>
      </trkpt>
      <trkpt lat="48.88953" lon="2.3367">
        <ele>149</ele>
        <time>2013-09-23T19:14:27.051Z</time>
      </trkpt>
      <trkpt lat="48.88954" lon="2.33665">
        <ele>147.7</ele>
        <time>2013-09-23T19:14:28.128Z</time>
      </trkpt>
      <trkpt lat="48.88955" lon="2.33654">
        <ele>147.2</ele>
        <time>2013-09-23T19:14:30.078Z</time>
      </trkpt>
      <trkpt lat="48.88955" lon="2.33649">
        <ele>146.6</ele>
        <time>2013-09-23T19:14:31.068Z</time>
      </trkpt>
      <trkpt lat="48.88955" lon="2.33638">
        <ele>143.3</ele>
        <time>2013-09-23T19:14:33.118Z</time>
      </trkpt>
      <trkpt lat="48.88955" lon="2.33632">
        <ele>142.8</ele>
        <time>2013-09-23T19:14:34.049Z</time>
      </trkpt>
      <trkpt lat="48.88955" lon="2.3362">
        <ele>142.4</ele>
        <time>2013-09-23T19:14:36.017Z</time>
      </trkpt>
      <trkpt lat="48.88955" lon="2.33614">
        <ele>142.4</ele>
        <time>2013-09-23T19:14:37.105Z</time>
      </trkpt>
      <trkpt lat="48.88954" lon="2.33605">
        <ele>142.6</ele>
        <time>2013-09-23T19:14:39.013Z</time>
      </trkpt>
      <trkpt lat="48.88953" lon="2.336">
        <ele>141.3</ele>
        <time>2013-09-23T19:14:40.026Z</time>
      </trkpt>
      <trkpt lat="48.88949" lon="2.33592">
        <ele>140.5</ele>
        <time>2013-09-23T19:14:42.130Z</time>
      </trkpt>
      <trkpt lat="48.88948" lon="2.33588">
        <ele>139.4</ele>
        <time>2013-09-23T19:14:43.016Z</time>
      </trkpt>
      <trkpt lat="48.88945" lon="2.33578">
        <ele>139.8</ele>
        <time>2013-09-23T19:14:45.039Z</time>
      </trkpt>
      <trkpt lat="48.88944" lon="2.33572">
        <ele>140.3</ele>
        <time>2013-09-23T19:14:46.129Z</time>
      </trkpt>
      <trkpt lat="48.88945" lon="2.33561">
        <ele>138.9</ele>
        <time>2013-09-23T19:14:48.102Z</time>
      </trkpt>
      <trkpt lat="48.88945" lon="2.33555">
        <ele>139</ele>
        <time>2013-09-23T19:14:49.118Z</time>
      </trkpt>
      <trkpt lat="48.88945" lon="2.33543">
        <ele>138.7</ele>
        <time>2013-09-23T19:14:51.161Z</time>
      </trkpt>
      <trkpt lat="48.88945" lon="2.33537">
        <ele>138.6</ele>
        <time>2013-09-23T19:14:52.010Z</time>
      </trkpt>
      <trkpt lat="48.88942" lon="2.33525">
        <ele>138.3</ele>
        <time>2013-09-23T19:14:54.016Z</time>
      </trkpt>
      <trkpt lat="48.88939" lon="2.33518">
        <ele>138.1</ele>
        <time>2013-09-23T19:14:55.137Z</time>
      </trkpt>
      <trkpt lat="48.88936" lon="2.33513">
        <ele>138.4</ele>
        <time>2013-09-23T19:14:56.111Z</time>
      </trkpt>
      <trkpt lat="48.88933" lon="2.33508">
        <ele>137.9</ele>
        <time>2013-09-23T19:14:57.115Z</time>
      </trkpt>
      <trkpt lat="48.88929" lon="2.33503">
        <ele>139</ele>
        <time>2013-09-23T19:14:58.113Z</time>
      </trkpt>
      <trkpt lat="48.88925" lon="2.33499">
        <ele>139.8</ele>
        <time>2013-09-23T19:14:59.008Z</time>
      </trkpt>
      <trkpt lat="48.88919" lon="2.33495">
        <ele>141.5</ele>
        <time>2013-09-23T19:15:00.104Z</time>
      </trkpt>
      <trkpt lat="48.88915" lon="2.33494">
        <ele>143.3</ele>
        <time>2013-09-23T19:15:01.016Z</time>
      </trkpt>
      <trkpt lat="48.88909" lon="2.33492">
        <ele>143.4</ele>
        <time>2013-09-23T19:15:02.105Z</time>
      </trkpt>
      <trkpt lat="48.88904" lon="2.3349">
        <ele>142.6</ele>
        <time>2013-09-23T19:15:03.072Z</time>
      </trkpt>
      <trkpt lat="48.88899" lon="2.33488">
        <ele>143.3</ele>
        <time>2013-09-23T19:15:04.096Z</time>
      </trkpt>
      <trkpt lat="48.88894" lon="2.33486">
        <ele>144</ele>
        <time>2013-09-23T19:15:05.146Z</time>
      </trkpt>
      <trkpt lat="48.8889" lon="2.33484">
        <ele>143.6</ele>
        <time>2013-09-23T19:15:06.024Z</time>
      </trkpt>
      <trkpt lat="48.88885" lon="2.33481">
        <ele>141.6</ele>
        <time>2013-09-23T19:15:07.152Z</time>
      </trkpt>
      <trkpt lat="48.88881" lon="2.33479">
        <ele>140.3</ele>
        <time>2013-09-23T19:15:08.024Z</time>
      </trkpt>
      <trkpt lat="48.88876" lon="2.33476">
        <ele>141.7</ele>
        <time>2013-09-23T19:15:09.136Z</time>
      </trkpt>
      <trkpt lat="48.88868" lon="2.3347">
        <ele>142.7</ele>
        <time>2013-09-23T19:15:11.158Z</time>
      </trkpt>
      <trkpt lat="48.88864" lon="2.33467">
        <ele>143.1</ele>
        <time>2013-09-23T19:15:12.155Z</time>
      </trkpt>
      <trkpt lat="48.88856" lon="2.33461">
        <ele>139.9</ele>
        <time>2013-09-23T19:15:14.115Z</time>
      </trkpt>
      <trkpt lat="48.88852" lon="2.33455">
        <ele>137.5</ele>
        <time>2013-09-23T19:15:15.010Z</time>
      </trkpt>
      <trkpt lat="48.88846" lon="2.3345">
        <ele>138.2</ele>
        <time>2013-09-23T19:15:16.147Z</time>
      </trkpt>
      <trkpt lat="48.88842" lon="2.33445">
        <ele>138.1</ele>
        <time>2013-09-23T19:15:17.015Z</time>
      </trkpt>
      <trkpt lat="48.88837" lon="2.3344">
        <ele>138.5</ele>
        <time>2013-09-23T19:15:18.130Z</time>
      </trkpt>
      <trkpt lat="48.88833" lon="2.33436">
        <ele>137.8</ele>
        <time>2013-09-23T19:15:19.069Z</time>
      </trkpt>
      <trkpt lat="48.88828" lon="2.33433">
        <ele>138.3</ele>
        <time>2013-09-23T19:15:20.097Z</time>
      </trkpt>
      <trkpt lat="48.88823" lon="2.33429">
        <ele>138.3</ele>
        <time>2013-09-23T19:15:21.163Z</time>
      </trkpt>
      <trkpt lat="48.8882" lon="2.33424">
        <ele>137.5</ele>
        <time>2013-09-23T19:15:22.055Z</time>
      </trkpt>
      <trkpt lat="48.88816" lon="2.33419">
        <ele>137.1</ele>
        <time>2013-09-23T19:15:23.140Z</time>
      </trkpt>
      <trkpt lat="48.88809" lon="2.33411">
        <ele>136.9</ele>
        <time>2013-09-23T19:15:25.129Z</time>
      </trkpt>
      <trkpt lat="48.88806" lon="2.33408">
        <ele>137.1</ele>
        <time>2013-09-23T19:15:26.018Z</time>
      </trkpt>
      <trkpt lat="48.88801" lon="2.33405">
        <ele>136.5</ele>
        <time>2013-09-23T19:15:27.129Z</time>
      </trkpt>
      <trkpt lat="48.88795" lon="2.33403">
        <ele>135.9</ele>
        <time>2013-09-23T19:15:28.122Z</time>
      </trkpt>
      <trkpt lat="48.8879" lon="2.334">
        <ele>137</ele>
        <time>2013-09-23T19:15:29.074Z</time>
      </trkpt>
      <trkpt lat="48.88785" lon="2.33396">
        <ele>137</ele>
        <time>2013-09-23T19:15:30.116Z</time>
      </trkpt>
      <trkpt lat="48.88781" lon="2.33393">
        <ele>136</ele>
        <time>2013-09-23T19:15:31.012Z</time>
      </trkpt>
      <trkpt lat="48.88775" lon="2.33389">
        <ele>135.9</ele>
        <time>2013-09-23T19:15:32.146Z</time>
      </trkpt>
      <trkpt lat="48.88771" lon="2.33387">
        <ele>135.9</ele>
        <time>2013-09-23T19:15:33.013Z</time>
      </trkpt>
      <trkpt lat="48.88766" lon="2.33384">
        <ele>135.2</ele>
        <time>2013-09-23T19:15:34.011Z</time>
      </trkpt>
      <trkpt lat="48.88762" lon="2.33381">
        <ele>134.9</ele>
        <time>2013-09-23T19:15:35.029Z</time>
      </trkpt>
      <trkpt lat="48.88757" lon="2.33377">
        <ele>135</ele>
        <time>2013-09-23T19:15:36.100Z</time>
      </trkpt>
      <trkpt lat="48.88754" lon="2.33372">
        <ele>134.2</ele>
        <time>2013-09-23T19:15:37.188Z</time>
      </trkpt>
      <trkpt lat="48.88751" lon="2.33367">
        <ele>133.5</ele>
        <time>2013-09-23T19:15:38.034Z</time>
      </trkpt>
      <trkpt lat="48.88746" lon="2.33359">
        <ele>135.2</ele>
        <time>2013-09-23T19:15:40.005Z</time>
      </trkpt>
      <trkpt lat="48.88743" lon="2.33355">
        <ele>137.3</ele>
        <time>2013-09-23T19:15:41.028Z</time>
      </trkpt>
      <trkpt lat="48.88734" lon="2.33351">
        <ele>137</ele>
        <time>2013-09-23T19:15:43.047Z</time>
      </trkpt>
      <trkpt lat="48.8873" lon="2.33348">
        <ele>133.2</ele>
        <time>2013-09-23T19:15:44.020Z</time>
      </trkpt>
      <trkpt lat="48.88726" lon="2.33345">
        <ele>132.5</ele>
        <time>2013-09-23T19:15:45.091Z</time>
      </trkpt>
      <trkpt lat="48.88721" lon="2.33342">
        <ele>133.2</ele>
        <time>2013-09-23T19:15:46.211Z</time>
      </trkpt>
      <trkpt lat="48.88718" lon="2.3334">
        <ele>132.8</ele>
        <time>2013-09-23T19:15:47.036Z</time>
      </trkpt>
      <trkpt lat="48.88712" lon="2.33336">
        <ele>132.9</ele>
        <time>2013-09-23T19:15:48.183Z</time>
      </trkpt>
      <trkpt lat="48.88707" lon="2.33333">
        <ele>132.3</ele>
        <time>2013-09-23T19:15:49.018Z</time>
      </trkpt>
      <trkpt lat="48.88702" lon="2.3333">
        <ele>133.2</ele>
        <time>2013-09-23T19:15:50.122Z</time>
      </trkpt>
      <trkpt lat="48.88695" lon="2.33327">
        <ele>133.6</ele>
        <time>2013-09-23T19:15:52.116Z</time>
      </trkpt>
      <trkpt lat="48.88691" lon="2.33325">
        <ele>133.8</ele>
        <time>2013-09-23T19:15:53.131Z</time>
      </trkpt>
      <trkpt lat="48.88684" lon="2.33321">
        <ele>131.1</ele>
        <time>2013-09-23T19:15:55.157Z</time>
      </trkpt>
      <trkpt lat="48.88682" lon="2.33317">
        <ele>128.1</ele>
        <time>2013-09-23T19:15:56.014Z</time>
      </trkpt>
      <trkpt lat="48.88676" lon="2.33308">
        <ele>125</ele>
        <time>2013-09-23T19:15:58.055Z</time>
      </trkpt>
      <trkpt lat="48.88673" lon="2.33302">
        <ele>125.5</ele>
        <time>2013-09-23T19:15:59.156Z</time>
      </trkpt>
      <trkpt lat="48.88668" lon="2.33296">
        <ele>122.5</ele>
        <time>2013-09-23T19:16:01.116Z</time>
      </trkpt>
      <trkpt lat="48.88666" lon="2.33294">
        <ele>121.6</ele>
        <time>2013-09-23T19:16:02.182Z</time>
      </trkpt>
      <trkpt lat="48.88665" lon="2.33281">
        <ele>120.4</ele>
        <time>2013-09-23T19:16:16.033Z</time>
      </trkpt>
      <trkpt lat="48.88665" lon="2.33279">
        <ele>119.8</ele>
        <time>2013-09-23T19:16:17.093Z</time>
      </trkpt>
      <trkpt lat="48.88666" lon="2.33269">
        <ele>124.8</ele>
        <time>2013-09-23T19:16:33.124Z</time>
      </trkpt>
      <trkpt lat="48.88666" lon="2.33269">
        <ele>125.1</ele>
        <time>2013-09-23T19:16:34.257Z</time>
      </trkpt>
      <trkpt lat="48.88666" lon="2.33269">
        <ele>125.4</ele>
        <time>2013-09-23T19:16:58.091Z</time>
      </trkpt>
      <trkpt lat="48.88665" lon="2.33269">
        <ele>125.9</ele>
        <time>2013-09-23T19:16:59.749Z</time>
      </trkpt>
      <trkpt lat="48.88658" lon="2.33262">
        <ele>123.5</ele>
        <time>2013-09-23T19:17:08.227Z</time>
      </trkpt>
      <trkpt lat="48.88657" lon="2.33259">
        <ele>123.9</ele>
        <time>2013-09-23T19:17:09.036Z</time>
      </trkpt>
      <trkpt lat="48.88652" lon="2.33251">
        <ele>127</ele>
        <time>2013-09-23T19:17:11.041Z</time>
      </trkpt>
      <trkpt lat="48.88649" lon="2.33247">
        <ele>124.1</ele>
        <time>2013-09-23T19:17:12.161Z</time>
      </trkpt>
      <trkpt lat="48.88642" lon="2.33238">
        <ele>122</ele>
        <time>2013-09-23T19:17:14.103Z</time>
      </trkpt>
      <trkpt lat="48.88638" lon="2.33232">
        <ele>121.4</ele>
        <time>2013-09-23T19:17:15.731Z</time>
      </trkpt>
      <trkpt lat="48.88635" lon="2.33228">
        <ele>121.1</ele>
        <time>2013-09-23T19:17:16.121Z</time>
      </trkpt>
      <trkpt lat="48.88631" lon="2.33221">
        <ele>120.8</ele>
        <time>2013-09-23T19:17:17.196Z</time>
      </trkpt>
      <trkpt lat="48.88627" lon="2.33215">
        <ele>120.9</ele>
        <time>2013-09-23T19:17:18.041Z</time>
      </trkpt>
      <trkpt lat="48.88623" lon="2.33208">
        <ele>121.3</ele>
        <time>2013-09-23T19:17:19.187Z</time>
      </trkpt>
      <trkpt lat="48.8862" lon="2.33203">
        <ele>121.6</ele>
        <time>2013-09-23T19:17:20.103Z</time>
      </trkpt>
      <trkpt lat="48.88616" lon="2.33197">
        <ele>120.7</ele>
        <time>2013-09-23T19:17:21.116Z</time>
      </trkpt>
      <trkpt lat="48.88613" lon="2.33191">
        <ele>120.2</ele>
        <time>2013-09-23T19:17:22.247Z</time>
      </trkpt>
      <trkpt lat="48.8861" lon="2.33186">
        <ele>119.8</ele>
        <time>2013-09-23T19:17:23.062Z</time>
      </trkpt>
      <trkpt lat="48.88604" lon="2.33177">
        <ele>119.9</ele>
        <time>2013-09-23T19:17:25.007Z</time>
      </trkpt>
      <trkpt lat="48.88599" lon="2.3317">
        <ele>119.9</ele>
        <time>2013-09-23T19:17:26.111Z</time>
      </trkpt>
      <trkpt lat="48.88595" lon="2.33164">
        <ele>119.1</ele>
        <time>2013-09-23T19:17:26.943Z</time>
      </trkpt>
      <trkpt lat="48.88591" lon="2.33158">
        <ele>117.7</ele>
        <time>2013-09-23T19:17:28.078Z</time>
      </trkpt>
      <trkpt lat="48.88587" lon="2.33153">
        <ele>117.4</ele>
        <time>2013-09-23T19:17:29.074Z</time>
      </trkpt>
      <trkpt lat="48.88584" lon="2.33147">
        <ele>115.5</ele>
        <time>2013-09-23T19:17:30.015Z</time>
      </trkpt>
      <trkpt lat="48.88579" lon="2.3314">
        <ele>114.9</ele>
        <time>2013-09-23T19:17:31.113Z</time>
      </trkpt>
      <trkpt lat="48.88576" lon="2.33134">
        <ele>114.5</ele>
        <time>2013-09-23T19:17:31.953Z</time>
      </trkpt>
      <trkpt lat="48.88571" lon="2.33127">
        <ele>114.1</ele>
        <time>2013-09-23T19:17:33.129Z</time>
      </trkpt>
      <trkpt lat="48.88567" lon="2.33121">
        <ele>114.2</ele>
        <time>2013-09-23T19:17:33.962Z</time>
      </trkpt>
      <trkpt lat="48.88563" lon="2.33114">
        <ele>113.7</ele>
        <time>2013-09-23T19:17:35.107Z</time>
      </trkpt>
      <trkpt lat="48.88559" lon="2.33107">
        <ele>114</ele>
        <time>2013-09-23T19:17:36.050Z</time>
      </trkpt>
      <trkpt lat="48.88555" lon="2.331">
        <ele>113.7</ele>
        <time>2013-09-23T19:17:37.048Z</time>
      </trkpt>
      <trkpt lat="48.88551" lon="2.33092">
        <ele>113.8</ele>
        <time>2013-09-23T19:17:38.142Z</time>
      </trkpt>
      <trkpt lat="48.88547" lon="2.33086">
        <ele>113.4</ele>
        <time>2013-09-23T19:17:38.944Z</time>
      </trkpt>
      <trkpt lat="48.88543" lon="2.33079">
        <ele>113.7</ele>
        <time>2013-09-23T19:17:39.953Z</time>
      </trkpt>
      <trkpt lat="48.88539" lon="2.33073">
        <ele>113.9</ele>
        <time>2013-09-23T19:17:40.955Z</time>
      </trkpt>
      <trkpt lat="48.88536" lon="2.33067">
        <ele>114</ele>
        <time>2013-09-23T19:17:41.955Z</time>
      </trkpt>
      <trkpt lat="48.88533" lon="2.33062">
        <ele>112.9</ele>
        <time>2013-09-23T19:17:42.962Z</time>
      </trkpt>
      <trkpt lat="48.88529" lon="2.33056">
        <ele>112.5</ele>
        <time>2013-09-23T19:17:44.145Z</time>
      </trkpt>
      <trkpt lat="48.88527" lon="2.33051">
        <ele>112.4</ele>
        <time>2013-09-23T19:17:44.953Z</time>
      </trkpt>
      <trkpt lat="48.88523" lon="2.33044">
        <ele>112.2</ele>
        <time>2013-09-23T19:17:46.145Z</time>
      </trkpt>
      <trkpt lat="48.8852" lon="2.33037">
        <ele>112.9</ele>
        <time>2013-09-23T19:17:46.961Z</time>
      </trkpt>
      <trkpt lat="48.88516" lon="2.3303">
        <ele>113.5</ele>
        <time>2013-09-23T19:17:48.097Z</time>
      </trkpt>
      <trkpt lat="48.8851" lon="2.3302">
        <ele>113.6</ele>
        <time>2013-09-23T19:17:50.018Z</time>
      </trkpt>
      <trkpt lat="48.88507" lon="2.33016">
        <ele>113.6</ele>
        <time>2013-09-23T19:17:50.946Z</time>
      </trkpt>
      <trkpt lat="48.88504" lon="2.3301">
        <ele>113.9</ele>
        <time>2013-09-23T19:17:52.881Z</time>
      </trkpt>
      <trkpt lat="48.88501" lon="2.33005">
        <ele>113.7</ele>
        <time>2013-09-23T19:17:53.176Z</time>
      </trkpt>
      <trkpt lat="48.88496" lon="2.33002">
        <ele>113</ele>
        <time>2013-09-23T19:17:53.954Z</time>
      </trkpt>
      <trkpt lat="48.88489" lon="2.32998">
        <ele>111.7</ele>
        <time>2013-09-23T19:17:55.124Z</time>
      </trkpt>
      <trkpt lat="48.88484" lon="2.32995">
        <ele>111.4</ele>
        <time>2013-09-23T19:17:55.945Z</time>
      </trkpt>
      <trkpt lat="48.88479" lon="2.32991">
        <ele>110.2</ele>
        <time>2013-09-23T19:17:56.945Z</time>
      </trkpt>
      <trkpt lat="48.88474" lon="2.32986">
        <ele>109.7</ele>
        <time>2013-09-23T19:17:58.227Z</time>
      </trkpt>
      <trkpt lat="48.88472" lon="2.32982">
        <ele>110</ele>
        <time>2013-09-23T19:17:58.994Z</time>
      </trkpt>
      <trkpt lat="48.88471" lon="2.32973">
        <ele>109.7</ele>
        <time>2013-09-23T19:18:00.137Z</time>
      </trkpt>
      <trkpt lat="48.88472" lon="2.32966">
        <ele>109.1</ele>
        <time>2013-09-23T19:18:00.954Z</time>
      </trkpt>
      <trkpt lat="48.88474" lon="2.32953">
        <ele>108.1</ele>
        <time>2013-09-23T19:18:04.074Z</time>
      </trkpt>
      <trkpt lat="48.88475" lon="2.32953">
        <ele>108.4</ele>
        <time>2013-09-23T19:18:05.120Z</time>
      </trkpt>
      <trkpt lat="48.88473" lon="2.32953">
        <ele>108.2</ele>
        <time>2013-09-23T19:18:07.964Z</time>
      </trkpt>
      <trkpt lat="48.88473" lon="2.32953">
        <ele>108.1</ele>
        <time>2013-09-23T19:18:09.137Z</time>
      </trkpt>
      <trkpt lat="48.88473" lon="2.32953">
        <ele>108.2</ele>
        <time>2013-09-23T19:18:22.666Z</time>
      </trkpt>
      <trkpt lat="48.88473" lon="2.32952">
        <ele>108.6</ele>
        <time>2013-09-23T19:18:23.112Z</time>
      </trkpt>
      <trkpt lat="48.88471" lon="2.32952">
        <ele>109.1</ele>
        <time>2013-09-23T19:18:25.956Z</time>
      </trkpt>
      <trkpt lat="48.88471" lon="2.32952">
        <ele>109.4</ele>
        <time>2013-09-23T19:18:27.121Z</time>
      </trkpt>
      <trkpt lat="48.88471" lon="2.32951">
        <ele>109.7</ele>
        <time>2013-09-23T19:18:32.789Z</time>
      </trkpt>
      <trkpt lat="48.88471" lon="2.32951">
        <ele>107.6</ele>
        <time>2013-09-23T19:18:33.014Z</time>
      </trkpt>
      <trkpt lat="48.88465" lon="2.32943">
        <ele>109.2</ele>
        <time>2013-09-23T19:18:38.032Z</time>
      </trkpt>
      <trkpt lat="48.88463" lon="2.32941">
        <ele>109.5</ele>
        <time>2013-09-23T19:18:39.132Z</time>
      </trkpt>
      <trkpt lat="48.88457" lon="2.32934">
        <ele>108</ele>
        <time>2013-09-23T19:18:42.846Z</time>
      </trkpt>
      <trkpt lat="48.88454" lon="2.32931">
        <ele>107.6</ele>
        <time>2013-09-23T19:18:43.117Z</time>
      </trkpt>
      <trkpt lat="48.88449" lon="2.32924">
        <ele>108.2</ele>
        <time>2013-09-23T19:18:45.056Z</time>
      </trkpt>
      <trkpt lat="48.88446" lon="2.3292">
        <ele>108</ele>
        <time>2013-09-23T19:18:46.170Z</time>
      </trkpt>
      <trkpt lat="48.8844" lon="2.32913">
        <ele>107.6</ele>
        <time>2013-09-23T19:18:48.284Z</time>
      </trkpt>
      <trkpt lat="48.88438" lon="2.3291">
        <ele>104.9</ele>
        <time>2013-09-23T19:18:48.960Z</time>
      </trkpt>
      <trkpt lat="48.88433" lon="2.32902">
        <ele>104.4</ele>
        <time>2013-09-23T19:18:50.960Z</time>
      </trkpt>
      <trkpt lat="48.8843" lon="2.32897">
        <ele>104.8</ele>
        <time>2013-09-23T19:18:52.107Z</time>
      </trkpt>
      <trkpt lat="48.88427" lon="2.32892">
        <ele>103.6</ele>
        <time>2013-09-23T19:18:53.189Z</time>
      </trkpt>
      <trkpt lat="48.88426" lon="2.32884">
        <ele>103</ele>
        <time>2013-09-23T19:18:54.064Z</time>
      </trkpt>
      <trkpt lat="48.88423" lon="2.32877">
        <ele>103.4</ele>
        <time>2013-09-23T19:18:55.176Z</time>
      </trkpt>
      <trkpt lat="48.8842" lon="2.32871">
        <ele>102.8</ele>
        <time>2013-09-23T19:18:55.965Z</time>
      </trkpt>
      <trkpt lat="48.88417" lon="2.32864">
        <ele>102.3</ele>
        <time>2013-09-23T19:18:57.174Z</time>
      </trkpt>
      <trkpt lat="48.88413" lon="2.3286">
        <ele>100.6</ele>
        <time>2013-09-23T19:18:57.983Z</time>
      </trkpt>
      <trkpt lat="48.88409" lon="2.32855">
        <ele>100.3</ele>
        <time>2013-09-23T19:18:58.993Z</time>
      </trkpt>
      <trkpt lat="48.88406" lon="2.32849">
        <ele>99.9</ele>
        <time>2013-09-23T19:18:59.962Z</time>
      </trkpt>
      <trkpt lat="48.88403" lon="2.32843">
        <ele>100.3</ele>
        <time>2013-09-23T19:19:01.057Z</time>
      </trkpt>
      <trkpt lat="48.884" lon="2.32837">
        <ele>100.5</ele>
        <time>2013-09-23T19:19:02.191Z</time>
      </trkpt>
      <trkpt lat="48.88396" lon="2.32832">
        <ele>100.4</ele>
        <time>2013-09-23T19:19:03.014Z</time>
      </trkpt>
      <trkpt lat="48.88392" lon="2.32826">
        <ele>100.4</ele>
        <time>2013-09-23T19:19:04.169Z</time>
      </trkpt>
      <trkpt lat="48.88389" lon="2.32821">
        <ele>100.6</ele>
        <time>2013-09-23T19:19:04.969Z</time>
      </trkpt>
      <trkpt lat="48.88385" lon="2.32814">
        <ele>99.8</ele>
        <time>2013-09-23T19:19:06.150Z</time>
      </trkpt>
      <trkpt lat="48.88382" lon="2.32807">
        <ele>99.8</ele>
        <time>2013-09-23T19:19:07.458Z</time>
      </trkpt>
      <trkpt lat="48.88378" lon="2.32799">
        <ele>99.8</ele>
        <time>2013-09-23T19:19:08.086Z</time>
      </trkpt>
      <trkpt lat="48.88375" lon="2.32793">
        <ele>99.2</ele>
        <time>2013-09-23T19:19:09.045Z</time>
      </trkpt>
      <trkpt lat="48.88372" lon="2.32788">
        <ele>98.1</ele>
        <time>2013-09-23T19:19:10.025Z</time>
      </trkpt>
      <trkpt lat="48.8837" lon="2.3278">
        <ele>97.9</ele>
        <time>2013-09-23T19:19:11.138Z</time>
      </trkpt>
      <trkpt lat="48.88369" lon="2.32773">
        <ele>98.3</ele>
        <time>2013-09-23T19:19:11.975Z</time>
      </trkpt>
      <trkpt lat="48.88368" lon="2.32765">
        <ele>98</ele>
        <time>2013-09-23T19:19:13.205Z</time>
      </trkpt>
      <trkpt lat="48.88367" lon="2.32758">
        <ele>98.5</ele>
        <time>2013-09-23T19:19:13.951Z</time>
      </trkpt>
      <trkpt lat="48.88366" lon="2.3275">
        <ele>98.3</ele>
        <time>2013-09-23T19:19:15.166Z</time>
      </trkpt>
      <trkpt lat="48.88365" lon="2.32745">
        <ele>99.1</ele>
        <time>2013-09-23T19:19:16.033Z</time>
      </trkpt>
      <trkpt lat="48.88363" lon="2.32738">
        <ele>98.9</ele>
        <time>2013-09-23T19:19:17.514Z</time>
      </trkpt>
      <trkpt lat="48.88361" lon="2.32732">
        <ele>98.5</ele>
        <time>2013-09-23T19:19:18.168Z</time>
      </trkpt>
      <trkpt lat="48.8836" lon="2.32725">
        <ele>98.6</ele>
        <time>2013-09-23T19:19:18.999Z</time>
      </trkpt>
      <trkpt lat="48.88358" lon="2.32717">
        <ele>97.8</ele>
        <time>2013-09-23T19:19:20.185Z</time>
      </trkpt>
      <trkpt lat="48.88357" lon="2.32711">
        <ele>97.6</ele>
        <time>2013-09-23T19:19:20.953Z</time>
      </trkpt>
      <trkpt lat="48.88355" lon="2.32702">
        <ele>97.4</ele>
        <time>2013-09-23T19:19:22.187Z</time>
      </trkpt>
      <trkpt lat="48.88353" lon="2.32697">
        <ele>96.7</ele>
        <time>2013-09-23T19:19:22.976Z</time>
      </trkpt>
      <trkpt lat="48.88352" lon="2.32689">
        <ele>96.8</ele>
        <time>2013-09-23T19:19:24.105Z</time>
      </trkpt>
      <trkpt lat="48.88348" lon="2.32679">
        <ele>97.3</ele>
        <time>2013-09-23T19:19:26.062Z</time>
      </trkpt>
      <trkpt lat="48.88345" lon="2.32675">
        <ele>98</ele>
        <time>2013-09-23T19:19:27.192Z</time>
      </trkpt>
      <trkpt lat="48.88336" lon="2.32676">
        <ele>99.1</ele>
        <time>2013-09-23T19:19:29.968Z</time>
      </trkpt>
      <trkpt lat="48.88334" lon="2.32678">
        <ele>98.4</ele>
        <time>2013-09-23T19:19:31.145Z</time>
      </trkpt>
      <trkpt lat="48.88325" lon="2.32679">
        <ele>99.5</ele>
        <time>2013-09-23T19:19:38.174Z</time>
      </trkpt>
      <trkpt lat="48.88324" lon="2.32679">
        <ele>99.6</ele>
        <time>2013-09-23T19:19:38.962Z</time>
      </trkpt>
      <trkpt lat="48.88316" lon="2.32675">
        <ele>98.5</ele>
        <time>2013-09-23T19:19:42.693Z</time>
      </trkpt>
      <trkpt lat="48.88312" lon="2.32672">
        <ele>98.6</ele>
        <time>2013-09-23T19:19:43.115Z</time>
      </trkpt>
      <trkpt lat="48.88307" lon="2.32669">
        <ele>98</ele>
        <time>2013-09-23T19:19:43.970Z</time>
      </trkpt>
      <trkpt lat="48.88301" lon="2.32666">
        <ele>96.4</ele>
        <time>2013-09-23T19:19:45.171Z</time>
      </trkpt>
      <trkpt lat="48.88295" lon="2.32664">
        <ele>96</ele>
        <time>2013-09-23T19:19:45.954Z</time>
      </trkpt>
      <trkpt lat="48.88287" lon="2.32662">
        <ele>95.9</ele>
        <time>2013-09-23T19:19:47.133Z</time>
      </trkpt>
      <trkpt lat="48.88282" lon="2.32659">
        <ele>95.7</ele>
        <time>2013-09-23T19:19:48.074Z</time>
      </trkpt>
      <trkpt lat="48.88276" lon="2.32656">
        <ele>95.2</ele>
        <time>2013-09-23T19:19:49.058Z</time>
      </trkpt>
      <trkpt lat="48.88271" lon="2.32652">
        <ele>95.1</ele>
        <time>2013-09-23T19:19:50.132Z</time>
      </trkpt>
      <trkpt lat="48.88267" lon="2.3265">
        <ele>95.5</ele>
        <time>2013-09-23T19:19:51.007Z</time>
      </trkpt>
      <trkpt lat="48.88262" lon="2.32647">
        <ele>96.1</ele>
        <time>2013-09-23T19:19:52.777Z</time>
      </trkpt>
      <trkpt lat="48.88257" lon="2.32643">
        <ele>95.4</ele>
        <time>2013-09-23T19:19:52.952Z</time>
      </trkpt>
      <trkpt lat="48.88252" lon="2.3264">
        <ele>95.2</ele>
        <time>2013-09-23T19:19:54.119Z</time>
      </trkpt>
      <trkpt lat="48.88248" lon="2.32638">
        <ele>95.3</ele>
        <time>2013-09-23T19:19:54.965Z</time>
      </trkpt>
      <trkpt lat="48.88242" lon="2.32635">
        <ele>96.5</ele>
        <time>2013-09-23T19:19:56.091Z</time>
      </trkpt>
      <trkpt lat="48.88238" lon="2.32632">
        <ele>96.9</ele>
        <time>2013-09-23T19:19:57.037Z</time>
      </trkpt>
      <trkpt lat="48.88234" lon="2.32627">
        <ele>97</ele>
        <time>2013-09-23T19:19:58.113Z</time>
      </trkpt>
      <trkpt lat="48.88229" lon="2.32623">
        <ele>97</ele>
        <time>2013-09-23T19:19:58.963Z</time>
      </trkpt>
      <trkpt lat="48.88224" lon="2.32617">
        <ele>97.4</ele>
        <time>2013-09-23T19:20:00.065Z</time>
      </trkpt>
      <trkpt lat="48.88221" lon="2.32611">
        <ele>97.6</ele>
        <time>2013-09-23T19:20:00.954Z</time>
      </trkpt>
      <trkpt lat="48.88216" lon="2.32604">
        <ele>97.5</ele>
        <time>2013-09-23T19:20:01.973Z</time>
      </trkpt>
      <trkpt lat="48.88212" lon="2.32599">
        <ele>97.8</ele>
        <time>2013-09-23T19:20:03.100Z</time>
      </trkpt>
      <trkpt lat="48.88208" lon="2.32596">
        <ele>98.2</ele>
        <time>2013-09-23T19:20:03.961Z</time>
      </trkpt>
      <trkpt lat="48.88202" lon="2.32593">
        <ele>98.7</ele>
        <time>2013-09-23T19:20:05.157Z</time>
      </trkpt>
      <trkpt lat="48.88197" lon="2.32589">
        <ele>99.2</ele>
        <time>2013-09-23T19:20:06.005Z</time>
      </trkpt>
      <trkpt lat="48.88192" lon="2.32586">
        <ele>99.2</ele>
        <time>2013-09-23T19:20:07.052Z</time>
      </trkpt>
      <trkpt lat="48.88186" lon="2.32582">
        <ele>99.8</ele>
        <time>2013-09-23T19:20:08.143Z</time>
      </trkpt>
      <trkpt lat="48.88181" lon="2.32578">
        <ele>100</ele>
        <time>2013-09-23T19:20:08.994Z</time>
      </trkpt>
      <trkpt lat="48.88175" lon="2.32573">
        <ele>99.4</ele>
        <time>2013-09-23T19:20:10.076Z</time>
      </trkpt>
      <trkpt lat="48.8817" lon="2.32569">
        <ele>99.2</ele>
        <time>2013-09-23T19:20:10.964Z</time>
      </trkpt>
      <trkpt lat="48.88163" lon="2.32563">
        <ele>99.1</ele>
        <time>2013-09-23T19:20:12.117Z</time>
      </trkpt>
      <trkpt lat="48.88158" lon="2.32559">
        <ele>99.6</ele>
        <time>2013-09-23T19:20:12.971Z</time>
      </trkpt>
      <trkpt lat="48.88153" lon="2.32555">
        <ele>99.8</ele>
        <time>2013-09-23T19:20:14.059Z</time>
      </trkpt>
      <trkpt lat="48.88148" lon="2.3255">
        <ele>100</ele>
        <time>2013-09-23T19:20:15.053Z</time>
      </trkpt>
      <trkpt lat="48.88143" lon="2.32545">
        <ele>98.8</ele>
        <time>2013-09-23T19:20:16.027Z</time>
      </trkpt>
      <trkpt lat="48.88136" lon="2.32541">
        <ele>98.8</ele>
        <time>2013-09-23T19:20:17.136Z</time>
      </trkpt>
      <trkpt lat="48.88132" lon="2.32535">
        <ele>99.8</ele>
        <time>2013-09-23T19:20:17.963Z</time>
      </trkpt>
      <trkpt lat="48.88126" lon="2.32529">
        <ele>99.6</ele>
        <time>2013-09-23T19:20:19.158Z</time>
      </trkpt>
      <trkpt lat="48.88121" lon="2.32525">
        <ele>99.3</ele>
        <time>2013-09-23T19:20:19.978Z</time>
      </trkpt>
      <trkpt lat="48.88115" lon="2.32521">
        <ele>99.5</ele>
        <time>2013-09-23T19:20:21.137Z</time>
      </trkpt>
      <trkpt lat="48.8811" lon="2.32518">
        <ele>99</ele>
        <time>2013-09-23T19:20:22.005Z</time>
      </trkpt>
      <trkpt lat="48.88104" lon="2.32515">
        <ele>99.2</ele>
        <time>2013-09-23T19:20:23.045Z</time>
      </trkpt>
      <trkpt lat="48.88098" lon="2.32512">
        <ele>99.3</ele>
        <time>2013-09-23T19:20:24.113Z</time>
      </trkpt>
      <trkpt lat="48.88095" lon="2.32509">
        <ele>99.4</ele>
        <time>2013-09-23T19:20:25.006Z</time>
      </trkpt>
      <trkpt lat="48.88089" lon="2.32506">
        <ele>99.3</ele>
        <time>2013-09-23T19:20:26.142Z</time>
      </trkpt>
      <trkpt lat="48.88085" lon="2.32501">
        <ele>99.8</ele>
        <time>2013-09-23T19:20:26.958Z</time>
      </trkpt>
      <trkpt lat="48.88081" lon="2.32495">
        <ele>100.6</ele>
        <time>2013-09-23T19:20:28.141Z</time>
      </trkpt>
      <trkpt lat="48.88079" lon="2.32489">
        <ele>103.1</ele>
        <time>2013-09-23T19:20:28.972Z</time>
      </trkpt>
      <trkpt lat="48.88075" lon="2.32478">
        <ele>101.3</ele>
        <time>2013-09-23T19:20:30.988Z</time>
      </trkpt>
      <trkpt lat="48.88076" lon="2.32473">
        <ele>101.7</ele>
        <time>2013-09-23T19:20:31.975Z</time>
      </trkpt>
      <trkpt lat="48.8808" lon="2.32467">
        <ele>102.4</ele>
        <time>2013-09-23T19:20:33.150Z</time>
      </trkpt>
      <trkpt lat="48.88083" lon="2.32464">
        <ele>102.4</ele>
        <time>2013-09-23T19:20:33.976Z</time>
      </trkpt>
      <trkpt lat="48.88087" lon="2.32457">
        <ele>105.1</ele>
        <time>2013-09-23T19:20:35.242Z</time>
      </trkpt>
      <trkpt lat="48.88089" lon="2.32452">
        <ele>105.8</ele>
        <time>2013-09-23T19:20:35.960Z</time>
      </trkpt>
      <trkpt lat="48.88096" lon="2.32444">
        <ele>106.4</ele>
        <time>2013-09-23T19:20:38.036Z</time>
      </trkpt>
      <trkpt lat="48.88098" lon="2.32442">
        <ele>106.3</ele>
        <time>2013-09-23T19:20:39.065Z</time>
      </trkpt>
      <trkpt lat="48.88106" lon="2.32436">
        <ele>106.4</ele>
        <time>2013-09-23T19:20:44.997Z</time>
      </trkpt>
      <trkpt lat="48.88107" lon="2.32436">
        <ele>105.7</ele>
        <time>2013-09-23T19:20:46.125Z</time>
      </trkpt>
      <trkpt lat="48.88109" lon="2.32426">
        <ele>103.8</ele>
        <time>2013-09-23T19:20:53.126Z</time>
      </trkpt>
      <trkpt lat="48.88112" lon="2.32423">
        <ele>102.9</ele>
        <time>2013-09-23T19:20:54.020Z</time>
      </trkpt>
      <trkpt lat="48.88116" lon="2.3242">
        <ele>103.8</ele>
        <time>2013-09-23T19:20:55.065Z</time>
      </trkpt>
      <trkpt lat="48.88121" lon="2.32417">
        <ele>105.3</ele>
        <time>2013-09-23T19:20:56.128Z</time>
      </trkpt>
      <trkpt lat="48.88125" lon="2.32415">
        <ele>105.4</ele>
        <time>2013-09-23T19:20:57.003Z</time>
      </trkpt>
      <trkpt lat="48.8813" lon="2.32412">
        <ele>106.2</ele>
        <time>2013-09-23T19:20:58.144Z</time>
      </trkpt>
      <trkpt lat="48.88134" lon="2.3241">
        <ele>106.1</ele>
        <time>2013-09-23T19:20:58.969Z</time>
      </trkpt>
      <trkpt lat="48.88139" lon="2.32407">
        <ele>106.9</ele>
        <time>2013-09-23T19:21:00.102Z</time>
      </trkpt>
      <trkpt lat="48.88147" lon="2.32403">
        <ele>108.9</ele>
        <time>2013-09-23T19:21:01.970Z</time>
      </trkpt>
      <trkpt lat="48.88151" lon="2.324">
        <ele>110</ele>
        <time>2013-09-23T19:21:02.960Z</time>
      </trkpt>
      <trkpt lat="48.88156" lon="2.32398">
        <ele>109.1</ele>
        <time>2013-09-23T19:21:03.972Z</time>
      </trkpt>
      <trkpt lat="48.88162" lon="2.32395">
        <ele>109</ele>
        <time>2013-09-23T19:21:05.163Z</time>
      </trkpt>
      <trkpt lat="48.88167" lon="2.32394">
        <ele>109.5</ele>
        <time>2013-09-23T19:21:05.979Z</time>
      </trkpt>
      <trkpt lat="48.88174" lon="2.32392">
        <ele>109.9</ele>
        <time>2013-09-23T19:21:07.112Z</time>
      </trkpt>
      <trkpt lat="48.88178" lon="2.32391">
        <ele>111.1</ele>
        <time>2013-09-23T19:21:07.977Z</time>
      </trkpt>
      <trkpt lat="48.88184" lon="2.32389">
        <ele>110.9</ele>
        <time>2013-09-23T19:21:09.101Z</time>
      </trkpt>
      <trkpt lat="48.88188" lon="2.32387">
        <ele>111.5</ele>
        <time>2013-09-23T19:21:10.002Z</time>
      </trkpt>
      <trkpt lat="48.88192" lon="2.32384">
        <ele>111.4</ele>
        <time>2013-09-23T19:21:10.973Z</time>
      </trkpt>
      <trkpt lat="48.88196" lon="2.32381">
        <ele>111.4</ele>
        <time>2013-09-23T19:21:11.961Z</time>
      </trkpt>
      <trkpt lat="48.882" lon="2.32378">
        <ele>111</ele>
        <time>2013-09-23T19:21:12.967Z</time>
      </trkpt>
      <trkpt lat="48.88207" lon="2.32371">
        <ele>109.8</ele>
        <time>2013-09-23T19:21:14.978Z</time>
      </trkpt>
      <trkpt lat="48.88209" lon="2.32369">
        <ele>109.3</ele>
        <time>2013-09-23T19:21:15.977Z</time>
      </trkpt>
      <trkpt lat="48.88216" lon="2.32365">
        <ele>109.4</ele>
        <time>2013-09-23T19:21:17.968Z</time>
      </trkpt>
      <trkpt lat="48.88219" lon="2.32363">
        <ele>108.8</ele>
        <time>2013-09-23T19:21:18.974Z</time>
      </trkpt>
      <trkpt lat="48.88226" lon="2.32358">
        <ele>109.3</ele>
        <time>2013-09-23T19:21:20.965Z</time>
      </trkpt>
      <trkpt lat="48.88229" lon="2.32355">
        <ele>105.8</ele>
        <time>2013-09-23T19:21:21.974Z</time>
      </trkpt>
      <trkpt lat="48.88237" lon="2.3235">
        <ele>101</ele>
        <time>2013-09-23T19:21:23.964Z</time>
      </trkpt>
      <trkpt lat="48.88241" lon="2.32347">
        <ele>97.9</ele>
        <time>2013-09-23T19:21:24.961Z</time>
      </trkpt>
      <trkpt lat="48.88247" lon="2.32342">
        <ele>97.3</ele>
        <time>2013-09-23T19:21:26.961Z</time>
      </trkpt>
      <trkpt lat="48.88249" lon="2.3234">
        <ele>97.3</ele>
        <time>2013-09-23T19:21:28.002Z</time>
      </trkpt>
      <trkpt lat="48.88253" lon="2.32331">
        <ele>100.4</ele>
        <time>2013-09-23T19:21:30.973Z</time>
      </trkpt>
      <trkpt lat="48.88253" lon="2.32327">
        <ele>102.5</ele>
        <time>2013-09-23T19:21:31.973Z</time>
      </trkpt>
      <trkpt lat="48.88252" lon="2.32317">
        <ele>106.9</ele>
        <time>2013-09-23T19:21:34.971Z</time>
      </trkpt>
      <trkpt lat="48.88251" lon="2.32314">
        <ele>107.9</ele>
        <time>2013-09-23T19:21:35.972Z</time>
      </trkpt>
      <trkpt lat="48.88248" lon="2.32304">
        <ele>109.1</ele>
        <time>2013-09-23T19:21:38.965Z</time>
      </trkpt>
      <trkpt lat="48.88247" lon="2.32299">
        <ele>109.1</ele>
        <time>2013-09-23T19:21:39.973Z</time>
      </trkpt>
      <trkpt lat="48.88244" lon="2.32288">
        <ele>108.3</ele>
        <time>2013-09-23T19:21:41.972Z</time>
      </trkpt>
      <trkpt lat="48.88243" lon="2.32283">
        <ele>107.6</ele>
        <time>2013-09-23T19:21:42.987Z</time>
      </trkpt>
      <trkpt lat="48.8824" lon="2.32271">
        <ele>106.4</ele>
        <time>2013-09-23T19:21:44.974Z</time>
      </trkpt>
      <trkpt lat="48.88239" lon="2.32265">
        <ele>106.8</ele>
        <time>2013-09-23T19:21:45.976Z</time>
      </trkpt>
      <trkpt lat="48.88238" lon="2.32252">
        <ele>108.3</ele>
        <time>2013-09-23T19:21:47.972Z</time>
      </trkpt>
      <trkpt lat="48.88237" lon="2.32245">
        <ele>108.7</ele>
        <time>2013-09-23T19:21:48.971Z</time>
      </trkpt>
      <trkpt lat="48.88235" lon="2.32232">
        <ele>108.4</ele>
        <time>2013-09-23T19:21:51.044Z</time>
      </trkpt>
      <trkpt lat="48.88234" lon="2.32225">
        <ele>106.8</ele>
        <time>2013-09-23T19:21:52.051Z</time>
      </trkpt>
      <trkpt lat="48.88232" lon="2.32214">
        <ele>104</ele>
        <time>2013-09-23T19:21:53.988Z</time>
      </trkpt>
      <trkpt lat="48.88231" lon="2.32207">
        <ele>104.2</ele>
        <time>2013-09-23T19:21:55.204Z</time>
      </trkpt>
      <trkpt lat="48.88229" lon="2.32195">
        <ele>103.9</ele>
        <time>2013-09-23T19:21:57.125Z</time>
      </trkpt>
      <trkpt lat="48.88228" lon="2.32189">
        <ele>104.3</ele>
        <time>2013-09-23T19:21:58.110Z</time>
      </trkpt>
      <trkpt lat="48.88226" lon="2.32178">
        <ele>104.9</ele>
        <time>2013-09-23T19:22:00.186Z</time>
      </trkpt>
      <trkpt lat="48.88225" lon="2.32173">
        <ele>105.5</ele>
        <time>2013-09-23T19:22:01.038Z</time>
      </trkpt>
      <trkpt lat="48.88223" lon="2.32162">
        <ele>105.6</ele>
        <time>2013-09-23T19:22:02.980Z</time>
      </trkpt>
      <trkpt lat="48.88221" lon="2.32155">
        <ele>105.2</ele>
        <time>2013-09-23T19:22:04.167Z</time>
      </trkpt>
      <trkpt lat="48.88219" lon="2.32143">
        <ele>103.2</ele>
        <time>2013-09-23T19:22:06.103Z</time>
      </trkpt>
      <trkpt lat="48.88218" lon="2.32137">
        <ele>100.9</ele>
        <time>2013-09-23T19:22:07.154Z</time>
      </trkpt>
      <trkpt lat="48.88216" lon="2.32126">
        <ele>100.9</ele>
        <time>2013-09-23T19:22:09.174Z</time>
      </trkpt>
      <trkpt lat="48.88217" lon="2.32121">
        <ele>99.4</ele>
        <time>2013-09-23T19:22:10.013Z</time>
      </trkpt>
      <trkpt lat="48.88218" lon="2.32112">
        <ele>97.4</ele>
        <time>2013-09-23T19:22:11.981Z</time>
      </trkpt>
      <trkpt lat="48.88218" lon="2.32107">
        <ele>96.9</ele>
        <time>2013-09-23T19:22:13.136Z</time>
      </trkpt>
      <trkpt lat="48.88216" lon="2.32098">
        <ele>98</ele>
        <time>2013-09-23T19:22:15.068Z</time>
      </trkpt>
      <trkpt lat="48.88215" lon="2.32093">
        <ele>98.5</ele>
        <time>2013-09-23T19:22:16.319Z</time>
      </trkpt>
      <trkpt lat="48.88212" lon="2.32083">
        <ele>99.6</ele>
        <time>2013-09-23T19:22:17.966Z</time>
      </trkpt>
      <trkpt lat="48.88211" lon="2.32077">
        <ele>99.5</ele>
        <time>2013-09-23T19:22:19.182Z</time>
      </trkpt>
      <trkpt lat="48.88208" lon="2.32067">
        <ele>99.4</ele>
        <time>2013-09-23T19:22:21.132Z</time>
      </trkpt>
      <trkpt lat="48.88208" lon="2.32062">
        <ele>99</ele>
        <time>2013-09-23T19:22:22.133Z</time>
      </trkpt>
      <trkpt lat="48.88209" lon="2.32051">
        <ele>100.4</ele>
        <time>2013-09-23T19:22:25.006Z</time>
      </trkpt>
      <trkpt lat="48.88211" lon="2.32047">
        <ele>100.7</ele>
        <time>2013-09-23T19:22:26.302Z</time>
      </trkpt>
      <trkpt lat="48.88217" lon="2.32041">
        <ele>101.3</ele>
        <time>2013-09-23T19:22:28.982Z</time>
      </trkpt>
      <trkpt lat="48.88219" lon="2.32039">
        <ele>100.7</ele>
        <time>2013-09-23T19:22:29.970Z</time>
      </trkpt>
      <trkpt lat="48.8822" lon="2.32038">
        <ele>101.3</ele>
        <time>2013-09-23T19:22:32.965Z</time>
      </trkpt>
      <trkpt lat="48.88219" lon="2.32039">
        <ele>100.9</ele>
        <time>2013-09-23T19:22:33.961Z</time>
      </trkpt>
      <trkpt lat="48.88219" lon="2.32039">
        <ele>100</ele>
        <time>2013-09-23T19:22:40.961Z</time>
      </trkpt>
      <trkpt lat="48.8822" lon="2.32039">
        <ele>100</ele>
        <time>2013-09-23T19:22:41.958Z</time>
      </trkpt>
      <trkpt lat="48.8822" lon="2.32039">
        <ele>100</ele>
        <time>2013-09-23T19:22:42.648Z</time>
      </trkpt>
      <trkpt lat="48.8822" lon="2.32039">
        <ele>100</ele>
        <time>2013-09-23T19:22:42.985Z</time>
      </trkpt>
      <trkpt lat="48.8822" lon="2.32039">
        <ele>99.5</ele>
        <time>2013-09-23T19:22:44.970Z</time>
      </trkpt>
      <trkpt lat="48.8822" lon="2.32038">
        <ele>99.5</ele>
        <time>2013-09-23T19:22:45.978Z</time>
      </trkpt>
      <trkpt lat="48.88217" lon="2.32031">
        <ele>98.6</ele>
        <time>2013-09-23T19:22:48.977Z</time>
      </trkpt>
      <trkpt lat="48.88215" lon="2.32026">
        <ele>97.9</ele>
        <time>2013-09-23T19:22:49.982Z</time>
      </trkpt>
      <trkpt lat="48.88212" lon="2.32015">
        <ele>97.1</ele>
        <time>2013-09-23T19:22:52.749Z</time>
      </trkpt>
      <trkpt lat="48.88211" lon="2.3201">
        <ele>97.3</ele>
        <time>2013-09-23T19:22:53.017Z</time>
      </trkpt>
      <trkpt lat="48.88209" lon="2.32">
        <ele>96.1</ele>
        <time>2013-09-23T19:22:54.981Z</time>
      </trkpt>
      <trkpt lat="48.88208" lon="2.31994">
        <ele>96.2</ele>
        <time>2013-09-23T19:22:55.980Z</time>
      </trkpt>
      <trkpt lat="48.88208" lon="2.31985">
        <ele>95.2</ele>
        <time>2013-09-23T19:22:57.828Z</time>
      </trkpt>
      <trkpt lat="48.88207" lon="2.31976">
        <ele>95.3</ele>
        <time>2013-09-23T19:22:58.029Z</time>
      </trkpt>
      <trkpt lat="48.88205" lon="2.31969">
        <ele>94.7</ele>
        <time>2013-09-23T19:22:58.970Z</time>
      </trkpt>
      <trkpt lat="48.88204" lon="2.31962">
        <ele>94.6</ele>
        <time>2013-09-23T19:22:59.984Z</time>
      </trkpt>
      <trkpt lat="48.88202" lon="2.3195">
        <ele>95.4</ele>
        <time>2013-09-23T19:23:02.442Z</time>
      </trkpt>
      <trkpt lat="48.882" lon="2.31943">
        <ele>95.8</ele>
        <time>2013-09-23T19:23:02.972Z</time>
      </trkpt>
      <trkpt lat="48.88199" lon="2.31937">
        <ele>95.9</ele>
        <time>2013-09-23T19:23:03.971Z</time>
      </trkpt>
      <trkpt lat="48.88198" lon="2.31929">
        <ele>94.2</ele>
        <time>2013-09-23T19:23:05.163Z</time>
      </trkpt>
      <trkpt lat="48.88196" lon="2.31916">
        <ele>93.2</ele>
        <time>2013-09-23T19:23:07.479Z</time>
      </trkpt>
      <trkpt lat="48.88195" lon="2.31909">
        <ele>93.2</ele>
        <time>2013-09-23T19:23:07.983Z</time>
      </trkpt>
      <trkpt lat="48.88194" lon="2.31901">
        <ele>93.5</ele>
        <time>2013-09-23T19:23:09.075Z</time>
      </trkpt>
      <trkpt lat="48.88192" lon="2.31895">
        <ele>92.8</ele>
        <time>2013-09-23T19:23:09.980Z</time>
      </trkpt>
      <trkpt lat="48.88191" lon="2.31887">
        <ele>92.7</ele>
        <time>2013-09-23T19:23:11.038Z</time>
      </trkpt>
      <trkpt lat="48.88189" lon="2.31879">
        <ele>92.6</ele>
        <time>2013-09-23T19:23:12.178Z</time>
      </trkpt>
      <trkpt lat="48.88188" lon="2.31872">
        <ele>91.2</ele>
        <time>2013-09-23T19:23:12.985Z</time>
      </trkpt>
      <trkpt lat="48.88186" lon="2.31865">
        <ele>91</ele>
        <time>2013-09-23T19:23:14.151Z</time>
      </trkpt>
      <trkpt lat="48.88184" lon="2.31859">
        <ele>90.9</ele>
        <time>2013-09-23T19:23:14.977Z</time>
      </trkpt>
      <trkpt lat="48.88183" lon="2.31851">
        <ele>92.3</ele>
        <time>2013-09-23T19:23:16.114Z</time>
      </trkpt>
      <trkpt lat="48.88181" lon="2.31845">
        <ele>92.2</ele>
        <time>2013-09-23T19:23:16.979Z</time>
      </trkpt>
      <trkpt lat="48.8818" lon="2.31837">
        <ele>92.2</ele>
        <time>2013-09-23T19:23:17.970Z</time>
      </trkpt>
      <trkpt lat="48.88178" lon="2.31823">
        <ele>91.9</ele>
        <time>2013-09-23T19:23:19.977Z</time>
      </trkpt>
      <trkpt lat="48.88177" lon="2.31816">
        <ele>91.8</ele>
        <time>2013-09-23T19:23:20.983Z</time>
      </trkpt>
      <trkpt lat="48.88173" lon="2.31811">
        <ele>92.1</ele>
        <time>2013-09-23T19:23:21.971Z</time>
      </trkpt>
      <trkpt lat="48.8817" lon="2.31805">
        <ele>92.1</ele>
        <time>2013-09-23T19:23:23.113Z</time>
      </trkpt>
      <trkpt lat="48.88167" lon="2.31799">
        <ele>92</ele>
        <time>2013-09-23T19:23:24.003Z</time>
      </trkpt>
      <trkpt lat="48.88168" lon="2.31792">
        <ele>91.7</ele>
        <time>2013-09-23T19:23:25.102Z</time>
      </trkpt>
      <trkpt lat="48.88169" lon="2.31784">
        <ele>91.8</ele>
        <time>2013-09-23T19:23:26.135Z</time>
      </trkpt>
      <trkpt lat="48.88168" lon="2.31776">
        <ele>91.7</ele>
        <time>2013-09-23T19:23:27.028Z</time>
      </trkpt>
      <trkpt lat="48.88167" lon="2.31769">
        <ele>91.9</ele>
        <time>2013-09-23T19:23:28.091Z</time>
      </trkpt>
      <trkpt lat="48.88166" lon="2.31763">
        <ele>92</ele>
        <time>2013-09-23T19:23:28.977Z</time>
      </trkpt>
      <trkpt lat="48.88164" lon="2.31756">
        <ele>92.3</ele>
        <time>2013-09-23T19:23:30.169Z</time>
      </trkpt>
      <trkpt lat="48.88163" lon="2.31749">
        <ele>93.3</ele>
        <time>2013-09-23T19:23:30.978Z</time>
      </trkpt>
      <trkpt lat="48.88162" lon="2.31741">
        <ele>92.9</ele>
        <time>2013-09-23T19:23:31.984Z</time>
      </trkpt>
      <trkpt lat="48.88161" lon="2.31735">
        <ele>92.5</ele>
        <time>2013-09-23T19:23:32.971Z</time>
      </trkpt>
      <trkpt lat="48.88159" lon="2.31728">
        <ele>93.1</ele>
        <time>2013-09-23T19:23:34.050Z</time>
      </trkpt>
      <trkpt lat="48.88157" lon="2.31715">
        <ele>93.8</ele>
        <time>2013-09-23T19:23:35.992Z</time>
      </trkpt>
      <trkpt lat="48.88156" lon="2.31707">
        <ele>93.7</ele>
        <time>2013-09-23T19:23:37.124Z</time>
      </trkpt>
      <trkpt lat="48.88155" lon="2.31701">
        <ele>93.7</ele>
        <time>2013-09-23T19:23:37.995Z</time>
      </trkpt>
      <trkpt lat="48.88154" lon="2.31693">
        <ele>93.2</ele>
        <time>2013-09-23T19:23:39.116Z</time>
      </trkpt>
      <trkpt lat="48.88152" lon="2.31682">
        <ele>91.5</ele>
        <time>2013-09-23T19:23:40.987Z</time>
      </trkpt>
      <trkpt lat="48.8815" lon="2.31675">
        <ele>91.2</ele>
        <time>2013-09-23T19:23:41.981Z</time>
      </trkpt>
      <trkpt lat="48.88147" lon="2.31663">
        <ele>88.8</ele>
        <time>2013-09-23T19:23:43.984Z</time>
      </trkpt>
      <trkpt lat="48.88145" lon="2.31657">
        <ele>89.7</ele>
        <time>2013-09-23T19:23:44.984Z</time>
      </trkpt>
      <trkpt lat="48.88143" lon="2.31645">
        <ele>92.3</ele>
        <time>2013-09-23T19:23:46.972Z</time>
      </trkpt>
      <trkpt lat="48.88141" lon="2.31639">
        <ele>92.5</ele>
        <time>2013-09-23T19:23:47.984Z</time>
      </trkpt>
      <trkpt lat="48.88139" lon="2.31628">
        <ele>93.1</ele>
        <time>2013-09-23T19:23:49.987Z</time>
      </trkpt>
      <trkpt lat="48.88139" lon="2.31623">
        <ele>93.1</ele>
        <time>2013-09-23T19:23:50.980Z</time>
      </trkpt>
      <trkpt lat="48.8814" lon="2.31612">
        <ele>93.3</ele>
        <time>2013-09-23T19:23:52.989Z</time>
      </trkpt>
      <trkpt lat="48.88141" lon="2.31606">
        <ele>92.7</ele>
        <time>2013-09-23T19:23:53.982Z</time>
      </trkpt>
      <trkpt lat="48.88144" lon="2.31595">
        <ele>93.3</ele>
        <time>2013-09-23T19:23:55.985Z</time>
      </trkpt>
      <trkpt lat="48.88146" lon="2.31589">
        <ele>92.9</ele>
        <time>2013-09-23T19:23:56.982Z</time>
      </trkpt>
      <trkpt lat="48.88148" lon="2.31583">
        <ele>93.1</ele>
        <time>2013-09-23T19:23:57.975Z</time>
      </trkpt>
      <trkpt lat="48.88149" lon="2.31576">
        <ele>93</ele>
        <time>2013-09-23T19:23:58.973Z</time>
      </trkpt>
      <trkpt lat="48.8815" lon="2.31569">
        <ele>93</ele>
        <time>2013-09-23T19:23:59.974Z</time>
      </trkpt>
      <trkpt lat="48.88151" lon="2.31562">
        <ele>91.9</ele>
        <time>2013-09-23T19:24:00.974Z</time>
      </trkpt>
      <trkpt lat="48.88153" lon="2.31554">
        <ele>91.4</ele>
        <time>2013-09-23T19:24:01.981Z</time>
      </trkpt>
      <trkpt lat="48.88154" lon="2.31547">
        <ele>91.2</ele>
        <time>2013-09-23T19:24:02.999Z</time>
      </trkpt>
      <trkpt lat="48.88155" lon="2.3154">
        <ele>90.2</ele>
        <time>2013-09-23T19:24:03.974Z</time>
      </trkpt>
      <trkpt lat="48.88156" lon="2.31533">
        <ele>89</ele>
        <time>2013-09-23T19:24:04.975Z</time>
      </trkpt>
      <trkpt lat="48.88158" lon="2.31526">
        <ele>89.4</ele>
        <time>2013-09-23T19:24:05.986Z</time>
      </trkpt>
      <trkpt lat="48.88159" lon="2.3152">
        <ele>89.8</ele>
        <time>2013-09-23T19:24:06.974Z</time>
      </trkpt>
      <trkpt lat="48.88161" lon="2.31513">
        <ele>90.2</ele>
        <time>2013-09-23T19:24:07.975Z</time>
      </trkpt>
      <trkpt lat="48.88162" lon="2.31506">
        <ele>90.4</ele>
        <time>2013-09-23T19:24:08.984Z</time>
      </trkpt>
      <trkpt lat="48.88164" lon="2.31499">
        <ele>89.9</ele>
        <time>2013-09-23T19:24:09.985Z</time>
      </trkpt>
      <trkpt lat="48.88166" lon="2.31492">
        <ele>89.6</ele>
        <time>2013-09-23T19:24:10.975Z</time>
      </trkpt>
      <trkpt lat="48.88167" lon="2.31484">
        <ele>89.5</ele>
        <time>2013-09-23T19:24:11.984Z</time>
      </trkpt>
      <trkpt lat="48.88169" lon="2.31477">
        <ele>89.7</ele>
        <time>2013-09-23T19:24:12.973Z</time>
      </trkpt>
      <trkpt lat="48.8817" lon="2.31469">
        <ele>89.6</ele>
        <time>2013-09-23T19:24:13.987Z</time>
      </trkpt>
      <trkpt lat="48.88171" lon="2.31461">
        <ele>90.4</ele>
        <time>2013-09-23T19:24:14.982Z</time>
      </trkpt>
      <trkpt lat="48.88172" lon="2.31453">
        <ele>90.5</ele>
        <time>2013-09-23T19:24:15.984Z</time>
      </trkpt>
      <trkpt lat="48.88173" lon="2.31444">
        <ele>89.9</ele>
        <time>2013-09-23T19:24:16.989Z</time>
      </trkpt>
      <trkpt lat="48.88173" lon="2.31436">
        <ele>90.2</ele>
        <time>2013-09-23T19:24:17.982Z</time>
      </trkpt>
      <trkpt lat="48.88174" lon="2.31428">
        <ele>90.4</ele>
        <time>2013-09-23T19:24:18.984Z</time>
      </trkpt>
      <trkpt lat="48.88176" lon="2.3142">
        <ele>91.1</ele>
        <time>2013-09-23T19:24:20.124Z</time>
      </trkpt>
      <trkpt lat="48.88177" lon="2.31414">
        <ele>91.5</ele>
        <time>2013-09-23T19:24:21.064Z</time>
      </trkpt>
      <trkpt lat="48.88178" lon="2.31407">
        <ele>91.9</ele>
        <time>2013-09-23T19:24:22.078Z</time>
      </trkpt>
      <trkpt lat="48.8818" lon="2.314">
        <ele>92</ele>
        <time>2013-09-23T19:24:23.124Z</time>
      </trkpt>
      <trkpt lat="48.88181" lon="2.31393">
        <ele>92.2</ele>
        <time>2013-09-23T19:24:23.994Z</time>
      </trkpt>
      <trkpt lat="48.88182" lon="2.31384">
        <ele>92.5</ele>
        <time>2013-09-23T19:24:25.186Z</time>
      </trkpt>
      <trkpt lat="48.88183" lon="2.31377">
        <ele>93</ele>
        <time>2013-09-23T19:24:25.984Z</time>
      </trkpt>
      <trkpt lat="48.88185" lon="2.31368">
        <ele>93</ele>
        <time>2013-09-23T19:24:27.136Z</time>
      </trkpt>
      <trkpt lat="48.88188" lon="2.31361">
        <ele>93.7</ele>
        <time>2013-09-23T19:24:27.985Z</time>
      </trkpt>
      <trkpt lat="48.8819" lon="2.31354">
        <ele>93</ele>
        <time>2013-09-23T19:24:29.079Z</time>
      </trkpt>
      <trkpt lat="48.88192" lon="2.31347">
        <ele>93.1</ele>
        <time>2013-09-23T19:24:30.131Z</time>
      </trkpt>
      <trkpt lat="48.88193" lon="2.3134">
        <ele>92.4</ele>
        <time>2013-09-23T19:24:31.040Z</time>
      </trkpt>
      <trkpt lat="48.88195" lon="2.31331">
        <ele>92.3</ele>
        <time>2013-09-23T19:24:32.146Z</time>
      </trkpt>
      <trkpt lat="48.88197" lon="2.31324">
        <ele>92.6</ele>
        <time>2013-09-23T19:24:33.038Z</time>
      </trkpt>
      <trkpt lat="48.88199" lon="2.31315">
        <ele>93</ele>
        <time>2013-09-23T19:24:34.106Z</time>
      </trkpt>
      <trkpt lat="48.882" lon="2.31307">
        <ele>93.5</ele>
        <time>2013-09-23T19:24:34.991Z</time>
      </trkpt>
      <trkpt lat="48.88202" lon="2.31298">
        <ele>93.7</ele>
        <time>2013-09-23T19:24:36.148Z</time>
      </trkpt>
      <trkpt lat="48.88204" lon="2.31291">
        <ele>94.4</ele>
        <time>2013-09-23T19:24:37.093Z</time>
      </trkpt>
      <trkpt lat="48.88205" lon="2.31283">
        <ele>94.8</ele>
        <time>2013-09-23T19:24:38.082Z</time>
      </trkpt>
      <trkpt lat="48.88205" lon="2.31274">
        <ele>95.3</ele>
        <time>2013-09-23T19:24:39.107Z</time>
      </trkpt>
      <trkpt lat="48.88206" lon="2.31267">
        <ele>95.6</ele>
        <time>2013-09-23T19:24:39.984Z</time>
      </trkpt>
      <trkpt lat="48.88207" lon="2.31257">
        <ele>95.4</ele>
        <time>2013-09-23T19:24:41.155Z</time>
      </trkpt>
      <trkpt lat="48.88208" lon="2.3125">
        <ele>95.3</ele>
        <time>2013-09-23T19:24:41.995Z</time>
      </trkpt>
      <trkpt lat="48.8821" lon="2.31241">
        <ele>95.2</ele>
        <time>2013-09-23T19:24:43.152Z</time>
      </trkpt>
      <trkpt lat="48.88212" lon="2.31234">
        <ele>94.8</ele>
        <time>2013-09-23T19:24:43.982Z</time>
      </trkpt>
      <trkpt lat="48.88214" lon="2.31227">
        <ele>95.4</ele>
        <time>2013-09-23T19:24:45.088Z</time>
      </trkpt>
      <trkpt lat="48.88216" lon="2.31219">
        <ele>95.3</ele>
        <time>2013-09-23T19:24:46.107Z</time>
      </trkpt>
      <trkpt lat="48.88217" lon="2.31211">
        <ele>95.7</ele>
        <time>2013-09-23T19:24:47.027Z</time>
      </trkpt>
      <trkpt lat="48.88219" lon="2.31203">
        <ele>94.7</ele>
        <time>2013-09-23T19:24:48.136Z</time>
      </trkpt>
      <trkpt lat="48.88221" lon="2.31195">
        <ele>94.4</ele>
        <time>2013-09-23T19:24:48.986Z</time>
      </trkpt>
      <trkpt lat="48.88224" lon="2.31186">
        <ele>94.8</ele>
        <time>2013-09-23T19:24:50.121Z</time>
      </trkpt>
      <trkpt lat="48.88227" lon="2.31178">
        <ele>94.2</ele>
        <time>2013-09-23T19:24:50.980Z</time>
      </trkpt>
      <trkpt lat="48.8823" lon="2.3117">
        <ele>95.3</ele>
        <time>2013-09-23T19:24:52.142Z</time>
      </trkpt>
      <trkpt lat="48.88232" lon="2.31162">
        <ele>95</ele>
        <time>2013-09-23T19:24:53.108Z</time>
      </trkpt>
      <trkpt lat="48.88234" lon="2.31155">
        <ele>94.5</ele>
        <time>2013-09-23T19:24:53.985Z</time>
      </trkpt>
      <trkpt lat="48.88236" lon="2.31148">
        <ele>94.4</ele>
        <time>2013-09-23T19:24:54.986Z</time>
      </trkpt>
      <trkpt lat="48.88239" lon="2.3114">
        <ele>95</ele>
        <time>2013-09-23T19:24:55.995Z</time>
      </trkpt>
      <trkpt lat="48.8824" lon="2.31131">
        <ele>94.9</ele>
        <time>2013-09-23T19:24:56.987Z</time>
      </trkpt>
      <trkpt lat="48.88241" lon="2.31123">
        <ele>94.4</ele>
        <time>2013-09-23T19:24:58.012Z</time>
      </trkpt>
      <trkpt lat="48.88242" lon="2.31113">
        <ele>93.9</ele>
        <time>2013-09-23T19:24:59.134Z</time>
      </trkpt>
      <trkpt lat="48.88242" lon="2.31105">
        <ele>93.5</ele>
        <time>2013-09-23T19:25:00.086Z</time>
      </trkpt>
      <trkpt lat="48.88243" lon="2.31097">
        <ele>93.4</ele>
        <time>2013-09-23T19:25:01.074Z</time>
      </trkpt>
      <trkpt lat="48.88243" lon="2.31088">
        <ele>93.7</ele>
        <time>2013-09-23T19:25:01.980Z</time>
      </trkpt>
      <trkpt lat="48.88244" lon="2.31079">
        <ele>93.3</ele>
        <time>2013-09-23T19:25:03.040Z</time>
      </trkpt>
      <trkpt lat="48.88246" lon="2.31069">
        <ele>93.8</ele>
        <time>2013-09-23T19:25:04.183Z</time>
      </trkpt>
      <trkpt lat="48.88249" lon="2.31063">
        <ele>94.2</ele>
        <time>2013-09-23T19:25:04.988Z</time>
      </trkpt>
      <trkpt lat="48.88252" lon="2.31055">
        <ele>93.3</ele>
        <time>2013-09-23T19:25:06.177Z</time>
      </trkpt>
      <trkpt lat="48.88254" lon="2.3105">
        <ele>92.9</ele>
        <time>2013-09-23T19:25:07.006Z</time>
      </trkpt>
      <trkpt lat="48.88257" lon="2.31042">
        <ele>92.8</ele>
        <time>2013-09-23T19:25:08.116Z</time>
      </trkpt>
      <trkpt lat="48.88259" lon="2.31036">
        <ele>92.3</ele>
        <time>2013-09-23T19:25:09.170Z</time>
      </trkpt>
      <trkpt lat="48.88262" lon="2.31023">
        <ele>92.2</ele>
        <time>2013-09-23T19:25:11.010Z</time>
      </trkpt>
      <trkpt lat="48.88264" lon="2.31017">
        <ele>91.7</ele>
        <time>2013-09-23T19:25:11.979Z</time>
      </trkpt>
      <trkpt lat="48.88265" lon="2.31009">
        <ele>91.3</ele>
        <time>2013-09-23T19:25:12.988Z</time>
      </trkpt>
      <trkpt lat="48.88266" lon="2.31003">
        <ele>91.2</ele>
        <time>2013-09-23T19:25:13.978Z</time>
      </trkpt>
      <trkpt lat="48.88269" lon="2.3099">
        <ele>92.1</ele>
        <time>2013-09-23T19:25:15.980Z</time>
      </trkpt>
      <trkpt lat="48.8827" lon="2.30982">
        <ele>91.7</ele>
        <time>2013-09-23T19:25:16.978Z</time>
      </trkpt>
      <trkpt lat="48.88272" lon="2.30975">
        <ele>91.6</ele>
        <time>2013-09-23T19:25:17.979Z</time>
      </trkpt>
      <trkpt lat="48.88273" lon="2.30967">
        <ele>91.2</ele>
        <time>2013-09-23T19:25:18.978Z</time>
      </trkpt>
      <trkpt lat="48.88274" lon="2.3096">
        <ele>90.5</ele>
        <time>2013-09-23T19:25:19.986Z</time>
      </trkpt>
      <trkpt lat="48.88276" lon="2.30953">
        <ele>90.9</ele>
        <time>2013-09-23T19:25:20.978Z</time>
      </trkpt>
      <trkpt lat="48.88278" lon="2.30942">
        <ele>90.7</ele>
        <time>2013-09-23T19:25:22.980Z</time>
      </trkpt>
      <trkpt lat="48.88279" lon="2.30937">
        <ele>89.9</ele>
        <time>2013-09-23T19:25:23.993Z</time>
      </trkpt>
      <trkpt lat="48.88283" lon="2.30925">
        <ele>89.7</ele>
        <time>2013-09-23T19:25:26.981Z</time>
      </trkpt>
      <trkpt lat="48.88285" lon="2.3092">
        <ele>89.8</ele>
        <time>2013-09-23T19:25:27.982Z</time>
      </trkpt>
      <trkpt lat="48.88286" lon="2.30908">
        <ele>88.2</ele>
        <time>2013-09-23T19:25:29.993Z</time>
      </trkpt>
      <trkpt lat="48.88286" lon="2.30902">
        <ele>88.5</ele>
        <time>2013-09-23T19:25:30.987Z</time>
      </trkpt>
      <trkpt lat="48.88288" lon="2.3089">
        <ele>89</ele>
        <time>2013-09-23T19:25:32.987Z</time>
      </trkpt>
      <trkpt lat="48.88289" lon="2.30884">
        <ele>88.8</ele>
        <time>2013-09-23T19:25:33.987Z</time>
      </trkpt>
      <trkpt lat="48.88292" lon="2.30873">
        <ele>90</ele>
        <time>2013-09-23T19:25:35.988Z</time>
      </trkpt>
      <trkpt lat="48.88293" lon="2.30866">
        <ele>90.4</ele>
        <time>2013-09-23T19:25:37.004Z</time>
      </trkpt>
      <trkpt lat="48.88295" lon="2.30858">
        <ele>91</ele>
        <time>2013-09-23T19:25:38.013Z</time>
      </trkpt>
      <trkpt lat="48.88296" lon="2.3085">
        <ele>90.8</ele>
        <time>2013-09-23T19:25:38.989Z</time>
      </trkpt>
      <trkpt lat="48.88298" lon="2.30841">
        <ele>90.7</ele>
        <time>2013-09-23T19:25:39.988Z</time>
      </trkpt>
      <trkpt lat="48.88298" lon="2.30833">
        <ele>90.7</ele>
        <time>2013-09-23T19:25:40.981Z</time>
      </trkpt>
      <trkpt lat="48.88297" lon="2.30821">
        <ele>90.9</ele>
        <time>2013-09-23T19:25:42.981Z</time>
      </trkpt>
      <trkpt lat="48.88295" lon="2.3082">
        <ele>91.2</ele>
        <time>2013-09-23T19:25:43.982Z</time>
      </trkpt>
      <trkpt lat="48.8829" lon="2.30815">
        <ele>92.9</ele>
        <time>2013-09-23T19:25:46.982Z</time>
      </trkpt>
      <trkpt lat="48.88287" lon="2.30812">
        <ele>93.2</ele>
        <time>2013-09-23T19:25:48.025Z</time>
      </trkpt>
      <trkpt lat="48.88283" lon="2.30802">
        <ele>96</ele>
        <time>2013-09-23T19:25:50.148Z</time>
      </trkpt>
      <trkpt lat="48.88282" lon="2.30795">
        <ele>94.1</ele>
        <time>2013-09-23T19:25:50.998Z</time>
      </trkpt>
      <trkpt lat="48.88281" lon="2.30786">
        <ele>95.3</ele>
        <time>2013-09-23T19:25:52.144Z</time>
      </trkpt>
      <trkpt lat="48.8828" lon="2.30779">
        <ele>94.6</ele>
        <time>2013-09-23T19:25:53.015Z</time>
      </trkpt>
      <trkpt lat="48.88277" lon="2.30773">
        <ele>94.6</ele>
        <time>2013-09-23T19:25:53.993Z</time>
      </trkpt>
      <trkpt lat="48.88275" lon="2.30768">
        <ele>94.9</ele>
        <time>2013-09-23T19:25:55.006Z</time>
      </trkpt>
      <trkpt lat="48.8827" lon="2.3076">
        <ele>94</ele>
        <time>2013-09-23T19:25:57.134Z</time>
      </trkpt>
      <trkpt lat="48.88268" lon="2.30754">
        <ele>92.9</ele>
        <time>2013-09-23T19:25:58.031Z</time>
      </trkpt>
      <trkpt lat="48.88264" lon="2.30746">
        <ele>92.4</ele>
        <time>2013-09-23T19:25:59.168Z</time>
      </trkpt>
      <trkpt lat="48.8826" lon="2.3074">
        <ele>91.6</ele>
        <time>2013-09-23T19:26:00.000Z</time>
      </trkpt>
      <trkpt lat="48.88257" lon="2.30732">
        <ele>91.4</ele>
        <time>2013-09-23T19:26:01.144Z</time>
      </trkpt>
      <trkpt lat="48.88254" lon="2.30724">
        <ele>90.9</ele>
        <time>2013-09-23T19:26:01.997Z</time>
      </trkpt>
      <trkpt lat="48.88253" lon="2.30716">
        <ele>92.8</ele>
        <time>2013-09-23T19:26:03.136Z</time>
      </trkpt>
      <trkpt lat="48.88252" lon="2.30709">
        <ele>93.1</ele>
        <time>2013-09-23T19:26:04.041Z</time>
      </trkpt>
      <trkpt lat="48.88249" lon="2.30697">
        <ele>93.1</ele>
        <time>2013-09-23T19:26:06.073Z</time>
      </trkpt>
      <trkpt lat="48.88246" lon="2.30691">
        <ele>92.7</ele>
        <time>2013-09-23T19:26:07.007Z</time>
      </trkpt>
      <trkpt lat="48.88239" lon="2.30686">
        <ele>92.4</ele>
        <time>2013-09-23T19:26:08.119Z</time>
      </trkpt>
      <trkpt lat="48.88235" lon="2.3068">
        <ele>92.1</ele>
        <time>2013-09-23T19:26:08.991Z</time>
      </trkpt>
      <trkpt lat="48.8823" lon="2.30672">
        <ele>92.8</ele>
        <time>2013-09-23T19:26:10.184Z</time>
      </trkpt>
      <trkpt lat="48.88227" lon="2.30667">
        <ele>92.3</ele>
        <time>2013-09-23T19:26:10.994Z</time>
      </trkpt>
      <trkpt lat="48.88223" lon="2.30659">
        <ele>91.4</ele>
        <time>2013-09-23T19:26:12.088Z</time>
      </trkpt>
      <trkpt lat="48.8822" lon="2.30653">
        <ele>91.8</ele>
        <time>2013-09-23T19:26:13.194Z</time>
      </trkpt>
      <trkpt lat="48.88216" lon="2.30648">
        <ele>91.8</ele>
        <time>2013-09-23T19:26:14.024Z</time>
      </trkpt>
      <trkpt lat="48.88212" lon="2.30641">
        <ele>90.9</ele>
        <time>2013-09-23T19:26:15.167Z</time>
      </trkpt>
      <trkpt lat="48.88209" lon="2.30635">
        <ele>91</ele>
        <time>2013-09-23T19:26:16.001Z</time>
      </trkpt>
      <trkpt lat="48.88206" lon="2.30628">
        <ele>91.1</ele>
        <time>2013-09-23T19:26:16.992Z</time>
      </trkpt>
      <trkpt lat="48.88203" lon="2.30619">
        <ele>90.7</ele>
        <time>2013-09-23T19:26:17.993Z</time>
      </trkpt>
      <trkpt lat="48.88199" lon="2.3061">
        <ele>90.3</ele>
        <time>2013-09-23T19:26:19.144Z</time>
      </trkpt>
      <trkpt lat="48.88197" lon="2.30602">
        <ele>89.2</ele>
        <time>2013-09-23T19:26:19.986Z</time>
      </trkpt>
      <trkpt lat="48.88194" lon="2.30594">
        <ele>89.6</ele>
        <time>2013-09-23T19:26:20.984Z</time>
      </trkpt>
      <trkpt lat="48.8819" lon="2.30587">
        <ele>89.8</ele>
        <time>2013-09-23T19:26:21.993Z</time>
      </trkpt>
      <trkpt lat="48.88184" lon="2.3058">
        <ele>87.3</ele>
        <time>2013-09-23T19:26:23.056Z</time>
      </trkpt>
      <trkpt lat="48.88179" lon="2.30573">
        <ele>86.6</ele>
        <time>2013-09-23T19:26:24.177Z</time>
      </trkpt>
      <trkpt lat="48.88176" lon="2.30566">
        <ele>86.2</ele>
        <time>2013-09-23T19:26:25.004Z</time>
      </trkpt>
      <trkpt lat="48.88173" lon="2.30557">
        <ele>86.7</ele>
        <time>2013-09-23T19:26:26.004Z</time>
      </trkpt>
      <trkpt lat="48.8817" lon="2.30549">
        <ele>86.8</ele>
        <time>2013-09-23T19:26:27.018Z</time>
      </trkpt>
      <trkpt lat="48.88167" lon="2.30542">
        <ele>87</ele>
        <time>2013-09-23T19:26:28.133Z</time>
      </trkpt>
      <trkpt lat="48.88164" lon="2.30536">
        <ele>84.6</ele>
        <time>2013-09-23T19:26:28.987Z</time>
      </trkpt>
      <trkpt lat="48.8816" lon="2.30529">
        <ele>83.8</ele>
        <time>2013-09-23T19:26:30.003Z</time>
      </trkpt>
      <trkpt lat="48.88157" lon="2.30523">
        <ele>85</ele>
        <time>2013-09-23T19:26:30.984Z</time>
      </trkpt>
      <trkpt lat="48.88154" lon="2.30516">
        <ele>84.9</ele>
        <time>2013-09-23T19:26:31.986Z</time>
      </trkpt>
      <trkpt lat="48.8815" lon="2.30511">
        <ele>86.1</ele>
        <time>2013-09-23T19:26:33.023Z</time>
      </trkpt>
      <trkpt lat="48.88145" lon="2.305">
        <ele>86.1</ele>
        <time>2013-09-23T19:26:34.987Z</time>
      </trkpt>
      <trkpt lat="48.88143" lon="2.30495">
        <ele>86.3</ele>
        <time>2013-09-23T19:26:36.000Z</time>
      </trkpt>
      <trkpt lat="48.88138" lon="2.30484">
        <ele>85.8</ele>
        <time>2013-09-23T19:26:37.997Z</time>
      </trkpt>
      <trkpt lat="48.88136" lon="2.30478">
        <ele>86.1</ele>
        <time>2013-09-23T19:26:38.985Z</time>
      </trkpt>
      <trkpt lat="48.88133" lon="2.30472">
        <ele>85.6</ele>
        <time>2013-09-23T19:26:40.002Z</time>
      </trkpt>
      <trkpt lat="48.8813" lon="2.30466">
        <ele>85.4</ele>
        <time>2013-09-23T19:26:41.003Z</time>
      </trkpt>
      <trkpt lat="48.88124" lon="2.30458">
        <ele>85.5</ele>
        <time>2013-09-23T19:26:43.018Z</time>
      </trkpt>
      <trkpt lat="48.8812" lon="2.30456">
        <ele>85.4</ele>
        <time>2013-09-23T19:26:44.002Z</time>
      </trkpt>
      <trkpt lat="48.88117" lon="2.3045">
        <ele>85.5</ele>
        <time>2013-09-23T19:26:45.002Z</time>
      </trkpt>
      <trkpt lat="48.88114" lon="2.30443">
        <ele>85.4</ele>
        <time>2013-09-23T19:26:46.000Z</time>
      </trkpt>
      <trkpt lat="48.88111" lon="2.30436">
        <ele>85.2</ele>
        <time>2013-09-23T19:26:47.001Z</time>
      </trkpt>
      <trkpt lat="48.88109" lon="2.30428">
        <ele>85.4</ele>
        <time>2013-09-23T19:26:47.987Z</time>
      </trkpt>
      <trkpt lat="48.88108" lon="2.30419">
        <ele>85.1</ele>
        <time>2013-09-23T19:26:49.004Z</time>
      </trkpt>
      <trkpt lat="48.88106" lon="2.30412">
        <ele>85.2</ele>
        <time>2013-09-23T19:26:50.012Z</time>
      </trkpt>
      <trkpt lat="48.88104" lon="2.30402">
        <ele>86.9</ele>
        <time>2013-09-23T19:26:51.983Z</time>
      </trkpt>
      <trkpt lat="48.88103" lon="2.30397">
        <ele>87.3</ele>
        <time>2013-09-23T19:26:53.017Z</time>
      </trkpt>
      <trkpt lat="48.881" lon="2.3039">
        <ele>86.9</ele>
        <time>2013-09-23T19:26:53.988Z</time>
      </trkpt>
      <trkpt lat="48.88096" lon="2.30384">
        <ele>86.4</ele>
        <time>2013-09-23T19:26:55.000Z</time>
      </trkpt>
      <trkpt lat="48.88091" lon="2.30379">
        <ele>86.6</ele>
        <time>2013-09-23T19:26:55.993Z</time>
      </trkpt>
      <trkpt lat="48.88084" lon="2.30377">
        <ele>86.5</ele>
        <time>2013-09-23T19:26:57.013Z</time>
      </trkpt>
      <trkpt lat="48.88076" lon="2.30373">
        <ele>85.5</ele>
        <time>2013-09-23T19:26:59.005Z</time>
      </trkpt>
      <trkpt lat="48.88074" lon="2.3037">
        <ele>86.5</ele>
        <time>2013-09-23T19:26:59.998Z</time>
      </trkpt>
      <trkpt lat="48.88068" lon="2.30364">
        <ele>86.2</ele>
        <time>2013-09-23T19:27:02.081Z</time>
      </trkpt>
      <trkpt lat="48.88066" lon="2.3036">
        <ele>86.2</ele>
        <time>2013-09-23T19:27:03.069Z</time>
      </trkpt>
      <trkpt lat="48.88063" lon="2.30349">
        <ele>84.8</ele>
        <time>2013-09-23T19:27:04.997Z</time>
      </trkpt>
      <trkpt lat="48.88061" lon="2.30342">
        <ele>84.9</ele>
        <time>2013-09-23T19:27:06.173Z</time>
      </trkpt>
      <trkpt lat="48.88058" lon="2.30331">
        <ele>85.5</ele>
        <time>2013-09-23T19:27:08.144Z</time>
      </trkpt>
      <trkpt lat="48.88056" lon="2.30326">
        <ele>85.8</ele>
        <time>2013-09-23T19:27:08.998Z</time>
      </trkpt>
      <trkpt lat="48.88053" lon="2.30316">
        <ele>86.8</ele>
        <time>2013-09-23T19:27:11.033Z</time>
      </trkpt>
      <trkpt lat="48.88051" lon="2.3031">
        <ele>86.9</ele>
        <time>2013-09-23T19:27:12.053Z</time>
      </trkpt>
      <trkpt lat="48.88048" lon="2.30301">
        <ele>87.8</ele>
        <time>2013-09-23T19:27:13.994Z</time>
      </trkpt>
      <trkpt lat="48.88046" lon="2.30297">
        <ele>88.5</ele>
        <time>2013-09-23T19:27:15.204Z</time>
      </trkpt>
      <trkpt lat="48.88039" lon="2.3029">
        <ele>92.2</ele>
        <time>2013-09-23T19:27:18.006Z</time>
      </trkpt>
      <trkpt lat="48.88037" lon="2.30287">
        <ele>90.8</ele>
        <time>2013-09-23T19:27:19.086Z</time>
      </trkpt>
      <trkpt lat="48.88033" lon="2.30281">
        <ele>91</ele>
        <time>2013-09-23T19:27:21.006Z</time>
      </trkpt>
      <trkpt lat="48.88031" lon="2.30276">
        <ele>91.1</ele>
        <time>2013-09-23T19:27:21.998Z</time>
      </trkpt>
      <trkpt lat="48.88027" lon="2.30267">
        <ele>91</ele>
        <time>2013-09-23T19:27:23.989Z</time>
      </trkpt>
      <trkpt lat="48.88024" lon="2.30262">
        <ele>90.6</ele>
        <time>2013-09-23T19:27:24.996Z</time>
      </trkpt>
      <trkpt lat="48.88019" lon="2.30253">
        <ele>89.4</ele>
        <time>2013-09-23T19:27:27.001Z</time>
      </trkpt>
      <trkpt lat="48.88017" lon="2.30249">
        <ele>88.9</ele>
        <time>2013-09-23T19:27:27.990Z</time>
      </trkpt>
      <trkpt lat="48.88013" lon="2.3024">
        <ele>90</ele>
        <time>2013-09-23T19:27:29.988Z</time>
      </trkpt>
      <trkpt lat="48.88013" lon="2.30235">
        <ele>89.4</ele>
        <time>2013-09-23T19:27:30.990Z</time>
      </trkpt>
      <trkpt lat="48.88017" lon="2.30227">
        <ele>91.4</ele>
        <time>2013-09-23T19:27:32.998Z</time>
      </trkpt>
      <trkpt lat="48.8802" lon="2.30223">
        <ele>91.9</ele>
        <time>2013-09-23T19:27:34.005Z</time>
      </trkpt>
      <trkpt lat="48.88027" lon="2.30214">
        <ele>91.9</ele>
        <time>2013-09-23T19:27:35.990Z</time>
      </trkpt>
      <trkpt lat="48.88031" lon="2.3021">
        <ele>91.7</ele>
        <time>2013-09-23T19:27:37.003Z</time>
      </trkpt>
      <trkpt lat="48.88035" lon="2.30205">
        <ele>91.3</ele>
        <time>2013-09-23T19:27:37.990Z</time>
      </trkpt>
      <trkpt lat="48.88039" lon="2.30201">
        <ele>92</ele>
        <time>2013-09-23T19:27:38.991Z</time>
      </trkpt>
      <trkpt lat="48.88043" lon="2.30196">
        <ele>92.6</ele>
        <time>2013-09-23T19:27:39.999Z</time>
      </trkpt>
      <trkpt lat="48.88046" lon="2.30191">
        <ele>93.4</ele>
        <time>2013-09-23T19:27:40.991Z</time>
      </trkpt>
      <trkpt lat="48.8805" lon="2.30187">
        <ele>92.8</ele>
        <time>2013-09-23T19:27:41.997Z</time>
      </trkpt>
      <trkpt lat="48.88054" lon="2.30182">
        <ele>91.3</ele>
        <time>2013-09-23T19:27:42.998Z</time>
      </trkpt>
      <trkpt lat="48.88057" lon="2.30177">
        <ele>90.5</ele>
        <time>2013-09-23T19:27:43.997Z</time>
      </trkpt>
      <trkpt lat="48.8806" lon="2.30172">
        <ele>90.9</ele>
        <time>2013-09-23T19:27:44.991Z</time>
      </trkpt>
      <trkpt lat="48.88064" lon="2.30167">
        <ele>91.5</ele>
        <time>2013-09-23T19:27:46.001Z</time>
      </trkpt>
      <trkpt lat="48.88068" lon="2.30162">
        <ele>91.7</ele>
        <time>2013-09-23T19:27:46.992Z</time>
      </trkpt>
      <trkpt lat="48.88072" lon="2.30157">
        <ele>91.2</ele>
        <time>2013-09-23T19:27:48.024Z</time>
      </trkpt>
      <trkpt lat="48.88076" lon="2.30152">
        <ele>91.1</ele>
        <time>2013-09-23T19:27:48.999Z</time>
      </trkpt>
      <trkpt lat="48.8808" lon="2.30147">
        <ele>90.4</ele>
        <time>2013-09-23T19:27:50.003Z</time>
      </trkpt>
      <trkpt lat="48.88084" lon="2.30142">
        <ele>90.8</ele>
        <time>2013-09-23T19:27:50.994Z</time>
      </trkpt>
      <trkpt lat="48.88087" lon="2.30137">
        <ele>91.2</ele>
        <time>2013-09-23T19:27:51.991Z</time>
      </trkpt>
      <trkpt lat="48.88091" lon="2.30133">
        <ele>91.2</ele>
        <time>2013-09-23T19:27:53.009Z</time>
      </trkpt>
      <trkpt lat="48.88096" lon="2.30125">
        <ele>90.3</ele>
        <time>2013-09-23T19:27:55.021Z</time>
      </trkpt>
      <trkpt lat="48.88099" lon="2.30121">
        <ele>90.9</ele>
        <time>2013-09-23T19:27:56.010Z</time>
      </trkpt>
      <trkpt lat="48.88106" lon="2.30113">
        <ele>88.5</ele>
        <time>2013-09-23T19:27:58.034Z</time>
      </trkpt>
      <trkpt lat="48.88111" lon="2.30107">
        <ele>86.3</ele>
        <time>2013-09-23T19:27:58.993Z</time>
      </trkpt>
      <trkpt lat="48.88116" lon="2.30102">
        <ele>84.9</ele>
        <time>2013-09-23T19:28:00.002Z</time>
      </trkpt>
      <trkpt lat="48.8812" lon="2.30099">
        <ele>85.2</ele>
        <time>2013-09-23T19:28:01.000Z</time>
      </trkpt>
      <trkpt lat="48.88128" lon="2.30093">
        <ele>85.8</ele>
        <time>2013-09-23T19:28:03.043Z</time>
      </trkpt>
      <trkpt lat="48.88131" lon="2.3009">
        <ele>86.1</ele>
        <time>2013-09-23T19:28:03.994Z</time>
      </trkpt>
      <trkpt lat="48.88137" lon="2.30082">
        <ele>86</ele>
        <time>2013-09-23T19:28:06.022Z</time>
      </trkpt>
      <trkpt lat="48.8814" lon="2.30078">
        <ele>85.7</ele>
        <time>2013-09-23T19:28:06.996Z</time>
      </trkpt>
      <trkpt lat="48.88147" lon="2.30071">
        <ele>85.7</ele>
        <time>2013-09-23T19:28:09.004Z</time>
      </trkpt>
      <trkpt lat="48.88152" lon="2.30067">
        <ele>84.5</ele>
        <time>2013-09-23T19:28:10.001Z</time>
      </trkpt>
      <trkpt lat="48.88156" lon="2.30063">
        <ele>84.4</ele>
        <time>2013-09-23T19:28:11.001Z</time>
      </trkpt>
      <trkpt lat="48.88159" lon="2.30059">
        <ele>82.9</ele>
        <time>2013-09-23T19:28:12.001Z</time>
      </trkpt>
      <trkpt lat="48.88165" lon="2.30048">
        <ele>82.2</ele>
        <time>2013-09-23T19:28:13.999Z</time>
      </trkpt>
      <trkpt lat="48.88166" lon="2.30043">
        <ele>81.9</ele>
        <time>2013-09-23T19:28:14.993Z</time>
      </trkpt>
      <trkpt lat="48.88168" lon="2.30031">
        <ele>81.9</ele>
        <time>2013-09-23T19:28:17.009Z</time>
      </trkpt>
      <trkpt lat="48.88168" lon="2.30024">
        <ele>81.9</ele>
        <time>2013-09-23T19:28:17.992Z</time>
      </trkpt>
      <trkpt lat="48.88166" lon="2.30012">
        <ele>82.3</ele>
        <time>2013-09-23T19:28:20.008Z</time>
      </trkpt>
      <trkpt lat="48.88164" lon="2.30006">
        <ele>83.3</ele>
        <time>2013-09-23T19:28:21.015Z</time>
      </trkpt>
      <trkpt lat="48.88162" lon="2.29994">
        <ele>85.4</ele>
        <time>2013-09-23T19:28:23.007Z</time>
      </trkpt>
      <trkpt lat="48.88161" lon="2.29988">
        <ele>86.1</ele>
        <time>2013-09-23T19:28:23.997Z</time>
      </trkpt>
      <trkpt lat="48.8816" lon="2.29976">
        <ele>86.8</ele>
        <time>2013-09-23T19:28:25.994Z</time>
      </trkpt>
      <trkpt lat="48.88158" lon="2.29971">
        <ele>85.9</ele>
        <time>2013-09-23T19:28:26.994Z</time>
      </trkpt>
      <trkpt lat="48.88155" lon="2.2996">
        <ele>86.4</ele>
        <time>2013-09-23T19:28:29.010Z</time>
      </trkpt>
      <trkpt lat="48.88154" lon="2.29955">
        <ele>85.5</ele>
        <time>2013-09-23T19:28:30.000Z</time>
      </trkpt>
      <trkpt lat="48.88153" lon="2.29944">
        <ele>86.3</ele>
        <time>2013-09-23T19:28:32.011Z</time>
      </trkpt>
      <trkpt lat="48.88152" lon="2.29938">
        <ele>87</ele>
        <time>2013-09-23T19:28:33.010Z</time>
      </trkpt>
      <trkpt lat="48.8815" lon="2.29927">
        <ele>86.3</ele>
        <time>2013-09-23T19:28:35.004Z</time>
      </trkpt>
      <trkpt lat="48.88149" lon="2.29922">
        <ele>84.9</ele>
        <time>2013-09-23T19:28:36.006Z</time>
      </trkpt>
      <trkpt lat="48.88147" lon="2.2991">
        <ele>85.3</ele>
        <time>2013-09-23T19:28:37.994Z</time>
      </trkpt>
      <trkpt lat="48.88147" lon="2.29904">
        <ele>85.1</ele>
        <time>2013-09-23T19:28:38.994Z</time>
      </trkpt>
      <trkpt lat="48.88145" lon="2.29891">
        <ele>84.7</ele>
        <time>2013-09-23T19:28:40.994Z</time>
      </trkpt>
      <trkpt lat="48.88145" lon="2.29884">
        <ele>84.3</ele>
        <time>2013-09-23T19:28:41.996Z</time>
      </trkpt>
      <trkpt lat="48.88145" lon="2.29872">
        <ele>83.9</ele>
        <time>2013-09-23T19:28:43.996Z</time>
      </trkpt>
      <trkpt lat="48.88145" lon="2.29865">
        <ele>84.2</ele>
        <time>2013-09-23T19:28:45.007Z</time>
      </trkpt>
      <trkpt lat="48.88142" lon="2.29855">
        <ele>84.3</ele>
        <time>2013-09-23T19:28:47.004Z</time>
      </trkpt>
      <trkpt lat="48.88139" lon="2.29851">
        <ele>85</ele>
        <time>2013-09-23T19:28:48.018Z</time>
      </trkpt>
      <trkpt lat="48.88135" lon="2.29847">
        <ele>85.1</ele>
        <time>2013-09-23T19:28:49.015Z</time>
      </trkpt>
      <trkpt lat="48.88131" lon="2.29844">
        <ele>84.5</ele>
        <time>2013-09-23T19:28:49.994Z</time>
      </trkpt>
      <trkpt lat="48.88127" lon="2.2984">
        <ele>84.3</ele>
        <time>2013-09-23T19:28:51.004Z</time>
      </trkpt>
      <trkpt lat="48.88123" lon="2.29836">
        <ele>86.9</ele>
        <time>2013-09-23T19:28:52.045Z</time>
      </trkpt>
      <trkpt lat="48.8812" lon="2.29832">
        <ele>88.4</ele>
        <time>2013-09-23T19:28:53.084Z</time>
      </trkpt>
      <trkpt lat="48.88117" lon="2.29826">
        <ele>88.5</ele>
        <time>2013-09-23T19:28:54.124Z</time>
      </trkpt>
      <trkpt lat="48.88115" lon="2.2982">
        <ele>88.5</ele>
        <time>2013-09-23T19:28:55.027Z</time>
      </trkpt>
      <trkpt lat="48.88113" lon="2.29812">
        <ele>88.8</ele>
        <time>2013-09-23T19:28:56.133Z</time>
      </trkpt>
      <trkpt lat="48.88109" lon="2.29808">
        <ele>89.2</ele>
        <time>2013-09-23T19:28:57.010Z</time>
      </trkpt>
      <trkpt lat="48.88106" lon="2.29802">
        <ele>90.4</ele>
        <time>2013-09-23T19:28:58.153Z</time>
      </trkpt>
      <trkpt lat="48.88101" lon="2.29792">
        <ele>93</ele>
        <time>2013-09-23T19:29:00.166Z</time>
      </trkpt>
      <trkpt lat="48.88098" lon="2.29786">
        <ele>89.6</ele>
        <time>2013-09-23T19:29:01.118Z</time>
      </trkpt>
      <trkpt lat="48.88093" lon="2.29777">
        <ele>90.7</ele>
        <time>2013-09-23T19:29:03.168Z</time>
      </trkpt>
      <trkpt lat="48.88092" lon="2.29773">
        <ele>93.2</ele>
        <time>2013-09-23T19:29:03.997Z</time>
      </trkpt>
      <trkpt lat="48.88092" lon="2.29762">
        <ele>91.9</ele>
        <time>2013-09-23T19:29:06.004Z</time>
      </trkpt>
      <trkpt lat="48.88092" lon="2.29755">
        <ele>92.3</ele>
        <time>2013-09-23T19:29:07.141Z</time>
      </trkpt>
      <trkpt lat="48.88096" lon="2.29744">
        <ele>91.7</ele>
        <time>2013-09-23T19:29:09.094Z</time>
      </trkpt>
      <trkpt lat="48.88099" lon="2.29739">
        <ele>92.1</ele>
        <time>2013-09-23T19:29:10.126Z</time>
      </trkpt>
      <trkpt lat="48.88105" lon="2.29729">
        <ele>94.5</ele>
        <time>2013-09-23T19:29:12.137Z</time>
      </trkpt>
      <trkpt lat="48.88108" lon="2.29725">
        <ele>96.1</ele>
        <time>2013-09-23T19:29:13.017Z</time>
      </trkpt>
      <trkpt lat="48.88113" lon="2.2972">
        <ele>96</ele>
        <time>2013-09-23T19:29:14.029Z</time>
      </trkpt>
      <trkpt lat="48.88118" lon="2.29716">
        <ele>96.6</ele>
        <time>2013-09-23T19:29:15.005Z</time>
      </trkpt>
      <trkpt lat="48.88123" lon="2.2971">
        <ele>95.9</ele>
        <time>2013-09-23T19:29:16.094Z</time>
      </trkpt>
      <trkpt lat="48.88127" lon="2.29704">
        <ele>94.3</ele>
        <time>2013-09-23T19:29:17.138Z</time>
      </trkpt>
      <trkpt lat="48.88132" lon="2.29698">
        <ele>93.1</ele>
        <time>2013-09-23T19:29:18.063Z</time>
      </trkpt>
      <trkpt lat="48.88136" lon="2.29691">
        <ele>91.9</ele>
        <time>2013-09-23T19:29:19.190Z</time>
      </trkpt>
      <trkpt lat="48.88138" lon="2.29684">
        <ele>92.6</ele>
        <time>2013-09-23T19:29:19.998Z</time>
      </trkpt>
      <trkpt lat="48.88142" lon="2.29678">
        <ele>93.6</ele>
        <time>2013-09-23T19:29:21.160Z</time>
      </trkpt>
      <trkpt lat="48.88147" lon="2.2967">
        <ele>94.6</ele>
        <time>2013-09-23T19:29:23.156Z</time>
      </trkpt>
      <trkpt lat="48.8815" lon="2.29668">
        <ele>94.8</ele>
        <time>2013-09-23T19:29:24.064Z</time>
      </trkpt>
      <trkpt lat="48.88156" lon="2.29661">
        <ele>92.3</ele>
        <time>2013-09-23T19:29:26.126Z</time>
      </trkpt>
      <trkpt lat="48.88159" lon="2.29657">
        <ele>92.8</ele>
        <time>2013-09-23T19:29:27.039Z</time>
      </trkpt>
      <trkpt lat="48.88164" lon="2.29647">
        <ele>88.2</ele>
        <time>2013-09-23T19:29:29.002Z</time>
      </trkpt>
      <trkpt lat="48.88166" lon="2.29642">
        <ele>88.3</ele>
        <time>2013-09-23T19:29:30.006Z</time>
      </trkpt>
      <trkpt lat="48.88171" lon="2.29632">
        <ele>88.7</ele>
        <time>2013-09-23T19:29:32.140Z</time>
      </trkpt>
      <trkpt lat="48.88173" lon="2.29628">
        <ele>89.2</ele>
        <time>2013-09-23T19:29:33.168Z</time>
      </trkpt>
      <trkpt lat="48.88179" lon="2.29619">
        <ele>89.4</ele>
        <time>2013-09-23T19:29:35.998Z</time>
      </trkpt>
      <trkpt lat="48.8818" lon="2.29617">
        <ele>89</ele>
        <time>2013-09-23T19:29:37.000Z</time>
      </trkpt>
      <trkpt lat="48.88181" lon="2.29604">
        <ele>83.6</ele>
        <time>2013-09-23T19:29:45.002Z</time>
      </trkpt>
      <trkpt lat="48.88182" lon="2.29603">
        <ele>85.1</ele>
        <time>2013-09-23T19:29:46.027Z</time>
      </trkpt>
      <trkpt lat="48.88179" lon="2.29593">
        <ele>85.7</ele>
        <time>2013-09-23T19:29:51.001Z</time>
      </trkpt>
      <trkpt lat="48.88177" lon="2.2959">
        <ele>86.5</ele>
        <time>2013-09-23T19:29:52.012Z</time>
      </trkpt>
      <trkpt lat="48.88169" lon="2.29585">
        <ele>85.4</ele>
        <time>2013-09-23T19:29:55.001Z</time>
      </trkpt>
      <trkpt lat="48.88166" lon="2.29584">
        <ele>85.2</ele>
        <time>2013-09-23T19:29:56.013Z</time>
      </trkpt>
      <trkpt lat="48.88158" lon="2.2958">
        <ele>86.8</ele>
        <time>2013-09-23T19:29:58.033Z</time>
      </trkpt>
      <trkpt lat="48.88155" lon="2.29577">
        <ele>86.7</ele>
        <time>2013-09-23T19:29:59.004Z</time>
      </trkpt>
      <trkpt lat="48.88148" lon="2.29569">
        <ele>90.4</ele>
        <time>2013-09-23T19:30:01.008Z</time>
      </trkpt>
      <trkpt lat="48.88145" lon="2.29566">
        <ele>90.1</ele>
        <time>2013-09-23T19:30:02.010Z</time>
      </trkpt>
      <trkpt lat="48.88138" lon="2.29557">
        <ele>86.8</ele>
        <time>2013-09-23T19:30:05.017Z</time>
      </trkpt>
      <trkpt lat="48.88137" lon="2.29555">
        <ele>87.3</ele>
        <time>2013-09-23T19:30:06.003Z</time>
      </trkpt>
      <trkpt lat="48.88138" lon="2.29544">
        <ele>89.9</ele>
        <time>2013-09-23T19:30:09.003Z</time>
      </trkpt>
      <trkpt lat="48.8814" lon="2.29539">
        <ele>90.4</ele>
        <time>2013-09-23T19:30:10.002Z</time>
      </trkpt>
      <trkpt lat="48.88145" lon="2.29532">
        <ele>91.1</ele>
        <time>2013-09-23T19:30:12.003Z</time>
      </trkpt>
      <trkpt lat="48.88148" lon="2.29529">
        <ele>90</ele>
        <time>2013-09-23T19:30:13.020Z</time>
      </trkpt>
      <trkpt lat="48.88156" lon="2.29521">
        <ele>90.3</ele>
        <time>2013-09-23T19:30:15.025Z</time>
      </trkpt>
      <trkpt lat="48.8816" lon="2.29517">
        <ele>89.9</ele>
        <time>2013-09-23T19:30:16.030Z</time>
      </trkpt>
      <trkpt lat="48.88164" lon="2.29512">
        <ele>89.8</ele>
        <time>2013-09-23T19:30:17.004Z</time>
      </trkpt>
      <trkpt lat="48.88168" lon="2.29507">
        <ele>89.1</ele>
        <time>2013-09-23T19:30:18.017Z</time>
      </trkpt>
      <trkpt lat="48.88172" lon="2.29501">
        <ele>89.4</ele>
        <time>2013-09-23T19:30:19.133Z</time>
      </trkpt>
      <trkpt lat="48.88178" lon="2.29494">
        <ele>89.4</ele>
        <time>2013-09-23T19:30:20.023Z</time>
      </trkpt>
      <trkpt lat="48.88185" lon="2.29486">
        <ele>89.4</ele>
        <time>2013-09-23T19:30:21.143Z</time>
      </trkpt>
      <trkpt lat="48.8819" lon="2.29481">
        <ele>89.5</ele>
        <time>2013-09-23T19:30:22.116Z</time>
      </trkpt>
      <trkpt lat="48.88195" lon="2.29477">
        <ele>90.7</ele>
        <time>2013-09-23T19:30:23.068Z</time>
      </trkpt>
      <trkpt lat="48.88199" lon="2.29473">
        <ele>91.1</ele>
        <time>2013-09-23T19:30:24.116Z</time>
      </trkpt>
      <trkpt lat="48.88204" lon="2.29464">
        <ele>89.2</ele>
        <time>2013-09-23T19:30:26.138Z</time>
      </trkpt>
      <trkpt lat="48.88209" lon="2.29461">
        <ele>87.2</ele>
        <time>2013-09-23T19:30:27.014Z</time>
      </trkpt>
      <trkpt lat="48.88214" lon="2.29459">
        <ele>87</ele>
        <time>2013-09-23T19:30:28.165Z</time>
      </trkpt>
      <trkpt lat="48.88217" lon="2.29457">
        <ele>86.6</ele>
        <time>2013-09-23T19:30:29.059Z</time>
      </trkpt>
      <trkpt lat="48.88223" lon="2.29446">
        <ele>83.6</ele>
        <time>2013-09-23T19:30:31.030Z</time>
      </trkpt>
      <trkpt lat="48.88226" lon="2.29441">
        <ele>83.9</ele>
        <time>2013-09-23T19:30:32.016Z</time>
      </trkpt>
      <trkpt lat="48.8823" lon="2.29431">
        <ele>84.4</ele>
        <time>2013-09-23T19:30:34.010Z</time>
      </trkpt>
      <trkpt lat="48.88231" lon="2.29426">
        <ele>84.1</ele>
        <time>2013-09-23T19:30:35.194Z</time>
      </trkpt>
      <trkpt lat="48.8823" lon="2.29416">
        <ele>84.1</ele>
        <time>2013-09-23T19:30:37.134Z</time>
      </trkpt>
      <trkpt lat="48.88227" lon="2.29412">
        <ele>83.7</ele>
        <time>2013-09-23T19:30:38.115Z</time>
      </trkpt>
      <trkpt lat="48.88219" lon="2.29409">
        <ele>85.5</ele>
        <time>2013-09-23T19:30:40.167Z</time>
      </trkpt>
      <trkpt lat="48.88215" lon="2.29409">
        <ele>86.6</ele>
        <time>2013-09-23T19:30:41.005Z</time>
      </trkpt>
      <trkpt lat="48.8821" lon="2.2941">
        <ele>86.2</ele>
        <time>2013-09-23T19:30:42.140Z</time>
      </trkpt>
      <trkpt lat="48.88206" lon="2.29411">
        <ele>85.8</ele>
        <time>2013-09-23T19:30:43.011Z</time>
      </trkpt>
      <trkpt lat="48.88201" lon="2.29412">
        <ele>86.2</ele>
        <time>2013-09-23T19:30:44.143Z</time>
      </trkpt>
      <trkpt lat="48.88196" lon="2.29412">
        <ele>83.5</ele>
        <time>2013-09-23T19:30:45.042Z</time>
      </trkpt>
      <trkpt lat="48.88188" lon="2.29412">
        <ele>83.8</ele>
        <time>2013-09-23T19:30:47.014Z</time>
      </trkpt>
      <trkpt lat="48.88185" lon="2.29411">
        <ele>84.1</ele>
        <time>2013-09-23T19:30:48.054Z</time>
      </trkpt>
      <trkpt lat="48.88178" lon="2.2941">
        <ele>83.7</ele>
        <time>2013-09-23T19:30:50.016Z</time>
      </trkpt>
      <trkpt lat="48.88175" lon="2.29408">
        <ele>83.5</ele>
        <time>2013-09-23T19:30:51.193Z</time>
      </trkpt>
      <trkpt lat="48.88167" lon="2.29403">
        <ele>90.7</ele>
        <time>2013-09-23T19:30:54.013Z</time>
      </trkpt>
      <trkpt lat="48.88165" lon="2.29402">
        <ele>92</ele>
        <time>2013-09-23T19:30:55.060Z</time>
      </trkpt>
      <trkpt lat="48.88165" lon="2.29392">
        <ele>96.9</ele>
        <time>2013-09-23T19:31:01.049Z</time>
      </trkpt>
      <trkpt lat="48.88164" lon="2.29388">
        <ele>97.7</ele>
        <time>2013-09-23T19:31:02.104Z</time>
      </trkpt>
      <trkpt lat="48.8816" lon="2.29377">
        <ele>100.5</ele>
        <time>2013-09-23T19:31:04.048Z</time>
      </trkpt>
      <trkpt lat="48.88158" lon="2.29371">
        <ele>101.4</ele>
        <time>2013-09-23T19:31:05.169Z</time>
      </trkpt>
      <trkpt lat="48.88153" lon="2.2936">
        <ele>97.9</ele>
        <time>2013-09-23T19:31:07.221Z</time>
      </trkpt>
      <trkpt lat="48.88151" lon="2.29355">
        <ele>97.6</ele>
        <time>2013-09-23T19:31:08.014Z</time>
      </trkpt>
      <trkpt lat="48.88146" lon="2.29345">
        <ele>96</ele>
        <time>2013-09-23T19:31:10.100Z</time>
      </trkpt>
      <trkpt lat="48.88144" lon="2.2934">
        <ele>94.3</ele>
        <time>2013-09-23T19:31:11.101Z</time>
      </trkpt>
      <trkpt lat="48.88139" lon="2.29331">
        <ele>92.7</ele>
        <time>2013-09-23T19:31:13.015Z</time>
      </trkpt>
      <trkpt lat="48.88137" lon="2.29325">
        <ele>88.6</ele>
        <time>2013-09-23T19:31:14.176Z</time>
      </trkpt>
      <trkpt lat="48.88132" lon="2.29314">
        <ele>85</ele>
        <time>2013-09-23T19:31:16.180Z</time>
      </trkpt>
      <trkpt lat="48.8813" lon="2.29308">
        <ele>84.7</ele>
        <time>2013-09-23T19:31:17.104Z</time>
      </trkpt>
      <trkpt lat="48.88125" lon="2.29297">
        <ele>83.7</ele>
        <time>2013-09-23T19:31:19.231Z</time>
      </trkpt>
      <trkpt lat="48.88123" lon="2.29295">
        <ele>80.7</ele>
        <time>2013-09-23T19:31:20.062Z</time>
      </trkpt>
      <trkpt lat="48.88115" lon="2.29298">
        <ele>81.5</ele>
        <time>2013-09-23T19:31:24.034Z</time>
      </trkpt>
      <trkpt lat="48.88114" lon="2.29301">
        <ele>81.9</ele>
        <time>2013-09-23T19:31:25.031Z</time>
      </trkpt>
      <trkpt lat="48.88108" lon="2.2931">
        <ele>81.6</ele>
        <time>2013-09-23T19:31:29.170Z</time>
      </trkpt>
      <trkpt lat="48.88106" lon="2.29312">
        <ele>81.5</ele>
        <time>2013-09-23T19:31:30.030Z</time>
      </trkpt>
      <trkpt lat="48.881" lon="2.29319">
        <ele>81.7</ele>
        <time>2013-09-23T19:31:34.034Z</time>
      </trkpt>
      <trkpt lat="48.88098" lon="2.2932">
        <ele>81.7</ele>
        <time>2013-09-23T19:31:35.166Z</time>
      </trkpt>
      <trkpt lat="48.88092" lon="2.29324">
        <ele>78.9</ele>
        <time>2013-09-23T19:31:38.042Z</time>
      </trkpt>
      <trkpt lat="48.8809" lon="2.29327">
        <ele>78.3</ele>
        <time>2013-09-23T19:31:39.018Z</time>
      </trkpt>
      <trkpt lat="48.88085" lon="2.29332">
        <ele>79.4</ele>
        <time>2013-09-23T19:31:41.031Z</time>
      </trkpt>
      <trkpt lat="48.88082" lon="2.29335">
        <ele>79.5</ele>
        <time>2013-09-23T19:31:42.147Z</time>
      </trkpt>
      <trkpt lat="48.88074" lon="2.29339">
        <ele>84.1</ele>
        <time>2013-09-23T19:31:48.034Z</time>
      </trkpt>
      <trkpt lat="48.88073" lon="2.29338">
        <ele>83.8</ele>
        <time>2013-09-23T19:31:49.174Z</time>
      </trkpt>
      <trkpt lat="48.88068" lon="2.29332">
        <ele>85.6</ele>
        <time>2013-09-23T19:31:52.140Z</time>
      </trkpt>
      <trkpt lat="48.88065" lon="2.29329">
        <ele>84.4</ele>
        <time>2013-09-23T19:31:53.079Z</time>
      </trkpt>
      <trkpt lat="48.8806" lon="2.29322">
        <ele>83.7</ele>
        <time>2013-09-23T19:31:55.044Z</time>
      </trkpt>
      <trkpt lat="48.88057" lon="2.29318">
        <ele>82.6</ele>
        <time>2013-09-23T19:31:56.172Z</time>
      </trkpt>
      <trkpt lat="48.88052" lon="2.29308">
        <ele>83.1</ele>
        <time>2013-09-23T19:31:58.201Z</time>
      </trkpt>
      <trkpt lat="48.8805" lon="2.29303">
        <ele>83.5</ele>
        <time>2013-09-23T19:31:59.155Z</time>
      </trkpt>
      <trkpt lat="48.88047" lon="2.29298">
        <ele>84.7</ele>
        <time>2013-09-23T19:32:00.107Z</time>
      </trkpt>
      <trkpt lat="48.88044" lon="2.29292">
        <ele>84.4</ele>
        <time>2013-09-23T19:32:01.171Z</time>
      </trkpt>
      <trkpt lat="48.88041" lon="2.29287">
        <ele>83.9</ele>
        <time>2013-09-23T19:32:02.044Z</time>
      </trkpt>
      <trkpt lat="48.88038" lon="2.29281">
        <ele>84.5</ele>
        <time>2013-09-23T19:32:03.207Z</time>
      </trkpt>
      <trkpt lat="48.88035" lon="2.29277">
        <ele>83.9</ele>
        <time>2013-09-23T19:32:04.019Z</time>
      </trkpt>
      <trkpt lat="48.8803" lon="2.29273">
        <ele>83.9</ele>
        <time>2013-09-23T19:32:05.171Z</time>
      </trkpt>
      <trkpt lat="48.88027" lon="2.2927">
        <ele>83.4</ele>
        <time>2013-09-23T19:32:06.019Z</time>
      </trkpt>
      <trkpt lat="48.88022" lon="2.29268">
        <ele>83.7</ele>
        <time>2013-09-23T19:32:07.143Z</time>
      </trkpt>
      <trkpt lat="48.88017" lon="2.29269">
        <ele>85.6</ele>
        <time>2013-09-23T19:32:08.015Z</time>
      </trkpt>
      <trkpt lat="48.88012" lon="2.29271">
        <ele>86.6</ele>
        <time>2013-09-23T19:32:09.083Z</time>
      </trkpt>
      <trkpt lat="48.88008" lon="2.29277">
        <ele>87.2</ele>
        <time>2013-09-23T19:32:10.018Z</time>
      </trkpt>
      <trkpt lat="48.88004" lon="2.29283">
        <ele>86.9</ele>
        <time>2013-09-23T19:32:11.154Z</time>
      </trkpt>
      <trkpt lat="48.88002" lon="2.29289">
        <ele>85.8</ele>
        <time>2013-09-23T19:32:12.020Z</time>
      </trkpt>
      <trkpt lat="48.87999" lon="2.29297">
        <ele>86.9</ele>
        <time>2013-09-23T19:32:13.117Z</time>
      </trkpt>
      <trkpt lat="48.87996" lon="2.29302">
        <ele>86.7</ele>
        <time>2013-09-23T19:32:14.019Z</time>
      </trkpt>
      <trkpt lat="48.87993" lon="2.29308">
        <ele>85.6</ele>
        <time>2013-09-23T19:32:15.169Z</time>
      </trkpt>
      <trkpt lat="48.8799" lon="2.2932">
        <ele>83.9</ele>
        <time>2013-09-23T19:32:17.070Z</time>
      </trkpt>
      <trkpt lat="48.87987" lon="2.29325">
        <ele>84.4</ele>
        <time>2013-09-23T19:32:18.138Z</time>
      </trkpt>
      <trkpt lat="48.87981" lon="2.29334">
        <ele>82.9</ele>
        <time>2013-09-23T19:32:20.157Z</time>
      </trkpt>
      <trkpt lat="48.87978" lon="2.29337">
        <ele>82.7</ele>
        <time>2013-09-23T19:32:21.029Z</time>
      </trkpt>
      <trkpt lat="48.87972" lon="2.29345">
        <ele>83</ele>
        <time>2013-09-23T19:32:23.122Z</time>
      </trkpt>
      <trkpt lat="48.87969" lon="2.29349">
        <ele>83.3</ele>
        <time>2013-09-23T19:32:24.102Z</time>
      </trkpt>
      <trkpt lat="48.87964" lon="2.29356">
        <ele>81.4</ele>
        <time>2013-09-23T19:32:26.063Z</time>
      </trkpt>
      <trkpt lat="48.87961" lon="2.29359">
        <ele>81.2</ele>
        <time>2013-09-23T19:32:27.141Z</time>
      </trkpt>
      <trkpt lat="48.87954" lon="2.29364">
        <ele>86.6</ele>
        <time>2013-09-23T19:32:30.032Z</time>
      </trkpt>
      <trkpt lat="48.87951" lon="2.29364">
        <ele>87.1</ele>
        <time>2013-09-23T19:32:31.156Z</time>
      </trkpt>
      <trkpt lat="48.87944" lon="2.29358">
        <ele>89.8</ele>
        <time>2013-09-23T19:32:34.157Z</time>
      </trkpt>
      <trkpt lat="48.87942" lon="2.29355">
        <ele>89.5</ele>
        <time>2013-09-23T19:32:35.018Z</time>
      </trkpt>
      <trkpt lat="48.87938" lon="2.29346">
        <ele>90.3</ele>
        <time>2013-09-23T19:32:37.024Z</time>
      </trkpt>
      <trkpt lat="48.87936" lon="2.29342">
        <ele>90.2</ele>
        <time>2013-09-23T19:32:38.015Z</time>
      </trkpt>
      <trkpt lat="48.8793" lon="2.29336">
        <ele>89.3</ele>
        <time>2013-09-23T19:32:40.093Z</time>
      </trkpt>
      <trkpt lat="48.87927" lon="2.29334">
        <ele>88</ele>
        <time>2013-09-23T19:32:41.156Z</time>
      </trkpt>
      <trkpt lat="48.87919" lon="2.29331">
        <ele>84.5</ele>
        <time>2013-09-23T19:32:43.134Z</time>
      </trkpt>
      <trkpt lat="48.87916" lon="2.29329">
        <ele>82.8</ele>
        <time>2013-09-23T19:32:44.032Z</time>
      </trkpt>
      <trkpt lat="48.87909" lon="2.29322">
        <ele>81.8</ele>
        <time>2013-09-23T19:32:46.046Z</time>
      </trkpt>
      <trkpt lat="48.87907" lon="2.29316">
        <ele>81.5</ele>
        <time>2013-09-23T19:32:47.151Z</time>
      </trkpt>
      <trkpt lat="48.87904" lon="2.29303">
        <ele>80.5</ele>
        <time>2013-09-23T19:32:51.024Z</time>
      </trkpt>
      <trkpt lat="48.87905" lon="2.29302">
        <ele>80.5</ele>
        <time>2013-09-23T19:32:52.135Z</time>
      </trkpt>
      <trkpt lat="48.87906" lon="2.29299">
        <ele>80.7</ele>
        <time>2013-09-23T19:32:58.055Z</time>
      </trkpt>
      <trkpt lat="48.87906" lon="2.29299">
        <ele>80.7</ele>
        <time>2013-09-23T19:32:59.174Z</time>
      </trkpt>
      <trkpt lat="48.87906" lon="2.29298">
        <ele>81.1</ele>
        <time>2013-09-23T19:33:00.060Z</time>
      </trkpt>
      <trkpt lat="48.87904" lon="2.29287">
        <ele>82.6</ele>
        <time>2013-09-23T19:33:06.208Z</time>
      </trkpt>
      <trkpt lat="48.87904" lon="2.29282">
        <ele>83.7</ele>
        <time>2013-09-23T19:33:07.034Z</time>
      </trkpt>
      <trkpt lat="48.87905" lon="2.29271">
        <ele>83.6</ele>
        <time>2013-09-23T19:33:09.024Z</time>
      </trkpt>
      <trkpt lat="48.87906" lon="2.29264">
        <ele>83.5</ele>
        <time>2013-09-23T19:33:10.152Z</time>
      </trkpt>
      <trkpt lat="48.87908" lon="2.29251">
        <ele>82.4</ele>
        <time>2013-09-23T19:33:12.033Z</time>
      </trkpt>
      <trkpt lat="48.87908" lon="2.29244">
        <ele>81.6</ele>
        <time>2013-09-23T19:33:13.208Z</time>
      </trkpt>
      <trkpt lat="48.87909" lon="2.29231">
        <ele>83.3</ele>
        <time>2013-09-23T19:33:15.195Z</time>
      </trkpt>
      <trkpt lat="48.8791" lon="2.29225">
        <ele>82.8</ele>
        <time>2013-09-23T19:33:16.040Z</time>
      </trkpt>
      <trkpt lat="48.87911" lon="2.29213">
        <ele>83</ele>
        <time>2013-09-23T19:33:18.028Z</time>
      </trkpt>
      <trkpt lat="48.87912" lon="2.29207">
        <ele>83.4</ele>
        <time>2013-09-23T19:33:19.156Z</time>
      </trkpt>
      <trkpt lat="48.87914" lon="2.29195">
        <ele>83.4</ele>
        <time>2013-09-23T19:33:21.088Z</time>
      </trkpt>
      <trkpt lat="48.87915" lon="2.29189">
        <ele>83.6</ele>
        <time>2013-09-23T19:33:22.194Z</time>
      </trkpt>
      <trkpt lat="48.87916" lon="2.29177">
        <ele>85.8</ele>
        <time>2013-09-23T19:33:24.154Z</time>
      </trkpt>
      <trkpt lat="48.87917" lon="2.29171">
        <ele>85.1</ele>
        <time>2013-09-23T19:33:25.024Z</time>
      </trkpt>
      <trkpt lat="48.87918" lon="2.29159">
        <ele>86.2</ele>
        <time>2013-09-23T19:33:27.121Z</time>
      </trkpt>
      <trkpt lat="48.87919" lon="2.29153">
        <ele>86.4</ele>
        <time>2013-09-23T19:33:28.114Z</time>
      </trkpt>
      <trkpt lat="48.87921" lon="2.29141">
        <ele>86.4</ele>
        <time>2013-09-23T19:33:30.057Z</time>
      </trkpt>
      <trkpt lat="48.87922" lon="2.29135">
        <ele>85.9</ele>
        <time>2013-09-23T19:33:31.219Z</time>
      </trkpt>
      <trkpt lat="48.87925" lon="2.29123">
        <ele>85.4</ele>
        <time>2013-09-23T19:33:33.192Z</time>
      </trkpt>
      <trkpt lat="48.87926" lon="2.29118">
        <ele>85.4</ele>
        <time>2013-09-23T19:33:34.030Z</time>
      </trkpt>
      <trkpt lat="48.87928" lon="2.29106">
        <ele>85.1</ele>
        <time>2013-09-23T19:33:36.186Z</time>
      </trkpt>
      <trkpt lat="48.87929" lon="2.29101">
        <ele>85.7</ele>
        <time>2013-09-23T19:33:37.097Z</time>
      </trkpt>
      <trkpt lat="48.87931" lon="2.29092">
        <ele>85.9</ele>
        <time>2013-09-23T19:33:39.026Z</time>
      </trkpt>
      <trkpt lat="48.87933" lon="2.29088">
        <ele>86.6</ele>
        <time>2013-09-23T19:33:40.247Z</time>
      </trkpt>
      <trkpt lat="48.8794" lon="2.29084">
        <ele>84.2</ele>
        <time>2013-09-23T19:33:44.139Z</time>
      </trkpt>
      <trkpt lat="48.87942" lon="2.29088">
        <ele>83.7</ele>
        <time>2013-09-23T19:33:45.236Z</time>
      </trkpt>
      <trkpt lat="48.87945" lon="2.29097">
        <ele>78.3</ele>
        <time>2013-09-23T19:33:48.070Z</time>
      </trkpt>
      <trkpt lat="48.87946" lon="2.29101">
        <ele>79.4</ele>
        <time>2013-09-23T19:33:49.205Z</time>
      </trkpt>
      <trkpt lat="48.87951" lon="2.2911">
        <ele>81.5</ele>
        <time>2013-09-23T19:33:58.191Z</time>
      </trkpt>
      <trkpt lat="48.87951" lon="2.29109">
        <ele>81.7</ele>
        <time>2013-09-23T19:33:59.127Z</time>
      </trkpt>
      <trkpt lat="48.8795" lon="2.29109">
        <ele>81.8</ele>
        <time>2013-09-23T19:34:00.115Z</time>
      </trkpt>
      <trkpt lat="48.87948" lon="2.29107">
        <ele>82.1</ele>
        <time>2013-09-23T19:34:06.038Z</time>
      </trkpt>
      <trkpt lat="48.87948" lon="2.29107">
        <ele>81.9</ele>
        <time>2013-09-23T19:34:07.162Z</time>
      </trkpt>
      <trkpt lat="48.87948" lon="2.29108">
        <ele>83.2</ele>
        <time>2013-09-23T19:35:34.197Z</time>
      </trkpt>
      <trkpt lat="48.87948" lon="2.29108">
        <ele>83.1</ele>
        <time>2013-09-23T19:35:35.182Z</time>
      </trkpt>
      <trkpt lat="48.87948" lon="2.29107">
        <ele>84.3</ele>
        <time>2013-09-23T19:35:38.077Z</time>
      </trkpt>
      <trkpt lat="48.87948" lon="2.29107">
        <ele>84.2</ele>
        <time>2013-09-23T19:35:39.215Z</time>
      </trkpt>
      <trkpt lat="48.87949" lon="2.2911">
        <ele>81.2</ele>
        <time>2013-09-23T19:36:16.221Z</time>
      </trkpt>
      <trkpt lat="48.8795" lon="2.2911">
        <ele>80.6</ele>
        <time>2013-09-23T19:36:17.130Z</time>
      </trkpt>
      <trkpt lat="48.8795" lon="2.29097">
        <ele>85.7</ele>
        <time>2013-09-23T19:36:25.123Z</time>
      </trkpt>
      <trkpt lat="48.87949" lon="2.29095">
        <ele>86</ele>
        <time>2013-09-23T19:36:25.991Z</time>
      </trkpt>
      <trkpt lat="48.8795" lon="2.29095">
        <ele>86.3</ele>
        <time>2013-09-23T19:36:31.095Z</time>
      </trkpt>
      <trkpt lat="48.8795" lon="2.29095">
        <ele>86.3</ele>
        <time>2013-09-23T19:36:32.115Z</time>
      </trkpt>
      <trkpt lat="48.8795" lon="2.29096">
        <ele>86.8</ele>
        <time>2013-09-23T19:36:36.964Z</time>
      </trkpt>
      <trkpt lat="48.87949" lon="2.29096">
        <ele>87.1</ele>
        <time>2013-09-23T19:36:38.167Z</time>
      </trkpt>
      <trkpt lat="48.87941" lon="2.29095">
        <ele>84.1</ele>
        <time>2013-09-23T19:36:43.138Z</time>
      </trkpt>
      <trkpt lat="48.87938" lon="2.29094">
        <ele>84.8</ele>
        <time>2013-09-23T19:36:43.972Z</time>
      </trkpt>
      <trkpt lat="48.8793" lon="2.29096">
        <ele>86.4</ele>
        <time>2013-09-23T19:36:48.062Z</time>
      </trkpt>
      <trkpt lat="48.87929" lon="2.29097">
        <ele>86.5</ele>
        <time>2013-09-23T19:36:49.043Z</time>
      </trkpt>
      <trkpt lat="48.87922" lon="2.29103">
        <ele>87</ele>
        <time>2013-09-23T19:36:54.125Z</time>
      </trkpt>
      <trkpt lat="48.8792" lon="2.29103">
        <ele>88</ele>
        <time>2013-09-23T19:36:55.063Z</time>
      </trkpt>
      <trkpt lat="48.87913" lon="2.29105">
        <ele>90.3</ele>
        <time>2013-09-23T19:36:58.013Z</time>
      </trkpt>
      <trkpt lat="48.8791" lon="2.29106">
        <ele>91.2</ele>
        <time>2013-09-23T19:36:59.180Z</time>
      </trkpt>
      <trkpt lat="48.87904" lon="2.2911">
        <ele>90.4</ele>
        <time>2013-09-23T19:37:01.145Z</time>
      </trkpt>
      <trkpt lat="48.87901" lon="2.29111">
        <ele>87.9</ele>
        <time>2013-09-23T19:37:01.994Z</time>
      </trkpt>
      <trkpt lat="48.87893" lon="2.29117">
        <ele>87.4</ele>
        <time>2013-09-23T19:37:04.109Z</time>
      </trkpt>
      <trkpt lat="48.8789" lon="2.2912">
        <ele>87.9</ele>
        <time>2013-09-23T19:37:05.031Z</time>
      </trkpt>
      <trkpt lat="48.87883" lon="2.29125">
        <ele>89.8</ele>
        <time>2013-09-23T19:37:06.952Z</time>
      </trkpt>
      <trkpt lat="48.87879" lon="2.29128">
        <ele>89.9</ele>
        <time>2013-09-23T19:37:08.126Z</time>
      </trkpt>
      <trkpt lat="48.87872" lon="2.2913">
        <ele>89.9</ele>
        <time>2013-09-23T19:37:10.112Z</time>
      </trkpt>
      <trkpt lat="48.87869" lon="2.29131">
        <ele>90.6</ele>
        <time>2013-09-23T19:37:11.014Z</time>
      </trkpt>
      <trkpt lat="48.87863" lon="2.29133">
        <ele>95.1</ele>
        <time>2013-09-23T19:37:13.983Z</time>
      </trkpt>
      <trkpt lat="48.87861" lon="2.29135">
        <ele>96.9</ele>
        <time>2013-09-23T19:37:15.102Z</time>
      </trkpt>
      <trkpt lat="48.87855" lon="2.2914">
        <ele>97.6</ele>
        <time>2013-09-23T19:37:17.127Z</time>
      </trkpt>
      <trkpt lat="48.87852" lon="2.29142">
        <ele>98</ele>
        <time>2013-09-23T19:37:17.966Z</time>
      </trkpt>
      <trkpt lat="48.87845" lon="2.29148">
        <ele>98.2</ele>
        <time>2013-09-23T19:37:20.072Z</time>
      </trkpt>
      <trkpt lat="48.87841" lon="2.29151">
        <ele>98.5</ele>
        <time>2013-09-23T19:37:21.021Z</time>
      </trkpt>
      <trkpt lat="48.87834" lon="2.29155">
        <ele>99</ele>
        <time>2013-09-23T19:37:22.952Z</time>
      </trkpt>
      <trkpt lat="48.87829" lon="2.29157">
        <ele>97.7</ele>
        <time>2013-09-23T19:37:24.155Z</time>
      </trkpt>
      <trkpt lat="48.87821" lon="2.29161">
        <ele>98.9</ele>
        <time>2013-09-23T19:37:26.119Z</time>
      </trkpt>
      <trkpt lat="48.87817" lon="2.29162">
        <ele>100.8</ele>
        <time>2013-09-23T19:37:27.071Z</time>
      </trkpt>
      <trkpt lat="48.87812" lon="2.29163">
        <ele>101.4</ele>
        <time>2013-09-23T19:37:28.042Z</time>
      </trkpt>
      <trkpt lat="48.87807" lon="2.29165">
        <ele>100.7</ele>
        <time>2013-09-23T19:37:29.128Z</time>
      </trkpt>
      <trkpt lat="48.87803" lon="2.29168">
        <ele>99.1</ele>
        <time>2013-09-23T19:37:30.021Z</time>
      </trkpt>
      <trkpt lat="48.87797" lon="2.2917">
        <ele>97.4</ele>
        <time>2013-09-23T19:37:31.093Z</time>
      </trkpt>
      <trkpt lat="48.87793" lon="2.29173">
        <ele>97.8</ele>
        <time>2013-09-23T19:37:31.953Z</time>
      </trkpt>
      <trkpt lat="48.87788" lon="2.29177">
        <ele>97.1</ele>
        <time>2013-09-23T19:37:33.118Z</time>
      </trkpt>
      <trkpt lat="48.87783" lon="2.2918">
        <ele>97.1</ele>
        <time>2013-09-23T19:37:33.970Z</time>
      </trkpt>
      <trkpt lat="48.87778" lon="2.29184">
        <ele>96.9</ele>
        <time>2013-09-23T19:37:35.072Z</time>
      </trkpt>
      <trkpt lat="48.87773" lon="2.29189">
        <ele>97.2</ele>
        <time>2013-09-23T19:37:36.071Z</time>
      </trkpt>
      <trkpt lat="48.87766" lon="2.29191">
        <ele>98.6</ele>
        <time>2013-09-23T19:37:37.009Z</time>
      </trkpt>
      <trkpt lat="48.8776" lon="2.29194">
        <ele>100</ele>
        <time>2013-09-23T19:37:38.100Z</time>
      </trkpt>
      <trkpt lat="48.87755" lon="2.29196">
        <ele>100.1</ele>
        <time>2013-09-23T19:37:38.971Z</time>
      </trkpt>
      <trkpt lat="48.8775" lon="2.29199">
        <ele>100.2</ele>
        <time>2013-09-23T19:37:40.189Z</time>
      </trkpt>
      <trkpt lat="48.87747" lon="2.29201">
        <ele>100</ele>
        <time>2013-09-23T19:37:40.985Z</time>
      </trkpt>
      <trkpt lat="48.87742" lon="2.29205">
        <ele>100.7</ele>
        <time>2013-09-23T19:37:42.105Z</time>
      </trkpt>
      <trkpt lat="48.87739" lon="2.29208">
        <ele>100.5</ele>
        <time>2013-09-23T19:37:43.047Z</time>
      </trkpt>
      <trkpt lat="48.87732" lon="2.29215">
        <ele>100.2</ele>
        <time>2013-09-23T19:37:44.971Z</time>
      </trkpt>
      <trkpt lat="48.87728" lon="2.29217">
        <ele>101</ele>
        <time>2013-09-23T19:37:45.992Z</time>
      </trkpt>
      <trkpt lat="48.87721" lon="2.2922">
        <ele>102.7</ele>
        <time>2013-09-23T19:37:47.985Z</time>
      </trkpt>
      <trkpt lat="48.87717" lon="2.29222">
        <ele>103.9</ele>
        <time>2013-09-23T19:37:49.145Z</time>
      </trkpt>
      <trkpt lat="48.8771" lon="2.29227">
        <ele>99.5</ele>
        <time>2013-09-23T19:37:52.155Z</time>
      </trkpt>
      <trkpt lat="48.87708" lon="2.29229">
        <ele>97.8</ele>
        <time>2013-09-23T19:37:53.033Z</time>
      </trkpt>
      <trkpt lat="48.87701" lon="2.29234">
        <ele>98.2</ele>
        <time>2013-09-23T19:37:56.183Z</time>
      </trkpt>
      <trkpt lat="48.87699" lon="2.29237">
        <ele>99.7</ele>
        <time>2013-09-23T19:37:56.974Z</time>
      </trkpt>
      <trkpt lat="48.87693" lon="2.29244">
        <ele>100.8</ele>
        <time>2013-09-23T19:37:58.954Z</time>
      </trkpt>
      <trkpt lat="48.8769" lon="2.29248">
        <ele>103.1</ele>
        <time>2013-09-23T19:37:59.954Z</time>
      </trkpt>
      <trkpt lat="48.87683" lon="2.29254">
        <ele>108.1</ele>
        <time>2013-09-23T19:38:02.972Z</time>
      </trkpt>
      <trkpt lat="48.87681" lon="2.29256">
        <ele>109.4</ele>
        <time>2013-09-23T19:38:04.060Z</time>
      </trkpt>
      <trkpt lat="48.87674" lon="2.2926">
        <ele>111.9</ele>
        <time>2013-09-23T19:38:07.964Z</time>
      </trkpt>
      <trkpt lat="48.87671" lon="2.29262">
        <ele>112.6</ele>
        <time>2013-09-23T19:38:09.149Z</time>
      </trkpt>
      <trkpt lat="48.87665" lon="2.29266">
        <ele>113.2</ele>
        <time>2013-09-23T19:38:11.091Z</time>
      </trkpt>
      <trkpt lat="48.87662" lon="2.29269">
        <ele>111.7</ele>
        <time>2013-09-23T19:38:12.107Z</time>
      </trkpt>
      <trkpt lat="48.87655" lon="2.29272">
        <ele>109.1</ele>
        <time>2013-09-23T19:38:14.182Z</time>
      </trkpt>
      <trkpt lat="48.87652" lon="2.29273">
        <ele>110.2</ele>
        <time>2013-09-23T19:38:14.971Z</time>
      </trkpt>
      <trkpt lat="48.87645" lon="2.29275">
        <ele>109.5</ele>
        <time>2013-09-23T19:38:16.972Z</time>
      </trkpt>
      <trkpt lat="48.87643" lon="2.29276">
        <ele>109.6</ele>
        <time>2013-09-23T19:38:18.123Z</time>
      </trkpt>
      <trkpt lat="48.87635" lon="2.29283">
        <ele>113.2</ele>
        <time>2013-09-23T19:38:23.972Z</time>
      </trkpt>
      <trkpt lat="48.87633" lon="2.29284">
        <ele>113.7</ele>
        <time>2013-09-23T19:38:25.169Z</time>
      </trkpt>
      <trkpt lat="48.87626" lon="2.2929">
        <ele>116.8</ele>
        <time>2013-09-23T19:38:29.064Z</time>
      </trkpt>
      <trkpt lat="48.87624" lon="2.29292">
        <ele>116.8</ele>
        <time>2013-09-23T19:38:29.985Z</time>
      </trkpt>
      <trkpt lat="48.87617" lon="2.29297">
        <ele>116.3</ele>
        <time>2013-09-23T19:38:32.115Z</time>
      </trkpt>
      <trkpt lat="48.87614" lon="2.29299">
        <ele>115.3</ele>
        <time>2013-09-23T19:38:33.020Z</time>
      </trkpt>
      <trkpt lat="48.87606" lon="2.29305">
        <ele>115.8</ele>
        <time>2013-09-23T19:38:34.965Z</time>
      </trkpt>
      <trkpt lat="48.87602" lon="2.29308">
        <ele>115.3</ele>
        <time>2013-09-23T19:38:36.091Z</time>
      </trkpt>
      <trkpt lat="48.87594" lon="2.29313">
        <ele>116.4</ele>
        <time>2013-09-23T19:38:38.074Z</time>
      </trkpt>
      <trkpt lat="48.8759" lon="2.29316">
        <ele>117.2</ele>
        <time>2013-09-23T19:38:39.139Z</time>
      </trkpt>
      <trkpt lat="48.87583" lon="2.29322">
        <ele>118</ele>
        <time>2013-09-23T19:38:41.189Z</time>
      </trkpt>
      <trkpt lat="48.87581" lon="2.29325">
        <ele>118.2</ele>
        <time>2013-09-23T19:38:41.964Z</time>
      </trkpt>
      <trkpt lat="48.87574" lon="2.29331">
        <ele>121.2</ele>
        <time>2013-09-23T19:38:43.983Z</time>
      </trkpt>
      <trkpt lat="48.87571" lon="2.29334">
        <ele>122</ele>
        <time>2013-09-23T19:38:45.062Z</time>
      </trkpt>
      <trkpt lat="48.87565" lon="2.2934">
        <ele>122.4</ele>
        <time>2013-09-23T19:38:47.004Z</time>
      </trkpt>
      <trkpt lat="48.87562" lon="2.29343">
        <ele>121.3</ele>
        <time>2013-09-23T19:38:48.035Z</time>
      </trkpt>
      <trkpt lat="48.87555" lon="2.2935">
        <ele>122.6</ele>
        <time>2013-09-23T19:38:50.979Z</time>
      </trkpt>
      <trkpt lat="48.87553" lon="2.29352">
        <ele>123.5</ele>
        <time>2013-09-23T19:38:52.103Z</time>
      </trkpt>
      <trkpt lat="48.87546" lon="2.29357">
        <ele>122.7</ele>
        <time>2013-09-23T19:38:55.150Z</time>
      </trkpt>
      <trkpt lat="48.87544" lon="2.29358">
        <ele>122.6</ele>
        <time>2013-09-23T19:38:55.998Z</time>
      </trkpt>
      <trkpt lat="48.87538" lon="2.29363">
        <ele>120.9</ele>
        <time>2013-09-23T19:38:57.978Z</time>
      </trkpt>
      <trkpt lat="48.87535" lon="2.29365">
        <ele>121.3</ele>
        <time>2013-09-23T19:38:59.126Z</time>
      </trkpt>
      <trkpt lat="48.87528" lon="2.29372">
        <ele>121.8</ele>
        <time>2013-09-23T19:39:02.201Z</time>
      </trkpt>
      <trkpt lat="48.87527" lon="2.29373">
        <ele>122.4</ele>
        <time>2013-09-23T19:39:03.007Z</time>
      </trkpt>
      <trkpt lat="48.8752" lon="2.29382">
        <ele>125</ele>
        <time>2013-09-23T19:39:06.975Z</time>
      </trkpt>
      <trkpt lat="48.87518" lon="2.29384">
        <ele>125.6</ele>
        <time>2013-09-23T19:39:08.111Z</time>
      </trkpt>
      <trkpt lat="48.87511" lon="2.2939">
        <ele>125.4</ele>
        <time>2013-09-23T19:39:10.959Z</time>
      </trkpt>
      <trkpt lat="48.87509" lon="2.29392">
        <ele>123.9</ele>
        <time>2013-09-23T19:39:11.960Z</time>
      </trkpt>
      <trkpt lat="48.87503" lon="2.29399">
        <ele>126</ele>
        <time>2013-09-23T19:39:15.145Z</time>
      </trkpt>
      <trkpt lat="48.87502" lon="2.29401">
        <ele>126.6</ele>
        <time>2013-09-23T19:39:16.047Z</time>
      </trkpt>
      <trkpt lat="48.87494" lon="2.29404">
        <ele>125.7</ele>
        <time>2013-09-23T19:39:20.251Z</time>
      </trkpt>
      <trkpt lat="48.87493" lon="2.29403">
        <ele>125.5</ele>
        <time>2013-09-23T19:39:20.980Z</time>
      </trkpt>
      <trkpt lat="48.87486" lon="2.29409">
        <ele>124.4</ele>
        <time>2013-09-23T19:39:26.041Z</time>
      </trkpt>
      <trkpt lat="48.87484" lon="2.29411">
        <ele>124.1</ele>
        <time>2013-09-23T19:39:27.159Z</time>
      </trkpt>
      <trkpt lat="48.87478" lon="2.29417">
        <ele>122.5</ele>
        <time>2013-09-23T19:39:31.141Z</time>
      </trkpt>
      <trkpt lat="48.87476" lon="2.29418">
        <ele>122.4</ele>
        <time>2013-09-23T19:39:32.044Z</time>
      </trkpt>
      <trkpt lat="48.87468" lon="2.2942">
        <ele>120.1</ele>
        <time>2013-09-23T19:39:36.175Z</time>
      </trkpt>
      <trkpt lat="48.87466" lon="2.2942">
        <ele>120.1</ele>
        <time>2013-09-23T19:39:36.969Z</time>
      </trkpt>
      <trkpt lat="48.87465" lon="2.29419">
        <ele>120.6</ele>
        <time>2013-09-23T19:39:41.148Z</time>
      </trkpt>
      <trkpt lat="48.87465" lon="2.29419">
        <ele>120.6</ele>
        <time>2013-09-23T19:39:42.051Z</time>
      </trkpt>
      <trkpt lat="48.87464" lon="2.29418">
        <ele>121.1</ele>
        <time>2013-09-23T19:41:36.010Z</time>
      </trkpt>
      <trkpt lat="48.87464" lon="2.29418">
        <ele>119.8</ele>
        <time>2013-09-23T19:41:37.201Z</time>
      </trkpt>
      <trkpt lat="48.87471" lon="2.29426">
        <ele>115.7</ele>
        <time>2013-09-23T19:41:42.223Z</time>
      </trkpt>
      <trkpt lat="48.87473" lon="2.29428">
        <ele>115</ele>
        <time>2013-09-23T19:41:43.022Z</time>
      </trkpt>
      <trkpt lat="48.8748" lon="2.29433">
        <ele>110.6</ele>
        <time>2013-09-23T19:41:46.211Z</time>
      </trkpt>
      <trkpt lat="48.87481" lon="2.29435">
        <ele>108.7</ele>
        <time>2013-09-23T19:41:46.991Z</time>
      </trkpt>
      <trkpt lat="48.87485" lon="2.29445">
        <ele>108.9</ele>
        <time>2013-09-23T19:41:51.191Z</time>
      </trkpt>
      <trkpt lat="48.87486" lon="2.29447">
        <ele>108.7</ele>
        <time>2013-09-23T19:41:52.006Z</time>
      </trkpt>
      <trkpt lat="48.87489" lon="2.2946">
        <ele>103.4</ele>
        <time>2013-09-23T19:41:57.131Z</time>
      </trkpt>
      <trkpt lat="48.87489" lon="2.29462">
        <ele>103.9</ele>
        <time>2013-09-23T19:41:58.221Z</time>
      </trkpt>
      <trkpt lat="48.87487" lon="2.29466">
        <ele>99.4</ele>
        <time>2013-09-23T19:42:09.991Z</time>
      </trkpt>
      <trkpt lat="48.87487" lon="2.29466">
        <ele>99.4</ele>
        <time>2013-09-23T19:42:11.180Z</time>
      </trkpt>
      <trkpt lat="48.87488" lon="2.29468">
        <ele>100</ele>
        <time>2013-09-23T19:42:24.015Z</time>
      </trkpt>
      <trkpt lat="48.87488" lon="2.29468">
        <ele>100.5</ele>
        <time>2013-09-23T19:42:25.191Z</time>
      </trkpt>
      <trkpt lat="48.87486" lon="2.29471">
        <ele>100.1</ele>
        <time>2013-09-23T19:42:31.042Z</time>
      </trkpt>
      <trkpt lat="48.87486" lon="2.29471">
        <ele>99.9</ele>
        <time>2013-09-23T19:42:32.235Z</time>
      </trkpt>
      <trkpt lat="48.87486" lon="2.29471">
        <ele>99.9</ele>
        <time>2013-09-23T19:42:36.133Z</time>
      </trkpt>
      <trkpt lat="48.87486" lon="2.29472">
        <ele>99.1</ele>
        <time>2013-09-23T19:42:37.105Z</time>
      </trkpt>
      <trkpt lat="48.87487" lon="2.29483">
        <ele>101</ele>
        <time>2013-09-23T19:42:42.001Z</time>
      </trkpt>
      <trkpt lat="48.87487" lon="2.29486">
        <ele>102.2</ele>
        <time>2013-09-23T19:42:43.170Z</time>
      </trkpt>
      <trkpt lat="48.8749" lon="2.29497">
        <ele>105.1</ele>
        <time>2013-09-23T19:42:47.059Z</time>
      </trkpt>
      <trkpt lat="48.8749" lon="2.29501">
        <ele>105.5</ele>
        <time>2013-09-23T19:42:48.266Z</time>
      </trkpt>
      <trkpt lat="48.87488" lon="2.29511">
        <ele>107.2</ele>
        <time>2013-09-23T19:42:50.998Z</time>
      </trkpt>
      <trkpt lat="48.87487" lon="2.29515">
        <ele>108.5</ele>
        <time>2013-09-23T19:42:52.118Z</time>
      </trkpt>
      <trkpt lat="48.87486" lon="2.29526">
        <ele>109.6</ele>
        <time>2013-09-23T19:42:55.185Z</time>
      </trkpt>
      <trkpt lat="48.87485" lon="2.29529">
        <ele>109.8</ele>
        <time>2013-09-23T19:42:56.004Z</time>
      </trkpt>
      <trkpt lat="48.87483" lon="2.29541">
        <ele>109</ele>
        <time>2013-09-23T19:42:59.153Z</time>
      </trkpt>
      <trkpt lat="48.87482" lon="2.29544">
        <ele>106.8</ele>
        <time>2013-09-23T19:43:00.063Z</time>
      </trkpt>
      <trkpt lat="48.87482" lon="2.29555">
        <ele>106.1</ele>
        <time>2013-09-23T19:43:09.118Z</time>
      </trkpt>
      <trkpt lat="48.87482" lon="2.29554">
        <ele>105.9</ele>
        <time>2013-09-23T19:43:09.989Z</time>
      </trkpt>
      <trkpt lat="48.87482" lon="2.29555">
        <ele>104.3</ele>
        <time>2013-09-23T19:43:13.094Z</time>
      </trkpt>
      <trkpt lat="48.87482" lon="2.29555">
        <ele>103.8</ele>
        <time>2013-09-23T19:43:13.902Z</time>
      </trkpt>
      <trkpt lat="48.87484" lon="2.2956">
        <ele>100.2</ele>
        <time>2013-09-23T19:43:24.048Z</time>
      </trkpt>
      <trkpt lat="48.87484" lon="2.29561">
        <ele>100.1</ele>
        <time>2013-09-23T19:43:25.054Z</time>
      </trkpt>
      <trkpt lat="48.87484" lon="2.29562">
        <ele>101.3</ele>
        <time>2013-09-23T19:43:31.085Z</time>
      </trkpt>
      <trkpt lat="48.87484" lon="2.29562">
        <ele>100.5</ele>
        <time>2013-09-23T19:43:31.942Z</time>
      </trkpt>
      <trkpt lat="48.87481" lon="2.29573">
        <ele>101.3</ele>
        <time>2013-09-23T19:43:36.171Z</time>
      </trkpt>
      <trkpt lat="48.8748" lon="2.29576">
        <ele>102.5</ele>
        <time>2013-09-23T19:43:36.905Z</time>
      </trkpt>
      <trkpt lat="48.87474" lon="2.29585">
        <ele>103.2</ele>
        <time>2013-09-23T19:43:39.894Z</time>
      </trkpt>
      <trkpt lat="48.87472" lon="2.29586">
        <ele>103.1</ele>
        <time>2013-09-23T19:43:40.894Z</time>
      </trkpt>
      <trkpt lat="48.87464" lon="2.29593">
        <ele>104.8</ele>
        <time>2013-09-23T19:43:47.934Z</time>
      </trkpt>
      <trkpt lat="48.87464" lon="2.29594">
        <ele>105.1</ele>
        <time>2013-09-23T19:43:49.060Z</time>
      </trkpt>
      <trkpt lat="48.87456" lon="2.29599">
        <ele>109</ele>
        <time>2013-09-23T19:43:54.115Z</time>
      </trkpt>
      <trkpt lat="48.87455" lon="2.29601">
        <ele>107.7</ele>
        <time>2013-09-23T19:43:54.904Z</time>
      </trkpt>
      <trkpt lat="48.87451" lon="2.2961">
        <ele>104.5</ele>
        <time>2013-09-23T19:43:57.981Z</time>
      </trkpt>
      <trkpt lat="48.8745" lon="2.29614">
        <ele>103.5</ele>
        <time>2013-09-23T19:43:59.130Z</time>
      </trkpt>
      <trkpt lat="48.87445" lon="2.29625">
        <ele>103.5</ele>
        <time>2013-09-23T19:44:03.076Z</time>
      </trkpt>
      <trkpt lat="48.87444" lon="2.29628">
        <ele>102.9</ele>
        <time>2013-09-23T19:44:03.944Z</time>
      </trkpt>
      <trkpt lat="48.87439" lon="2.29639">
        <ele>102.5</ele>
        <time>2013-09-23T19:44:08.161Z</time>
      </trkpt>
      <trkpt lat="48.87438" lon="2.29641">
        <ele>102.7</ele>
        <time>2013-09-23T19:44:08.922Z</time>
      </trkpt>
      <trkpt lat="48.87432" lon="2.29649">
        <ele>103.8</ele>
        <time>2013-09-23T19:44:13.011Z</time>
      </trkpt>
      <trkpt lat="48.8743" lon="2.2965">
        <ele>103.1</ele>
        <time>2013-09-23T19:44:13.997Z</time>
      </trkpt>
      <trkpt lat="48.87422" lon="2.29655">
        <ele>106.7</ele>
        <time>2013-09-23T19:44:17.914Z</time>
      </trkpt>
      <trkpt lat="48.8742" lon="2.29656">
        <ele>107.4</ele>
        <time>2013-09-23T19:44:19.118Z</time>
      </trkpt>
      <trkpt lat="48.87412" lon="2.29662">
        <ele>104</ele>
        <time>2013-09-23T19:44:22.964Z</time>
      </trkpt>
      <trkpt lat="48.87411" lon="2.29663">
        <ele>104.2</ele>
        <time>2013-09-23T19:44:24.090Z</time>
      </trkpt>
      <trkpt lat="48.87407" lon="2.29666">
        <ele>102.9</ele>
        <time>2013-09-23T19:44:33.121Z</time>
      </trkpt>
      <trkpt lat="48.87407" lon="2.29665">
        <ele>103</ele>
        <time>2013-09-23T19:44:33.921Z</time>
      </trkpt>
      <trkpt lat="48.87407" lon="2.29665">
        <ele>103.7</ele>
        <time>2013-09-23T19:45:00.059Z</time>
      </trkpt>
      <trkpt lat="48.87406" lon="2.29665">
        <ele>104.1</ele>
        <time>2013-09-23T19:45:01.014Z</time>
      </trkpt>
      <trkpt lat="48.87399" lon="2.29665">
        <ele>107</ele>
        <time>2013-09-23T19:45:05.077Z</time>
      </trkpt>
      <trkpt lat="48.87397" lon="2.29666">
        <ele>107.4</ele>
        <time>2013-09-23T19:45:05.912Z</time>
      </trkpt>
      <trkpt lat="48.8739" lon="2.29671">
        <ele>108</ele>
        <time>2013-09-23T19:45:10.959Z</time>
      </trkpt>
      <trkpt lat="48.87388" lon="2.29671">
        <ele>107.7</ele>
        <time>2013-09-23T19:45:12.102Z</time>
      </trkpt>
      <trkpt lat="48.8738" lon="2.29673">
        <ele>108</ele>
        <time>2013-09-23T19:45:16.049Z</time>
      </trkpt>
      <trkpt lat="48.87378" lon="2.29672">
        <ele>108.4</ele>
        <time>2013-09-23T19:45:17.048Z</time>
      </trkpt>
      <trkpt lat="48.87369" lon="2.2967">
        <ele>106.8</ele>
        <time>2013-09-23T19:45:21.072Z</time>
      </trkpt>
      <trkpt lat="48.87367" lon="2.29669">
        <ele>107.1</ele>
        <time>2013-09-23T19:45:21.928Z</time>
      </trkpt>
      <trkpt lat="48.8736" lon="2.29675">
        <ele>107.3</ele>
        <time>2013-09-23T19:45:26.119Z</time>
      </trkpt>
      <trkpt lat="48.87358" lon="2.29675">
        <ele>107.4</ele>
        <time>2013-09-23T19:45:26.959Z</time>
      </trkpt>
      <trkpt lat="48.8735" lon="2.29674">
        <ele>109.6</ele>
        <time>2013-09-23T19:45:30.913Z</time>
      </trkpt>
      <trkpt lat="48.87349" lon="2.29673">
        <ele>110.5</ele>
        <time>2013-09-23T19:45:32.055Z</time>
      </trkpt>
      <trkpt lat="48.87342" lon="2.29667">
        <ele>111.9</ele>
        <time>2013-09-23T19:45:37.122Z</time>
      </trkpt>
      <trkpt lat="48.8734" lon="2.29665">
        <ele>111.4</ele>
        <time>2013-09-23T19:45:37.973Z</time>
      </trkpt>
      <trkpt lat="48.87335" lon="2.29656">
        <ele>109.7</ele>
        <time>2013-09-23T19:45:41.916Z</time>
      </trkpt>
      <trkpt lat="48.87333" lon="2.29654">
        <ele>108.6</ele>
        <time>2013-09-23T19:45:42.978Z</time>
      </trkpt>
      <trkpt lat="48.87325" lon="2.29651">
        <ele>108.4</ele>
        <time>2013-09-23T19:45:48.089Z</time>
      </trkpt>
      <trkpt lat="48.87324" lon="2.29649">
        <ele>108.2</ele>
        <time>2013-09-23T19:45:49.089Z</time>
      </trkpt>
      <trkpt lat="48.87316" lon="2.29643">
        <ele>107.9</ele>
        <time>2013-09-23T19:45:58.143Z</time>
      </trkpt>
      <trkpt lat="48.87315" lon="2.29643">
        <ele>106.6</ele>
        <time>2013-09-23T19:45:58.981Z</time>
      </trkpt>
      <trkpt lat="48.87311" lon="2.29647">
        <ele>106</ele>
        <time>2013-09-23T19:46:07.132Z</time>
      </trkpt>
      <trkpt lat="48.87311" lon="2.29646">
        <ele>106.2</ele>
        <time>2013-09-23T19:46:07.958Z</time>
      </trkpt>
      <trkpt lat="48.87311" lon="2.29646">
        <ele>105</ele>
        <time>2013-09-23T19:46:11.120Z</time>
      </trkpt>
      <trkpt lat="48.87311" lon="2.29645">
        <ele>104.1</ele>
        <time>2013-09-23T19:46:12.052Z</time>
      </trkpt>
      <trkpt lat="48.87311" lon="2.29645">
        <ele>103.8</ele>
        <time>2013-09-23T19:46:13.039Z</time>
      </trkpt>
      <trkpt lat="48.87311" lon="2.29645">
        <ele>103.6</ele>
        <time>2013-09-23T19:46:18.155Z</time>
      </trkpt>
      <trkpt lat="48.87311" lon="2.29644">
        <ele>103.9</ele>
        <time>2013-09-23T19:46:18.938Z</time>
      </trkpt>
      <trkpt lat="48.8731" lon="2.29644">
        <ele>103.6</ele>
        <time>2013-09-23T19:46:20.094Z</time>
      </trkpt>
      <trkpt lat="48.8731" lon="2.29644">
        <ele>102.3</ele>
        <time>2013-09-23T19:46:50.153Z</time>
      </trkpt>
      <trkpt lat="48.87309" lon="2.29645">
        <ele>102.8</ele>
        <time>2013-09-23T19:46:50.942Z</time>
      </trkpt>
      <trkpt lat="48.87306" lon="2.29655">
        <ele>103</ele>
        <time>2013-09-23T19:46:55.105Z</time>
      </trkpt>
      <trkpt lat="48.87305" lon="2.29658">
        <ele>102.5</ele>
        <time>2013-09-23T19:46:55.944Z</time>
      </trkpt>
      <trkpt lat="48.873" lon="2.2967">
        <ele>101.8</ele>
        <time>2013-09-23T19:46:59.976Z</time>
      </trkpt>
      <trkpt lat="48.873" lon="2.29673">
        <ele>101.6</ele>
        <time>2013-09-23T19:47:01.050Z</time>
      </trkpt>
      <trkpt lat="48.87298" lon="2.29685">
        <ele>102.7</ele>
        <time>2013-09-23T19:47:10.020Z</time>
      </trkpt>
      <trkpt lat="48.87298" lon="2.29687">
        <ele>102.9</ele>
        <time>2013-09-23T19:47:11.155Z</time>
      </trkpt>
      <trkpt lat="48.87296" lon="2.29699">
        <ele>106.5</ele>
        <time>2013-09-23T19:47:15.117Z</time>
      </trkpt>
      <trkpt lat="48.87295" lon="2.29702">
        <ele>105.5</ele>
        <time>2013-09-23T19:47:16.024Z</time>
      </trkpt>
      <trkpt lat="48.87293" lon="2.29714">
        <ele>105.2</ele>
        <time>2013-09-23T19:47:18.992Z</time>
      </trkpt>
      <trkpt lat="48.87292" lon="2.2972">
        <ele>104.9</ele>
        <time>2013-09-23T19:47:20.162Z</time>
      </trkpt>
      <trkpt lat="48.87289" lon="2.2973">
        <ele>106.4</ele>
        <time>2013-09-23T19:47:22.144Z</time>
      </trkpt>
      <trkpt lat="48.87288" lon="2.29735">
        <ele>106.1</ele>
        <time>2013-09-23T19:47:22.954Z</time>
      </trkpt>
      <trkpt lat="48.87284" lon="2.29747">
        <ele>107.1</ele>
        <time>2013-09-23T19:47:25.113Z</time>
      </trkpt>
      <trkpt lat="48.87282" lon="2.29752">
        <ele>107.5</ele>
        <time>2013-09-23T19:47:26.018Z</time>
      </trkpt>
      <trkpt lat="48.8728" lon="2.29763">
        <ele>109.8</ele>
        <time>2013-09-23T19:47:27.977Z</time>
      </trkpt>
      <trkpt lat="48.87279" lon="2.29769">
        <ele>111.1</ele>
        <time>2013-09-23T19:47:29.190Z</time>
      </trkpt>
      <trkpt lat="48.87278" lon="2.29779">
        <ele>111.8</ele>
        <time>2013-09-23T19:47:30.944Z</time>
      </trkpt>
      <trkpt lat="48.87277" lon="2.29785">
        <ele>111.7</ele>
        <time>2013-09-23T19:47:31.931Z</time>
      </trkpt>
      <trkpt lat="48.87276" lon="2.29795">
        <ele>111.1</ele>
        <time>2013-09-23T19:47:33.958Z</time>
      </trkpt>
      <trkpt lat="48.87276" lon="2.298">
        <ele>109.9</ele>
        <time>2013-09-23T19:47:34.961Z</time>
      </trkpt>
      <trkpt lat="48.87275" lon="2.2981">
        <ele>109.8</ele>
        <time>2013-09-23T19:47:36.933Z</time>
      </trkpt>
      <trkpt lat="48.87274" lon="2.29815">
        <ele>110.2</ele>
        <time>2013-09-23T19:47:37.979Z</time>
      </trkpt>
      <trkpt lat="48.87272" lon="2.29824">
        <ele>110.9</ele>
        <time>2013-09-23T19:47:39.931Z</time>
      </trkpt>
      <trkpt lat="48.87271" lon="2.29829">
        <ele>111.4</ele>
        <time>2013-09-23T19:47:40.940Z</time>
      </trkpt>
      <trkpt lat="48.87269" lon="2.2984">
        <ele>111.8</ele>
        <time>2013-09-23T19:47:42.993Z</time>
      </trkpt>
      <trkpt lat="48.87269" lon="2.29845">
        <ele>112.9</ele>
        <time>2013-09-23T19:47:43.923Z</time>
      </trkpt>
      <trkpt lat="48.87266" lon="2.29855">
        <ele>114.1</ele>
        <time>2013-09-23T19:47:45.932Z</time>
      </trkpt>
      <trkpt lat="48.87265" lon="2.2986">
        <ele>113.6</ele>
        <time>2013-09-23T19:47:46.930Z</time>
      </trkpt>
      <trkpt lat="48.87263" lon="2.29871">
        <ele>113.7</ele>
        <time>2013-09-23T19:47:48.923Z</time>
      </trkpt>
      <trkpt lat="48.87262" lon="2.29876">
        <ele>114.1</ele>
        <time>2013-09-23T19:47:49.931Z</time>
      </trkpt>
      <trkpt lat="48.87259" lon="2.29886">
        <ele>113.8</ele>
        <time>2013-09-23T19:47:51.923Z</time>
      </trkpt>
      <trkpt lat="48.87258" lon="2.29892">
        <ele>114.6</ele>
        <time>2013-09-23T19:47:52.944Z</time>
      </trkpt>
      <trkpt lat="48.87255" lon="2.29902">
        <ele>116.8</ele>
        <time>2013-09-23T19:47:54.947Z</time>
      </trkpt>
      <trkpt lat="48.87254" lon="2.29908">
        <ele>117.5</ele>
        <time>2013-09-23T19:47:56.095Z</time>
      </trkpt>
      <trkpt lat="48.8725" lon="2.29919">
        <ele>116.3</ele>
        <time>2013-09-23T19:47:58.121Z</time>
      </trkpt>
      <trkpt lat="48.87248" lon="2.29924">
        <ele>112.5</ele>
        <time>2013-09-23T19:47:59.142Z</time>
      </trkpt>
      <trkpt lat="48.87245" lon="2.29935">
        <ele>112</ele>
        <time>2013-09-23T19:48:01.132Z</time>
      </trkpt>
      <trkpt lat="48.87244" lon="2.2994">
        <ele>114.1</ele>
        <time>2013-09-23T19:48:01.938Z</time>
      </trkpt>
      <trkpt lat="48.87242" lon="2.29951">
        <ele>113.9</ele>
        <time>2013-09-23T19:48:04.078Z</time>
      </trkpt>
      <trkpt lat="48.87241" lon="2.29957">
        <ele>115.4</ele>
        <time>2013-09-23T19:48:05.055Z</time>
      </trkpt>
      <trkpt lat="48.87239" lon="2.29968">
        <ele>112</ele>
        <time>2013-09-23T19:48:06.982Z</time>
      </trkpt>
      <trkpt lat="48.87235" lon="2.29976">
        <ele>112.3</ele>
        <time>2013-09-23T19:48:08.109Z</time>
      </trkpt>
      <trkpt lat="48.87232" lon="2.29984">
        <ele>112.2</ele>
        <time>2013-09-23T19:48:08.940Z</time>
      </trkpt>
      <trkpt lat="48.87229" lon="2.29993">
        <ele>112.2</ele>
        <time>2013-09-23T19:48:09.987Z</time>
      </trkpt>
      <trkpt lat="48.8714" lon="2.30228">
        <ele>113.5</ele>
        <time>2013-09-23T19:48:39.051Z</time>
      </trkpt>
      <trkpt lat="48.87136" lon="2.30237">
        <ele>107.6</ele>
        <time>2013-09-23T19:48:41.990Z</time>
      </trkpt>
      <trkpt lat="48.87132" lon="2.30235">
        <ele>105.9</ele>
        <time>2013-09-23T19:48:42.953Z</time>
      </trkpt>
      <trkpt lat="48.87126" lon="2.3023">
        <ele>98.9</ele>
        <time>2013-09-23T19:48:46.991Z</time>
      </trkpt>
      <trkpt lat="48.87127" lon="2.30231">
        <ele>99.3</ele>
        <time>2013-09-23T19:48:48.023Z</time>
      </trkpt>
      <trkpt lat="48.87127" lon="2.30231">
        <ele>99</ele>
        <time>2013-09-23T19:48:48.987Z</time>
      </trkpt>
      <trkpt lat="48.87127" lon="2.30232">
        <ele>99</ele>
        <time>2013-09-23T19:48:50.136Z</time>
      </trkpt>
      <trkpt lat="48.87127" lon="2.30232">
        <ele>98.4</ele>
        <time>2013-09-23T19:48:50.952Z</time>
      </trkpt>
      <trkpt lat="48.87127" lon="2.30231">
        <ele>99.5</ele>
        <time>2013-09-23T19:49:06.955Z</time>
      </trkpt>
      <trkpt lat="48.87127" lon="2.30232">
        <ele>99.6</ele>
        <time>2013-09-23T19:49:08.141Z</time>
      </trkpt>
      <trkpt lat="48.87123" lon="2.30242">
        <ele>103</ele>
        <time>2013-09-23T19:49:12.016Z</time>
      </trkpt>
      <trkpt lat="48.87123" lon="2.30246">
        <ele>103.4</ele>
        <time>2013-09-23T19:49:13.177Z</time>
      </trkpt>
      <trkpt lat="48.87121" lon="2.30256">
        <ele>107.1</ele>
        <time>2013-09-23T19:49:15.962Z</time>
      </trkpt>
      <trkpt lat="48.87121" lon="2.3026">
        <ele>108.1</ele>
        <time>2013-09-23T19:49:16.972Z</time>
      </trkpt>
      <trkpt lat="48.87121" lon="2.30271">
        <ele>108.2</ele>
        <time>2013-09-23T19:49:19.963Z</time>
      </trkpt>
      <trkpt lat="48.87121" lon="2.30275">
        <ele>107.5</ele>
        <time>2013-09-23T19:49:20.938Z</time>
      </trkpt>
      <trkpt lat="48.87121" lon="2.30285">
        <ele>104</ele>
        <time>2013-09-23T19:49:24.137Z</time>
      </trkpt>
      <trkpt lat="48.87121" lon="2.30289">
        <ele>102.7</ele>
        <time>2013-09-23T19:49:25.002Z</time>
      </trkpt>
      <trkpt lat="48.87121" lon="2.30301">
        <ele>99.2</ele>
        <time>2013-09-23T19:49:28.030Z</time>
      </trkpt>
      <trkpt lat="48.87121" lon="2.30306">
        <ele>99.9</ele>
        <time>2013-09-23T19:49:29.154Z</time>
      </trkpt>
      <trkpt lat="48.87119" lon="2.30317">
        <ele>99.5</ele>
        <time>2013-09-23T19:49:31.201Z</time>
      </trkpt>
      <trkpt lat="48.87119" lon="2.30322">
        <ele>99.1</ele>
        <time>2013-09-23T19:49:31.948Z</time>
      </trkpt>
      <trkpt lat="48.87117" lon="2.30332">
        <ele>101.5</ele>
        <time>2013-09-23T19:49:34.054Z</time>
      </trkpt>
      <trkpt lat="48.87117" lon="2.30336">
        <ele>101.3</ele>
        <time>2013-09-23T19:49:35.043Z</time>
      </trkpt>
      <trkpt lat="48.87114" lon="2.30347">
        <ele>102.8</ele>
        <time>2013-09-23T19:49:38.129Z</time>
      </trkpt>
      <trkpt lat="48.87113" lon="2.3035">
        <ele>104.3</ele>
        <time>2013-09-23T19:49:38.959Z</time>
      </trkpt>
      <trkpt lat="48.87111" lon="2.30358">
        <ele>103.8</ele>
        <time>2013-09-23T19:49:41.021Z</time>
      </trkpt>
      <trkpt lat="48.8711" lon="2.30363">
        <ele>107</ele>
        <time>2013-09-23T19:49:42.094Z</time>
      </trkpt>
      <trkpt lat="48.87108" lon="2.30373">
        <ele>107.6</ele>
        <time>2013-09-23T19:49:44.031Z</time>
      </trkpt>
      <trkpt lat="48.87107" lon="2.30378">
        <ele>106.1</ele>
        <time>2013-09-23T19:49:45.188Z</time>
      </trkpt>
      <trkpt lat="48.87106" lon="2.30392">
        <ele>106.1</ele>
        <time>2013-09-23T19:49:48.037Z</time>
      </trkpt>
      <trkpt lat="48.87106" lon="2.30396">
        <ele>105.7</ele>
        <time>2013-09-23T19:49:49.124Z</time>
      </trkpt>
      <trkpt lat="48.87105" lon="2.30405">
        <ele>108.5</ele>
        <time>2013-09-23T19:49:50.947Z</time>
      </trkpt>
      <trkpt lat="48.87104" lon="2.30411">
        <ele>108.6</ele>
        <time>2013-09-23T19:49:52.189Z</time>
      </trkpt>
      <trkpt lat="48.87102" lon="2.30424">
        <ele>108.8</ele>
        <time>2013-09-23T19:49:54.155Z</time>
      </trkpt>
      <trkpt lat="48.871" lon="2.3043">
        <ele>110.3</ele>
        <time>2013-09-23T19:49:55.028Z</time>
      </trkpt>
      <trkpt lat="48.87098" lon="2.30437">
        <ele>110</ele>
        <time>2013-09-23T19:49:55.973Z</time>
      </trkpt>
      <trkpt lat="48.87095" lon="2.30444">
        <ele>109.8</ele>
        <time>2013-09-23T19:49:57.251Z</time>
      </trkpt>
      <trkpt lat="48.87092" lon="2.30449">
        <ele>109.9</ele>
        <time>2013-09-23T19:49:58.067Z</time>
      </trkpt>
      <trkpt lat="48.8709" lon="2.30455">
        <ele>109.1</ele>
        <time>2013-09-23T19:49:59.188Z</time>
      </trkpt>
      <trkpt lat="48.87086" lon="2.30466">
        <ele>107.3</ele>
        <time>2013-09-23T19:50:01.151Z</time>
      </trkpt>
      <trkpt lat="48.87085" lon="2.3047">
        <ele>106.4</ele>
        <time>2013-09-23T19:50:01.947Z</time>
      </trkpt>
      <trkpt lat="48.87083" lon="2.30481">
        <ele>106.8</ele>
        <time>2013-09-23T19:50:04.109Z</time>
      </trkpt>
      <trkpt lat="48.87081" lon="2.30486">
        <ele>106.2</ele>
        <time>2013-09-23T19:50:05.080Z</time>
      </trkpt>
      <trkpt lat="48.87077" lon="2.30494">
        <ele>107</ele>
        <time>2013-09-23T19:50:07.039Z</time>
      </trkpt>
      <trkpt lat="48.87074" lon="2.30498">
        <ele>107.1</ele>
        <time>2013-09-23T19:50:08.201Z</time>
      </trkpt>
      <trkpt lat="48.8707" lon="2.30506">
        <ele>103.6</ele>
        <time>2013-09-23T19:50:10.148Z</time>
      </trkpt>
      <trkpt lat="48.87068" lon="2.3051">
        <ele>102.9</ele>
        <time>2013-09-23T19:50:10.978Z</time>
      </trkpt>
      <trkpt lat="48.87064" lon="2.30519">
        <ele>103.6</ele>
        <time>2013-09-23T19:50:13.125Z</time>
      </trkpt>
      <trkpt lat="48.87063" lon="2.30523">
        <ele>104.7</ele>
        <time>2013-09-23T19:50:14.048Z</time>
      </trkpt>
      <trkpt lat="48.8706" lon="2.30532">
        <ele>106.5</ele>
        <time>2013-09-23T19:50:15.958Z</time>
      </trkpt>
      <trkpt lat="48.87059" lon="2.30537">
        <ele>106.9</ele>
        <time>2013-09-23T19:50:16.983Z</time>
      </trkpt>
      <trkpt lat="48.87058" lon="2.30547">
        <ele>107</ele>
        <time>2013-09-23T19:50:18.944Z</time>
      </trkpt>
      <trkpt lat="48.87058" lon="2.30552">
        <ele>106.7</ele>
        <time>2013-09-23T19:50:19.951Z</time>
      </trkpt>
      <trkpt lat="48.87057" lon="2.30562">
        <ele>107.4</ele>
        <time>2013-09-23T19:50:22.197Z</time>
      </trkpt>
      <trkpt lat="48.87055" lon="2.30567">
        <ele>107</ele>
        <time>2013-09-23T19:50:23.005Z</time>
      </trkpt>
      <trkpt lat="48.87052" lon="2.30577">
        <ele>108.3</ele>
        <time>2013-09-23T19:50:24.950Z</time>
      </trkpt>
      <trkpt lat="48.8705" lon="2.30583">
        <ele>107.7</ele>
        <time>2013-09-23T19:50:26.155Z</time>
      </trkpt>
      <trkpt lat="48.87045" lon="2.30593">
        <ele>107.3</ele>
        <time>2013-09-23T19:50:28.159Z</time>
      </trkpt>
      <trkpt lat="48.87043" lon="2.30599">
        <ele>109.6</ele>
        <time>2013-09-23T19:50:29.196Z</time>
      </trkpt>
      <trkpt lat="48.87039" lon="2.3061">
        <ele>111.7</ele>
        <time>2013-09-23T19:50:31.249Z</time>
      </trkpt>
      <trkpt lat="48.87038" lon="2.30615">
        <ele>112.1</ele>
        <time>2013-09-23T19:50:31.985Z</time>
      </trkpt>
      <trkpt lat="48.87035" lon="2.30626">
        <ele>111.3</ele>
        <time>2013-09-23T19:50:33.961Z</time>
      </trkpt>
      <trkpt lat="48.87034" lon="2.30633">
        <ele>111.1</ele>
        <time>2013-09-23T19:50:35.124Z</time>
      </trkpt>
      <trkpt lat="48.87032" lon="2.30643">
        <ele>109.7</ele>
        <time>2013-09-23T19:50:37.075Z</time>
      </trkpt>
      <trkpt lat="48.87031" lon="2.30649">
        <ele>108.2</ele>
        <time>2013-09-23T19:50:38.202Z</time>
      </trkpt>
      <trkpt lat="48.87027" lon="2.3066">
        <ele>107.8</ele>
        <time>2013-09-23T19:50:40.953Z</time>
      </trkpt>
      <trkpt lat="48.87026" lon="2.30664">
        <ele>106.4</ele>
        <time>2013-09-23T19:50:42.161Z</time>
      </trkpt>
      <trkpt lat="48.87023" lon="2.30675">
        <ele>103.5</ele>
        <time>2013-09-23T19:50:45.965Z</time>
      </trkpt>
      <trkpt lat="48.87021" lon="2.30678">
        <ele>102.7</ele>
        <time>2013-09-23T19:50:47.217Z</time>
      </trkpt>
      <trkpt lat="48.87014" lon="2.30686">
        <ele>103.8</ele>
        <time>2013-09-23T19:50:49.959Z</time>
      </trkpt>
      <trkpt lat="48.87011" lon="2.3069">
        <ele>103.4</ele>
        <time>2013-09-23T19:50:51.114Z</time>
      </trkpt>
      <trkpt lat="48.87007" lon="2.30699">
        <ele>103.2</ele>
        <time>2013-09-23T19:50:53.107Z</time>
      </trkpt>
      <trkpt lat="48.87006" lon="2.30703">
        <ele>104.8</ele>
        <time>2013-09-23T19:50:54.202Z</time>
      </trkpt>
      <trkpt lat="48.87002" lon="2.30715">
        <ele>105.5</ele>
        <time>2013-09-23T19:50:56.969Z</time>
      </trkpt>
      <trkpt lat="48.87001" lon="2.30721">
        <ele>106</ele>
        <time>2013-09-23T19:50:58.179Z</time>
      </trkpt>
      <trkpt lat="48.86998" lon="2.30732">
        <ele>106.2</ele>
        <time>2013-09-23T19:50:59.949Z</time>
      </trkpt>
      <trkpt lat="48.86997" lon="2.30738">
        <ele>106.6</ele>
        <time>2013-09-23T19:51:00.958Z</time>
      </trkpt>
      <trkpt lat="48.86995" lon="2.30747">
        <ele>107</ele>
        <time>2013-09-23T19:51:01.954Z</time>
      </trkpt>
      <trkpt lat="48.86992" lon="2.30754">
        <ele>106.6</ele>
        <time>2013-09-23T19:51:02.955Z</time>
      </trkpt>
      <trkpt lat="48.8699" lon="2.30761">
        <ele>107.1</ele>
        <time>2013-09-23T19:51:03.948Z</time>
      </trkpt>
      <trkpt lat="48.86988" lon="2.30769">
        <ele>108.4</ele>
        <time>2013-09-23T19:51:05.191Z</time>
      </trkpt>
      <trkpt lat="48.86986" lon="2.30775">
        <ele>108.7</ele>
        <time>2013-09-23T19:51:05.956Z</time>
      </trkpt>
      <trkpt lat="48.86984" lon="2.30783">
        <ele>108.4</ele>
        <time>2013-09-23T19:51:07.123Z</time>
      </trkpt>
      <trkpt lat="48.86983" lon="2.3079">
        <ele>108</ele>
        <time>2013-09-23T19:51:08.094Z</time>
      </trkpt>
      <trkpt lat="48.86982" lon="2.30796">
        <ele>107.7</ele>
        <time>2013-09-23T19:51:08.969Z</time>
      </trkpt>
      <trkpt lat="48.8698" lon="2.30804">
        <ele>106.8</ele>
        <time>2013-09-23T19:51:09.971Z</time>
      </trkpt>
      <trkpt lat="48.86977" lon="2.30811">
        <ele>106.3</ele>
        <time>2013-09-23T19:51:10.962Z</time>
      </trkpt>
      <trkpt lat="48.86975" lon="2.30818">
        <ele>106.3</ele>
        <time>2013-09-23T19:51:11.954Z</time>
      </trkpt>
      <trkpt lat="48.86972" lon="2.30825">
        <ele>105.6</ele>
        <time>2013-09-23T19:51:12.968Z</time>
      </trkpt>
      <trkpt lat="48.8697" lon="2.30832">
        <ele>105.5</ele>
        <time>2013-09-23T19:51:13.962Z</time>
      </trkpt>
      <trkpt lat="48.86967" lon="2.30839">
        <ele>103.3</ele>
        <time>2013-09-23T19:51:14.980Z</time>
      </trkpt>
      <trkpt lat="48.86965" lon="2.30846">
        <ele>103.4</ele>
        <time>2013-09-23T19:51:15.949Z</time>
      </trkpt>
      <trkpt lat="48.86962" lon="2.30852">
        <ele>102.5</ele>
        <time>2013-09-23T19:51:16.947Z</time>
      </trkpt>
      <trkpt lat="48.86957" lon="2.30863">
        <ele>100.2</ele>
        <time>2013-09-23T19:51:18.946Z</time>
      </trkpt>
      <trkpt lat="48.86955" lon="2.30868">
        <ele>98.4</ele>
        <time>2013-09-23T19:51:19.964Z</time>
      </trkpt>
      <trkpt lat="48.86949" lon="2.30877">
        <ele>95.7</ele>
        <time>2013-09-23T19:51:23.230Z</time>
      </trkpt>
      <trkpt lat="48.86948" lon="2.30878">
        <ele>95.6</ele>
        <time>2013-09-23T19:51:23.992Z</time>
      </trkpt>
      <trkpt lat="48.8694" lon="2.30874">
        <ele>87.5</ele>
        <time>2013-09-23T19:51:34.964Z</time>
      </trkpt>
      <trkpt lat="48.86939" lon="2.30874">
        <ele>87.4</ele>
        <time>2013-09-23T19:51:36.093Z</time>
      </trkpt>
      <trkpt lat="48.86933" lon="2.3087">
        <ele>84.5</ele>
        <time>2013-09-23T19:51:53.966Z</time>
      </trkpt>
      <trkpt lat="48.86933" lon="2.3087">
        <ele>84.6</ele>
        <time>2013-09-23T19:51:54.968Z</time>
      </trkpt>
      <trkpt lat="48.86932" lon="2.30872">
        <ele>88.2</ele>
        <time>2013-09-23T19:52:10.032Z</time>
      </trkpt>
      <trkpt lat="48.86932" lon="2.30872">
        <ele>90.2</ele>
        <time>2013-09-23T19:52:11.142Z</time>
      </trkpt>
      <trkpt lat="48.86929" lon="2.30884">
        <ele>89.9</ele>
        <time>2013-09-23T19:52:18.168Z</time>
      </trkpt>
      <trkpt lat="48.86928" lon="2.30887">
        <ele>90.4</ele>
        <time>2013-09-23T19:52:19.025Z</time>
      </trkpt>
      <trkpt lat="48.86925" lon="2.30895">
        <ele>88.9</ele>
        <time>2013-09-23T19:52:20.961Z</time>
      </trkpt>
      <trkpt lat="48.86923" lon="2.309">
        <ele>88.6</ele>
        <time>2013-09-23T19:52:22.160Z</time>
      </trkpt>
      <trkpt lat="48.86919" lon="2.30911">
        <ele>87.5</ele>
        <time>2013-09-23T19:52:25.184Z</time>
      </trkpt>
      <trkpt lat="48.86918" lon="2.30914">
        <ele>87.9</ele>
        <time>2013-09-23T19:52:26.054Z</time>
      </trkpt>
      <trkpt lat="48.8691" lon="2.30917">
        <ele>85.9</ele>
        <time>2013-09-23T19:52:29.171Z</time>
      </trkpt>
      <trkpt lat="48.86908" lon="2.30916">
        <ele>84.8</ele>
        <time>2013-09-23T19:52:29.960Z</time>
      </trkpt>
      <trkpt lat="48.86901" lon="2.30914">
        <ele>85.1</ele>
        <time>2013-09-23T19:52:32.088Z</time>
      </trkpt>
      <trkpt lat="48.86898" lon="2.30913">
        <ele>84.5</ele>
        <time>2013-09-23T19:52:33.118Z</time>
      </trkpt>
      <trkpt lat="48.86893" lon="2.30912">
        <ele>83.5</ele>
        <time>2013-09-23T19:52:34.961Z</time>
      </trkpt>
      <trkpt lat="48.86889" lon="2.30912">
        <ele>83.2</ele>
        <time>2013-09-23T19:52:36.188Z</time>
      </trkpt>
      <trkpt lat="48.86882" lon="2.30914">
        <ele>84.3</ele>
        <time>2013-09-23T19:52:38.966Z</time>
      </trkpt>
      <trkpt lat="48.86879" lon="2.30915">
        <ele>84.1</ele>
        <time>2013-09-23T19:52:40.094Z</time>
      </trkpt>
      <trkpt lat="48.86871" lon="2.30921">
        <ele>83.5</ele>
        <time>2013-09-23T19:52:43.199Z</time>
      </trkpt>
      <trkpt lat="48.86869" lon="2.30922">
        <ele>83.7</ele>
        <time>2013-09-23T19:52:43.955Z</time>
      </trkpt>
      <trkpt lat="48.86862" lon="2.30921">
        <ele>83</ele>
        <time>2013-09-23T19:52:45.973Z</time>
      </trkpt>
      <trkpt lat="48.86859" lon="2.30917">
        <ele>83.1</ele>
        <time>2013-09-23T19:52:47.121Z</time>
      </trkpt>
      <trkpt lat="48.86854" lon="2.30907">
        <ele>82.4</ele>
        <time>2013-09-23T19:52:49.051Z</time>
      </trkpt>
      <trkpt lat="48.8685" lon="2.30901">
        <ele>82.4</ele>
        <time>2013-09-23T19:52:50.154Z</time>
      </trkpt>
      <trkpt lat="48.86846" lon="2.30893">
        <ele>82</ele>
        <time>2013-09-23T19:52:50.998Z</time>
      </trkpt>
      <trkpt lat="48.86842" lon="2.30885">
        <ele>82.3</ele>
        <time>2013-09-23T19:52:52.156Z</time>
      </trkpt>
      <trkpt lat="48.86838" lon="2.3088">
        <ele>81.2</ele>
        <time>2013-09-23T19:52:52.985Z</time>
      </trkpt>
      <trkpt lat="48.86834" lon="2.30873">
        <ele>81.1</ele>
        <time>2013-09-23T19:52:53.979Z</time>
      </trkpt>
      <trkpt lat="48.8683" lon="2.30867">
        <ele>80.7</ele>
        <time>2013-09-23T19:52:54.954Z</time>
      </trkpt>
      <trkpt lat="48.86826" lon="2.30861">
        <ele>81.3</ele>
        <time>2013-09-23T19:52:55.953Z</time>
      </trkpt>
      <trkpt lat="48.86821" lon="2.30856">
        <ele>82.7</ele>
        <time>2013-09-23T19:52:56.953Z</time>
      </trkpt>
      <trkpt lat="48.86816" lon="2.30851">
        <ele>83.6</ele>
        <time>2013-09-23T19:52:57.962Z</time>
      </trkpt>
      <trkpt lat="48.86812" lon="2.30845">
        <ele>84.2</ele>
        <time>2013-09-23T19:52:59.181Z</time>
      </trkpt>
      <trkpt lat="48.86808" lon="2.30841">
        <ele>83.7</ele>
        <time>2013-09-23T19:52:59.988Z</time>
      </trkpt>
      <trkpt lat="48.86803" lon="2.30835">
        <ele>84.3</ele>
        <time>2013-09-23T19:53:01.174Z</time>
      </trkpt>
      <trkpt lat="48.86799" lon="2.3083">
        <ele>84.3</ele>
        <time>2013-09-23T19:53:01.955Z</time>
      </trkpt>
      <trkpt lat="48.86793" lon="2.30824">
        <ele>83.9</ele>
        <time>2013-09-23T19:53:02.979Z</time>
      </trkpt>
      <trkpt lat="48.86788" lon="2.30819">
        <ele>84.1</ele>
        <time>2013-09-23T19:53:03.951Z</time>
      </trkpt>
      <trkpt lat="48.86783" lon="2.30814">
        <ele>83.7</ele>
        <time>2013-09-23T19:53:04.954Z</time>
      </trkpt>
      <trkpt lat="48.8678" lon="2.30808">
        <ele>83.6</ele>
        <time>2013-09-23T19:53:05.964Z</time>
      </trkpt>
      <trkpt lat="48.86776" lon="2.30802">
        <ele>84</ele>
        <time>2013-09-23T19:53:06.963Z</time>
      </trkpt>
      <trkpt lat="48.86771" lon="2.30797">
        <ele>84.5</ele>
        <time>2013-09-23T19:53:07.959Z</time>
      </trkpt>
      <trkpt lat="48.86766" lon="2.30792">
        <ele>85.2</ele>
        <time>2013-09-23T19:53:08.954Z</time>
      </trkpt>
      <trkpt lat="48.86761" lon="2.30787">
        <ele>85.6</ele>
        <time>2013-09-23T19:53:09.955Z</time>
      </trkpt>
      <trkpt lat="48.86756" lon="2.30782">
        <ele>86.2</ele>
        <time>2013-09-23T19:53:10.948Z</time>
      </trkpt>
      <trkpt lat="48.86751" lon="2.30776">
        <ele>86.4</ele>
        <time>2013-09-23T19:53:11.949Z</time>
      </trkpt>
      <trkpt lat="48.86747" lon="2.30769">
        <ele>86.3</ele>
        <time>2013-09-23T19:53:12.961Z</time>
      </trkpt>
      <trkpt lat="48.86744" lon="2.30762">
        <ele>86.8</ele>
        <time>2013-09-23T19:53:13.961Z</time>
      </trkpt>
      <trkpt lat="48.8674" lon="2.30754">
        <ele>86.1</ele>
        <time>2013-09-23T19:53:14.948Z</time>
      </trkpt>
      <trkpt lat="48.86737" lon="2.30747">
        <ele>86.3</ele>
        <time>2013-09-23T19:53:15.969Z</time>
      </trkpt>
      <trkpt lat="48.86733" lon="2.30741">
        <ele>87.4</ele>
        <time>2013-09-23T19:53:16.949Z</time>
      </trkpt>
      <trkpt lat="48.86729" lon="2.30735">
        <ele>87</ele>
        <time>2013-09-23T19:53:17.949Z</time>
      </trkpt>
      <trkpt lat="48.86724" lon="2.3073">
        <ele>86.6</ele>
        <time>2013-09-23T19:53:18.966Z</time>
      </trkpt>
      <trkpt lat="48.8672" lon="2.30723">
        <ele>86.2</ele>
        <time>2013-09-23T19:53:19.964Z</time>
      </trkpt>
      <trkpt lat="48.86716" lon="2.30716">
        <ele>87</ele>
        <time>2013-09-23T19:53:20.950Z</time>
      </trkpt>
      <trkpt lat="48.86713" lon="2.3071">
        <ele>86.1</ele>
        <time>2013-09-23T19:53:21.986Z</time>
      </trkpt>
      <trkpt lat="48.86709" lon="2.30705">
        <ele>85.7</ele>
        <time>2013-09-23T19:53:22.995Z</time>
      </trkpt>
      <trkpt lat="48.86705" lon="2.30699">
        <ele>86.6</ele>
        <time>2013-09-23T19:53:24.149Z</time>
      </trkpt>
      <trkpt lat="48.86699" lon="2.3069">
        <ele>85.6</ele>
        <time>2013-09-23T19:53:26.150Z</time>
      </trkpt>
      <trkpt lat="48.86696" lon="2.30686">
        <ele>86.3</ele>
        <time>2013-09-23T19:53:26.966Z</time>
      </trkpt>
      <trkpt lat="48.86693" lon="2.30681">
        <ele>86.8</ele>
        <time>2013-09-23T19:53:28.089Z</time>
      </trkpt>
      <trkpt lat="48.86691" lon="2.30674">
        <ele>85.3</ele>
        <time>2013-09-23T19:53:29.142Z</time>
      </trkpt>
      <trkpt lat="48.86691" lon="2.30666">
        <ele>85.5</ele>
        <time>2013-09-23T19:53:30.092Z</time>
      </trkpt>
      <trkpt lat="48.8669" lon="2.30658">
        <ele>86.5</ele>
        <time>2013-09-23T19:53:31.164Z</time>
      </trkpt>
      <trkpt lat="48.86689" lon="2.30652">
        <ele>87.1</ele>
        <time>2013-09-23T19:53:31.983Z</time>
      </trkpt>
      <trkpt lat="48.86687" lon="2.30645">
        <ele>87.2</ele>
        <time>2013-09-23T19:53:33.179Z</time>
      </trkpt>
      <trkpt lat="48.86684" lon="2.3064">
        <ele>87.4</ele>
        <time>2013-09-23T19:53:34.019Z</time>
      </trkpt>
      <trkpt lat="48.86681" lon="2.30633">
        <ele>88.1</ele>
        <time>2013-09-23T19:53:35.204Z</time>
      </trkpt>
      <trkpt lat="48.86677" lon="2.30628">
        <ele>87.9</ele>
        <time>2013-09-23T19:53:36.136Z</time>
      </trkpt>
      <trkpt lat="48.86673" lon="2.30622">
        <ele>87.8</ele>
        <time>2013-09-23T19:53:37.071Z</time>
      </trkpt>
      <trkpt lat="48.86668" lon="2.30617">
        <ele>87.8</ele>
        <time>2013-09-23T19:53:38.209Z</time>
      </trkpt>
      <trkpt lat="48.86665" lon="2.30611">
        <ele>86.9</ele>
        <time>2013-09-23T19:53:39.007Z</time>
      </trkpt>
      <trkpt lat="48.8666" lon="2.30603">
        <ele>86.9</ele>
        <time>2013-09-23T19:53:40.206Z</time>
      </trkpt>
      <trkpt lat="48.86657" lon="2.30597">
        <ele>87.2</ele>
        <time>2013-09-23T19:53:40.962Z</time>
      </trkpt>
      <trkpt lat="48.86653" lon="2.30589">
        <ele>87.4</ele>
        <time>2013-09-23T19:53:42.157Z</time>
      </trkpt>
      <trkpt lat="48.86649" lon="2.30583">
        <ele>88.1</ele>
        <time>2013-09-23T19:53:43.022Z</time>
      </trkpt>
      <trkpt lat="48.86644" lon="2.30577">
        <ele>88.4</ele>
        <time>2013-09-23T19:53:43.963Z</time>
      </trkpt>
      <trkpt lat="48.8664" lon="2.3057">
        <ele>87.9</ele>
        <time>2013-09-23T19:53:45.181Z</time>
      </trkpt>
      <trkpt lat="48.86636" lon="2.30564">
        <ele>88.9</ele>
        <time>2013-09-23T19:53:46.030Z</time>
      </trkpt>
      <trkpt lat="48.86632" lon="2.30557">
        <ele>88.8</ele>
        <time>2013-09-23T19:53:47.200Z</time>
      </trkpt>
      <trkpt lat="48.86628" lon="2.3055">
        <ele>88.5</ele>
        <time>2013-09-23T19:53:48.015Z</time>
      </trkpt>
      <trkpt lat="48.86625" lon="2.30542">
        <ele>88.1</ele>
        <time>2013-09-23T19:53:48.953Z</time>
      </trkpt>
      <trkpt lat="48.86622" lon="2.30534">
        <ele>87.7</ele>
        <time>2013-09-23T19:53:49.959Z</time>
      </trkpt>
      <trkpt lat="48.86619" lon="2.30525">
        <ele>86.6</ele>
        <time>2013-09-23T19:53:50.960Z</time>
      </trkpt>
      <trkpt lat="48.86615" lon="2.30518">
        <ele>86.8</ele>
        <time>2013-09-23T19:53:52.023Z</time>
      </trkpt>
      <trkpt lat="48.86611" lon="2.30513">
        <ele>87</ele>
        <time>2013-09-23T19:53:53.082Z</time>
      </trkpt>
      <trkpt lat="48.86605" lon="2.3051">
        <ele>87.1</ele>
        <time>2013-09-23T19:53:54.143Z</time>
      </trkpt>
      <trkpt lat="48.86601" lon="2.30504">
        <ele>86.8</ele>
        <time>2013-09-23T19:53:55.000Z</time>
      </trkpt>
      <trkpt lat="48.86596" lon="2.30498">
        <ele>86.9</ele>
        <time>2013-09-23T19:53:56.190Z</time>
      </trkpt>
      <trkpt lat="48.86593" lon="2.30492">
        <ele>87.1</ele>
        <time>2013-09-23T19:53:56.959Z</time>
      </trkpt>
      <trkpt lat="48.86588" lon="2.30485">
        <ele>87.8</ele>
        <time>2013-09-23T19:53:58.038Z</time>
      </trkpt>
      <trkpt lat="48.86584" lon="2.30479">
        <ele>86.5</ele>
        <time>2013-09-23T19:53:58.978Z</time>
      </trkpt>
      <trkpt lat="48.86581" lon="2.30471">
        <ele>85.5</ele>
        <time>2013-09-23T19:53:59.953Z</time>
      </trkpt>
      <trkpt lat="48.86576" lon="2.30464">
        <ele>85.5</ele>
        <time>2013-09-23T19:54:00.951Z</time>
      </trkpt>
      <trkpt lat="48.86573" lon="2.30457">
        <ele>86</ele>
        <time>2013-09-23T19:54:01.952Z</time>
      </trkpt>
      <trkpt lat="48.8657" lon="2.3045">
        <ele>85.8</ele>
        <time>2013-09-23T19:54:02.960Z</time>
      </trkpt>
      <trkpt lat="48.86568" lon="2.30442">
        <ele>83.6</ele>
        <time>2013-09-23T19:54:03.961Z</time>
      </trkpt>
      <trkpt lat="48.86567" lon="2.30431">
        <ele>83.2</ele>
        <time>2013-09-23T19:54:04.961Z</time>
      </trkpt>
      <trkpt lat="48.86565" lon="2.30421">
        <ele>82.4</ele>
        <time>2013-09-23T19:54:05.960Z</time>
      </trkpt>
      <trkpt lat="48.86562" lon="2.30412">
        <ele>81.8</ele>
        <time>2013-09-23T19:54:06.978Z</time>
      </trkpt>
      <trkpt lat="48.86559" lon="2.30403">
        <ele>80.7</ele>
        <time>2013-09-23T19:54:07.963Z</time>
      </trkpt>
      <trkpt lat="48.86554" lon="2.30396">
        <ele>81.1</ele>
        <time>2013-09-23T19:54:08.980Z</time>
      </trkpt>
      <trkpt lat="48.86549" lon="2.3039">
        <ele>81.5</ele>
        <time>2013-09-23T19:54:09.954Z</time>
      </trkpt>
      <trkpt lat="48.86544" lon="2.30383">
        <ele>81.1</ele>
        <time>2013-09-23T19:54:10.961Z</time>
      </trkpt>
      <trkpt lat="48.86541" lon="2.30376">
        <ele>81.5</ele>
        <time>2013-09-23T19:54:11.961Z</time>
      </trkpt>
      <trkpt lat="48.86537" lon="2.3037">
        <ele>81.9</ele>
        <time>2013-09-23T19:54:12.960Z</time>
      </trkpt>
      <trkpt lat="48.86534" lon="2.30363">
        <ele>81.9</ele>
        <time>2013-09-23T19:54:13.952Z</time>
      </trkpt>
      <trkpt lat="48.86531" lon="2.30357">
        <ele>81.5</ele>
        <time>2013-09-23T19:54:14.961Z</time>
      </trkpt>
      <trkpt lat="48.86527" lon="2.30351">
        <ele>82.2</ele>
        <time>2013-09-23T19:54:15.953Z</time>
      </trkpt>
      <trkpt lat="48.86524" lon="2.30345">
        <ele>82.7</ele>
        <time>2013-09-23T19:54:16.961Z</time>
      </trkpt>
      <trkpt lat="48.8652" lon="2.30341">
        <ele>82.5</ele>
        <time>2013-09-23T19:54:17.969Z</time>
      </trkpt>
      <trkpt lat="48.86516" lon="2.30336">
        <ele>82.7</ele>
        <time>2013-09-23T19:54:18.967Z</time>
      </trkpt>
      <trkpt lat="48.86512" lon="2.30331">
        <ele>84.1</ele>
        <time>2013-09-23T19:54:19.953Z</time>
      </trkpt>
      <trkpt lat="48.86508" lon="2.30325">
        <ele>85.4</ele>
        <time>2013-09-23T19:54:20.964Z</time>
      </trkpt>
      <trkpt lat="48.86505" lon="2.3032">
        <ele>86.7</ele>
        <time>2013-09-23T19:54:21.953Z</time>
      </trkpt>
      <trkpt lat="48.86503" lon="2.30314">
        <ele>86.5</ele>
        <time>2013-09-23T19:54:22.972Z</time>
      </trkpt>
      <trkpt lat="48.865" lon="2.30307">
        <ele>87.5</ele>
        <time>2013-09-23T19:54:23.969Z</time>
      </trkpt>
      <trkpt lat="48.86498" lon="2.30301">
        <ele>87.8</ele>
        <time>2013-09-23T19:54:24.967Z</time>
      </trkpt>
      <trkpt lat="48.86494" lon="2.30296">
        <ele>89</ele>
        <time>2013-09-23T19:54:25.964Z</time>
      </trkpt>
      <trkpt lat="48.86491" lon="2.30291">
        <ele>90.3</ele>
        <time>2013-09-23T19:54:26.954Z</time>
      </trkpt>
      <trkpt lat="48.86486" lon="2.30281">
        <ele>91.2</ele>
        <time>2013-09-23T19:54:28.962Z</time>
      </trkpt>
      <trkpt lat="48.86483" lon="2.30276">
        <ele>91.3</ele>
        <time>2013-09-23T19:54:29.962Z</time>
      </trkpt>
      <trkpt lat="48.86479" lon="2.30271">
        <ele>91.3</ele>
        <time>2013-09-23T19:54:30.979Z</time>
      </trkpt>
      <trkpt lat="48.86476" lon="2.30266">
        <ele>91.5</ele>
        <time>2013-09-23T19:54:31.978Z</time>
      </trkpt>
      <trkpt lat="48.86471" lon="2.30255">
        <ele>92.9</ele>
        <time>2013-09-23T19:54:33.963Z</time>
      </trkpt>
      <trkpt lat="48.86469" lon="2.3025">
        <ele>93.5</ele>
        <time>2013-09-23T19:54:34.972Z</time>
      </trkpt>
      <trkpt lat="48.86463" lon="2.3024">
        <ele>94.3</ele>
        <time>2013-09-23T19:54:36.972Z</time>
      </trkpt>
      <trkpt lat="48.86461" lon="2.30234">
        <ele>93.8</ele>
        <time>2013-09-23T19:54:38.024Z</time>
      </trkpt>
      <trkpt lat="48.86458" lon="2.30222">
        <ele>93</ele>
        <time>2013-09-23T19:54:39.956Z</time>
      </trkpt>
      <trkpt lat="48.86458" lon="2.30217">
        <ele>91</ele>
        <time>2013-09-23T19:54:40.956Z</time>
      </trkpt>
      <trkpt lat="48.86457" lon="2.30207">
        <ele>88</ele>
        <time>2013-09-23T19:54:42.991Z</time>
      </trkpt>
      <trkpt lat="48.86457" lon="2.30202">
        <ele>88</ele>
        <time>2013-09-23T19:54:43.963Z</time>
      </trkpt>
      <trkpt lat="48.86458" lon="2.30191">
        <ele>86.9</ele>
        <time>2013-09-23T19:54:45.964Z</time>
      </trkpt>
      <trkpt lat="48.86459" lon="2.30186">
        <ele>87.6</ele>
        <time>2013-09-23T19:54:46.963Z</time>
      </trkpt>
      <trkpt lat="48.86459" lon="2.30175">
        <ele>87</ele>
        <time>2013-09-23T19:54:48.956Z</time>
      </trkpt>
      <trkpt lat="48.8646" lon="2.30169">
        <ele>85.8</ele>
        <time>2013-09-23T19:54:49.964Z</time>
      </trkpt>
      <trkpt lat="48.86459" lon="2.30158">
        <ele>87</ele>
        <time>2013-09-23T19:54:51.968Z</time>
      </trkpt>
      <trkpt lat="48.86458" lon="2.30153">
        <ele>87.7</ele>
        <time>2013-09-23T19:54:52.973Z</time>
      </trkpt>
      <trkpt lat="48.86456" lon="2.30144">
        <ele>87.7</ele>
        <time>2013-09-23T19:54:54.980Z</time>
      </trkpt>
      <trkpt lat="48.86455" lon="2.30141">
        <ele>88.8</ele>
        <time>2013-09-23T19:54:55.973Z</time>
      </trkpt>
      <trkpt lat="48.86449" lon="2.30131">
        <ele>88.8</ele>
        <time>2013-09-23T19:54:58.981Z</time>
      </trkpt>
      <trkpt lat="48.86446" lon="2.30128">
        <ele>88.4</ele>
        <time>2013-09-23T19:54:59.980Z</time>
      </trkpt>
      <trkpt lat="48.86442" lon="2.30122">
        <ele>89.2</ele>
        <time>2013-09-23T19:55:01.972Z</time>
      </trkpt>
      <trkpt lat="48.86439" lon="2.30118">
        <ele>89.3</ele>
        <time>2013-09-23T19:55:02.971Z</time>
      </trkpt>
      <trkpt lat="48.86433" lon="2.30109">
        <ele>90.1</ele>
        <time>2013-09-23T19:55:04.966Z</time>
      </trkpt>
      <trkpt lat="48.8643" lon="2.30105">
        <ele>89.7</ele>
        <time>2013-09-23T19:55:05.974Z</time>
      </trkpt>
      <trkpt lat="48.86425" lon="2.30096">
        <ele>89.4</ele>
        <time>2013-09-23T19:55:07.971Z</time>
      </trkpt>
      <trkpt lat="48.86423" lon="2.30091">
        <ele>88.8</ele>
        <time>2013-09-23T19:55:08.973Z</time>
      </trkpt>
      <trkpt lat="48.86422" lon="2.30079">
        <ele>88.2</ele>
        <time>2013-09-23T19:55:10.987Z</time>
      </trkpt>
      <trkpt lat="48.86421" lon="2.30073">
        <ele>88.1</ele>
        <time>2013-09-23T19:55:11.973Z</time>
      </trkpt>
      <trkpt lat="48.86421" lon="2.30061">
        <ele>87.1</ele>
        <time>2013-09-23T19:55:13.967Z</time>
      </trkpt>
      <trkpt lat="48.8642" lon="2.30055">
        <ele>87.2</ele>
        <time>2013-09-23T19:55:14.973Z</time>
      </trkpt>
      <trkpt lat="48.86419" lon="2.30043">
        <ele>87.7</ele>
        <time>2013-09-23T19:55:16.990Z</time>
      </trkpt>
      <trkpt lat="48.86418" lon="2.30037">
        <ele>87.2</ele>
        <time>2013-09-23T19:55:17.970Z</time>
      </trkpt>
      <trkpt lat="48.86415" lon="2.30025">
        <ele>85.4</ele>
        <time>2013-09-23T19:55:20.968Z</time>
      </trkpt>
      <trkpt lat="48.86415" lon="2.30022">
        <ele>86.1</ele>
        <time>2013-09-23T19:55:21.974Z</time>
      </trkpt>
      <trkpt lat="48.86419" lon="2.30018">
        <ele>83</ele>
        <time>2013-09-23T19:55:29.968Z</time>
      </trkpt>
      <trkpt lat="48.86419" lon="2.30018">
        <ele>83</ele>
        <time>2013-09-23T19:55:30.968Z</time>
      </trkpt>
      <trkpt lat="48.8642" lon="2.30017">
        <ele>82.3</ele>
        <time>2013-09-23T19:56:12.972Z</time>
      </trkpt>
      <trkpt lat="48.86419" lon="2.30017">
        <ele>82.5</ele>
        <time>2013-09-23T19:56:13.970Z</time>
      </trkpt>
      <trkpt lat="48.86415" lon="2.30009">
        <ele>81.9</ele>
        <time>2013-09-23T19:56:16.978Z</time>
      </trkpt>
      <trkpt lat="48.86414" lon="2.30005">
        <ele>81.1</ele>
        <time>2013-09-23T19:56:17.987Z</time>
      </trkpt>
      <trkpt lat="48.86412" lon="2.29994">
        <ele>79.9</ele>
        <time>2013-09-23T19:56:19.995Z</time>
      </trkpt>
      <trkpt lat="48.86411" lon="2.29988">
        <ele>80.5</ele>
        <time>2013-09-23T19:56:21.139Z</time>
      </trkpt>
      <trkpt lat="48.8641" lon="2.29976">
        <ele>78.8</ele>
        <time>2013-09-23T19:56:23.098Z</time>
      </trkpt>
      <trkpt lat="48.86409" lon="2.29969">
        <ele>78.8</ele>
        <time>2013-09-23T19:56:23.970Z</time>
      </trkpt>
      <trkpt lat="48.86408" lon="2.29961">
        <ele>79.2</ele>
        <time>2013-09-23T19:56:25.042Z</time>
      </trkpt>
      <trkpt lat="48.86407" lon="2.29952">
        <ele>79.7</ele>
        <time>2013-09-23T19:56:26.187Z</time>
      </trkpt>
      <trkpt lat="48.86406" lon="2.29946">
        <ele>80.1</ele>
        <time>2013-09-23T19:56:26.988Z</time>
      </trkpt>
      <trkpt lat="48.86404" lon="2.29939">
        <ele>80.2</ele>
        <time>2013-09-23T19:56:28.179Z</time>
      </trkpt>
      <trkpt lat="48.86402" lon="2.29928">
        <ele>81</ele>
        <time>2013-09-23T19:56:30.147Z</time>
      </trkpt>
      <trkpt lat="48.86401" lon="2.29922">
        <ele>80.5</ele>
        <time>2013-09-23T19:56:31.075Z</time>
      </trkpt>
      <trkpt lat="48.86398" lon="2.2991">
        <ele>80</ele>
        <time>2013-09-23T19:56:33.171Z</time>
      </trkpt>
      <trkpt lat="48.86397" lon="2.29904">
        <ele>79.9</ele>
        <time>2013-09-23T19:56:34.030Z</time>
      </trkpt>
      <trkpt lat="48.86396" lon="2.29893">
        <ele>79.1</ele>
        <time>2013-09-23T19:56:35.988Z</time>
      </trkpt>
      <trkpt lat="48.86396" lon="2.29887">
        <ele>78.8</ele>
        <time>2013-09-23T19:56:37.124Z</time>
      </trkpt>
      <trkpt lat="48.86396" lon="2.29876">
        <ele>77.8</ele>
        <time>2013-09-23T19:56:39.123Z</time>
      </trkpt>
      <trkpt lat="48.86396" lon="2.29872">
        <ele>78.5</ele>
        <time>2013-09-23T19:56:40.203Z</time>
      </trkpt>
      <trkpt lat="48.86393" lon="2.2986">
        <ele>81.4</ele>
        <time>2013-09-23T19:56:43.063Z</time>
      </trkpt>
      <trkpt lat="48.86392" lon="2.29855">
        <ele>81.6</ele>
        <time>2013-09-23T19:56:44.218Z</time>
      </trkpt>
      <trkpt lat="48.86389" lon="2.29847">
        <ele>80.4</ele>
        <time>2013-09-23T19:56:46.143Z</time>
      </trkpt>
      <trkpt lat="48.86387" lon="2.29843">
        <ele>80.4</ele>
        <time>2013-09-23T19:56:47.094Z</time>
      </trkpt>
      <trkpt lat="48.86383" lon="2.29834">
        <ele>81.6</ele>
        <time>2013-09-23T19:56:49.198Z</time>
      </trkpt>
      <trkpt lat="48.86382" lon="2.2983">
        <ele>82.1</ele>
        <time>2013-09-23T19:56:50.022Z</time>
      </trkpt>
      <trkpt lat="48.86379" lon="2.29821">
        <ele>81.6</ele>
        <time>2013-09-23T19:56:52.001Z</time>
      </trkpt>
      <trkpt lat="48.86376" lon="2.29817">
        <ele>81.7</ele>
        <time>2013-09-23T19:56:53.142Z</time>
      </trkpt>
      <trkpt lat="48.86371" lon="2.29808">
        <ele>80.8</ele>
        <time>2013-09-23T19:56:56.268Z</time>
      </trkpt>
      <trkpt lat="48.86371" lon="2.29806">
        <ele>81.6</ele>
        <time>2013-09-23T19:56:57.044Z</time>
      </trkpt>
      <trkpt lat="48.8637" lon="2.29794">
        <ele>76.2</ele>
        <time>2013-09-23T19:57:00.992Z</time>
      </trkpt>
      <trkpt lat="48.8637" lon="2.29789">
        <ele>77.3</ele>
        <time>2013-09-23T19:57:02.160Z</time>
      </trkpt>
      <trkpt lat="48.86374" lon="2.29778">
        <ele>77.1</ele>
        <time>2013-09-23T19:57:05.983Z</time>
      </trkpt>
      <trkpt lat="48.86376" lon="2.29777">
        <ele>76.6</ele>
        <time>2013-09-23T19:57:06.983Z</time>
      </trkpt>
      <trkpt lat="48.86382" lon="2.29768">
        <ele>73.4</ele>
        <time>2013-09-23T19:57:13.056Z</time>
      </trkpt>
      <trkpt lat="48.86383" lon="2.29766">
        <ele>73.4</ele>
        <time>2013-09-23T19:57:13.989Z</time>
      </trkpt>
      <trkpt lat="48.86391" lon="2.2976">
        <ele>74</ele>
        <time>2013-09-23T19:57:21.010Z</time>
      </trkpt>
      <trkpt lat="48.86393" lon="2.29758">
        <ele>74.3</ele>
        <time>2013-09-23T19:57:22.135Z</time>
      </trkpt>
      <trkpt lat="48.864" lon="2.29754">
        <ele>74.5</ele>
        <time>2013-09-23T19:57:24.982Z</time>
      </trkpt>
      <trkpt lat="48.86402" lon="2.29753">
        <ele>76.4</ele>
        <time>2013-09-23T19:57:26.009Z</time>
      </trkpt>
      <trkpt lat="48.86408" lon="2.29747">
        <ele>78</ele>
        <time>2013-09-23T19:57:29.162Z</time>
      </trkpt>
      <trkpt lat="48.8641" lon="2.29746">
        <ele>76.7</ele>
        <time>2013-09-23T19:57:30.024Z</time>
      </trkpt>
      <trkpt lat="48.86417" lon="2.2974">
        <ele>76.8</ele>
        <time>2013-09-23T19:57:36.991Z</time>
      </trkpt>
      <trkpt lat="48.86418" lon="2.29737">
        <ele>77.5</ele>
        <time>2013-09-23T19:57:38.129Z</time>
      </trkpt>
      <trkpt lat="48.86417" lon="2.29724">
        <ele>84.5</ele>
        <time>2013-09-23T19:57:48.007Z</time>
      </trkpt>
      <trkpt lat="48.86417" lon="2.29724">
        <ele>85.7</ele>
        <time>2013-09-23T19:57:48.987Z</time>
      </trkpt>
      <trkpt lat="48.86417" lon="2.2972">
        <ele>88.1</ele>
        <time>2013-09-23T19:57:54.111Z</time>
      </trkpt>
      <trkpt lat="48.86417" lon="2.2972">
        <ele>88.1</ele>
        <time>2013-09-23T19:57:55.123Z</time>
      </trkpt>
      <trkpt lat="48.86417" lon="2.29721">
        <ele>89</ele>
        <time>2013-09-23T19:57:56.053Z</time>
      </trkpt>
      <trkpt lat="48.86425" lon="2.29727">
        <ele>89.6</ele>
        <time>2013-09-23T19:58:13.988Z</time>
      </trkpt>
      <trkpt lat="48.86425" lon="2.29727">
        <ele>90.9</ele>
        <time>2013-09-23T19:58:14.979Z</time>
      </trkpt>
      <trkpt lat="48.8643" lon="2.29719">
        <ele>92.2</ele>
        <time>2013-09-23T19:58:29.981Z</time>
      </trkpt>
      <trkpt lat="48.86431" lon="2.2972">
        <ele>92.4</ele>
        <time>2013-09-23T19:58:30.980Z</time>
      </trkpt>
      <trkpt lat="48.86432" lon="2.29719">
        <ele>93.7</ele>
        <time>2013-09-23T19:58:36.986Z</time>
      </trkpt>
      <trkpt lat="48.86432" lon="2.29719">
        <ele>94</ele>
        <time>2013-09-23T19:58:37.980Z</time>
      </trkpt>
      <trkpt lat="48.86432" lon="2.29718">
        <ele>94.7</ele>
        <time>2013-09-23T19:58:40.983Z</time>
      </trkpt>
      <trkpt lat="48.86432" lon="2.29718">
        <ele>94.7</ele>
        <time>2013-09-23T19:58:42.008Z</time>
      </trkpt>
      <trkpt lat="48.86432" lon="2.29717">
        <ele>93.8</ele>
        <time>2013-09-23T19:58:49.976Z</time>
      </trkpt>
      <trkpt lat="48.86432" lon="2.29716">
        <ele>93.9</ele>
        <time>2013-09-23T19:58:50.984Z</time>
      </trkpt>
      <trkpt lat="48.86438" lon="2.29709">
        <ele>91.5</ele>
        <time>2013-09-23T19:58:56.983Z</time>
      </trkpt>
      <trkpt lat="48.86442" lon="2.29708">
        <ele>91.3</ele>
        <time>2013-09-23T19:58:58.044Z</time>
      </trkpt>
      <trkpt lat="48.86448" lon="2.29704">
        <ele>89.5</ele>
        <time>2013-09-23T19:58:59.984Z</time>
      </trkpt>
      <trkpt lat="48.8645" lon="2.29702">
        <ele>87.8</ele>
        <time>2013-09-23T19:59:00.983Z</time>
      </trkpt>
      <trkpt lat="48.86456" lon="2.29693">
        <ele>81.6</ele>
        <time>2013-09-23T19:59:03.992Z</time>
      </trkpt>
      <trkpt lat="48.86457" lon="2.29689">
        <ele>81.7</ele>
        <time>2013-09-23T19:59:04.993Z</time>
      </trkpt>
      <trkpt lat="48.86457" lon="2.29677">
        <ele>81.9</ele>
        <time>2013-09-23T19:59:08.020Z</time>
      </trkpt>
      <trkpt lat="48.86457" lon="2.29673">
        <ele>82.9</ele>
        <time>2013-09-23T19:59:08.991Z</time>
      </trkpt>
      <trkpt lat="48.86458" lon="2.29662">
        <ele>79.4</ele>
        <time>2013-09-23T19:59:12.249Z</time>
      </trkpt>
      <trkpt lat="48.86459" lon="2.29659">
        <ele>79.3</ele>
        <time>2013-09-23T19:59:12.992Z</time>
      </trkpt>
      <trkpt lat="48.86464" lon="2.29649">
        <ele>81.5</ele>
        <time>2013-09-23T19:59:16.073Z</time>
      </trkpt>
      <trkpt lat="48.86466" lon="2.29645">
        <ele>82.8</ele>
        <time>2013-09-23T19:59:17.186Z</time>
      </trkpt>
      <trkpt lat="48.86466" lon="2.29634">
        <ele>83.1</ele>
        <time>2013-09-23T19:59:19.989Z</time>
      </trkpt>
      <trkpt lat="48.86466" lon="2.2963">
        <ele>83.4</ele>
        <time>2013-09-23T19:59:21.015Z</time>
      </trkpt>
      <trkpt lat="48.86465" lon="2.29621">
        <ele>84.2</ele>
        <time>2013-09-23T19:59:23.097Z</time>
      </trkpt>
      <trkpt lat="48.86465" lon="2.29615">
        <ele>84.4</ele>
        <time>2013-09-23T19:59:24.152Z</time>
      </trkpt>
      <trkpt lat="48.86465" lon="2.29605">
        <ele>86</ele>
        <time>2013-09-23T19:59:26.135Z</time>
      </trkpt>
      <trkpt lat="48.86464" lon="2.296">
        <ele>85.5</ele>
        <time>2013-09-23T19:59:27.003Z</time>
      </trkpt>
      <trkpt lat="48.86463" lon="2.29591">
        <ele>86.2</ele>
        <time>2013-09-23T19:59:28.995Z</time>
      </trkpt>
      <trkpt lat="48.86463" lon="2.29586">
        <ele>86.6</ele>
        <time>2013-09-23T19:59:30.131Z</time>
      </trkpt>
      <trkpt lat="48.86462" lon="2.29573">
        <ele>87</ele>
        <time>2013-09-23T19:59:33.209Z</time>
      </trkpt>
      <trkpt lat="48.86461" lon="2.29569">
        <ele>88.6</ele>
        <time>2013-09-23T19:59:34.010Z</time>
      </trkpt>
      <trkpt lat="48.86462" lon="2.2956">
        <ele>89</ele>
        <time>2013-09-23T19:59:35.994Z</time>
      </trkpt>
      <trkpt lat="48.86462" lon="2.29555">
        <ele>88.6</ele>
        <time>2013-09-23T19:59:37.180Z</time>
      </trkpt>
      <trkpt lat="48.86462" lon="2.29542">
        <ele>89</ele>
        <time>2013-09-23T19:59:39.984Z</time>
      </trkpt>
      <trkpt lat="48.86462" lon="2.29538">
        <ele>89.9</ele>
        <time>2013-09-23T19:59:40.991Z</time>
      </trkpt>
      <trkpt lat="48.86461" lon="2.29525">
        <ele>89.6</ele>
        <time>2013-09-23T19:59:44.012Z</time>
      </trkpt>
      <trkpt lat="48.86461" lon="2.2952">
        <ele>88.1</ele>
        <time>2013-09-23T19:59:44.985Z</time>
      </trkpt>
      <trkpt lat="48.86461" lon="2.29508">
        <ele>89.2</ele>
        <time>2013-09-23T19:59:48.067Z</time>
      </trkpt>
      <trkpt lat="48.86462" lon="2.29504">
        <ele>89.1</ele>
        <time>2013-09-23T19:59:48.985Z</time>
      </trkpt>
      <trkpt lat="48.86462" lon="2.29494">
        <ele>86.8</ele>
        <time>2013-09-23T19:59:51.987Z</time>
      </trkpt>
      <trkpt lat="48.86462" lon="2.2949">
        <ele>85.2</ele>
        <time>2013-09-23T19:59:52.995Z</time>
      </trkpt>
      <trkpt lat="48.86461" lon="2.2948">
        <ele>84.5</ele>
        <time>2013-09-23T19:59:54.988Z</time>
      </trkpt>
      <trkpt lat="48.86461" lon="2.29475">
        <ele>83.5</ele>
        <time>2013-09-23T19:59:55.988Z</time>
      </trkpt>
      <trkpt lat="48.8646" lon="2.29465">
        <ele>82.6</ele>
        <time>2013-09-23T19:59:57.986Z</time>
      </trkpt>
      <trkpt lat="48.8646" lon="2.2946">
        <ele>82.2</ele>
        <time>2013-09-23T19:59:58.986Z</time>
      </trkpt>
      <trkpt lat="48.86458" lon="2.29448">
        <ele>82.2</ele>
        <time>2013-09-23T20:00:02.046Z</time>
      </trkpt>
      <trkpt lat="48.86459" lon="2.29445">
        <ele>82.3</ele>
        <time>2013-09-23T20:00:03.008Z</time>
      </trkpt>
      <trkpt lat="48.8646" lon="2.29435">
        <ele>80.5</ele>
        <time>2013-09-23T20:00:05.989Z</time>
      </trkpt>
      <trkpt lat="48.86459" lon="2.29431">
        <ele>80.3</ele>
        <time>2013-09-23T20:00:07.001Z</time>
      </trkpt>
      <trkpt lat="48.86454" lon="2.29421">
        <ele>79.9</ele>
        <time>2013-09-23T20:00:09.990Z</time>
      </trkpt>
      <trkpt lat="48.86452" lon="2.29417">
        <ele>79.6</ele>
        <time>2013-09-23T20:00:11.005Z</time>
      </trkpt>
      <trkpt lat="48.86448" lon="2.2941">
        <ele>80.1</ele>
        <time>2013-09-23T20:00:12.991Z</time>
      </trkpt>
      <trkpt lat="48.86446" lon="2.29407">
        <ele>79.8</ele>
        <time>2013-09-23T20:00:13.995Z</time>
      </trkpt>
      <trkpt lat="48.8644" lon="2.29397">
        <ele>77.1</ele>
        <time>2013-09-23T20:00:17.995Z</time>
      </trkpt>
      <trkpt lat="48.86439" lon="2.29395">
        <ele>76.2</ele>
        <time>2013-09-23T20:00:18.998Z</time>
      </trkpt>
      <trkpt lat="48.86433" lon="2.29384">
        <ele>73.5</ele>
        <time>2013-09-23T20:00:22.995Z</time>
      </trkpt>
      <trkpt lat="48.86432" lon="2.29382">
        <ele>74.1</ele>
        <time>2013-09-23T20:00:23.989Z</time>
      </trkpt>
      <trkpt lat="48.86424" lon="2.29379">
        <ele>75</ele>
        <time>2013-09-23T20:00:27.998Z</time>
      </trkpt>
      <trkpt lat="48.86423" lon="2.29379">
        <ele>75.6</ele>
        <time>2013-09-23T20:00:29.004Z</time>
      </trkpt>
      <trkpt lat="48.86416" lon="2.29371">
        <ele>77.1</ele>
        <time>2013-09-23T20:00:35.207Z</time>
      </trkpt>
      <trkpt lat="48.86414" lon="2.29369">
        <ele>75.5</ele>
        <time>2013-09-23T20:00:36.085Z</time>
      </trkpt>
      <trkpt lat="48.8641" lon="2.29358">
        <ele>78.6</ele>
        <time>2013-09-23T20:00:40.000Z</time>
      </trkpt>
      <trkpt lat="48.8641" lon="2.29355">
        <ele>80.4</ele>
        <time>2013-09-23T20:00:41.184Z</time>
      </trkpt>
      <trkpt lat="48.86413" lon="2.29343">
        <ele>85.1</ele>
        <time>2013-09-23T20:00:45.097Z</time>
      </trkpt>
      <trkpt lat="48.86414" lon="2.29338">
        <ele>88.1</ele>
        <time>2013-09-23T20:00:46.748Z</time>
      </trkpt>
      <trkpt lat="48.86415" lon="2.29328">
        <ele>92.8</ele>
        <time>2013-09-23T20:00:49.017Z</time>
      </trkpt>
      <trkpt lat="48.86416" lon="2.29324">
        <ele>95.3</ele>
        <time>2013-09-23T20:00:50.169Z</time>
      </trkpt>
      <trkpt lat="48.86418" lon="2.29313">
        <ele>99.4</ele>
        <time>2013-09-23T20:00:53.089Z</time>
      </trkpt>
      <trkpt lat="48.86417" lon="2.2931">
        <ele>100.4</ele>
        <time>2013-09-23T20:00:54.002Z</time>
      </trkpt>
      <trkpt lat="48.86416" lon="2.293">
        <ele>105.8</ele>
        <time>2013-09-23T20:00:57.113Z</time>
      </trkpt>
      <trkpt lat="48.86415" lon="2.29295">
        <ele>106.3</ele>
        <time>2013-09-23T20:00:58.066Z</time>
      </trkpt>
      <trkpt lat="48.86414" lon="2.29285">
        <ele>109.6</ele>
        <time>2013-09-23T20:00:59.995Z</time>
      </trkpt>
      <trkpt lat="48.86412" lon="2.29279">
        <ele>110.1</ele>
        <time>2013-09-23T20:01:01.169Z</time>
      </trkpt>
      <trkpt lat="48.8641" lon="2.29267">
        <ele>110.5</ele>
        <time>2013-09-23T20:01:04.226Z</time>
      </trkpt>
      <trkpt lat="48.86411" lon="2.29262">
        <ele>109.5</ele>
        <time>2013-09-23T20:01:05.033Z</time>
      </trkpt>
      <trkpt lat="48.86413" lon="2.29252">
        <ele>107.1</ele>
        <time>2013-09-23T20:01:07.009Z</time>
      </trkpt>
      <trkpt lat="48.86414" lon="2.29247">
        <ele>106</ele>
        <time>2013-09-23T20:01:08.001Z</time>
      </trkpt>
      <trkpt lat="48.86413" lon="2.29238">
        <ele>103.9</ele>
        <time>2013-09-23T20:01:10.009Z</time>
      </trkpt>
      <trkpt lat="48.86411" lon="2.29234">
        <ele>103.9</ele>
        <time>2013-09-23T20:01:11.016Z</time>
      </trkpt>
      <trkpt lat="48.86407" lon="2.29225">
        <ele>102.5</ele>
        <time>2013-09-23T20:01:12.999Z</time>
      </trkpt>
      <trkpt lat="48.86406" lon="2.29221">
        <ele>102.1</ele>
        <time>2013-09-23T20:01:14.001Z</time>
      </trkpt>
      <trkpt lat="48.86405" lon="2.29211">
        <ele>101</ele>
        <time>2013-09-23T20:01:16.002Z</time>
      </trkpt>
      <trkpt lat="48.86406" lon="2.29206">
        <ele>100.5</ele>
        <time>2013-09-23T20:01:17.014Z</time>
      </trkpt>
      <trkpt lat="48.86405" lon="2.29195">
        <ele>94.9</ele>
        <time>2013-09-23T20:01:19.010Z</time>
      </trkpt>
      <trkpt lat="48.86404" lon="2.2919">
        <ele>94.2</ele>
        <time>2013-09-23T20:01:19.998Z</time>
      </trkpt>
      <trkpt lat="48.864" lon="2.29178">
        <ele>95.6</ele>
        <time>2013-09-23T20:01:22.003Z</time>
      </trkpt>
      <trkpt lat="48.86397" lon="2.29173">
        <ele>95.8</ele>
        <time>2013-09-23T20:01:23.008Z</time>
      </trkpt>
      <trkpt lat="48.86393" lon="2.29162">
        <ele>97.4</ele>
        <time>2013-09-23T20:01:25.013Z</time>
      </trkpt>
      <trkpt lat="48.86392" lon="2.29156">
        <ele>97.6</ele>
        <time>2013-09-23T20:01:25.994Z</time>
      </trkpt>
      <trkpt lat="48.8639" lon="2.29146">
        <ele>97.4</ele>
        <time>2013-09-23T20:01:28.015Z</time>
      </trkpt>
      <trkpt lat="48.86389" lon="2.29141">
        <ele>97</ele>
        <time>2013-09-23T20:01:29.187Z</time>
      </trkpt>
      <trkpt lat="48.86386" lon="2.29131">
        <ele>96</ele>
        <time>2013-09-23T20:01:31.165Z</time>
      </trkpt>
      <trkpt lat="48.86384" lon="2.29126">
        <ele>95.5</ele>
        <time>2013-09-23T20:01:32.187Z</time>
      </trkpt>
      <trkpt lat="48.86381" lon="2.29116">
        <ele>93.6</ele>
        <time>2013-09-23T20:01:34.203Z</time>
      </trkpt>
      <trkpt lat="48.8638" lon="2.29112">
        <ele>93</ele>
        <time>2013-09-23T20:01:35.030Z</time>
      </trkpt>
      <trkpt lat="48.86377" lon="2.291">
        <ele>93.4</ele>
        <time>2013-09-23T20:01:38.187Z</time>
      </trkpt>
      <trkpt lat="48.86376" lon="2.29098">
        <ele>92.1</ele>
        <time>2013-09-23T20:01:39.024Z</time>
      </trkpt>
      <trkpt lat="48.86374" lon="2.29086">
        <ele>96.7</ele>
        <time>2013-09-23T20:01:48.010Z</time>
      </trkpt>
      <trkpt lat="48.86373" lon="2.29084">
        <ele>96.9</ele>
        <time>2013-09-23T20:01:49.110Z</time>
      </trkpt>
      <trkpt lat="48.8637" lon="2.29074">
        <ele>97.9</ele>
        <time>2013-09-23T20:01:52.188Z</time>
      </trkpt>
      <trkpt lat="48.86369" lon="2.29071">
        <ele>98</ele>
        <time>2013-09-23T20:01:53.023Z</time>
      </trkpt>
      <trkpt lat="48.86366" lon="2.29059">
        <ele>99.4</ele>
        <time>2013-09-23T20:01:57.004Z</time>
      </trkpt>
      <trkpt lat="48.86365" lon="2.29056">
        <ele>99.6</ele>
        <time>2013-09-23T20:01:58.007Z</time>
      </trkpt>
      <trkpt lat="48.86362" lon="2.29046">
        <ele>99.4</ele>
        <time>2013-09-23T20:02:01.013Z</time>
      </trkpt>
      <trkpt lat="48.86361" lon="2.29041">
        <ele>100.6</ele>
        <time>2013-09-23T20:02:01.994Z</time>
      </trkpt>
      <trkpt lat="48.86358" lon="2.29032">
        <ele>102.4</ele>
        <time>2013-09-23T20:02:03.997Z</time>
      </trkpt>
      <trkpt lat="48.86356" lon="2.29027">
        <ele>103.9</ele>
        <time>2013-09-23T20:02:04.999Z</time>
      </trkpt>
      <trkpt lat="48.86351" lon="2.29019">
        <ele>105.1</ele>
        <time>2013-09-23T20:02:07.036Z</time>
      </trkpt>
      <trkpt lat="48.86349" lon="2.29015">
        <ele>105.5</ele>
        <time>2013-09-23T20:02:07.998Z</time>
      </trkpt>
      <trkpt lat="48.86345" lon="2.29005">
        <ele>106.1</ele>
        <time>2013-09-23T20:02:10.015Z</time>
      </trkpt>
      <trkpt lat="48.86344" lon="2.29">
        <ele>106.9</ele>
        <time>2013-09-23T20:02:11.005Z</time>
      </trkpt>
      <trkpt lat="48.86341" lon="2.2899">
        <ele>106.6</ele>
        <time>2013-09-23T20:02:12.999Z</time>
      </trkpt>
      <trkpt lat="48.86341" lon="2.28985">
        <ele>108.4</ele>
        <time>2013-09-23T20:02:13.999Z</time>
      </trkpt>
      <trkpt lat="48.8634" lon="2.28975">
        <ele>108.8</ele>
        <time>2013-09-23T20:02:16.005Z</time>
      </trkpt>
      <trkpt lat="48.86339" lon="2.28971">
        <ele>108.4</ele>
        <time>2013-09-23T20:02:17.027Z</time>
      </trkpt>
      <trkpt lat="48.86337" lon="2.28962">
        <ele>107.6</ele>
        <time>2013-09-23T20:02:18.997Z</time>
      </trkpt>
      <trkpt lat="48.86336" lon="2.28958">
        <ele>107.9</ele>
        <time>2013-09-23T20:02:19.999Z</time>
      </trkpt>
      <trkpt lat="48.86332" lon="2.28949">
        <ele>107.8</ele>
        <time>2013-09-23T20:02:21.999Z</time>
      </trkpt>
      <trkpt lat="48.8633" lon="2.28945">
        <ele>108.4</ele>
        <time>2013-09-23T20:02:23.014Z</time>
      </trkpt>
      <trkpt lat="48.86326" lon="2.28937">
        <ele>108.7</ele>
        <time>2013-09-23T20:02:25.000Z</time>
      </trkpt>
      <trkpt lat="48.86324" lon="2.28933">
        <ele>108.1</ele>
        <time>2013-09-23T20:02:26.001Z</time>
      </trkpt>
      <trkpt lat="48.86321" lon="2.28925">
        <ele>109.6</ele>
        <time>2013-09-23T20:02:28.049Z</time>
      </trkpt>
      <trkpt lat="48.8632" lon="2.2892">
        <ele>109.4</ele>
        <time>2013-09-23T20:02:29.008Z</time>
      </trkpt>
      <trkpt lat="48.86318" lon="2.28909">
        <ele>107.9</ele>
        <time>2013-09-23T20:02:31.009Z</time>
      </trkpt>
      <trkpt lat="48.86317" lon="2.28904">
        <ele>107.5</ele>
        <time>2013-09-23T20:02:32.001Z</time>
      </trkpt>
      <trkpt lat="48.86314" lon="2.28895">
        <ele>107.1</ele>
        <time>2013-09-23T20:02:34.009Z</time>
      </trkpt>
      <trkpt lat="48.86313" lon="2.2889">
        <ele>107.7</ele>
        <time>2013-09-23T20:02:35.187Z</time>
      </trkpt>
      <trkpt lat="48.8631" lon="2.28877">
        <ele>106.5</ele>
        <time>2013-09-23T20:02:38.201Z</time>
      </trkpt>
      <trkpt lat="48.86309" lon="2.28873">
        <ele>106</ele>
        <time>2013-09-23T20:02:39.042Z</time>
      </trkpt>
      <trkpt lat="48.86303" lon="2.28863">
        <ele>106</ele>
        <time>2013-09-23T20:02:42.201Z</time>
      </trkpt>
      <trkpt lat="48.86302" lon="2.2886">
        <ele>106.8</ele>
        <time>2013-09-23T20:02:43.055Z</time>
      </trkpt>
      <trkpt lat="48.863" lon="2.28848">
        <ele>106.9</ele>
        <time>2013-09-23T20:02:46.073Z</time>
      </trkpt>
      <trkpt lat="48.86298" lon="2.28845">
        <ele>105.8</ele>
        <time>2013-09-23T20:02:47.211Z</time>
      </trkpt>
      <trkpt lat="48.86295" lon="2.28835">
        <ele>106.8</ele>
        <time>2013-09-23T20:02:50.009Z</time>
      </trkpt>
      <trkpt lat="48.86293" lon="2.28832">
        <ele>106.1</ele>
        <time>2013-09-23T20:02:51.145Z</time>
      </trkpt>
      <trkpt lat="48.86287" lon="2.28824">
        <ele>105.8</ele>
        <time>2013-09-23T20:02:54.199Z</time>
      </trkpt>
      <trkpt lat="48.86285" lon="2.28822">
        <ele>105.1</ele>
        <time>2013-09-23T20:02:55.057Z</time>
      </trkpt>
      <trkpt lat="48.86279" lon="2.28811">
        <ele>105.2</ele>
        <time>2013-09-23T20:02:59.024Z</time>
      </trkpt>
      <trkpt lat="48.86278" lon="2.28809">
        <ele>105.7</ele>
        <time>2013-09-23T20:03:00.128Z</time>
      </trkpt>
      <trkpt lat="48.86271" lon="2.28801">
        <ele>105.1</ele>
        <time>2013-09-23T20:03:08.114Z</time>
      </trkpt>
      <trkpt lat="48.8627" lon="2.288">
        <ele>104.5</ele>
        <time>2013-09-23T20:03:09.115Z</time>
      </trkpt>
      <trkpt lat="48.86263" lon="2.28792">
        <ele>106.9</ele>
        <time>2013-09-23T20:03:22.027Z</time>
      </trkpt>
      <trkpt lat="48.86262" lon="2.28791">
        <ele>106.9</ele>
        <time>2013-09-23T20:03:23.183Z</time>
      </trkpt>
      <trkpt lat="48.86253" lon="2.28795">
        <ele>108</ele>
        <time>2013-09-23T20:03:32.167Z</time>
      </trkpt>
      <trkpt lat="48.86253" lon="2.28796">
        <ele>108.8</ele>
        <time>2013-09-23T20:03:33.176Z</time>
      </trkpt>
      <trkpt lat="48.86248" lon="2.28805">
        <ele>107.1</ele>
        <time>2013-09-23T20:03:38.074Z</time>
      </trkpt>
      <trkpt lat="48.86247" lon="2.28807">
        <ele>107.3</ele>
        <time>2013-09-23T20:03:39.199Z</time>
      </trkpt>
      <trkpt lat="48.86241" lon="2.28816">
        <ele>106.5</ele>
        <time>2013-09-23T20:03:48.158Z</time>
      </trkpt>
      <trkpt lat="48.8624" lon="2.28818">
        <ele>105.9</ele>
        <time>2013-09-23T20:03:49.216Z</time>
      </trkpt>
      <trkpt lat="48.86235" lon="2.28827">
        <ele>107.1</ele>
        <time>2013-09-23T20:03:56.088Z</time>
      </trkpt>
      <trkpt lat="48.86234" lon="2.28828">
        <ele>107</ele>
        <time>2013-09-23T20:03:57.141Z</time>
      </trkpt>
      <trkpt lat="48.86232" lon="2.2883">
        <ele>105.6</ele>
        <time>2013-09-23T20:04:01.016Z</time>
      </trkpt>
      <trkpt lat="48.86232" lon="2.2883">
        <ele>105.5</ele>
        <time>2013-09-23T20:04:02.254Z</time>
      </trkpt>
      <trkpt lat="48.8623" lon="2.28829">
        <ele>106.4</ele>
        <time>2013-09-23T20:04:48.275Z</time>
      </trkpt>
      <trkpt lat="48.8623" lon="2.28829">
        <ele>106.4</ele>
        <time>2013-09-23T20:04:49.018Z</time>
      </trkpt>
      <trkpt lat="48.8623" lon="2.28829">
        <ele>106.4</ele>
        <time>2013-09-23T20:04:50.241Z</time>
      </trkpt>
      <trkpt lat="48.86229" lon="2.28829">
        <ele>106.4</ele>
        <time>2013-09-23T20:04:51.025Z</time>
      </trkpt>
      <trkpt lat="48.86229" lon="2.28829">
        <ele>106.7</ele>
        <time>2013-09-23T20:05:02.263Z</time>
      </trkpt>
      <trkpt lat="48.86229" lon="2.28829">
        <ele>106.2</ele>
        <time>2013-09-23T20:05:03.149Z</time>
      </trkpt>
      <trkpt lat="48.86228" lon="2.28828">
        <ele>105.4</ele>
        <time>2013-09-23T20:05:07.033Z</time>
      </trkpt>
      <trkpt lat="48.86228" lon="2.28828">
        <ele>105</ele>
        <time>2013-09-23T20:05:08.231Z</time>
      </trkpt>
      <trkpt lat="48.86227" lon="2.28828">
        <ele>106.9</ele>
        <time>2013-09-23T20:05:12.047Z</time>
      </trkpt>
      <trkpt lat="48.86227" lon="2.28827">
        <ele>106.8</ele>
        <time>2013-09-23T20:05:13.240Z</time>
      </trkpt>
      <trkpt lat="48.86227" lon="2.28825">
        <ele>105.3</ele>
        <time>2013-09-23T20:05:17.145Z</time>
      </trkpt>
      <trkpt lat="48.86227" lon="2.28825">
        <ele>105.4</ele>
        <time>2013-09-23T20:05:18.261Z</time>
      </trkpt>
      <trkpt lat="48.86227" lon="2.28825">
        <ele>103.7</ele>
        <time>2013-09-23T20:05:22.250Z</time>
      </trkpt>
      <trkpt lat="48.86227" lon="2.28825">
        <ele>100</ele>
        <time>2013-09-23T20:05:23.024Z</time>
      </trkpt>
      <trkpt lat="48.86228" lon="2.28826">
        <ele>99.1</ele>
        <time>2013-09-23T20:05:24.194Z</time>
      </trkpt>
      <trkpt lat="48.86228" lon="2.28826">
        <ele>97.8</ele>
        <time>2013-09-23T20:05:29.720Z</time>
      </trkpt>
      <trkpt lat="48.86228" lon="2.28826">
        <ele>97.6</ele>
        <time>2013-09-23T20:05:29.994Z</time>
      </trkpt>
      <trkpt lat="48.8623" lon="2.28829">
        <ele>97.7</ele>
        <time>2013-09-23T20:05:36.202Z</time>
      </trkpt>
      <trkpt lat="48.8623" lon="2.28829">
        <ele>97.1</ele>
        <time>2013-09-23T20:05:36.945Z</time>
      </trkpt>
      <trkpt lat="48.8623" lon="2.28828">
        <ele>97.3</ele>
        <time>2013-09-23T20:05:47.107Z</time>
      </trkpt>
      <trkpt lat="48.8623" lon="2.28827">
        <ele>97.1</ele>
        <time>2013-09-23T20:05:48.113Z</time>
      </trkpt>
      <trkpt lat="48.86236" lon="2.28817">
        <ele>96.6</ele>
        <time>2013-09-23T20:05:54.927Z</time>
      </trkpt>
      <trkpt lat="48.86236" lon="2.28816">
        <ele>95.7</ele>
        <time>2013-09-23T20:05:56.071Z</time>
      </trkpt>
      <trkpt lat="48.86238" lon="2.28813">
        <ele>96</ele>
        <time>2013-09-23T20:06:01.939Z</time>
      </trkpt>
      <trkpt lat="48.86238" lon="2.28813">
        <ele>96.1</ele>
        <time>2013-09-23T20:06:03.106Z</time>
      </trkpt>
      <trkpt lat="48.86238" lon="2.28815">
        <ele>97.1</ele>
        <time>2013-09-23T20:06:15.972Z</time>
      </trkpt>
      <trkpt lat="48.86238" lon="2.28816">
        <ele>97.3</ele>
        <time>2013-09-23T20:06:17.200Z</time>
      </trkpt>
      <trkpt lat="48.86234" lon="2.28824">
        <ele>99.3</ele>
        <time>2013-09-23T20:06:24.941Z</time>
      </trkpt>
      <trkpt lat="48.86233" lon="2.28827">
        <ele>98.4</ele>
        <time>2013-09-23T20:06:26.157Z</time>
      </trkpt>
      <trkpt lat="48.86229" lon="2.28839">
        <ele>96.5</ele>
        <time>2013-09-23T20:06:35.112Z</time>
      </trkpt>
      <trkpt lat="48.86229" lon="2.28839">
        <ele>96.5</ele>
        <time>2013-09-23T20:06:35.948Z</time>
      </trkpt>
      <trkpt lat="48.86229" lon="2.28839">
        <ele>96.4</ele>
        <time>2013-09-23T20:06:46.025Z</time>
      </trkpt>
      <trkpt lat="48.86229" lon="2.2884">
        <ele>96.5</ele>
        <time>2013-09-23T20:06:47.134Z</time>
      </trkpt>
      <trkpt lat="48.86223" lon="2.28849">
        <ele>98.5</ele>
        <time>2013-09-23T20:06:55.006Z</time>
      </trkpt>
      <trkpt lat="48.86222" lon="2.2885">
        <ele>98</ele>
        <time>2013-09-23T20:06:56.192Z</time>
      </trkpt>
      <trkpt lat="48.86225" lon="2.28861">
        <ele>95.2</ele>
        <time>2013-09-23T20:07:05.969Z</time>
      </trkpt>
      <trkpt lat="48.86226" lon="2.28863">
        <ele>95.2</ele>
        <time>2013-09-23T20:07:07.132Z</time>
      </trkpt>
      <trkpt lat="48.86232" lon="2.2887">
        <ele>94.5</ele>
        <time>2013-09-23T20:07:14.171Z</time>
      </trkpt>
      <trkpt lat="48.86231" lon="2.2887">
        <ele>94</ele>
        <time>2013-09-23T20:07:14.945Z</time>
      </trkpt>
      <trkpt lat="48.86232" lon="2.28869">
        <ele>93.7</ele>
        <time>2013-09-23T20:07:19.172Z</time>
      </trkpt>
      <trkpt lat="48.86232" lon="2.28869">
        <ele>93.6</ele>
        <time>2013-09-23T20:07:19.977Z</time>
      </trkpt>
      <trkpt lat="48.86237" lon="2.28878">
        <ele>95.7</ele>
        <time>2013-09-23T20:07:29.939Z</time>
      </trkpt>
      <trkpt lat="48.86239" lon="2.28882">
        <ele>96.6</ele>
        <time>2013-09-23T20:07:30.948Z</time>
      </trkpt>
      <trkpt lat="48.8624" lon="2.28894">
        <ele>98</ele>
        <time>2013-09-23T20:07:35.114Z</time>
      </trkpt>
      <trkpt lat="48.86241" lon="2.28896">
        <ele>99</ele>
        <time>2013-09-23T20:07:35.963Z</time>
      </trkpt>
      <trkpt lat="48.86246" lon="2.28896">
        <ele>104.3</ele>
        <time>2013-09-23T20:07:44.939Z</time>
      </trkpt>
      <trkpt lat="48.86246" lon="2.28896">
        <ele>104.3</ele>
        <time>2013-09-23T20:07:45.940Z</time>
      </trkpt>
      <trkpt lat="48.86246" lon="2.28897">
        <ele>105.5</ele>
        <time>2013-09-23T20:07:58.952Z</time>
      </trkpt>
      <trkpt lat="48.86245" lon="2.28898">
        <ele>106</ele>
        <time>2013-09-23T20:07:59.940Z</time>
      </trkpt>
      <trkpt lat="48.86245" lon="2.28898">
        <ele>105.9</ele>
        <time>2013-09-23T20:08:01.950Z</time>
      </trkpt>
      <trkpt lat="48.86245" lon="2.28898">
        <ele>105.6</ele>
        <time>2013-09-23T20:08:02.956Z</time>
      </trkpt>
      <trkpt lat="48.86245" lon="2.28899">
        <ele>105.6</ele>
        <time>2013-09-23T20:08:06.061Z</time>
      </trkpt>
      <trkpt lat="48.86244" lon="2.28899">
        <ele>104.9</ele>
        <time>2013-09-23T20:08:07.101Z</time>
      </trkpt>
      <trkpt lat="48.86236" lon="2.28906">
        <ele>101.1</ele>
        <time>2013-09-23T20:08:20.135Z</time>
      </trkpt>
      <trkpt lat="48.86236" lon="2.28906">
        <ele>100.1</ele>
        <time>2013-09-23T20:08:20.953Z</time>
      </trkpt>
      <trkpt lat="48.86232" lon="2.28917">
        <ele>90.2</ele>
        <time>2013-09-23T20:08:33.003Z</time>
      </trkpt>
      <trkpt lat="48.86231" lon="2.2892">
        <ele>90.2</ele>
        <time>2013-09-23T20:08:34.103Z</time>
      </trkpt>
      <trkpt lat="48.86232" lon="2.28928">
        <ele>90</ele>
        <time>2013-09-23T20:08:41.953Z</time>
      </trkpt>
      <trkpt lat="48.86232" lon="2.28928">
        <ele>89.1</ele>
        <time>2013-09-23T20:08:43.149Z</time>
      </trkpt>
      <trkpt lat="48.86232" lon="2.28929">
        <ele>89.1</ele>
        <time>2013-09-23T20:08:46.041Z</time>
      </trkpt>
      <trkpt lat="48.86232" lon="2.2893">
        <ele>89</ele>
        <time>2013-09-23T20:08:47.048Z</time>
      </trkpt>
      <trkpt lat="48.86234" lon="2.28942">
        <ele>95.1</ele>
        <time>2013-09-23T20:08:57.143Z</time>
      </trkpt>
      <trkpt lat="48.86233" lon="2.28944">
        <ele>95.5</ele>
        <time>2013-09-23T20:08:57.966Z</time>
      </trkpt>
      <trkpt lat="48.86229" lon="2.28954">
        <ele>95.5</ele>
        <time>2013-09-23T20:09:02.061Z</time>
      </trkpt>
      <trkpt lat="48.86227" lon="2.28957">
        <ele>95.6</ele>
        <time>2013-09-23T20:09:03.057Z</time>
      </trkpt>
      <trkpt lat="48.86221" lon="2.28966">
        <ele>94.6</ele>
        <time>2013-09-23T20:09:06.136Z</time>
      </trkpt>
      <trkpt lat="48.86219" lon="2.28969">
        <ele>94.1</ele>
        <time>2013-09-23T20:09:06.953Z</time>
      </trkpt>
      <trkpt lat="48.86216" lon="2.28981">
        <ele>91.2</ele>
        <time>2013-09-23T20:09:10.074Z</time>
      </trkpt>
      <trkpt lat="48.86215" lon="2.28985">
        <ele>90.5</ele>
        <time>2013-09-23T20:09:11.155Z</time>
      </trkpt>
      <trkpt lat="48.86212" lon="2.28995">
        <ele>90.2</ele>
        <time>2013-09-23T20:09:13.971Z</time>
      </trkpt>
      <trkpt lat="48.86211" lon="2.29">
        <ele>91.1</ele>
        <time>2013-09-23T20:09:15.193Z</time>
      </trkpt>
      <trkpt lat="48.86206" lon="2.29011">
        <ele>89.4</ele>
        <time>2013-09-23T20:09:18.033Z</time>
      </trkpt>
      <trkpt lat="48.86204" lon="2.29015">
        <ele>88.9</ele>
        <time>2013-09-23T20:09:19.046Z</time>
      </trkpt>
      <trkpt lat="48.862" lon="2.29021">
        <ele>88</ele>
        <time>2013-09-23T20:09:21.017Z</time>
      </trkpt>
      <trkpt lat="48.86197" lon="2.29025">
        <ele>88.2</ele>
        <time>2013-09-23T20:09:22.207Z</time>
      </trkpt>
      <trkpt lat="48.86192" lon="2.29032">
        <ele>87.1</ele>
        <time>2013-09-23T20:09:24.165Z</time>
      </trkpt>
      <trkpt lat="48.8619" lon="2.29035">
        <ele>86.8</ele>
        <time>2013-09-23T20:09:24.963Z</time>
      </trkpt>
      <trkpt lat="48.86184" lon="2.29043">
        <ele>86.3</ele>
        <time>2013-09-23T20:09:27.161Z</time>
      </trkpt>
      <trkpt lat="48.86181" lon="2.29047">
        <ele>86.7</ele>
        <time>2013-09-23T20:09:28.025Z</time>
      </trkpt>
      <trkpt lat="48.86175" lon="2.29054">
        <ele>85.4</ele>
        <time>2013-09-23T20:09:29.977Z</time>
      </trkpt>
      <trkpt lat="48.86172" lon="2.29058">
        <ele>83.9</ele>
        <time>2013-09-23T20:09:31.139Z</time>
      </trkpt>
      <trkpt lat="48.86167" lon="2.29066">
        <ele>84</ele>
        <time>2013-09-23T20:09:33.170Z</time>
      </trkpt>
      <trkpt lat="48.86164" lon="2.2907">
        <ele>83.5</ele>
        <time>2013-09-23T20:09:34.055Z</time>
      </trkpt>
      <trkpt lat="48.8616" lon="2.29077">
        <ele>81.9</ele>
        <time>2013-09-23T20:09:35.952Z</time>
      </trkpt>
      <trkpt lat="48.86158" lon="2.29081">
        <ele>81.5</ele>
        <time>2013-09-23T20:09:36.988Z</time>
      </trkpt>
      <trkpt lat="48.86153" lon="2.29091">
        <ele>80.6</ele>
        <time>2013-09-23T20:09:41.012Z</time>
      </trkpt>
      <trkpt lat="48.86151" lon="2.29094">
        <ele>81.6</ele>
        <time>2013-09-23T20:09:42.105Z</time>
      </trkpt>
      <trkpt lat="48.86145" lon="2.29103">
        <ele>80</ele>
        <time>2013-09-23T20:09:45.174Z</time>
      </trkpt>
      <trkpt lat="48.86144" lon="2.29106">
        <ele>79.6</ele>
        <time>2013-09-23T20:09:45.960Z</time>
      </trkpt>
      <trkpt lat="48.86138" lon="2.29116">
        <ele>80.2</ele>
        <time>2013-09-23T20:09:52.995Z</time>
      </trkpt>
      <trkpt lat="48.86137" lon="2.29117">
        <ele>80.2</ele>
        <time>2013-09-23T20:09:54.129Z</time>
      </trkpt>
      <trkpt lat="48.86137" lon="2.29118">
        <ele>80.7</ele>
        <time>2013-09-23T20:09:59.151Z</time>
      </trkpt>
      <trkpt lat="48.86137" lon="2.29118">
        <ele>80.6</ele>
        <time>2013-09-23T20:10:00.081Z</time>
      </trkpt>
      <trkpt lat="48.86136" lon="2.29118">
        <ele>80.9</ele>
        <time>2013-09-23T20:10:40.993Z</time>
      </trkpt>
      <trkpt lat="48.86136" lon="2.29118">
        <ele>80.8</ele>
        <time>2013-09-23T20:10:42.128Z</time>
      </trkpt>
      <trkpt lat="48.86134" lon="2.29118">
        <ele>79.7</ele>
        <time>2013-09-23T20:10:48.042Z</time>
      </trkpt>
      <trkpt lat="48.86134" lon="2.29118">
        <ele>79.7</ele>
        <time>2013-09-23T20:10:49.105Z</time>
      </trkpt>
      <trkpt lat="48.86133" lon="2.29117">
        <ele>78.7</ele>
        <time>2013-09-23T20:11:14.961Z</time>
      </trkpt>
      <trkpt lat="48.86133" lon="2.29118">
        <ele>77.9</ele>
        <time>2013-09-23T20:11:16.160Z</time>
      </trkpt>
      <trkpt lat="48.86132" lon="2.29118">
        <ele>77.2</ele>
        <time>2013-09-23T20:11:20.034Z</time>
      </trkpt>
      <trkpt lat="48.86132" lon="2.29118">
        <ele>77.3</ele>
        <time>2013-09-23T20:11:20.981Z</time>
      </trkpt>
      <trkpt lat="48.86132" lon="2.2912">
        <ele>75.1</ele>
        <time>2013-09-23T20:11:35.142Z</time>
      </trkpt>
      <trkpt lat="48.86132" lon="2.2912">
        <ele>74.8</ele>
        <time>2013-09-23T20:11:36.031Z</time>
      </trkpt>
      <trkpt lat="48.86132" lon="2.29121">
        <ele>75</ele>
        <time>2013-09-23T20:11:38.046Z</time>
      </trkpt>
      <trkpt lat="48.86132" lon="2.29121">
        <ele>75.3</ele>
        <time>2013-09-23T20:11:39.152Z</time>
      </trkpt>
      <trkpt lat="48.86131" lon="2.29121">
        <ele>75.7</ele>
        <time>2013-09-23T20:11:46.956Z</time>
      </trkpt>
      <trkpt lat="48.86131" lon="2.29121">
        <ele>76.1</ele>
        <time>2013-09-23T20:11:48.213Z</time>
      </trkpt>
      <trkpt lat="48.86129" lon="2.29124">
        <ele>77.1</ele>
        <time>2013-09-23T20:11:58.024Z</time>
      </trkpt>
      <trkpt lat="48.86129" lon="2.29124">
        <ele>77.1</ele>
        <time>2013-09-23T20:11:59.069Z</time>
      </trkpt>
      <trkpt lat="48.86129" lon="2.29125">
        <ele>77.7</ele>
        <time>2013-09-23T20:12:02.140Z</time>
      </trkpt>
      <trkpt lat="48.8613" lon="2.29125">
        <ele>78.1</ele>
        <time>2013-09-23T20:12:02.967Z</time>
      </trkpt>
      <trkpt lat="48.8613" lon="2.29126">
        <ele>78.7</ele>
        <time>2013-09-23T20:12:04.961Z</time>
      </trkpt>
      <trkpt lat="48.8613" lon="2.29126">
        <ele>78.6</ele>
        <time>2013-09-23T20:12:06.112Z</time>
      </trkpt>
      <trkpt lat="48.8613" lon="2.29127">
        <ele>78.7</ele>
        <time>2013-09-23T20:12:09.151Z</time>
      </trkpt>
      <trkpt lat="48.8613" lon="2.29127">
        <ele>79</ele>
        <time>2013-09-23T20:12:09.984Z</time>
      </trkpt>
      <trkpt lat="48.86122" lon="2.2913">
        <ele>78.8</ele>
        <time>2013-09-23T20:12:16.150Z</time>
      </trkpt>
      <trkpt lat="48.8612" lon="2.2913">
        <ele>79.1</ele>
        <time>2013-09-23T20:12:17.016Z</time>
      </trkpt>
      <trkpt lat="48.86116" lon="2.29128">
        <ele>79.5</ele>
        <time>2013-09-23T20:12:22.103Z</time>
      </trkpt>
      <trkpt lat="48.86116" lon="2.29128">
        <ele>80.1</ele>
        <time>2013-09-23T20:12:23.187Z</time>
      </trkpt>
      <trkpt lat="48.86116" lon="2.2913">
        <ele>80.5</ele>
        <time>2013-09-23T20:12:46.048Z</time>
      </trkpt>
      <trkpt lat="48.86116" lon="2.2913">
        <ele>80.7</ele>
        <time>2013-09-23T20:12:47.088Z</time>
      </trkpt>
      <trkpt lat="48.86109" lon="2.29137">
        <ele>80.4</ele>
        <time>2013-09-23T20:12:52.185Z</time>
      </trkpt>
      <trkpt lat="48.86108" lon="2.29138">
        <ele>80.1</ele>
        <time>2013-09-23T20:12:52.972Z</time>
      </trkpt>
      <trkpt lat="48.86101" lon="2.29146">
        <ele>78.6</ele>
        <time>2013-09-23T20:12:58.036Z</time>
      </trkpt>
      <trkpt lat="48.861" lon="2.29148">
        <ele>79.5</ele>
        <time>2013-09-23T20:12:59.187Z</time>
      </trkpt>
      <trkpt lat="48.86094" lon="2.29155">
        <ele>78.9</ele>
        <time>2013-09-23T20:13:03.062Z</time>
      </trkpt>
      <trkpt lat="48.86092" lon="2.29156">
        <ele>78.9</ele>
        <time>2013-09-23T20:13:04.205Z</time>
      </trkpt>
      <trkpt lat="48.86084" lon="2.29159">
        <ele>79.7</ele>
        <time>2013-09-23T20:13:08.982Z</time>
      </trkpt>
      <trkpt lat="48.86082" lon="2.29159">
        <ele>80.6</ele>
        <time>2013-09-23T20:13:10.104Z</time>
      </trkpt>
      <trkpt lat="48.86076" lon="2.29165">
        <ele>80</ele>
        <time>2013-09-23T20:13:15.996Z</time>
      </trkpt>
      <trkpt lat="48.86074" lon="2.29168">
        <ele>80</ele>
        <time>2013-09-23T20:13:17.142Z</time>
      </trkpt>
      <trkpt lat="48.86066" lon="2.29168">
        <ele>78.4</ele>
        <time>2013-09-23T20:13:24.189Z</time>
      </trkpt>
      <trkpt lat="48.86065" lon="2.29166">
        <ele>78.4</ele>
        <time>2013-09-23T20:13:24.989Z</time>
      </trkpt>
      <trkpt lat="48.86059" lon="2.29158">
        <ele>78.1</ele>
        <time>2013-09-23T20:13:28.054Z</time>
      </trkpt>
      <trkpt lat="48.86057" lon="2.29155">
        <ele>78.3</ele>
        <time>2013-09-23T20:13:29.254Z</time>
      </trkpt>
      <trkpt lat="48.86052" lon="2.29149">
        <ele>78.2</ele>
        <time>2013-09-23T20:13:31.974Z</time>
      </trkpt>
      <trkpt lat="48.86049" lon="2.29146">
        <ele>78</ele>
        <time>2013-09-23T20:13:33.143Z</time>
      </trkpt>
      <trkpt lat="48.86042" lon="2.2914">
        <ele>78.3</ele>
        <time>2013-09-23T20:13:37.021Z</time>
      </trkpt>
      <trkpt lat="48.8604" lon="2.29143">
        <ele>78.7</ele>
        <time>2013-09-23T20:13:38.199Z</time>
      </trkpt>
      <trkpt lat="48.86034" lon="2.29154">
        <ele>79.7</ele>
        <time>2013-09-23T20:13:40.970Z</time>
      </trkpt>
      <trkpt lat="48.86032" lon="2.29158">
        <ele>79.6</ele>
        <time>2013-09-23T20:13:42.110Z</time>
      </trkpt>
      <trkpt lat="48.86027" lon="2.29166">
        <ele>79.8</ele>
        <time>2013-09-23T20:13:44.048Z</time>
      </trkpt>
      <trkpt lat="48.86025" lon="2.29171">
        <ele>79.7</ele>
        <time>2013-09-23T20:13:45.192Z</time>
      </trkpt>
      <trkpt lat="48.86021" lon="2.29179">
        <ele>80</ele>
        <time>2013-09-23T20:13:47.199Z</time>
      </trkpt>
      <trkpt lat="48.86019" lon="2.29182">
        <ele>80.5</ele>
        <time>2013-09-23T20:13:48.079Z</time>
      </trkpt>
      <trkpt lat="48.86013" lon="2.29192">
        <ele>80.6</ele>
        <time>2013-09-23T20:13:51.070Z</time>
      </trkpt>
      <trkpt lat="48.86011" lon="2.29196">
        <ele>80.7</ele>
        <time>2013-09-23T20:13:52.201Z</time>
      </trkpt>
      <trkpt lat="48.86005" lon="2.29206">
        <ele>82.3</ele>
        <time>2013-09-23T20:13:54.977Z</time>
      </trkpt>
      <trkpt lat="48.86002" lon="2.2921">
        <ele>81.9</ele>
        <time>2013-09-23T20:13:56.192Z</time>
      </trkpt>
      <trkpt lat="48.85998" lon="2.29216">
        <ele>81.7</ele>
        <time>2013-09-23T20:13:58.137Z</time>
      </trkpt>
      <trkpt lat="48.85995" lon="2.2922">
        <ele>82.1</ele>
        <time>2013-09-23T20:13:59.171Z</time>
      </trkpt>
      <trkpt lat="48.8599" lon="2.29229">
        <ele>82.3</ele>
        <time>2013-09-23T20:14:01.991Z</time>
      </trkpt>
      <trkpt lat="48.85988" lon="2.29233">
        <ele>82.4</ele>
        <time>2013-09-23T20:14:03.024Z</time>
      </trkpt>
      <trkpt lat="48.85982" lon="2.29243">
        <ele>82.7</ele>
        <time>2013-09-23T20:14:05.969Z</time>
      </trkpt>
      <trkpt lat="48.85979" lon="2.29246">
        <ele>82.5</ele>
        <time>2013-09-23T20:14:06.968Z</time>
      </trkpt>
      <trkpt lat="48.85975" lon="2.29253">
        <ele>82.1</ele>
        <time>2013-09-23T20:14:08.978Z</time>
      </trkpt>
      <trkpt lat="48.85973" lon="2.29257">
        <ele>82.1</ele>
        <time>2013-09-23T20:14:09.976Z</time>
      </trkpt>
      <trkpt lat="48.85969" lon="2.29265">
        <ele>82.8</ele>
        <time>2013-09-23T20:14:11.968Z</time>
      </trkpt>
      <trkpt lat="48.85967" lon="2.29269">
        <ele>82.8</ele>
        <time>2013-09-23T20:14:12.976Z</time>
      </trkpt>
      <trkpt lat="48.85961" lon="2.29275">
        <ele>82.6</ele>
        <time>2013-09-23T20:14:15.136Z</time>
      </trkpt>
      <trkpt lat="48.85959" lon="2.29278">
        <ele>82.7</ele>
        <time>2013-09-23T20:14:16.074Z</time>
      </trkpt>
      <trkpt lat="48.85954" lon="2.29287">
        <ele>82.5</ele>
        <time>2013-09-23T20:14:19.988Z</time>
      </trkpt>
      <trkpt lat="48.85953" lon="2.29289">
        <ele>82.5</ele>
        <time>2013-09-23T20:14:21.159Z</time>
      </trkpt>
      <trkpt lat="48.85946" lon="2.29296">
        <ele>82.8</ele>
        <time>2013-09-23T20:14:26.173Z</time>
      </trkpt>
      <trkpt lat="48.85945" lon="2.29298">
        <ele>82.8</ele>
        <time>2013-09-23T20:14:26.977Z</time>
      </trkpt>
      <trkpt lat="48.8594" lon="2.29309">
        <ele>84.4</ele>
        <time>2013-09-23T20:14:32.059Z</time>
      </trkpt>
      <trkpt lat="48.8594" lon="2.29312">
        <ele>83.3</ele>
        <time>2013-09-23T20:14:33.170Z</time>
      </trkpt>
      <trkpt lat="48.85936" lon="2.29324">
        <ele>82.3</ele>
        <time>2013-09-23T20:14:36.979Z</time>
      </trkpt>
      <trkpt lat="48.85935" lon="2.29327">
        <ele>82.2</ele>
        <time>2013-09-23T20:14:38.041Z</time>
      </trkpt>
      <trkpt lat="48.85934" lon="2.29339">
        <ele>80.4</ele>
        <time>2013-09-23T20:14:44.972Z</time>
      </trkpt>
      <trkpt lat="48.85934" lon="2.29341">
        <ele>81.4</ele>
        <time>2013-09-23T20:14:45.978Z</time>
      </trkpt>
      <trkpt lat="48.8593" lon="2.29352">
        <ele>81.7</ele>
        <time>2013-09-23T20:14:50.982Z</time>
      </trkpt>
      <trkpt lat="48.85929" lon="2.29355">
        <ele>81.9</ele>
        <time>2013-09-23T20:14:51.972Z</time>
      </trkpt>
      <trkpt lat="48.85926" lon="2.29364">
        <ele>80</ele>
        <time>2013-09-23T20:14:58.987Z</time>
      </trkpt>
      <trkpt lat="48.85926" lon="2.29364">
        <ele>80.2</ele>
        <time>2013-09-23T20:14:59.980Z</time>
      </trkpt>
      <trkpt lat="48.85926" lon="2.29364">
        <ele>79.4</ele>
        <time>2013-09-23T20:15:02.972Z</time>
      </trkpt>
      <trkpt lat="48.85925" lon="2.29365">
        <ele>79.6</ele>
        <time>2013-09-23T20:15:03.973Z</time>
      </trkpt>
      <trkpt lat="48.85921" lon="2.29376">
        <ele>79.8</ele>
        <time>2013-09-23T20:15:08.983Z</time>
      </trkpt>
      <trkpt lat="48.8592" lon="2.29379">
        <ele>80.2</ele>
        <time>2013-09-23T20:15:09.990Z</time>
      </trkpt>
      <trkpt lat="48.85912" lon="2.29381">
        <ele>80.6</ele>
        <time>2013-09-23T20:15:14.981Z</time>
      </trkpt>
      <trkpt lat="48.8591" lon="2.29381">
        <ele>80.4</ele>
        <time>2013-09-23T20:15:16.195Z</time>
      </trkpt>
      <trkpt lat="48.85902" lon="2.29382">
        <ele>80.8</ele>
        <time>2013-09-23T20:15:23.994Z</time>
      </trkpt>
      <trkpt lat="48.85901" lon="2.29384">
        <ele>80.4</ele>
        <time>2013-09-23T20:15:25.199Z</time>
      </trkpt>
      <trkpt lat="48.85893" lon="2.29384">
        <ele>78.6</ele>
        <time>2013-09-23T20:15:29.042Z</time>
      </trkpt>
      <trkpt lat="48.85891" lon="2.29383">
        <ele>78.4</ele>
        <time>2013-09-23T20:15:30.208Z</time>
      </trkpt>
      <trkpt lat="48.85883" lon="2.29381">
        <ele>78.4</ele>
        <time>2013-09-23T20:15:34.124Z</time>
      </trkpt>
      <trkpt lat="48.8588" lon="2.2938">
        <ele>78</ele>
        <time>2013-09-23T20:15:35.079Z</time>
      </trkpt>
      <trkpt lat="48.85874" lon="2.29383">
        <ele>78.8</ele>
        <time>2013-09-23T20:15:38.023Z</time>
      </trkpt>
      <trkpt lat="48.85871" lon="2.29386">
        <ele>79</ele>
        <time>2013-09-23T20:15:39.194Z</time>
      </trkpt>
      <trkpt lat="48.85866" lon="2.29393">
        <ele>78</ele>
        <time>2013-09-23T20:15:41.183Z</time>
      </trkpt>
      <trkpt lat="48.85864" lon="2.29397">
        <ele>77.2</ele>
        <time>2013-09-23T20:15:41.978Z</time>
      </trkpt>
      <trkpt lat="48.8586" lon="2.29407">
        <ele>76.3</ele>
        <time>2013-09-23T20:15:44.257Z</time>
      </trkpt>
      <trkpt lat="48.85858" lon="2.2941">
        <ele>76</ele>
        <time>2013-09-23T20:15:45.042Z</time>
      </trkpt>
      <trkpt lat="48.85855" lon="2.29418">
        <ele>74.7</ele>
        <time>2013-09-23T20:15:46.983Z</time>
      </trkpt>
      <trkpt lat="48.85854" lon="2.29422">
        <ele>73.9</ele>
        <time>2013-09-23T20:15:48.182Z</time>
      </trkpt>
      <trkpt lat="48.85851" lon="2.29434">
        <ele>74.2</ele>
        <time>2013-09-23T20:15:51.082Z</time>
      </trkpt>
      <trkpt lat="48.85851" lon="2.29438">
        <ele>73.6</ele>
        <time>2013-09-23T20:15:52.082Z</time>
      </trkpt>
      <trkpt lat="48.85852" lon="2.2945">
        <ele>73.1</ele>
        <time>2013-09-23T20:15:55.181Z</time>
      </trkpt>
      <trkpt lat="48.85851" lon="2.29453">
        <ele>71.9</ele>
        <time>2013-09-23T20:15:55.994Z</time>
      </trkpt>
      <trkpt lat="48.85849" lon="2.29464">
        <ele>70.1</ele>
        <time>2013-09-23T20:16:01.051Z</time>
      </trkpt>
      <trkpt lat="48.85848" lon="2.29467">
        <ele>70.5</ele>
        <time>2013-09-23T20:16:02.180Z</time>
      </trkpt>
      <trkpt lat="48.85842" lon="2.29476">
        <ele>68.8</ele>
        <time>2013-09-23T20:16:09.177Z</time>
      </trkpt>
      <trkpt lat="48.85841" lon="2.29477">
        <ele>67.8</ele>
        <time>2013-09-23T20:16:10.004Z</time>
      </trkpt>
      <trkpt lat="48.85833" lon="2.29481">
        <ele>62.5</ele>
        <time>2013-09-23T20:16:15.100Z</time>
      </trkpt>
      <trkpt lat="48.8583" lon="2.29482">
        <ele>64.5</ele>
        <time>2013-09-23T20:16:16.211Z</time>
      </trkpt>
      <trkpt lat="48.85822" lon="2.29485">
        <ele>69.1</ele>
        <time>2013-09-23T20:16:20.191Z</time>
      </trkpt>
      <trkpt lat="48.8582" lon="2.29486">
        <ele>69.5</ele>
        <time>2013-09-23T20:16:21.004Z</time>
      </trkpt>
      <trkpt lat="48.85815" lon="2.29493">
        <ele>73</ele>
        <time>2013-09-23T20:16:24.061Z</time>
      </trkpt>
      <trkpt lat="48.85814" lon="2.29497">
        <ele>73.7</ele>
        <time>2013-09-23T20:16:25.195Z</time>
      </trkpt>
      <trkpt lat="48.85812" lon="2.29508">
        <ele>76.7</ele>
        <time>2013-09-23T20:16:29.165Z</time>
      </trkpt>
      <trkpt lat="48.85812" lon="2.29511">
        <ele>77.1</ele>
        <time>2013-09-23T20:16:30.106Z</time>
      </trkpt>
      <trkpt lat="48.8581" lon="2.29524">
        <ele>82</ele>
        <time>2013-09-23T20:16:36.989Z</time>
      </trkpt>
      <trkpt lat="48.85809" lon="2.29525">
        <ele>82.4</ele>
        <time>2013-09-23T20:16:38.179Z</time>
      </trkpt>
      <trkpt lat="48.85804" lon="2.29535">
        <ele>81.5</ele>
        <time>2013-09-23T20:16:46.104Z</time>
      </trkpt>
      <trkpt lat="48.85804" lon="2.29536">
        <ele>81.8</ele>
        <time>2013-09-23T20:16:47.120Z</time>
      </trkpt>
      <trkpt lat="48.8581" lon="2.29542">
        <ele>84.2</ele>
        <time>2013-09-23T20:16:53.073Z</time>
      </trkpt>
      <trkpt lat="48.85812" lon="2.29544">
        <ele>85.9</ele>
        <time>2013-09-23T20:16:54.150Z</time>
      </trkpt>
      <trkpt lat="48.85816" lon="2.29555">
        <ele>88.9</ele>
        <time>2013-09-23T20:16:57.223Z</time>
      </trkpt>
      <trkpt lat="48.85818" lon="2.29558">
        <ele>89.1</ele>
        <time>2013-09-23T20:16:58.013Z</time>
      </trkpt>
      <trkpt lat="48.85824" lon="2.29565">
        <ele>88.3</ele>
        <time>2013-09-23T20:16:59.982Z</time>
      </trkpt>
      <trkpt lat="48.85827" lon="2.29569">
        <ele>87.6</ele>
        <time>2013-09-23T20:17:01.149Z</time>
      </trkpt>
      <trkpt lat="48.85832" lon="2.29575">
        <ele>86.5</ele>
        <time>2013-09-23T20:17:03.102Z</time>
      </trkpt>
      <trkpt lat="48.85834" lon="2.29579">
        <ele>86.5</ele>
        <time>2013-09-23T20:17:04.231Z</time>
      </trkpt>
      <trkpt lat="48.85838" lon="2.29586">
        <ele>86.4</ele>
        <time>2013-09-23T20:17:06.249Z</time>
      </trkpt>
      <trkpt lat="48.8584" lon="2.29589">
        <ele>85.9</ele>
        <time>2013-09-23T20:17:07.007Z</time>
      </trkpt>
      <trkpt lat="48.85845" lon="2.29597">
        <ele>85.1</ele>
        <time>2013-09-23T20:17:09.001Z</time>
      </trkpt>
      <trkpt lat="48.85848" lon="2.29601">
        <ele>85.4</ele>
        <time>2013-09-23T20:17:10.141Z</time>
      </trkpt>
      <trkpt lat="48.85855" lon="2.29609">
        <ele>84.2</ele>
        <time>2013-09-23T20:17:12.063Z</time>
      </trkpt>
      <trkpt lat="48.85858" lon="2.29614">
        <ele>83.9</ele>
        <time>2013-09-23T20:17:13.200Z</time>
      </trkpt>
      <trkpt lat="48.8586" lon="2.29621">
        <ele>83.5</ele>
        <time>2013-09-23T20:17:13.999Z</time>
      </trkpt>
      <trkpt lat="48.85863" lon="2.29627">
        <ele>83.3</ele>
        <time>2013-09-23T20:17:15.192Z</time>
      </trkpt>
      <trkpt lat="48.85868" lon="2.29635">
        <ele>82.6</ele>
        <time>2013-09-23T20:17:17.159Z</time>
      </trkpt>
      <trkpt lat="48.8587" lon="2.29636">
        <ele>82.1</ele>
        <time>2013-09-23T20:17:18.112Z</time>
      </trkpt>
      <trkpt lat="48.85877" lon="2.29629">
        <ele>83.3</ele>
        <time>2013-09-23T20:17:21.049Z</time>
      </trkpt>
      <trkpt lat="48.85879" lon="2.2963">
        <ele>83.5</ele>
        <time>2013-09-23T20:17:22.208Z</time>
      </trkpt>
      <trkpt lat="48.85883" lon="2.29637">
        <ele>82.2</ele>
        <time>2013-09-23T20:17:24.218Z</time>
      </trkpt>
      <trkpt lat="48.85884" lon="2.29643">
        <ele>81</ele>
        <time>2013-09-23T20:17:24.995Z</time>
      </trkpt>
      <trkpt lat="48.85885" lon="2.29651">
        <ele>79.8</ele>
        <time>2013-09-23T20:17:26.121Z</time>
      </trkpt>
      <trkpt lat="48.85885" lon="2.29658">
        <ele>78.2</ele>
        <time>2013-09-23T20:17:27.158Z</time>
      </trkpt>
      <trkpt lat="48.85885" lon="2.29671">
        <ele>76.6</ele>
        <time>2013-09-23T20:17:29.183Z</time>
      </trkpt>
      <trkpt lat="48.85885" lon="2.29676">
        <ele>78.5</ele>
        <time>2013-09-23T20:17:30.010Z</time>
      </trkpt>
      <trkpt lat="48.85883" lon="2.29687">
        <ele>76.5</ele>
        <time>2013-09-23T20:17:31.993Z</time>
      </trkpt>
      <trkpt lat="48.85881" lon="2.29692">
        <ele>76.8</ele>
        <time>2013-09-23T20:17:33.143Z</time>
      </trkpt>
      <trkpt lat="48.85876" lon="2.297">
        <ele>77.6</ele>
        <time>2013-09-23T20:17:35.145Z</time>
      </trkpt>
      <trkpt lat="48.85873" lon="2.29704">
        <ele>76</ele>
        <time>2013-09-23T20:17:36.122Z</time>
      </trkpt>
      <trkpt lat="48.85868" lon="2.29712">
        <ele>77.8</ele>
        <time>2013-09-23T20:17:38.131Z</time>
      </trkpt>
      <trkpt lat="48.85866" lon="2.29717">
        <ele>78.3</ele>
        <time>2013-09-23T20:17:39.006Z</time>
      </trkpt>
      <trkpt lat="48.85862" lon="2.29726">
        <ele>76.5</ele>
        <time>2013-09-23T20:17:40.993Z</time>
      </trkpt>
      <trkpt lat="48.85859" lon="2.29732">
        <ele>77</ele>
        <time>2013-09-23T20:17:42.123Z</time>
      </trkpt>
      <trkpt lat="48.85855" lon="2.29741">
        <ele>78</ele>
        <time>2013-09-23T20:17:44.074Z</time>
      </trkpt>
      <trkpt lat="48.85852" lon="2.29746">
        <ele>79</ele>
        <time>2013-09-23T20:17:45.011Z</time>
      </trkpt>
      <trkpt lat="48.85848" lon="2.29756">
        <ele>80.1</ele>
        <time>2013-09-23T20:17:47.100Z</time>
      </trkpt>
      <trkpt lat="48.85846" lon="2.29761">
        <ele>81.1</ele>
        <time>2013-09-23T20:17:48.154Z</time>
      </trkpt>
      <trkpt lat="48.85843" lon="2.29772">
        <ele>79.8</ele>
        <time>2013-09-23T20:17:50.187Z</time>
      </trkpt>
      <trkpt lat="48.85841" lon="2.29776">
        <ele>80.1</ele>
        <time>2013-09-23T20:17:50.990Z</time>
      </trkpt>
      <trkpt lat="48.85837" lon="2.29786">
        <ele>80.8</ele>
        <time>2013-09-23T20:17:52.998Z</time>
      </trkpt>
      <trkpt lat="48.85835" lon="2.29791">
        <ele>80.8</ele>
        <time>2013-09-23T20:17:54.135Z</time>
      </trkpt>
      <trkpt lat="48.85831" lon="2.29799">
        <ele>85.9</ele>
        <time>2013-09-23T20:17:56.079Z</time>
      </trkpt>
      <trkpt lat="48.85829" lon="2.29803">
        <ele>88.1</ele>
        <time>2013-09-23T20:17:57.281Z</time>
      </trkpt>
      <trkpt lat="48.85825" lon="2.2981">
        <ele>90.6</ele>
        <time>2013-09-23T20:17:59.190Z</time>
      </trkpt>
      <trkpt lat="48.85823" lon="2.29814">
        <ele>91</ele>
        <time>2013-09-23T20:18:00.057Z</time>
      </trkpt>
      <trkpt lat="48.85818" lon="2.29824">
        <ele>91.5</ele>
        <time>2013-09-23T20:18:02.036Z</time>
      </trkpt>
      <trkpt lat="48.85815" lon="2.29831">
        <ele>90</ele>
        <time>2013-09-23T20:18:03.099Z</time>
      </trkpt>
      <trkpt lat="48.85813" lon="2.29837">
        <ele>90.1</ele>
        <time>2013-09-23T20:18:04.132Z</time>
      </trkpt>
      <trkpt lat="48.8581" lon="2.29843">
        <ele>90.3</ele>
        <time>2013-09-23T20:18:05.000Z</time>
      </trkpt>
      <trkpt lat="48.85807" lon="2.2985">
        <ele>91.6</ele>
        <time>2013-09-23T20:18:06.112Z</time>
      </trkpt>
      <trkpt lat="48.85805" lon="2.29855">
        <ele>91.5</ele>
        <time>2013-09-23T20:18:07.050Z</time>
      </trkpt>
      <trkpt lat="48.85802" lon="2.29861">
        <ele>90.7</ele>
        <time>2013-09-23T20:18:08.060Z</time>
      </trkpt>
      <trkpt lat="48.85799" lon="2.29867">
        <ele>90.2</ele>
        <time>2013-09-23T20:18:09.176Z</time>
      </trkpt>
      <trkpt lat="48.85796" lon="2.29873">
        <ele>88.9</ele>
        <time>2013-09-23T20:18:10.013Z</time>
      </trkpt>
      <trkpt lat="48.85793" lon="2.2988">
        <ele>83.9</ele>
        <time>2013-09-23T20:18:11.149Z</time>
      </trkpt>
      <trkpt lat="48.8579" lon="2.29885">
        <ele>82.4</ele>
        <time>2013-09-23T20:18:12.020Z</time>
      </trkpt>
      <trkpt lat="48.85786" lon="2.2989">
        <ele>82.2</ele>
        <time>2013-09-23T20:18:13.123Z</time>
      </trkpt>
      <trkpt lat="48.85783" lon="2.29894">
        <ele>82.3</ele>
        <time>2013-09-23T20:18:14.005Z</time>
      </trkpt>
      <trkpt lat="48.85779" lon="2.29898">
        <ele>82</ele>
        <time>2013-09-23T20:18:15.109Z</time>
      </trkpt>
      <trkpt lat="48.85773" lon="2.29904">
        <ele>82.3</ele>
        <time>2013-09-23T20:18:17.062Z</time>
      </trkpt>
      <trkpt lat="48.8577" lon="2.29908">
        <ele>82.9</ele>
        <time>2013-09-23T20:18:18.181Z</time>
      </trkpt>
      <trkpt lat="48.85766" lon="2.29919">
        <ele>84.5</ele>
        <time>2013-09-23T20:18:21.005Z</time>
      </trkpt>
      <trkpt lat="48.85766" lon="2.29924">
        <ele>83.2</ele>
        <time>2013-09-23T20:18:22.149Z</time>
      </trkpt>
      <trkpt lat="48.85766" lon="2.29934">
        <ele>82.5</ele>
        <time>2013-09-23T20:18:24.113Z</time>
      </trkpt>
      <trkpt lat="48.85766" lon="2.29939">
        <ele>81.9</ele>
        <time>2013-09-23T20:18:25.206Z</time>
      </trkpt>
      <trkpt lat="48.85768" lon="2.29948">
        <ele>81.3</ele>
        <time>2013-09-23T20:18:27.189Z</time>
      </trkpt>
      <trkpt lat="48.85768" lon="2.29953">
        <ele>82</ele>
        <time>2013-09-23T20:18:28.058Z</time>
      </trkpt>
      <trkpt lat="48.8577" lon="2.29962">
        <ele>81.1</ele>
        <time>2013-09-23T20:18:30.029Z</time>
      </trkpt>
      <trkpt lat="48.8577" lon="2.29966">
        <ele>81.9</ele>
        <time>2013-09-23T20:18:31.109Z</time>
      </trkpt>
      <trkpt lat="48.8577" lon="2.29979">
        <ele>80.4</ele>
        <time>2013-09-23T20:18:34.997Z</time>
      </trkpt>
      <trkpt lat="48.8577" lon="2.29983">
        <ele>81.6</ele>
        <time>2013-09-23T20:18:36.125Z</time>
      </trkpt>
      <trkpt lat="48.85773" lon="2.29995">
        <ele>89.1</ele>
        <time>2013-09-23T20:18:44.001Z</time>
      </trkpt>
      <trkpt lat="48.85773" lon="2.29996">
        <ele>90.2</ele>
        <time>2013-09-23T20:18:45.167Z</time>
      </trkpt>
      <trkpt lat="48.85768" lon="2.30008">
        <ele>97.6</ele>
        <time>2013-09-23T20:18:52.995Z</time>
      </trkpt>
      <trkpt lat="48.85767" lon="2.3001">
        <ele>98.7</ele>
        <time>2013-09-23T20:18:54.150Z</time>
      </trkpt>
      <trkpt lat="48.85762" lon="2.30019">
        <ele>97.8</ele>
        <time>2013-09-23T20:18:56.079Z</time>
      </trkpt>
      <trkpt lat="48.85759" lon="2.30024">
        <ele>98.6</ele>
        <time>2013-09-23T20:18:57.194Z</time>
      </trkpt>
      <trkpt lat="48.85757" lon="2.30029">
        <ele>98.8</ele>
        <time>2013-09-23T20:18:58.024Z</time>
      </trkpt>
      <trkpt lat="48.85754" lon="2.30036">
        <ele>99.4</ele>
        <time>2013-09-23T20:18:59.154Z</time>
      </trkpt>
      <trkpt lat="48.85751" lon="2.30041">
        <ele>100.4</ele>
        <time>2013-09-23T20:19:00.065Z</time>
      </trkpt>
      <trkpt lat="48.85748" lon="2.30047">
        <ele>100</ele>
        <time>2013-09-23T20:19:01.161Z</time>
      </trkpt>
      <trkpt lat="48.85746" lon="2.30053">
        <ele>100.2</ele>
        <time>2013-09-23T20:19:02.023Z</time>
      </trkpt>
      <trkpt lat="48.85744" lon="2.30059">
        <ele>100</ele>
        <time>2013-09-23T20:19:03.112Z</time>
      </trkpt>
      <trkpt lat="48.85739" lon="2.3007">
        <ele>100.1</ele>
        <time>2013-09-23T20:19:05.068Z</time>
      </trkpt>
      <trkpt lat="48.85737" lon="2.30076">
        <ele>99.5</ele>
        <time>2013-09-23T20:19:06.144Z</time>
      </trkpt>
      <trkpt lat="48.85733" lon="2.30087">
        <ele>98.7</ele>
        <time>2013-09-23T20:19:08.161Z</time>
      </trkpt>
      <trkpt lat="48.8573" lon="2.30091">
        <ele>99.5</ele>
        <time>2013-09-23T20:19:09.011Z</time>
      </trkpt>
      <trkpt lat="48.85725" lon="2.30101">
        <ele>99.2</ele>
        <time>2013-09-23T20:19:11.004Z</time>
      </trkpt>
      <trkpt lat="48.85722" lon="2.30106">
        <ele>97.5</ele>
        <time>2013-09-23T20:19:12.010Z</time>
      </trkpt>
      <trkpt lat="48.85718" lon="2.30117">
        <ele>96.7</ele>
        <time>2013-09-23T20:19:14.023Z</time>
      </trkpt>
      <trkpt lat="48.85716" lon="2.30124">
        <ele>97.5</ele>
        <time>2013-09-23T20:19:15.183Z</time>
      </trkpt>
      <trkpt lat="48.85712" lon="2.30134">
        <ele>98.2</ele>
        <time>2013-09-23T20:19:17.147Z</time>
      </trkpt>
      <trkpt lat="48.8571" lon="2.30139">
        <ele>98.9</ele>
        <time>2013-09-23T20:19:18.009Z</time>
      </trkpt>
      <trkpt lat="48.85706" lon="2.30145">
        <ele>99</ele>
        <time>2013-09-23T20:19:19.143Z</time>
      </trkpt>
      <trkpt lat="48.85701" lon="2.30151">
        <ele>98.2</ele>
        <time>2013-09-23T20:19:20.189Z</time>
      </trkpt>
      <trkpt lat="48.85695" lon="2.30156">
        <ele>97.3</ele>
        <time>2013-09-23T20:19:21.057Z</time>
      </trkpt>
      <trkpt lat="48.85689" lon="2.30164">
        <ele>96.7</ele>
        <time>2013-09-23T20:19:22.169Z</time>
      </trkpt>
      <trkpt lat="48.85685" lon="2.30171">
        <ele>96.9</ele>
        <time>2013-09-23T20:19:23.000Z</time>
      </trkpt>
      <trkpt lat="48.8568" lon="2.30179">
        <ele>96.4</ele>
        <time>2013-09-23T20:19:24.144Z</time>
      </trkpt>
      <trkpt lat="48.85676" lon="2.30185">
        <ele>96.8</ele>
        <time>2013-09-23T20:19:25.003Z</time>
      </trkpt>
      <trkpt lat="48.85672" lon="2.30193">
        <ele>97.2</ele>
        <time>2013-09-23T20:19:26.147Z</time>
      </trkpt>
      <trkpt lat="48.8567" lon="2.30198">
        <ele>97.7</ele>
        <time>2013-09-23T20:19:27.049Z</time>
      </trkpt>
      <trkpt lat="48.85666" lon="2.30204">
        <ele>98</ele>
        <time>2013-09-23T20:19:28.083Z</time>
      </trkpt>
      <trkpt lat="48.8566" lon="2.30212">
        <ele>98</ele>
        <time>2013-09-23T20:19:30.019Z</time>
      </trkpt>
      <trkpt lat="48.85656" lon="2.30218">
        <ele>98.3</ele>
        <time>2013-09-23T20:19:31.178Z</time>
      </trkpt>
      <trkpt lat="48.85652" lon="2.30222">
        <ele>97.9</ele>
        <time>2013-09-23T20:19:32.009Z</time>
      </trkpt>
      <trkpt lat="48.85648" lon="2.30228">
        <ele>97.8</ele>
        <time>2013-09-23T20:19:33.173Z</time>
      </trkpt>
      <trkpt lat="48.85645" lon="2.30233">
        <ele>98.1</ele>
        <time>2013-09-23T20:19:34.002Z</time>
      </trkpt>
      <trkpt lat="48.8564" lon="2.30239">
        <ele>96.3</ele>
        <time>2013-09-23T20:19:35.121Z</time>
      </trkpt>
      <trkpt lat="48.85636" lon="2.30244">
        <ele>96.4</ele>
        <time>2013-09-23T20:19:36.209Z</time>
      </trkpt>
      <trkpt lat="48.85632" lon="2.30249">
        <ele>96.6</ele>
        <time>2013-09-23T20:19:37.052Z</time>
      </trkpt>
      <trkpt lat="48.85628" lon="2.30257">
        <ele>97.1</ele>
        <time>2013-09-23T20:19:38.178Z</time>
      </trkpt>
      <trkpt lat="48.85624" lon="2.30263">
        <ele>95.2</ele>
        <time>2013-09-23T20:19:39.003Z</time>
      </trkpt>
      <trkpt lat="48.8562" lon="2.3027">
        <ele>96</ele>
        <time>2013-09-23T20:19:40.136Z</time>
      </trkpt>
      <trkpt lat="48.85617" lon="2.30276">
        <ele>98</ele>
        <time>2013-09-23T20:19:41.004Z</time>
      </trkpt>
      <trkpt lat="48.85613" lon="2.30282">
        <ele>98.9</ele>
        <time>2013-09-23T20:19:42.138Z</time>
      </trkpt>
      <trkpt lat="48.85609" lon="2.30288">
        <ele>99.2</ele>
        <time>2013-09-23T20:19:43.100Z</time>
      </trkpt>
      <trkpt lat="48.85604" lon="2.30293">
        <ele>98.7</ele>
        <time>2013-09-23T20:19:44.075Z</time>
      </trkpt>
      <trkpt lat="48.85598" lon="2.30299">
        <ele>98.8</ele>
        <time>2013-09-23T20:19:45.155Z</time>
      </trkpt>
      <trkpt lat="48.85594" lon="2.30305">
        <ele>98.4</ele>
        <time>2013-09-23T20:19:46.021Z</time>
      </trkpt>
      <trkpt lat="48.85588" lon="2.30312">
        <ele>98.4</ele>
        <time>2013-09-23T20:19:47.172Z</time>
      </trkpt>
      <trkpt lat="48.85586" lon="2.30323">
        <ele>99.8</ele>
        <time>2013-09-23T20:19:49.111Z</time>
      </trkpt>
      <trkpt lat="48.85584" lon="2.30328">
        <ele>101.3</ele>
        <time>2013-09-23T20:19:50.012Z</time>
      </trkpt>
      <trkpt lat="48.85581" lon="2.30334">
        <ele>100.2</ele>
        <time>2013-09-23T20:19:51.106Z</time>
      </trkpt>
      <trkpt lat="48.85578" lon="2.3034">
        <ele>100.1</ele>
        <time>2013-09-23T20:19:52.064Z</time>
      </trkpt>
      <trkpt lat="48.85574" lon="2.30346">
        <ele>100.2</ele>
        <time>2013-09-23T20:19:53.057Z</time>
      </trkpt>
      <trkpt lat="48.8557" lon="2.30353">
        <ele>99.8</ele>
        <time>2013-09-23T20:19:54.184Z</time>
      </trkpt>
      <trkpt lat="48.85566" lon="2.30359">
        <ele>100.2</ele>
        <time>2013-09-23T20:19:55.021Z</time>
      </trkpt>
      <trkpt lat="48.8556" lon="2.30366">
        <ele>99.7</ele>
        <time>2013-09-23T20:19:56.193Z</time>
      </trkpt>
      <trkpt lat="48.85555" lon="2.30372">
        <ele>100</ele>
        <time>2013-09-23T20:19:57.022Z</time>
      </trkpt>
      <trkpt lat="48.85549" lon="2.30378">
        <ele>98.9</ele>
        <time>2013-09-23T20:19:58.081Z</time>
      </trkpt>
      <trkpt lat="48.85546" lon="2.30385">
        <ele>98.6</ele>
        <time>2013-09-23T20:19:59.005Z</time>
      </trkpt>
      <trkpt lat="48.85542" lon="2.30393">
        <ele>98.7</ele>
        <time>2013-09-23T20:20:00.091Z</time>
      </trkpt>
      <trkpt lat="48.85538" lon="2.304">
        <ele>99</ele>
        <time>2013-09-23T20:20:01.117Z</time>
      </trkpt>
      <trkpt lat="48.85535" lon="2.30405">
        <ele>99.2</ele>
        <time>2013-09-23T20:20:02.052Z</time>
      </trkpt>
      <trkpt lat="48.8553" lon="2.30412">
        <ele>97.6</ele>
        <time>2013-09-23T20:20:03.109Z</time>
      </trkpt>
      <trkpt lat="48.85525" lon="2.30418">
        <ele>96.8</ele>
        <time>2013-09-23T20:20:04.008Z</time>
      </trkpt>
      <trkpt lat="48.8552" lon="2.30425">
        <ele>96.5</ele>
        <time>2013-09-23T20:20:05.134Z</time>
      </trkpt>
      <trkpt lat="48.85518" lon="2.30431">
        <ele>97.7</ele>
        <time>2013-09-23T20:20:06.004Z</time>
      </trkpt>
      <trkpt lat="48.85514" lon="2.3044">
        <ele>96.7</ele>
        <time>2013-09-23T20:20:07.118Z</time>
      </trkpt>
      <trkpt lat="48.85511" lon="2.30446">
        <ele>96.2</ele>
        <time>2013-09-23T20:20:08.003Z</time>
      </trkpt>
      <trkpt lat="48.85508" lon="2.30454">
        <ele>95.5</ele>
        <time>2013-09-23T20:20:09.003Z</time>
      </trkpt>
      <trkpt lat="48.85506" lon="2.30461">
        <ele>95.3</ele>
        <time>2013-09-23T20:20:10.001Z</time>
      </trkpt>
      <trkpt lat="48.85502" lon="2.30467">
        <ele>95.4</ele>
        <time>2013-09-23T20:20:11.004Z</time>
      </trkpt>
      <trkpt lat="48.85498" lon="2.30472">
        <ele>94.4</ele>
        <time>2013-09-23T20:20:11.995Z</time>
      </trkpt>
      <trkpt lat="48.85493" lon="2.30477">
        <ele>95</ele>
        <time>2013-09-23T20:20:13.003Z</time>
      </trkpt>
      <trkpt lat="48.8549" lon="2.30482">
        <ele>94.8</ele>
        <time>2013-09-23T20:20:13.997Z</time>
      </trkpt>
      <trkpt lat="48.85484" lon="2.30492">
        <ele>94.9</ele>
        <time>2013-09-23T20:20:16.004Z</time>
      </trkpt>
      <trkpt lat="48.85482" lon="2.30496">
        <ele>95.1</ele>
        <time>2013-09-23T20:20:16.996Z</time>
      </trkpt>
      <trkpt lat="48.85477" lon="2.30503">
        <ele>95</ele>
        <time>2013-09-23T20:20:18.996Z</time>
      </trkpt>
      <trkpt lat="48.85474" lon="2.30507">
        <ele>94.5</ele>
        <time>2013-09-23T20:20:20.022Z</time>
      </trkpt>
      <trkpt lat="48.85467" lon="2.30516">
        <ele>94</ele>
        <time>2013-09-23T20:20:22.997Z</time>
      </trkpt>
      <trkpt lat="48.85464" lon="2.30519">
        <ele>89.1</ele>
        <time>2013-09-23T20:20:24.004Z</time>
      </trkpt>
      <trkpt lat="48.85458" lon="2.30524">
        <ele>88.5</ele>
        <time>2013-09-23T20:20:26.015Z</time>
      </trkpt>
      <trkpt lat="48.85456" lon="2.30527">
        <ele>87.2</ele>
        <time>2013-09-23T20:20:27.007Z</time>
      </trkpt>
      <trkpt lat="48.85452" lon="2.30537">
        <ele>85.3</ele>
        <time>2013-09-23T20:20:29.999Z</time>
      </trkpt>
      <trkpt lat="48.85451" lon="2.3054">
        <ele>85.3</ele>
        <time>2013-09-23T20:20:31.005Z</time>
      </trkpt>
      <trkpt lat="48.85459" lon="2.30548">
        <ele>83.2</ele>
        <time>2013-09-23T20:20:45.001Z</time>
      </trkpt>
      <trkpt lat="48.85459" lon="2.30548">
        <ele>83.1</ele>
        <time>2013-09-23T20:20:46.008Z</time>
      </trkpt>
      <trkpt lat="48.85465" lon="2.30555">
        <ele>81.9</ele>
        <time>2013-09-23T20:20:51.227Z</time>
      </trkpt>
      <trkpt lat="48.85467" lon="2.30558">
        <ele>81.6</ele>
        <time>2013-09-23T20:20:52.049Z</time>
      </trkpt>
      <trkpt lat="48.85472" lon="2.30568">
        <ele>81.6</ele>
        <time>2013-09-23T20:20:56.018Z</time>
      </trkpt>
      <trkpt lat="48.85473" lon="2.3057">
        <ele>80.7</ele>
        <time>2013-09-23T20:20:57.130Z</time>
      </trkpt>
      <trkpt lat="48.85472" lon="2.30577">
        <ele>80.5</ele>
        <time>2013-09-23T20:21:06.098Z</time>
      </trkpt>
      <trkpt lat="48.85471" lon="2.30577">
        <ele>80.5</ele>
        <time>2013-09-23T20:21:07.270Z</time>
      </trkpt>
      <trkpt lat="48.85471" lon="2.30578">
        <ele>79.8</ele>
        <time>2013-09-23T20:21:20.198Z</time>
      </trkpt>
      <trkpt lat="48.85471" lon="2.30579">
        <ele>80.1</ele>
        <time>2013-09-23T20:21:21.144Z</time>
      </trkpt>
      <trkpt lat="48.85471" lon="2.3059">
        <ele>79.7</ele>
        <time>2013-09-23T20:21:25.197Z</time>
      </trkpt>
      <trkpt lat="48.85472" lon="2.30593">
        <ele>80.6</ele>
        <time>2013-09-23T20:21:26.029Z</time>
      </trkpt>
      <trkpt lat="48.85478" lon="2.30603">
        <ele>80.5</ele>
        <time>2013-09-23T20:21:29.012Z</time>
      </trkpt>
      <trkpt lat="48.85481" lon="2.30607">
        <ele>80</ele>
        <time>2013-09-23T20:21:30.181Z</time>
      </trkpt>
      <trkpt lat="48.85487" lon="2.30617">
        <ele>80</ele>
        <time>2013-09-23T20:21:32.179Z</time>
      </trkpt>
      <trkpt lat="48.85489" lon="2.30622">
        <ele>80</ele>
        <time>2013-09-23T20:21:33.019Z</time>
      </trkpt>
      <trkpt lat="48.85493" lon="2.30628">
        <ele>79.6</ele>
        <time>2013-09-23T20:21:34.228Z</time>
      </trkpt>
      <trkpt lat="48.85496" lon="2.30633">
        <ele>79.5</ele>
        <time>2013-09-23T20:21:35.013Z</time>
      </trkpt>
      <trkpt lat="48.855" lon="2.30639">
        <ele>79.4</ele>
        <time>2013-09-23T20:21:36.178Z</time>
      </trkpt>
      <trkpt lat="48.85503" lon="2.30644">
        <ele>79.3</ele>
        <time>2013-09-23T20:21:37.139Z</time>
      </trkpt>
      <trkpt lat="48.85506" lon="2.30649">
        <ele>79.1</ele>
        <time>2013-09-23T20:21:38.086Z</time>
      </trkpt>
      <trkpt lat="48.85509" lon="2.30658">
        <ele>79.4</ele>
        <time>2013-09-23T20:21:39.012Z</time>
      </trkpt>
      <trkpt lat="48.85512" lon="2.30667">
        <ele>79.3</ele>
        <time>2013-09-23T20:21:40.013Z</time>
      </trkpt>
      <trkpt lat="48.85516" lon="2.30676">
        <ele>79.3</ele>
        <time>2013-09-23T20:21:41.004Z</time>
      </trkpt>
      <trkpt lat="48.85519" lon="2.30686">
        <ele>81.4</ele>
        <time>2013-09-23T20:21:42.009Z</time>
      </trkpt>
      <trkpt lat="48.85523" lon="2.30695">
        <ele>81.2</ele>
        <time>2013-09-23T20:21:43.063Z</time>
      </trkpt>
      <trkpt lat="48.85527" lon="2.307">
        <ele>82.5</ele>
        <time>2013-09-23T20:21:44.004Z</time>
      </trkpt>
      <trkpt lat="48.8553" lon="2.30705">
        <ele>82.2</ele>
        <time>2013-09-23T20:21:45.005Z</time>
      </trkpt>
      <trkpt lat="48.85534" lon="2.30711">
        <ele>82.7</ele>
        <time>2013-09-23T20:21:46.021Z</time>
      </trkpt>
      <trkpt lat="48.85538" lon="2.30717">
        <ele>82.6</ele>
        <time>2013-09-23T20:21:47.011Z</time>
      </trkpt>
      <trkpt lat="48.85543" lon="2.30723">
        <ele>82.5</ele>
        <time>2013-09-23T20:21:48.004Z</time>
      </trkpt>
      <trkpt lat="48.85548" lon="2.30729">
        <ele>82.8</ele>
        <time>2013-09-23T20:21:49.004Z</time>
      </trkpt>
      <trkpt lat="48.85553" lon="2.30735">
        <ele>82.7</ele>
        <time>2013-09-23T20:21:50.022Z</time>
      </trkpt>
      <trkpt lat="48.85558" lon="2.30741">
        <ele>82.7</ele>
        <time>2013-09-23T20:21:51.022Z</time>
      </trkpt>
      <trkpt lat="48.85563" lon="2.30747">
        <ele>82</ele>
        <time>2013-09-23T20:21:52.014Z</time>
      </trkpt>
      <trkpt lat="48.85567" lon="2.30754">
        <ele>82</ele>
        <time>2013-09-23T20:21:53.014Z</time>
      </trkpt>
      <trkpt lat="48.85572" lon="2.30761">
        <ele>81.6</ele>
        <time>2013-09-23T20:21:54.005Z</time>
      </trkpt>
      <trkpt lat="48.85576" lon="2.30767">
        <ele>81.4</ele>
        <time>2013-09-23T20:21:55.011Z</time>
      </trkpt>
      <trkpt lat="48.8558" lon="2.30772">
        <ele>82</ele>
        <time>2013-09-23T20:21:56.006Z</time>
      </trkpt>
      <trkpt lat="48.85584" lon="2.30777">
        <ele>82.6</ele>
        <time>2013-09-23T20:21:57.005Z</time>
      </trkpt>
      <trkpt lat="48.85589" lon="2.3078">
        <ele>82.7</ele>
        <time>2013-09-23T20:21:58.092Z</time>
      </trkpt>
      <trkpt lat="48.85594" lon="2.30784">
        <ele>83.6</ele>
        <time>2013-09-23T20:21:59.023Z</time>
      </trkpt>
      <trkpt lat="48.85598" lon="2.3079">
        <ele>83.9</ele>
        <time>2013-09-23T20:22:00.062Z</time>
      </trkpt>
      <trkpt lat="48.85603" lon="2.30797">
        <ele>83.2</ele>
        <time>2013-09-23T20:22:01.004Z</time>
      </trkpt>
      <trkpt lat="48.85608" lon="2.30804">
        <ele>81.4</ele>
        <time>2013-09-23T20:22:02.013Z</time>
      </trkpt>
      <trkpt lat="48.85613" lon="2.30812">
        <ele>81.3</ele>
        <time>2013-09-23T20:22:03.004Z</time>
      </trkpt>
      <trkpt lat="48.85617" lon="2.30818">
        <ele>83.2</ele>
        <time>2013-09-23T20:22:04.023Z</time>
      </trkpt>
      <trkpt lat="48.85622" lon="2.30824">
        <ele>81.9</ele>
        <time>2013-09-23T20:22:05.014Z</time>
      </trkpt>
      <trkpt lat="48.85626" lon="2.3083">
        <ele>81.4</ele>
        <time>2013-09-23T20:22:06.006Z</time>
      </trkpt>
      <trkpt lat="48.85631" lon="2.30838">
        <ele>80.9</ele>
        <time>2013-09-23T20:22:07.006Z</time>
      </trkpt>
      <trkpt lat="48.85636" lon="2.30846">
        <ele>79.9</ele>
        <time>2013-09-23T20:22:08.004Z</time>
      </trkpt>
      <trkpt lat="48.8564" lon="2.30854">
        <ele>79.5</ele>
        <time>2013-09-23T20:22:09.015Z</time>
      </trkpt>
      <trkpt lat="48.85645" lon="2.3086">
        <ele>79.5</ele>
        <time>2013-09-23T20:22:10.004Z</time>
      </trkpt>
      <trkpt lat="48.8565" lon="2.30865">
        <ele>80</ele>
        <time>2013-09-23T20:22:11.007Z</time>
      </trkpt>
      <trkpt lat="48.85654" lon="2.30871">
        <ele>79.7</ele>
        <time>2013-09-23T20:22:12.015Z</time>
      </trkpt>
      <trkpt lat="48.85658" lon="2.30878">
        <ele>79.2</ele>
        <time>2013-09-23T20:22:13.005Z</time>
      </trkpt>
      <trkpt lat="48.85661" lon="2.30884">
        <ele>79.2</ele>
        <time>2013-09-23T20:22:14.008Z</time>
      </trkpt>
      <trkpt lat="48.85665" lon="2.30891">
        <ele>78.6</ele>
        <time>2013-09-23T20:22:15.013Z</time>
      </trkpt>
      <trkpt lat="48.85669" lon="2.30898">
        <ele>77.5</ele>
        <time>2013-09-23T20:22:16.055Z</time>
      </trkpt>
      <trkpt lat="48.85674" lon="2.30903">
        <ele>76.4</ele>
        <time>2013-09-23T20:22:17.148Z</time>
      </trkpt>
      <trkpt lat="48.8568" lon="2.30913">
        <ele>75.8</ele>
        <time>2013-09-23T20:22:19.088Z</time>
      </trkpt>
      <trkpt lat="48.85685" lon="2.30922">
        <ele>74.7</ele>
        <time>2013-09-23T20:22:20.200Z</time>
      </trkpt>
      <trkpt lat="48.85688" lon="2.3093">
        <ele>74.6</ele>
        <time>2013-09-23T20:22:21.029Z</time>
      </trkpt>
      <trkpt lat="48.85692" lon="2.30938">
        <ele>75.1</ele>
        <time>2013-09-23T20:22:22.005Z</time>
      </trkpt>
      <trkpt lat="48.85695" lon="2.30945">
        <ele>75.1</ele>
        <time>2013-09-23T20:22:23.067Z</time>
      </trkpt>
      <trkpt lat="48.85699" lon="2.3095">
        <ele>74.3</ele>
        <time>2013-09-23T20:22:24.186Z</time>
      </trkpt>
      <trkpt lat="48.85703" lon="2.30958">
        <ele>74.6</ele>
        <time>2013-09-23T20:22:26.234Z</time>
      </trkpt>
      <trkpt lat="48.85705" lon="2.30961">
        <ele>74.7</ele>
        <time>2013-09-23T20:22:27.014Z</time>
      </trkpt>
      <trkpt lat="48.8571" lon="2.3097">
        <ele>76.1</ele>
        <time>2013-09-23T20:22:30.121Z</time>
      </trkpt>
      <trkpt lat="48.85711" lon="2.30972">
        <ele>76.4</ele>
        <time>2013-09-23T20:22:31.179Z</time>
      </trkpt>
      <trkpt lat="48.85717" lon="2.3098">
        <ele>80.9</ele>
        <time>2013-09-23T20:22:38.239Z</time>
      </trkpt>
      <trkpt lat="48.85717" lon="2.30981">
        <ele>81.5</ele>
        <time>2013-09-23T20:22:39.063Z</time>
      </trkpt>
      <trkpt lat="48.85722" lon="2.3099">
        <ele>82.9</ele>
        <time>2013-09-23T20:22:44.175Z</time>
      </trkpt>
      <trkpt lat="48.85724" lon="2.30992">
        <ele>83.3</ele>
        <time>2013-09-23T20:22:45.103Z</time>
      </trkpt>
      <trkpt lat="48.8573" lon="2.30998">
        <ele>83</ele>
        <time>2013-09-23T20:22:47.218Z</time>
      </trkpt>
      <trkpt lat="48.85733" lon="2.31001">
        <ele>83</ele>
        <time>2013-09-23T20:22:48.042Z</time>
      </trkpt>
      <trkpt lat="48.85739" lon="2.31007">
        <ele>82.9</ele>
        <time>2013-09-23T20:22:50.018Z</time>
      </trkpt>
      <trkpt lat="48.85743" lon="2.3101">
        <ele>82.6</ele>
        <time>2013-09-23T20:22:51.195Z</time>
      </trkpt>
      <trkpt lat="48.8575" lon="2.31015">
        <ele>82.5</ele>
        <time>2013-09-23T20:22:53.176Z</time>
      </trkpt>
      <trkpt lat="48.85754" lon="2.31016">
        <ele>84</ele>
        <time>2013-09-23T20:22:54.233Z</time>
      </trkpt>
      <trkpt lat="48.85761" lon="2.31017">
        <ele>83.2</ele>
        <time>2013-09-23T20:22:56.225Z</time>
      </trkpt>
      <trkpt lat="48.85764" lon="2.31017">
        <ele>81.6</ele>
        <time>2013-09-23T20:22:57.020Z</time>
      </trkpt>
      <trkpt lat="48.85771" lon="2.31022">
        <ele>79.4</ele>
        <time>2013-09-23T20:22:59.027Z</time>
      </trkpt>
      <trkpt lat="48.85775" lon="2.31026">
        <ele>79.4</ele>
        <time>2013-09-23T20:23:00.187Z</time>
      </trkpt>
      <trkpt lat="48.85778" lon="2.31034">
        <ele>81.3</ele>
        <time>2013-09-23T20:23:01.073Z</time>
      </trkpt>
      <trkpt lat="48.85782" lon="2.31044">
        <ele>78.3</ele>
        <time>2013-09-23T20:23:02.099Z</time>
      </trkpt>
      <trkpt lat="48.85786" lon="2.31052">
        <ele>76.7</ele>
        <time>2013-09-23T20:23:03.020Z</time>
      </trkpt>
      <trkpt lat="48.8579" lon="2.31059">
        <ele>76.7</ele>
        <time>2013-09-23T20:23:04.018Z</time>
      </trkpt>
      <trkpt lat="48.85795" lon="2.31067">
        <ele>74.4</ele>
        <time>2013-09-23T20:23:05.210Z</time>
      </trkpt>
      <trkpt lat="48.85798" lon="2.31072">
        <ele>73.6</ele>
        <time>2013-09-23T20:23:06.027Z</time>
      </trkpt>
      <trkpt lat="48.85803" lon="2.31078">
        <ele>72.7</ele>
        <time>2013-09-23T20:23:07.221Z</time>
      </trkpt>
      <trkpt lat="48.85805" lon="2.31081">
        <ele>72.3</ele>
        <time>2013-09-23T20:23:08.100Z</time>
      </trkpt>
      <trkpt lat="48.85811" lon="2.31092">
        <ele>72.6</ele>
        <time>2013-09-23T20:23:10.225Z</time>
      </trkpt>
      <trkpt lat="48.85813" lon="2.31096">
        <ele>70.1</ele>
        <time>2013-09-23T20:23:11.061Z</time>
      </trkpt>
      <trkpt lat="48.85818" lon="2.31105">
        <ele>71.1</ele>
        <time>2013-09-23T20:23:13.012Z</time>
      </trkpt>
      <trkpt lat="48.85821" lon="2.31109">
        <ele>71.2</ele>
        <time>2013-09-23T20:23:14.029Z</time>
      </trkpt>
      <trkpt lat="48.85826" lon="2.31115">
        <ele>72.2</ele>
        <time>2013-09-23T20:23:16.019Z</time>
      </trkpt>
      <trkpt lat="48.85829" lon="2.31117">
        <ele>74.5</ele>
        <time>2013-09-23T20:23:17.019Z</time>
      </trkpt>
      <trkpt lat="48.85835" lon="2.31127">
        <ele>79.9</ele>
        <time>2013-09-23T20:23:20.019Z</time>
      </trkpt>
      <trkpt lat="48.85836" lon="2.31131">
        <ele>79.6</ele>
        <time>2013-09-23T20:23:21.038Z</time>
      </trkpt>
      <trkpt lat="48.85839" lon="2.31143">
        <ele>80.3</ele>
        <time>2013-09-23T20:23:23.052Z</time>
      </trkpt>
      <trkpt lat="48.8584" lon="2.31149">
        <ele>80.2</ele>
        <time>2013-09-23T20:23:24.013Z</time>
      </trkpt>
      <trkpt lat="48.85841" lon="2.31156">
        <ele>80.9</ele>
        <time>2013-09-23T20:23:25.012Z</time>
      </trkpt>
      <trkpt lat="48.85842" lon="2.31163">
        <ele>81.3</ele>
        <time>2013-09-23T20:23:26.027Z</time>
      </trkpt>
      <trkpt lat="48.85844" lon="2.31176">
        <ele>82.2</ele>
        <time>2013-09-23T20:23:28.034Z</time>
      </trkpt>
      <trkpt lat="48.85845" lon="2.31182">
        <ele>80.4</ele>
        <time>2013-09-23T20:23:29.022Z</time>
      </trkpt>
      <trkpt lat="48.85846" lon="2.31194">
        <ele>78.9</ele>
        <time>2013-09-23T20:23:31.032Z</time>
      </trkpt>
      <trkpt lat="48.85846" lon="2.312">
        <ele>79.9</ele>
        <time>2013-09-23T20:23:32.013Z</time>
      </trkpt>
      <trkpt lat="48.85846" lon="2.3121">
        <ele>78.1</ele>
        <time>2013-09-23T20:23:34.012Z</time>
      </trkpt>
      <trkpt lat="48.85846" lon="2.31215">
        <ele>78</ele>
        <time>2013-09-23T20:23:35.022Z</time>
      </trkpt>
      <trkpt lat="48.85845" lon="2.31225">
        <ele>76.4</ele>
        <time>2013-09-23T20:23:37.053Z</time>
      </trkpt>
      <trkpt lat="48.85844" lon="2.3123">
        <ele>76.3</ele>
        <time>2013-09-23T20:23:38.101Z</time>
      </trkpt>
      <trkpt lat="48.85842" lon="2.31241">
        <ele>75.5</ele>
        <time>2013-09-23T20:23:41.023Z</time>
      </trkpt>
      <trkpt lat="48.85841" lon="2.31244">
        <ele>75.3</ele>
        <time>2013-09-23T20:23:42.049Z</time>
      </trkpt>
      <trkpt lat="48.8584" lon="2.31253">
        <ele>73.6</ele>
        <time>2013-09-23T20:23:45.017Z</time>
      </trkpt>
      <trkpt lat="48.85839" lon="2.31258">
        <ele>74.7</ele>
        <time>2013-09-23T20:23:46.014Z</time>
      </trkpt>
      <trkpt lat="48.85838" lon="2.31267">
        <ele>73.7</ele>
        <time>2013-09-23T20:23:48.014Z</time>
      </trkpt>
      <trkpt lat="48.85837" lon="2.31273">
        <ele>73</ele>
        <time>2013-09-23T20:23:49.023Z</time>
      </trkpt>
      <trkpt lat="48.85836" lon="2.31283">
        <ele>72.7</ele>
        <time>2013-09-23T20:23:51.253Z</time>
      </trkpt>
      <trkpt lat="48.85835" lon="2.31288">
        <ele>72.4</ele>
        <time>2013-09-23T20:23:52.141Z</time>
      </trkpt>
      <trkpt lat="48.85834" lon="2.31301">
        <ele>71.7</ele>
        <time>2013-09-23T20:23:55.201Z</time>
      </trkpt>
      <trkpt lat="48.85834" lon="2.31305">
        <ele>71.6</ele>
        <time>2013-09-23T20:23:56.149Z</time>
      </trkpt>
      <trkpt lat="48.85833" lon="2.31316">
        <ele>72.9</ele>
        <time>2013-09-23T20:23:59.078Z</time>
      </trkpt>
      <trkpt lat="48.85833" lon="2.3132">
        <ele>73.7</ele>
        <time>2013-09-23T20:24:00.240Z</time>
      </trkpt>
      <trkpt lat="48.85832" lon="2.3133">
        <ele>73.5</ele>
        <time>2013-09-23T20:24:03.016Z</time>
      </trkpt>
      <trkpt lat="48.85831" lon="2.31334">
        <ele>73.8</ele>
        <time>2013-09-23T20:24:04.171Z</time>
      </trkpt>
      <trkpt lat="48.85831" lon="2.31344">
        <ele>74.2</ele>
        <time>2013-09-23T20:24:07.015Z</time>
      </trkpt>
      <trkpt lat="48.85831" lon="2.31348">
        <ele>74.5</ele>
        <time>2013-09-23T20:24:08.032Z</time>
      </trkpt>
      <trkpt lat="48.8583" lon="2.31358">
        <ele>74.7</ele>
        <time>2013-09-23T20:24:11.159Z</time>
      </trkpt>
      <trkpt lat="48.85829" lon="2.31361">
        <ele>74.5</ele>
        <time>2013-09-23T20:24:12.134Z</time>
      </trkpt>
      <trkpt lat="48.85828" lon="2.31372">
        <ele>73.9</ele>
        <time>2013-09-23T20:24:15.274Z</time>
      </trkpt>
      <trkpt lat="48.85827" lon="2.31376">
        <ele>74.7</ele>
        <time>2013-09-23T20:24:16.023Z</time>
      </trkpt>
      <trkpt lat="48.85825" lon="2.31385">
        <ele>75</ele>
        <time>2013-09-23T20:24:18.049Z</time>
      </trkpt>
      <trkpt lat="48.85824" lon="2.3139">
        <ele>75.3</ele>
        <time>2013-09-23T20:24:19.169Z</time>
      </trkpt>
      <trkpt lat="48.85821" lon="2.31398">
        <ele>74.5</ele>
        <time>2013-09-23T20:24:21.112Z</time>
      </trkpt>
      <trkpt lat="48.8582" lon="2.31403">
        <ele>74.7</ele>
        <time>2013-09-23T20:24:22.241Z</time>
      </trkpt>
      <trkpt lat="48.85816" lon="2.31414">
        <ele>73.5</ele>
        <time>2013-09-23T20:24:25.031Z</time>
      </trkpt>
      <trkpt lat="48.85814" lon="2.31418">
        <ele>73.7</ele>
        <time>2013-09-23T20:24:26.181Z</time>
      </trkpt>
      <trkpt lat="48.85811" lon="2.31429">
        <ele>72.9</ele>
        <time>2013-09-23T20:24:29.243Z</time>
      </trkpt>
      <trkpt lat="48.8581" lon="2.31432">
        <ele>72.2</ele>
        <time>2013-09-23T20:24:30.087Z</time>
      </trkpt>
      <trkpt lat="48.85806" lon="2.31443">
        <ele>71.4</ele>
        <time>2013-09-23T20:24:33.225Z</time>
      </trkpt>
      <trkpt lat="48.85805" lon="2.31446">
        <ele>71.6</ele>
        <time>2013-09-23T20:24:34.057Z</time>
      </trkpt>
      <trkpt lat="48.85799" lon="2.31455">
        <ele>73.1</ele>
        <time>2013-09-23T20:24:37.140Z</time>
      </trkpt>
      <trkpt lat="48.85798" lon="2.31459">
        <ele>74.1</ele>
        <time>2013-09-23T20:24:38.187Z</time>
      </trkpt>
      <trkpt lat="48.85795" lon="2.31469">
        <ele>74.4</ele>
        <time>2013-09-23T20:24:41.029Z</time>
      </trkpt>
      <trkpt lat="48.85795" lon="2.31473">
        <ele>74.6</ele>
        <time>2013-09-23T20:24:42.244Z</time>
      </trkpt>
      <trkpt lat="48.85794" lon="2.31486">
        <ele>78.8</ele>
        <time>2013-09-23T20:24:45.222Z</time>
      </trkpt>
      <trkpt lat="48.85793" lon="2.31489">
        <ele>81</ele>
        <time>2013-09-23T20:24:46.068Z</time>
      </trkpt>
      <trkpt lat="48.85787" lon="2.31498">
        <ele>80.9</ele>
        <time>2013-09-23T20:24:51.030Z</time>
      </trkpt>
      <trkpt lat="48.85786" lon="2.31497">
        <ele>80.6</ele>
        <time>2013-09-23T20:24:52.021Z</time>
      </trkpt>
      <trkpt lat="48.85777" lon="2.31495">
        <ele>80.9</ele>
        <time>2013-09-23T20:24:58.061Z</time>
      </trkpt>
      <trkpt lat="48.85775" lon="2.31495">
        <ele>80.9</ele>
        <time>2013-09-23T20:24:59.035Z</time>
      </trkpt>
      <trkpt lat="48.85767" lon="2.31497">
        <ele>81.7</ele>
        <time>2013-09-23T20:25:08.115Z</time>
      </trkpt>
      <trkpt lat="48.85765" lon="2.31497">
        <ele>81.5</ele>
        <time>2013-09-23T20:25:09.040Z</time>
      </trkpt>
      <trkpt lat="48.85756" lon="2.31496">
        <ele>82.4</ele>
        <time>2013-09-23T20:25:13.050Z</time>
      </trkpt>
      <trkpt lat="48.85754" lon="2.31495">
        <ele>83.2</ele>
        <time>2013-09-23T20:25:14.040Z</time>
      </trkpt>
      <trkpt lat="48.85745" lon="2.31496">
        <ele>82.2</ele>
        <time>2013-09-23T20:25:19.033Z</time>
      </trkpt>
      <trkpt lat="48.85745" lon="2.31497">
        <ele>82.9</ele>
        <time>2013-09-23T20:25:20.042Z</time>
      </trkpt>
      <trkpt lat="48.85737" lon="2.315">
        <ele>84.7</ele>
        <time>2013-09-23T20:25:27.032Z</time>
      </trkpt>
      <trkpt lat="48.85735" lon="2.31499">
        <ele>85.2</ele>
        <time>2013-09-23T20:25:28.024Z</time>
      </trkpt>
      <trkpt lat="48.85729" lon="2.31493">
        <ele>87.7</ele>
        <time>2013-09-23T20:25:33.025Z</time>
      </trkpt>
      <trkpt lat="48.85727" lon="2.31493">
        <ele>87.2</ele>
        <time>2013-09-23T20:25:34.189Z</time>
      </trkpt>
      <trkpt lat="48.85719" lon="2.31496">
        <ele>86.5</ele>
        <time>2013-09-23T20:25:39.217Z</time>
      </trkpt>
      <trkpt lat="48.85718" lon="2.31498">
        <ele>86.7</ele>
        <time>2013-09-23T20:25:40.097Z</time>
      </trkpt>
      <trkpt lat="48.85713" lon="2.31506">
        <ele>87.6</ele>
        <time>2013-09-23T20:25:44.043Z</time>
      </trkpt>
      <trkpt lat="48.85711" lon="2.31509">
        <ele>87.5</ele>
        <time>2013-09-23T20:25:45.209Z</time>
      </trkpt>
      <trkpt lat="48.85704" lon="2.31513">
        <ele>89.3</ele>
        <time>2013-09-23T20:25:48.233Z</time>
      </trkpt>
      <trkpt lat="48.85702" lon="2.31512">
        <ele>89.3</ele>
        <time>2013-09-23T20:25:49.095Z</time>
      </trkpt>
      <trkpt lat="48.85697" lon="2.3151">
        <ele>89</ele>
        <time>2013-09-23T20:25:50.970Z</time>
      </trkpt>
      <trkpt lat="48.85693" lon="2.31509">
        <ele>89.7</ele>
        <time>2013-09-23T20:25:52.166Z</time>
      </trkpt>
      <trkpt lat="48.85686" lon="2.31508">
        <ele>90.2</ele>
        <time>2013-09-23T20:25:54.092Z</time>
      </trkpt>
      <trkpt lat="48.85683" lon="2.31507">
        <ele>90.8</ele>
        <time>2013-09-23T20:25:55.123Z</time>
      </trkpt>
      <trkpt lat="48.85674" lon="2.31507">
        <ele>92.4</ele>
        <time>2013-09-23T20:25:57.971Z</time>
      </trkpt>
      <trkpt lat="48.8567" lon="2.31507">
        <ele>93</ele>
        <time>2013-09-23T20:25:59.163Z</time>
      </trkpt>
      <trkpt lat="48.85664" lon="2.31508">
        <ele>94.2</ele>
        <time>2013-09-23T20:26:01.125Z</time>
      </trkpt>
      <trkpt lat="48.85661" lon="2.31508">
        <ele>93.4</ele>
        <time>2013-09-23T20:26:02.005Z</time>
      </trkpt>
      <trkpt lat="48.85654" lon="2.31509">
        <ele>93.4</ele>
        <time>2013-09-23T20:26:04.176Z</time>
      </trkpt>
      <trkpt lat="48.85651" lon="2.3151">
        <ele>94.3</ele>
        <time>2013-09-23T20:26:05.000Z</time>
      </trkpt>
      <trkpt lat="48.85643" lon="2.31511">
        <ele>96.5</ele>
        <time>2013-09-23T20:26:06.965Z</time>
      </trkpt>
      <trkpt lat="48.85639" lon="2.31512">
        <ele>95.6</ele>
        <time>2013-09-23T20:26:08.201Z</time>
      </trkpt>
      <trkpt lat="48.85633" lon="2.31516">
        <ele>91.6</ele>
        <time>2013-09-23T20:26:10.090Z</time>
      </trkpt>
      <trkpt lat="48.85631" lon="2.31519">
        <ele>90.3</ele>
        <time>2013-09-23T20:26:11.102Z</time>
      </trkpt>
      <trkpt lat="48.85627" lon="2.3153">
        <ele>87.7</ele>
        <time>2013-09-23T20:26:13.980Z</time>
      </trkpt>
      <trkpt lat="48.85625" lon="2.31534">
        <ele>87.9</ele>
        <time>2013-09-23T20:26:15.175Z</time>
      </trkpt>
      <trkpt lat="48.85622" lon="2.31544">
        <ele>85.7</ele>
        <time>2013-09-23T20:26:17.119Z</time>
      </trkpt>
      <trkpt lat="48.8562" lon="2.31549">
        <ele>84</ele>
        <time>2013-09-23T20:26:18.029Z</time>
      </trkpt>
      <trkpt lat="48.85617" lon="2.31562">
        <ele>82.6</ele>
        <time>2013-09-23T20:26:20.123Z</time>
      </trkpt>
      <trkpt lat="48.85616" lon="2.31568">
        <ele>82.5</ele>
        <time>2013-09-23T20:26:20.999Z</time>
      </trkpt>
      <trkpt lat="48.85614" lon="2.3158">
        <ele>81.1</ele>
        <time>2013-09-23T20:26:22.983Z</time>
      </trkpt>
      <trkpt lat="48.85612" lon="2.31586">
        <ele>80.7</ele>
        <time>2013-09-23T20:26:24.181Z</time>
      </trkpt>
      <trkpt lat="48.85609" lon="2.31597">
        <ele>81</ele>
        <time>2013-09-23T20:26:26.079Z</time>
      </trkpt>
      <trkpt lat="48.85607" lon="2.31603">
        <ele>81.3</ele>
        <time>2013-09-23T20:26:27.052Z</time>
      </trkpt>
      <trkpt lat="48.85603" lon="2.31613">
        <ele>80.1</ele>
        <time>2013-09-23T20:26:29.073Z</time>
      </trkpt>
      <trkpt lat="48.85601" lon="2.31618">
        <ele>80.5</ele>
        <time>2013-09-23T20:26:29.959Z</time>
      </trkpt>
      <trkpt lat="48.85598" lon="2.31629">
        <ele>80.1</ele>
        <time>2013-09-23T20:26:31.974Z</time>
      </trkpt>
      <trkpt lat="48.85596" lon="2.31635">
        <ele>79.3</ele>
        <time>2013-09-23T20:26:33.097Z</time>
      </trkpt>
      <trkpt lat="48.85594" lon="2.31645">
        <ele>79.5</ele>
        <time>2013-09-23T20:26:35.075Z</time>
      </trkpt>
      <trkpt lat="48.85592" lon="2.31651">
        <ele>79.4</ele>
        <time>2013-09-23T20:26:36.082Z</time>
      </trkpt>
      <trkpt lat="48.85589" lon="2.31661">
        <ele>80.7</ele>
        <time>2013-09-23T20:26:38.105Z</time>
      </trkpt>
      <trkpt lat="48.85588" lon="2.31666">
        <ele>79.7</ele>
        <time>2013-09-23T20:26:38.978Z</time>
      </trkpt>
      <trkpt lat="48.85586" lon="2.31675">
        <ele>80.5</ele>
        <time>2013-09-23T20:26:40.967Z</time>
      </trkpt>
      <trkpt lat="48.85585" lon="2.31681">
        <ele>80.4</ele>
        <time>2013-09-23T20:26:42.080Z</time>
      </trkpt>
      <trkpt lat="48.85582" lon="2.31691">
        <ele>78.9</ele>
        <time>2013-09-23T20:26:44.015Z</time>
      </trkpt>
      <trkpt lat="48.85581" lon="2.31697">
        <ele>78.6</ele>
        <time>2013-09-23T20:26:45.065Z</time>
      </trkpt>
      <trkpt lat="48.85579" lon="2.31703">
        <ele>77.8</ele>
        <time>2013-09-23T20:26:45.985Z</time>
      </trkpt>
      <trkpt lat="48.85576" lon="2.3171">
        <ele>78.3</ele>
        <time>2013-09-23T20:26:47.131Z</time>
      </trkpt>
      <trkpt lat="48.85576" lon="2.31716">
        <ele>77.3</ele>
        <time>2013-09-23T20:26:47.962Z</time>
      </trkpt>
      <trkpt lat="48.85574" lon="2.31723">
        <ele>78</ele>
        <time>2013-09-23T20:26:48.971Z</time>
      </trkpt>
      <trkpt lat="48.85571" lon="2.31731">
        <ele>77.3</ele>
        <time>2013-09-23T20:26:50.041Z</time>
      </trkpt>
      <trkpt lat="48.8557" lon="2.31738">
        <ele>77.1</ele>
        <time>2013-09-23T20:26:51.089Z</time>
      </trkpt>
      <trkpt lat="48.85567" lon="2.31745">
        <ele>76.5</ele>
        <time>2013-09-23T20:26:52.049Z</time>
      </trkpt>
      <trkpt lat="48.85566" lon="2.31752">
        <ele>76.1</ele>
        <time>2013-09-23T20:26:53.042Z</time>
      </trkpt>
      <trkpt lat="48.85564" lon="2.3176">
        <ele>75.8</ele>
        <time>2013-09-23T20:26:54.041Z</time>
      </trkpt>
      <trkpt lat="48.85563" lon="2.31767">
        <ele>75.3</ele>
        <time>2013-09-23T20:26:54.976Z</time>
      </trkpt>
      <trkpt lat="48.85562" lon="2.31776">
        <ele>74</ele>
        <time>2013-09-23T20:26:56.053Z</time>
      </trkpt>
      <trkpt lat="48.85561" lon="2.31784">
        <ele>74.4</ele>
        <time>2013-09-23T20:26:56.994Z</time>
      </trkpt>
      <trkpt lat="48.85559" lon="2.31793">
        <ele>74</ele>
        <time>2013-09-23T20:26:58.056Z</time>
      </trkpt>
      <trkpt lat="48.85558" lon="2.31801">
        <ele>74.2</ele>
        <time>2013-09-23T20:26:58.970Z</time>
      </trkpt>
      <trkpt lat="48.85556" lon="2.3181">
        <ele>73.4</ele>
        <time>2013-09-23T20:26:59.985Z</time>
      </trkpt>
      <trkpt lat="48.85554" lon="2.31819">
        <ele>72.8</ele>
        <time>2013-09-23T20:27:00.987Z</time>
      </trkpt>
      <trkpt lat="48.85553" lon="2.31828">
        <ele>72</ele>
        <time>2013-09-23T20:27:02.087Z</time>
      </trkpt>
      <trkpt lat="48.85551" lon="2.31836">
        <ele>72.6</ele>
        <time>2013-09-23T20:27:02.970Z</time>
      </trkpt>
      <trkpt lat="48.85549" lon="2.31845">
        <ele>72.9</ele>
        <time>2013-09-23T20:27:04.059Z</time>
      </trkpt>
      <trkpt lat="48.85547" lon="2.31854">
        <ele>72.4</ele>
        <time>2013-09-23T20:27:05.058Z</time>
      </trkpt>
      <trkpt lat="48.85545" lon="2.31862">
        <ele>71.8</ele>
        <time>2013-09-23T20:27:05.993Z</time>
      </trkpt>
      <trkpt lat="48.85543" lon="2.31871">
        <ele>72.1</ele>
        <time>2013-09-23T20:27:07.083Z</time>
      </trkpt>
      <trkpt lat="48.85541" lon="2.31879">
        <ele>72.5</ele>
        <time>2013-09-23T20:27:07.969Z</time>
      </trkpt>
      <trkpt lat="48.85538" lon="2.31888">
        <ele>72.1</ele>
        <time>2013-09-23T20:27:09.065Z</time>
      </trkpt>
      <trkpt lat="48.85536" lon="2.31896">
        <ele>72.3</ele>
        <time>2013-09-23T20:27:09.980Z</time>
      </trkpt>
      <trkpt lat="48.85533" lon="2.31906">
        <ele>72.1</ele>
        <time>2013-09-23T20:27:11.060Z</time>
      </trkpt>
      <trkpt lat="48.85531" lon="2.31914">
        <ele>71.5</ele>
        <time>2013-09-23T20:27:11.980Z</time>
      </trkpt>
      <trkpt lat="48.85528" lon="2.31923">
        <ele>71.9</ele>
        <time>2013-09-23T20:27:13.025Z</time>
      </trkpt>
      <trkpt lat="48.85525" lon="2.31931">
        <ele>72.6</ele>
        <time>2013-09-23T20:27:14.092Z</time>
      </trkpt>
      <trkpt lat="48.85523" lon="2.31937">
        <ele>72.5</ele>
        <time>2013-09-23T20:27:14.972Z</time>
      </trkpt>
      <trkpt lat="48.8552" lon="2.31945">
        <ele>72.5</ele>
        <time>2013-09-23T20:27:16.052Z</time>
      </trkpt>
      <trkpt lat="48.85518" lon="2.31952">
        <ele>72.9</ele>
        <time>2013-09-23T20:27:16.986Z</time>
      </trkpt>
      <trkpt lat="48.85515" lon="2.31964">
        <ele>71.8</ele>
        <time>2013-09-23T20:27:18.988Z</time>
      </trkpt>
      <trkpt lat="48.85512" lon="2.3197">
        <ele>71.8</ele>
        <time>2013-09-23T20:27:20.055Z</time>
      </trkpt>
      <trkpt lat="48.85509" lon="2.31981">
        <ele>72.4</ele>
        <time>2013-09-23T20:27:22.003Z</time>
      </trkpt>
      <trkpt lat="48.85507" lon="2.31986">
        <ele>72.7</ele>
        <time>2013-09-23T20:27:23.095Z</time>
      </trkpt>
      <trkpt lat="48.85504" lon="2.31995">
        <ele>74.8</ele>
        <time>2013-09-23T20:27:25.131Z</time>
      </trkpt>
      <trkpt lat="48.85503" lon="2.31999">
        <ele>75.4</ele>
        <time>2013-09-23T20:27:25.974Z</time>
      </trkpt>
      <trkpt lat="48.855" lon="2.3201">
        <ele>75.6</ele>
        <time>2013-09-23T20:27:28.100Z</time>
      </trkpt>
      <trkpt lat="48.85498" lon="2.32015">
        <ele>75.2</ele>
        <time>2013-09-23T20:27:29.041Z</time>
      </trkpt>
      <trkpt lat="48.85496" lon="2.32028">
        <ele>74.8</ele>
        <time>2013-09-23T20:27:30.972Z</time>
      </trkpt>
      <trkpt lat="48.85494" lon="2.32036">
        <ele>75.3</ele>
        <time>2013-09-23T20:27:32.118Z</time>
      </trkpt>
      <trkpt lat="48.85492" lon="2.32043">
        <ele>74.9</ele>
        <time>2013-09-23T20:27:33.069Z</time>
      </trkpt>
      <trkpt lat="48.8549" lon="2.32051">
        <ele>74.9</ele>
        <time>2013-09-23T20:27:34.116Z</time>
      </trkpt>
      <trkpt lat="48.85488" lon="2.32058">
        <ele>74.6</ele>
        <time>2013-09-23T20:27:34.995Z</time>
      </trkpt>
      <trkpt lat="48.85485" lon="2.32066">
        <ele>75</ele>
        <time>2013-09-23T20:27:36.064Z</time>
      </trkpt>
      <trkpt lat="48.85483" lon="2.32075">
        <ele>75</ele>
        <time>2013-09-23T20:27:37.093Z</time>
      </trkpt>
      <trkpt lat="48.8548" lon="2.32083">
        <ele>74.9</ele>
        <time>2013-09-23T20:27:38.068Z</time>
      </trkpt>
      <trkpt lat="48.85477" lon="2.32091">
        <ele>73.8</ele>
        <time>2013-09-23T20:27:39.125Z</time>
      </trkpt>
      <trkpt lat="48.85475" lon="2.32098">
        <ele>74.8</ele>
        <time>2013-09-23T20:27:39.982Z</time>
      </trkpt>
      <trkpt lat="48.85472" lon="2.32108">
        <ele>73.9</ele>
        <time>2013-09-23T20:27:41.104Z</time>
      </trkpt>
      <trkpt lat="48.8547" lon="2.32116">
        <ele>73.3</ele>
        <time>2013-09-23T20:27:41.982Z</time>
      </trkpt>
      <trkpt lat="48.85469" lon="2.32125">
        <ele>73.1</ele>
        <time>2013-09-23T20:27:43.129Z</time>
      </trkpt>
      <trkpt lat="48.85466" lon="2.32133">
        <ele>73.1</ele>
        <time>2013-09-23T20:27:44.067Z</time>
      </trkpt>
      <trkpt lat="48.85464" lon="2.32142">
        <ele>73.5</ele>
        <time>2013-09-23T20:27:45.041Z</time>
      </trkpt>
      <trkpt lat="48.85464" lon="2.32151">
        <ele>73.2</ele>
        <time>2013-09-23T20:27:46.091Z</time>
      </trkpt>
      <trkpt lat="48.85462" lon="2.32159">
        <ele>72.5</ele>
        <time>2013-09-23T20:27:46.987Z</time>
      </trkpt>
      <trkpt lat="48.8546" lon="2.32168">
        <ele>71.9</ele>
        <time>2013-09-23T20:27:48.113Z</time>
      </trkpt>
      <trkpt lat="48.85458" lon="2.32177">
        <ele>71.1</ele>
        <time>2013-09-23T20:27:48.994Z</time>
      </trkpt>
      <trkpt lat="48.85457" lon="2.32187">
        <ele>70</ele>
        <time>2013-09-23T20:27:50.121Z</time>
      </trkpt>
      <trkpt lat="48.85456" lon="2.32195">
        <ele>70.3</ele>
        <time>2013-09-23T20:27:51.042Z</time>
      </trkpt>
      <trkpt lat="48.85454" lon="2.32204">
        <ele>71.4</ele>
        <time>2013-09-23T20:27:52.086Z</time>
      </trkpt>
      <trkpt lat="48.85452" lon="2.32213">
        <ele>71.8</ele>
        <time>2013-09-23T20:27:53.158Z</time>
      </trkpt>
      <trkpt lat="48.8545" lon="2.3222">
        <ele>71.9</ele>
        <time>2013-09-23T20:27:54.014Z</time>
      </trkpt>
      <trkpt lat="48.85448" lon="2.32229">
        <ele>72.2</ele>
        <time>2013-09-23T20:27:54.966Z</time>
      </trkpt>
      <trkpt lat="48.85446" lon="2.32238">
        <ele>72.1</ele>
        <time>2013-09-23T20:27:55.968Z</time>
      </trkpt>
      <trkpt lat="48.85443" lon="2.32247">
        <ele>72.3</ele>
        <time>2013-09-23T20:27:57.112Z</time>
      </trkpt>
      <trkpt lat="48.8544" lon="2.32254">
        <ele>71.8</ele>
        <time>2013-09-23T20:27:57.974Z</time>
      </trkpt>
      <trkpt lat="48.85437" lon="2.32264">
        <ele>72.3</ele>
        <time>2013-09-23T20:27:59.112Z</time>
      </trkpt>
      <trkpt lat="48.85434" lon="2.32272">
        <ele>71.2</ele>
        <time>2013-09-23T20:28:00.059Z</time>
      </trkpt>
      <trkpt lat="48.85431" lon="2.32281">
        <ele>70.2</ele>
        <time>2013-09-23T20:28:01.041Z</time>
      </trkpt>
      <trkpt lat="48.85428" lon="2.32291">
        <ele>70.1</ele>
        <time>2013-09-23T20:28:02.121Z</time>
      </trkpt>
      <trkpt lat="48.85426" lon="2.32299">
        <ele>69.8</ele>
        <time>2013-09-23T20:28:02.984Z</time>
      </trkpt>
      <trkpt lat="48.85425" lon="2.3231">
        <ele>68.9</ele>
        <time>2013-09-23T20:28:04.113Z</time>
      </trkpt>
      <trkpt lat="48.85424" lon="2.32319">
        <ele>68.1</ele>
        <time>2013-09-23T20:28:04.974Z</time>
      </trkpt>
      <trkpt lat="48.85422" lon="2.32328">
        <ele>67.4</ele>
        <time>2013-09-23T20:28:06.086Z</time>
      </trkpt>
      <trkpt lat="48.8542" lon="2.32336">
        <ele>66.9</ele>
        <time>2013-09-23T20:28:06.992Z</time>
      </trkpt>
      <trkpt lat="48.85417" lon="2.32345">
        <ele>66.8</ele>
        <time>2013-09-23T20:28:08.070Z</time>
      </trkpt>
      <trkpt lat="48.85415" lon="2.32352">
        <ele>66.8</ele>
        <time>2013-09-23T20:28:09.056Z</time>
      </trkpt>
      <trkpt lat="48.85413" lon="2.32358">
        <ele>66.4</ele>
        <time>2013-09-23T20:28:10.007Z</time>
      </trkpt>
      <trkpt lat="48.8541" lon="2.32369">
        <ele>65</ele>
        <time>2013-09-23T20:28:11.971Z</time>
      </trkpt>
      <trkpt lat="48.85409" lon="2.32374">
        <ele>65.2</ele>
        <time>2013-09-23T20:28:13.086Z</time>
      </trkpt>
      <trkpt lat="48.85404" lon="2.32382">
        <ele>67.1</ele>
        <time>2013-09-23T20:28:15.975Z</time>
      </trkpt>
      <trkpt lat="48.85403" lon="2.32385">
        <ele>67</ele>
        <time>2013-09-23T20:28:17.049Z</time>
      </trkpt>
      <trkpt lat="48.854" lon="2.32393">
        <ele>67.7</ele>
        <time>2013-09-23T20:28:18.975Z</time>
      </trkpt>
      <trkpt lat="48.85399" lon="2.32398">
        <ele>66.9</ele>
        <time>2013-09-23T20:28:19.968Z</time>
      </trkpt>
      <trkpt lat="48.85397" lon="2.3241">
        <ele>66.6</ele>
        <time>2013-09-23T20:28:22.112Z</time>
      </trkpt>
      <trkpt lat="48.85397" lon="2.32416">
        <ele>66.8</ele>
        <time>2013-09-23T20:28:23.007Z</time>
      </trkpt>
      <trkpt lat="48.85395" lon="2.32423">
        <ele>64.4</ele>
        <time>2013-09-23T20:28:24.125Z</time>
      </trkpt>
      <trkpt lat="48.85394" lon="2.32431">
        <ele>64.4</ele>
        <time>2013-09-23T20:28:25.130Z</time>
      </trkpt>
      <trkpt lat="48.85392" lon="2.32439">
        <ele>64.7</ele>
        <time>2013-09-23T20:28:26.057Z</time>
      </trkpt>
      <trkpt lat="48.85389" lon="2.32447">
        <ele>65</ele>
        <time>2013-09-23T20:28:27.099Z</time>
      </trkpt>
      <trkpt lat="48.85387" lon="2.32454">
        <ele>65</ele>
        <time>2013-09-23T20:28:27.978Z</time>
      </trkpt>
      <trkpt lat="48.85386" lon="2.32463">
        <ele>66.9</ele>
        <time>2013-09-23T20:28:29.101Z</time>
      </trkpt>
      <trkpt lat="48.85384" lon="2.32471">
        <ele>66</ele>
        <time>2013-09-23T20:28:29.993Z</time>
      </trkpt>
      <trkpt lat="48.85382" lon="2.3248">
        <ele>66.6</ele>
        <time>2013-09-23T20:28:31.166Z</time>
      </trkpt>
      <trkpt lat="48.85381" lon="2.32487">
        <ele>65.9</ele>
        <time>2013-09-23T20:28:32.033Z</time>
      </trkpt>
      <trkpt lat="48.85379" lon="2.32495">
        <ele>65.6</ele>
        <time>2013-09-23T20:28:33.042Z</time>
      </trkpt>
      <trkpt lat="48.85376" lon="2.32503">
        <ele>65.3</ele>
        <time>2013-09-23T20:28:34.101Z</time>
      </trkpt>
      <trkpt lat="48.85374" lon="2.3251">
        <ele>64.7</ele>
        <time>2013-09-23T20:28:34.975Z</time>
      </trkpt>
      <trkpt lat="48.85371" lon="2.32518">
        <ele>65</ele>
        <time>2013-09-23T20:28:36.082Z</time>
      </trkpt>
      <trkpt lat="48.85369" lon="2.32524">
        <ele>64.5</ele>
        <time>2013-09-23T20:28:36.995Z</time>
      </trkpt>
      <trkpt lat="48.85368" lon="2.32532">
        <ele>62.5</ele>
        <time>2013-09-23T20:28:38.089Z</time>
      </trkpt>
      <trkpt lat="48.85368" lon="2.32539">
        <ele>62.6</ele>
        <time>2013-09-23T20:28:38.986Z</time>
      </trkpt>
      <trkpt lat="48.85367" lon="2.32547">
        <ele>62.3</ele>
        <time>2013-09-23T20:28:40.070Z</time>
      </trkpt>
      <trkpt lat="48.85366" lon="2.32554">
        <ele>62.3</ele>
        <time>2013-09-23T20:28:41.072Z</time>
      </trkpt>
      <trkpt lat="48.85364" lon="2.32562">
        <ele>62.5</ele>
        <time>2013-09-23T20:28:42.009Z</time>
      </trkpt>
      <trkpt lat="48.85362" lon="2.3257">
        <ele>62.2</ele>
        <time>2013-09-23T20:28:43.091Z</time>
      </trkpt>
      <trkpt lat="48.85361" lon="2.32578">
        <ele>62.3</ele>
        <time>2013-09-23T20:28:43.995Z</time>
      </trkpt>
      <trkpt lat="48.8536" lon="2.32586">
        <ele>62.3</ele>
        <time>2013-09-23T20:28:45.096Z</time>
      </trkpt>
      <trkpt lat="48.85359" lon="2.32599">
        <ele>60.7</ele>
        <time>2013-09-23T20:28:47.075Z</time>
      </trkpt>
      <trkpt lat="48.85358" lon="2.32605">
        <ele>60.8</ele>
        <time>2013-09-23T20:28:48.051Z</time>
      </trkpt>
      <trkpt lat="48.85357" lon="2.32618">
        <ele>62.6</ele>
        <time>2013-09-23T20:28:52.000Z</time>
      </trkpt>
      <trkpt lat="48.85357" lon="2.32619">
        <ele>62.9</ele>
        <time>2013-09-23T20:28:53.161Z</time>
      </trkpt>
      <trkpt lat="48.85357" lon="2.32619">
        <ele>65.2</ele>
        <time>2013-09-23T20:28:56.986Z</time>
      </trkpt>
      <trkpt lat="48.85357" lon="2.32618">
        <ele>65.3</ele>
        <time>2013-09-23T20:28:58.123Z</time>
      </trkpt>
      <trkpt lat="48.85358" lon="2.32617">
        <ele>65.8</ele>
        <time>2013-09-23T20:29:02.073Z</time>
      </trkpt>
      <trkpt lat="48.85358" lon="2.32617">
        <ele>65.9</ele>
        <time>2013-09-23T20:29:03.090Z</time>
      </trkpt>
      <trkpt lat="48.85359" lon="2.32617">
        <ele>66.1</ele>
        <time>2013-09-23T20:29:05.084Z</time>
      </trkpt>
      <trkpt lat="48.85359" lon="2.32617">
        <ele>66.3</ele>
        <time>2013-09-23T20:29:05.987Z</time>
      </trkpt>
      <trkpt lat="48.8536" lon="2.32618">
        <ele>66.5</ele>
        <time>2013-09-23T20:29:09.124Z</time>
      </trkpt>
      <trkpt lat="48.8536" lon="2.32618">
        <ele>66.6</ele>
        <time>2013-09-23T20:29:10.051Z</time>
      </trkpt>
      <trkpt lat="48.8536" lon="2.32618">
        <ele>66.6</ele>
        <time>2013-09-23T20:29:11.028Z</time>
      </trkpt>
      <trkpt lat="48.8536" lon="2.32618">
        <ele>66.6</ele>
        <time>2013-09-23T20:29:12.173Z</time>
      </trkpt>
      <trkpt lat="48.8536" lon="2.32618">
        <ele>66.8</ele>
        <time>2013-09-23T20:29:12.996Z</time>
      </trkpt>
      <trkpt lat="48.85361" lon="2.32618">
        <ele>66.8</ele>
        <time>2013-09-23T20:29:14.112Z</time>
      </trkpt>
      <trkpt lat="48.85361" lon="2.32618">
        <ele>66.8</ele>
        <time>2013-09-23T20:29:14.983Z</time>
      </trkpt>
      <trkpt lat="48.85361" lon="2.32619">
        <ele>67.1</ele>
        <time>2013-09-23T20:29:17.021Z</time>
      </trkpt>
      <trkpt lat="48.85358" lon="2.3262">
        <ele>66.8</ele>
        <time>2013-09-23T20:29:18.090Z</time>
      </trkpt>
      <trkpt lat="48.85352" lon="2.32625">
        <ele>73</ele>
        <time>2013-09-23T20:29:21.180Z</time>
      </trkpt>
      <trkpt lat="48.8535" lon="2.32627">
        <ele>75.5</ele>
        <time>2013-09-23T20:29:21.982Z</time>
      </trkpt>
      <trkpt lat="48.85344" lon="2.32629">
        <ele>79.9</ele>
        <time>2013-09-23T20:29:23.987Z</time>
      </trkpt>
      <trkpt lat="48.85341" lon="2.32631">
        <ele>81.6</ele>
        <time>2013-09-23T20:29:25.127Z</time>
      </trkpt>
      <trkpt lat="48.85335" lon="2.32634">
        <ele>85.3</ele>
        <time>2013-09-23T20:29:27.045Z</time>
      </trkpt>
      <trkpt lat="48.85331" lon="2.32635">
        <ele>86.5</ele>
        <time>2013-09-23T20:29:28.155Z</time>
      </trkpt>
      <trkpt lat="48.85323" lon="2.32638">
        <ele>89.3</ele>
        <time>2013-09-23T20:29:30.204Z</time>
      </trkpt>
      <trkpt lat="48.85319" lon="2.32639">
        <ele>89.1</ele>
        <time>2013-09-23T20:29:30.983Z</time>
      </trkpt>
      <trkpt lat="48.85313" lon="2.3264">
        <ele>89.5</ele>
        <time>2013-09-23T20:29:32.159Z</time>
      </trkpt>
      <trkpt lat="48.85309" lon="2.32641">
        <ele>90.2</ele>
        <time>2013-09-23T20:29:33.038Z</time>
      </trkpt>
      <trkpt lat="48.85302" lon="2.32644">
        <ele>93</ele>
        <time>2013-09-23T20:29:35.117Z</time>
      </trkpt>
      <trkpt lat="48.85299" lon="2.32645">
        <ele>95.1</ele>
        <time>2013-09-23T20:29:36.039Z</time>
      </trkpt>
      <trkpt lat="48.85292" lon="2.32648">
        <ele>97.3</ele>
        <time>2013-09-23T20:29:37.991Z</time>
      </trkpt>
      <trkpt lat="48.85287" lon="2.3265">
        <ele>99.9</ele>
        <time>2013-09-23T20:29:39.149Z</time>
      </trkpt>
      <trkpt lat="48.85284" lon="2.32651">
        <ele>101.7</ele>
        <time>2013-09-23T20:29:39.998Z</time>
      </trkpt>
      <trkpt lat="48.85279" lon="2.32653">
        <ele>102.6</ele>
        <time>2013-09-23T20:29:41.185Z</time>
      </trkpt>
      <trkpt lat="48.8527" lon="2.32656">
        <ele>105.5</ele>
        <time>2013-09-23T20:29:43.055Z</time>
      </trkpt>
      <trkpt lat="48.85265" lon="2.32658">
        <ele>105.4</ele>
        <time>2013-09-23T20:29:44.114Z</time>
      </trkpt>
      <trkpt lat="48.85261" lon="2.32659">
        <ele>106.8</ele>
        <time>2013-09-23T20:29:44.999Z</time>
      </trkpt>
      <trkpt lat="48.85256" lon="2.32661">
        <ele>108.8</ele>
        <time>2013-09-23T20:29:46.150Z</time>
      </trkpt>
      <trkpt lat="48.85252" lon="2.32661">
        <ele>105.7</ele>
        <time>2013-09-23T20:29:46.988Z</time>
      </trkpt>
      <trkpt lat="48.85247" lon="2.32662">
        <ele>105.9</ele>
        <time>2013-09-23T20:29:48.151Z</time>
      </trkpt>
      <trkpt lat="48.85239" lon="2.32664">
        <ele>105.9</ele>
        <time>2013-09-23T20:29:50.094Z</time>
      </trkpt>
      <trkpt lat="48.85235" lon="2.32665">
        <ele>106.6</ele>
        <time>2013-09-23T20:29:50.973Z</time>
      </trkpt>
      <trkpt lat="48.85228" lon="2.32668">
        <ele>105.1</ele>
        <time>2013-09-23T20:29:52.983Z</time>
      </trkpt>
      <trkpt lat="48.85224" lon="2.32669">
        <ele>104.3</ele>
        <time>2013-09-23T20:29:53.993Z</time>
      </trkpt>
      <trkpt lat="48.85216" lon="2.32671">
        <ele>104.6</ele>
        <time>2013-09-23T20:29:55.984Z</time>
      </trkpt>
      <trkpt lat="48.85212" lon="2.32672">
        <ele>105.2</ele>
        <time>2013-09-23T20:29:57.117Z</time>
      </trkpt>
      <trkpt lat="48.85206" lon="2.32674">
        <ele>108.9</ele>
        <time>2013-09-23T20:29:59.055Z</time>
      </trkpt>
      <trkpt lat="48.85203" lon="2.32675">
        <ele>109.3</ele>
        <time>2013-09-23T20:30:00.116Z</time>
      </trkpt>
      <trkpt lat="48.85196" lon="2.32677">
        <ele>110.4</ele>
        <time>2013-09-23T20:30:03.985Z</time>
      </trkpt>
      <trkpt lat="48.85194" lon="2.32678">
        <ele>109.7</ele>
        <time>2013-09-23T20:30:04.998Z</time>
      </trkpt>
      <trkpt lat="48.85185" lon="2.3268">
        <ele>106.8</ele>
        <time>2013-09-23T20:30:07.985Z</time>
      </trkpt>
      <trkpt lat="48.85182" lon="2.32682">
        <ele>107.3</ele>
        <time>2013-09-23T20:30:08.974Z</time>
      </trkpt>
      <trkpt lat="48.85176" lon="2.32685">
        <ele>107.3</ele>
        <time>2013-09-23T20:30:10.984Z</time>
      </trkpt>
      <trkpt lat="48.85173" lon="2.32686">
        <ele>104.8</ele>
        <time>2013-09-23T20:30:11.986Z</time>
      </trkpt>
      <trkpt lat="48.85166" lon="2.32693">
        <ele>103.5</ele>
        <time>2013-09-23T20:30:14.977Z</time>
      </trkpt>
      <trkpt lat="48.85165" lon="2.32697">
        <ele>103</ele>
        <time>2013-09-23T20:30:15.985Z</time>
      </trkpt>
      <trkpt lat="48.85164" lon="2.32707">
        <ele>101.6</ele>
        <time>2013-09-23T20:30:17.983Z</time>
      </trkpt>
      <trkpt lat="48.85164" lon="2.32713">
        <ele>100.3</ele>
        <time>2013-09-23T20:30:18.995Z</time>
      </trkpt>
      <trkpt lat="48.85166" lon="2.32726">
        <ele>97</ele>
        <time>2013-09-23T20:30:20.983Z</time>
      </trkpt>
      <trkpt lat="48.85167" lon="2.32732">
        <ele>95.8</ele>
        <time>2013-09-23T20:30:21.984Z</time>
      </trkpt>
      <trkpt lat="48.85169" lon="2.32745">
        <ele>94.4</ele>
        <time>2013-09-23T20:30:23.979Z</time>
      </trkpt>
      <trkpt lat="48.8517" lon="2.32752">
        <ele>93.9</ele>
        <time>2013-09-23T20:30:24.985Z</time>
      </trkpt>
      <trkpt lat="48.85171" lon="2.32764">
        <ele>92.9</ele>
        <time>2013-09-23T20:30:27.009Z</time>
      </trkpt>
      <trkpt lat="48.85171" lon="2.32771">
        <ele>92.2</ele>
        <time>2013-09-23T20:30:27.992Z</time>
      </trkpt>
      <trkpt lat="48.85173" lon="2.32784">
        <ele>91</ele>
        <time>2013-09-23T20:30:29.979Z</time>
      </trkpt>
      <trkpt lat="48.85174" lon="2.3279">
        <ele>91</ele>
        <time>2013-09-23T20:30:30.981Z</time>
      </trkpt>
      <trkpt lat="48.85175" lon="2.32797">
        <ele>90</ele>
        <time>2013-09-23T20:30:31.995Z</time>
      </trkpt>
      <trkpt lat="48.85177" lon="2.32803">
        <ele>89.5</ele>
        <time>2013-09-23T20:30:32.998Z</time>
      </trkpt>
      <trkpt lat="48.85179" lon="2.32811">
        <ele>88.1</ele>
        <time>2013-09-23T20:30:33.987Z</time>
      </trkpt>
      <trkpt lat="48.85181" lon="2.32819">
        <ele>87.1</ele>
        <time>2013-09-23T20:30:34.985Z</time>
      </trkpt>
      <trkpt lat="48.85183" lon="2.32826">
        <ele>86.6</ele>
        <time>2013-09-23T20:30:35.985Z</time>
      </trkpt>
      <trkpt lat="48.85184" lon="2.32833">
        <ele>85.7</ele>
        <time>2013-09-23T20:30:36.998Z</time>
      </trkpt>
      <trkpt lat="48.85185" lon="2.32841">
        <ele>84.7</ele>
        <time>2013-09-23T20:30:38.073Z</time>
      </trkpt>
      <trkpt lat="48.85187" lon="2.32849">
        <ele>84</ele>
        <time>2013-09-23T20:30:39.147Z</time>
      </trkpt>
      <trkpt lat="48.85188" lon="2.32856">
        <ele>84.3</ele>
        <time>2013-09-23T20:30:40.119Z</time>
      </trkpt>
      <trkpt lat="48.85189" lon="2.32862">
        <ele>85.1</ele>
        <time>2013-09-23T20:30:41.082Z</time>
      </trkpt>
      <trkpt lat="48.85191" lon="2.3287">
        <ele>84.6</ele>
        <time>2013-09-23T20:30:42.160Z</time>
      </trkpt>
      <trkpt lat="48.85192" lon="2.32876">
        <ele>84.7</ele>
        <time>2013-09-23T20:30:43.021Z</time>
      </trkpt>
      <trkpt lat="48.85194" lon="2.32885">
        <ele>84.6</ele>
        <time>2013-09-23T20:30:44.201Z</time>
      </trkpt>
      <trkpt lat="48.85195" lon="2.32892">
        <ele>84.5</ele>
        <time>2013-09-23T20:30:44.987Z</time>
      </trkpt>
      <trkpt lat="48.85196" lon="2.329">
        <ele>84.4</ele>
        <time>2013-09-23T20:30:46.025Z</time>
      </trkpt>
      <trkpt lat="48.85197" lon="2.32908">
        <ele>84.6</ele>
        <time>2013-09-23T20:30:46.981Z</time>
      </trkpt>
      <trkpt lat="48.85198" lon="2.32915">
        <ele>85.7</ele>
        <time>2013-09-23T20:30:47.985Z</time>
      </trkpt>
      <trkpt lat="48.85199" lon="2.32923">
        <ele>86.3</ele>
        <time>2013-09-23T20:30:48.987Z</time>
      </trkpt>
      <trkpt lat="48.852" lon="2.32931">
        <ele>86.8</ele>
        <time>2013-09-23T20:30:49.981Z</time>
      </trkpt>
      <trkpt lat="48.85201" lon="2.32938">
        <ele>87.2</ele>
        <time>2013-09-23T20:30:50.979Z</time>
      </trkpt>
      <trkpt lat="48.85202" lon="2.32946">
        <ele>87</ele>
        <time>2013-09-23T20:30:51.979Z</time>
      </trkpt>
      <trkpt lat="48.85204" lon="2.32953">
        <ele>87.7</ele>
        <time>2013-09-23T20:30:52.990Z</time>
      </trkpt>
      <trkpt lat="48.85205" lon="2.3296">
        <ele>87</ele>
        <time>2013-09-23T20:30:53.988Z</time>
      </trkpt>
      <trkpt lat="48.85206" lon="2.32967">
        <ele>86.5</ele>
        <time>2013-09-23T20:30:54.988Z</time>
      </trkpt>
      <trkpt lat="48.85209" lon="2.32979">
        <ele>88.5</ele>
        <time>2013-09-23T20:30:57.001Z</time>
      </trkpt>
      <trkpt lat="48.85211" lon="2.32984">
        <ele>89</ele>
        <time>2013-09-23T20:30:57.982Z</time>
      </trkpt>
      <trkpt lat="48.85214" lon="2.32995">
        <ele>88.8</ele>
        <time>2013-09-23T20:30:59.996Z</time>
      </trkpt>
      <trkpt lat="48.85216" lon="2.33001">
        <ele>88.2</ele>
        <time>2013-09-23T20:31:00.979Z</time>
      </trkpt>
      <trkpt lat="48.85217" lon="2.33008">
        <ele>87.9</ele>
        <time>2013-09-23T20:31:01.989Z</time>
      </trkpt>
      <trkpt lat="48.85218" lon="2.33015">
        <ele>86.8</ele>
        <time>2013-09-23T20:31:03.018Z</time>
      </trkpt>
      <trkpt lat="48.8522" lon="2.33023">
        <ele>86.8</ele>
        <time>2013-09-23T20:31:04.122Z</time>
      </trkpt>
      <trkpt lat="48.85221" lon="2.33032">
        <ele>88.2</ele>
        <time>2013-09-23T20:31:05.150Z</time>
      </trkpt>
      <trkpt lat="48.85223" lon="2.33039">
        <ele>88.2</ele>
        <time>2013-09-23T20:31:06.037Z</time>
      </trkpt>
      <trkpt lat="48.85224" lon="2.33048">
        <ele>87.9</ele>
        <time>2013-09-23T20:31:07.140Z</time>
      </trkpt>
      <trkpt lat="48.85226" lon="2.33056">
        <ele>87.8</ele>
        <time>2013-09-23T20:31:07.989Z</time>
      </trkpt>
      <trkpt lat="48.85227" lon="2.33065">
        <ele>86.6</ele>
        <time>2013-09-23T20:31:09.107Z</time>
      </trkpt>
      <trkpt lat="48.85228" lon="2.33073">
        <ele>85.9</ele>
        <time>2013-09-23T20:31:09.997Z</time>
      </trkpt>
      <trkpt lat="48.85229" lon="2.33082">
        <ele>86</ele>
        <time>2013-09-23T20:31:11.116Z</time>
      </trkpt>
      <trkpt lat="48.85229" lon="2.3309">
        <ele>86.2</ele>
        <time>2013-09-23T20:31:12.015Z</time>
      </trkpt>
      <trkpt lat="48.8523" lon="2.33097">
        <ele>86.6</ele>
        <time>2013-09-23T20:31:13.074Z</time>
      </trkpt>
      <trkpt lat="48.85231" lon="2.33105">
        <ele>86</ele>
        <time>2013-09-23T20:31:14.154Z</time>
      </trkpt>
      <trkpt lat="48.85232" lon="2.33111">
        <ele>85.8</ele>
        <time>2013-09-23T20:31:14.996Z</time>
      </trkpt>
      <trkpt lat="48.85233" lon="2.33119">
        <ele>84.9</ele>
        <time>2013-09-23T20:31:16.125Z</time>
      </trkpt>
      <trkpt lat="48.85235" lon="2.33125">
        <ele>86.1</ele>
        <time>2013-09-23T20:31:16.996Z</time>
      </trkpt>
      <trkpt lat="48.85237" lon="2.33132">
        <ele>86.9</ele>
        <time>2013-09-23T20:31:17.991Z</time>
      </trkpt>
      <trkpt lat="48.85239" lon="2.33139">
        <ele>86</ele>
        <time>2013-09-23T20:31:19.015Z</time>
      </trkpt>
      <trkpt lat="48.85241" lon="2.33146">
        <ele>85.9</ele>
        <time>2013-09-23T20:31:20.096Z</time>
      </trkpt>
      <trkpt lat="48.85242" lon="2.33153">
        <ele>87.9</ele>
        <time>2013-09-23T20:31:21.149Z</time>
      </trkpt>
      <trkpt lat="48.85245" lon="2.33164">
        <ele>89.4</ele>
        <time>2013-09-23T20:31:23.992Z</time>
      </trkpt>
      <trkpt lat="48.85245" lon="2.33167">
        <ele>90</ele>
        <time>2013-09-23T20:31:24.981Z</time>
      </trkpt>
      <trkpt lat="48.8525" lon="2.33177">
        <ele>88.9</ele>
        <time>2013-09-23T20:31:32.012Z</time>
      </trkpt>
      <trkpt lat="48.85251" lon="2.33179">
        <ele>90.1</ele>
        <time>2013-09-23T20:31:33.006Z</time>
      </trkpt>
      <trkpt lat="48.85255" lon="2.33191">
        <ele>85.4</ele>
        <time>2013-09-23T20:31:36.992Z</time>
      </trkpt>
      <trkpt lat="48.85257" lon="2.33194">
        <ele>85</ele>
        <time>2013-09-23T20:31:38.032Z</time>
      </trkpt>
      <trkpt lat="48.85261" lon="2.33206">
        <ele>83.9</ele>
        <time>2013-09-23T20:31:40.994Z</time>
      </trkpt>
      <trkpt lat="48.85262" lon="2.3321">
        <ele>82.7</ele>
        <time>2013-09-23T20:31:41.984Z</time>
      </trkpt>
      <trkpt lat="48.8527" lon="2.3321">
        <ele>84</ele>
        <time>2013-09-23T20:31:48.992Z</time>
      </trkpt>
      <trkpt lat="48.85273" lon="2.33208">
        <ele>81.7</ele>
        <time>2013-09-23T20:31:50.184Z</time>
      </trkpt>
      <trkpt lat="48.85279" lon="2.33207">
        <ele>81.4</ele>
        <time>2013-09-23T20:31:52.126Z</time>
      </trkpt>
      <trkpt lat="48.85282" lon="2.33209">
        <ele>81.9</ele>
        <time>2013-09-23T20:31:53.193Z</time>
      </trkpt>
      <trkpt lat="48.85288" lon="2.33214">
        <ele>83.8</ele>
        <time>2013-09-23T20:31:55.017Z</time>
      </trkpt>
      <trkpt lat="48.85291" lon="2.33217">
        <ele>84.1</ele>
        <time>2013-09-23T20:31:55.986Z</time>
      </trkpt>
      <trkpt lat="48.85297" lon="2.33224">
        <ele>82.9</ele>
        <time>2013-09-23T20:31:58.003Z</time>
      </trkpt>
      <trkpt lat="48.853" lon="2.33227">
        <ele>82.9</ele>
        <time>2013-09-23T20:31:59.153Z</time>
      </trkpt>
      <trkpt lat="48.85306" lon="2.33234">
        <ele>83.4</ele>
        <time>2013-09-23T20:32:01.065Z</time>
      </trkpt>
      <trkpt lat="48.85308" lon="2.33238">
        <ele>83.5</ele>
        <time>2013-09-23T20:32:02.154Z</time>
      </trkpt>
      <trkpt lat="48.85314" lon="2.33244">
        <ele>84.4</ele>
        <time>2013-09-23T20:32:04.010Z</time>
      </trkpt>
      <trkpt lat="48.85316" lon="2.33247">
        <ele>84.6</ele>
        <time>2013-09-23T20:32:04.987Z</time>
      </trkpt>
      <trkpt lat="48.85322" lon="2.33252">
        <ele>85.7</ele>
        <time>2013-09-23T20:32:06.985Z</time>
      </trkpt>
      <trkpt lat="48.85325" lon="2.33255">
        <ele>86.8</ele>
        <time>2013-09-23T20:32:07.993Z</time>
      </trkpt>
      <trkpt lat="48.8533" lon="2.3326">
        <ele>88.1</ele>
        <time>2013-09-23T20:32:09.985Z</time>
      </trkpt>
      <trkpt lat="48.85333" lon="2.33263">
        <ele>88.3</ele>
        <time>2013-09-23T20:32:10.996Z</time>
      </trkpt>
      <trkpt lat="48.85338" lon="2.33267">
        <ele>88.7</ele>
        <time>2013-09-23T20:32:12.994Z</time>
      </trkpt>
      <trkpt lat="48.85341" lon="2.3327">
        <ele>89.2</ele>
        <time>2013-09-23T20:32:14.014Z</time>
      </trkpt>
      <trkpt lat="48.85347" lon="2.33276">
        <ele>87.8</ele>
        <time>2013-09-23T20:32:16.993Z</time>
      </trkpt>
      <trkpt lat="48.85349" lon="2.33278">
        <ele>89.6</ele>
        <time>2013-09-23T20:32:17.988Z</time>
      </trkpt>
      <trkpt lat="48.85355" lon="2.33285">
        <ele>90.4</ele>
        <time>2013-09-23T20:32:21.991Z</time>
      </trkpt>
      <trkpt lat="48.85357" lon="2.33286">
        <ele>90.2</ele>
        <time>2013-09-23T20:32:23.010Z</time>
      </trkpt>
      <trkpt lat="48.85363" lon="2.33291">
        <ele>88.2</ele>
        <time>2013-09-23T20:32:26.993Z</time>
      </trkpt>
      <trkpt lat="48.85365" lon="2.33293">
        <ele>88.4</ele>
        <time>2013-09-23T20:32:28.020Z</time>
      </trkpt>
      <trkpt lat="48.85372" lon="2.33299">
        <ele>88.7</ele>
        <time>2013-09-23T20:32:33.066Z</time>
      </trkpt>
      <trkpt lat="48.85373" lon="2.333">
        <ele>89.9</ele>
        <time>2013-09-23T20:32:33.995Z</time>
      </trkpt>
      <trkpt lat="48.85378" lon="2.33307">
        <ele>95</ele>
        <time>2013-09-23T20:32:38.113Z</time>
      </trkpt>
      <trkpt lat="48.85379" lon="2.3331">
        <ele>95.1</ele>
        <time>2013-09-23T20:32:39.182Z</time>
      </trkpt>
      <trkpt lat="48.85386" lon="2.33318">
        <ele>100.2</ele>
        <time>2013-09-23T20:32:46.035Z</time>
      </trkpt>
      <trkpt lat="48.85387" lon="2.33318">
        <ele>101.1</ele>
        <time>2013-09-23T20:32:47.094Z</time>
      </trkpt>
      <trkpt lat="48.85391" lon="2.33327">
        <ele>99.2</ele>
        <time>2013-09-23T20:33:01.190Z</time>
      </trkpt>
      <trkpt lat="48.85393" lon="2.33329">
        <ele>99.1</ele>
        <time>2013-09-23T20:33:02.120Z</time>
      </trkpt>
      <trkpt lat="48.854" lon="2.33331">
        <ele>100.5</ele>
        <time>2013-09-23T20:33:05.030Z</time>
      </trkpt>
      <trkpt lat="48.85402" lon="2.33332">
        <ele>101.9</ele>
        <time>2013-09-23T20:33:06.204Z</time>
      </trkpt>
      <trkpt lat="48.8541" lon="2.33334">
        <ele>102.9</ele>
        <time>2013-09-23T20:33:09.041Z</time>
      </trkpt>
      <trkpt lat="48.85413" lon="2.33335">
        <ele>103.1</ele>
        <time>2013-09-23T20:33:10.119Z</time>
      </trkpt>
      <trkpt lat="48.85419" lon="2.33339">
        <ele>102.8</ele>
        <time>2013-09-23T20:33:12.073Z</time>
      </trkpt>
      <trkpt lat="48.85422" lon="2.33341">
        <ele>102.9</ele>
        <time>2013-09-23T20:33:13.143Z</time>
      </trkpt>
      <trkpt lat="48.8543" lon="2.33345">
        <ele>99.6</ele>
        <time>2013-09-23T20:33:15.998Z</time>
      </trkpt>
      <trkpt lat="48.85433" lon="2.33346">
        <ele>99.6</ele>
        <time>2013-09-23T20:33:16.997Z</time>
      </trkpt>
      <trkpt lat="48.85441" lon="2.33351">
        <ele>98.3</ele>
        <time>2013-09-23T20:33:19.998Z</time>
      </trkpt>
      <trkpt lat="48.85444" lon="2.33354">
        <ele>98.2</ele>
        <time>2013-09-23T20:33:21.018Z</time>
      </trkpt>
      <trkpt lat="48.8544" lon="2.33365">
        <ele>103.9</ele>
        <time>2013-09-23T20:33:24.999Z</time>
      </trkpt>
      <trkpt lat="48.85437" lon="2.33366">
        <ele>104.4</ele>
        <time>2013-09-23T20:33:25.999Z</time>
      </trkpt>
      <trkpt lat="48.85429" lon="2.33372">
        <ele>104.2</ele>
        <time>2013-09-23T20:33:29.025Z</time>
      </trkpt>
      <trkpt lat="48.85428" lon="2.33375">
        <ele>104.6</ele>
        <time>2013-09-23T20:33:30.008Z</time>
      </trkpt>
      <trkpt lat="48.85423" lon="2.33384">
        <ele>108.5</ele>
        <time>2013-09-23T20:33:33.043Z</time>
      </trkpt>
      <trkpt lat="48.85422" lon="2.33387">
        <ele>107.9</ele>
        <time>2013-09-23T20:33:33.994Z</time>
      </trkpt>
      <trkpt lat="48.8542" lon="2.33395">
        <ele>105.9</ele>
        <time>2013-09-23T20:33:35.998Z</time>
      </trkpt>
      <trkpt lat="48.8542" lon="2.33401">
        <ele>105.4</ele>
        <time>2013-09-23T20:33:37.012Z</time>
      </trkpt>
      <trkpt lat="48.8542" lon="2.33409">
        <ele>104.4</ele>
        <time>2013-09-23T20:33:38.040Z</time>
      </trkpt>
      <trkpt lat="48.8542" lon="2.33417">
        <ele>100.6</ele>
        <time>2013-09-23T20:33:38.993Z</time>
      </trkpt>
      <trkpt lat="48.8542" lon="2.33426">
        <ele>99.4</ele>
        <time>2013-09-23T20:33:39.999Z</time>
      </trkpt>
      <trkpt lat="48.8542" lon="2.33434">
        <ele>98.7</ele>
        <time>2013-09-23T20:33:41.025Z</time>
      </trkpt>
      <trkpt lat="48.8542" lon="2.33442">
        <ele>97.1</ele>
        <time>2013-09-23T20:33:41.994Z</time>
      </trkpt>
      <trkpt lat="48.8542" lon="2.3345">
        <ele>96.9</ele>
        <time>2013-09-23T20:33:43.001Z</time>
      </trkpt>
      <trkpt lat="48.85419" lon="2.33457">
        <ele>97.5</ele>
        <time>2013-09-23T20:33:43.993Z</time>
      </trkpt>
      <trkpt lat="48.85419" lon="2.33464">
        <ele>96.4</ele>
        <time>2013-09-23T20:33:45.002Z</time>
      </trkpt>
      <trkpt lat="48.85417" lon="2.33477">
        <ele>95.3</ele>
        <time>2013-09-23T20:33:47.004Z</time>
      </trkpt>
      <trkpt lat="48.85417" lon="2.33482">
        <ele>94.6</ele>
        <time>2013-09-23T20:33:48.050Z</time>
      </trkpt>
      <trkpt lat="48.85419" lon="2.33492">
        <ele>92.5</ele>
        <time>2013-09-23T20:33:49.995Z</time>
      </trkpt>
      <trkpt lat="48.8542" lon="2.33497">
        <ele>91.8</ele>
        <time>2013-09-23T20:33:51.002Z</time>
      </trkpt>
      <trkpt lat="48.85421" lon="2.33508">
        <ele>90.5</ele>
        <time>2013-09-23T20:33:53.067Z</time>
      </trkpt>
      <trkpt lat="48.85422" lon="2.33513">
        <ele>89</ele>
        <time>2013-09-23T20:33:54.003Z</time>
      </trkpt>
      <trkpt lat="48.85422" lon="2.33525">
        <ele>88.2</ele>
        <time>2013-09-23T20:33:56.126Z</time>
      </trkpt>
      <trkpt lat="48.85421" lon="2.3353">
        <ele>87.9</ele>
        <time>2013-09-23T20:33:57.042Z</time>
      </trkpt>
      <trkpt lat="48.8542" lon="2.33541">
        <ele>87.7</ele>
        <time>2013-09-23T20:33:59.099Z</time>
      </trkpt>
      <trkpt lat="48.8542" lon="2.33546">
        <ele>86.1</ele>
        <time>2013-09-23T20:34:00.084Z</time>
      </trkpt>
      <trkpt lat="48.85418" lon="2.33556">
        <ele>85.1</ele>
        <time>2013-09-23T20:34:02.085Z</time>
      </trkpt>
      <trkpt lat="48.85417" lon="2.3356">
        <ele>84.4</ele>
        <time>2013-09-23T20:34:03.185Z</time>
      </trkpt>
      <trkpt lat="48.85413" lon="2.33572">
        <ele>85.1</ele>
        <time>2013-09-23T20:34:06.083Z</time>
      </trkpt>
      <trkpt lat="48.85412" lon="2.33576">
        <ele>85.1</ele>
        <time>2013-09-23T20:34:07.074Z</time>
      </trkpt>
      <trkpt lat="48.85405" lon="2.33581">
        <ele>86</ele>
        <time>2013-09-23T20:34:15.101Z</time>
      </trkpt>
      <trkpt lat="48.85404" lon="2.33583">
        <ele>85.4</ele>
        <time>2013-09-23T20:34:16.053Z</time>
      </trkpt>
      <trkpt lat="48.85407" lon="2.33592">
        <ele>86.3</ele>
        <time>2013-09-23T20:34:20.010Z</time>
      </trkpt>
      <trkpt lat="48.8541" lon="2.33594">
        <ele>86.4</ele>
        <time>2013-09-23T20:34:21.081Z</time>
      </trkpt>
      <trkpt lat="48.85416" lon="2.336">
        <ele>86</ele>
        <time>2013-09-23T20:34:23.090Z</time>
      </trkpt>
      <trkpt lat="48.85419" lon="2.33603">
        <ele>86.2</ele>
        <time>2013-09-23T20:34:24.045Z</time>
      </trkpt>
      <trkpt lat="48.85425" lon="2.33607">
        <ele>85.1</ele>
        <time>2013-09-23T20:34:26.013Z</time>
      </trkpt>
      <trkpt lat="48.85429" lon="2.33608">
        <ele>85.2</ele>
        <time>2013-09-23T20:34:27.022Z</time>
      </trkpt>
      <trkpt lat="48.85436" lon="2.33609">
        <ele>85.3</ele>
        <time>2013-09-23T20:34:29.023Z</time>
      </trkpt>
      <trkpt lat="48.8544" lon="2.33609">
        <ele>85.4</ele>
        <time>2013-09-23T20:34:30.088Z</time>
      </trkpt>
      <trkpt lat="48.85447" lon="2.33602">
        <ele>86.2</ele>
        <time>2013-09-23T20:34:33.070Z</time>
      </trkpt>
      <trkpt lat="48.85448" lon="2.33598">
        <ele>86.4</ele>
        <time>2013-09-23T20:34:34.021Z</time>
      </trkpt>
      <trkpt lat="48.85447" lon="2.33588">
        <ele>86.1</ele>
        <time>2013-09-23T20:34:36.004Z</time>
      </trkpt>
      <trkpt lat="48.85446" lon="2.33583">
        <ele>85.1</ele>
        <time>2013-09-23T20:34:37.069Z</time>
      </trkpt>
      <trkpt lat="48.8544" lon="2.33574">
        <ele>86.7</ele>
        <time>2013-09-23T20:34:40.182Z</time>
      </trkpt>
      <trkpt lat="48.85437" lon="2.33573">
        <ele>87.4</ele>
        <time>2013-09-23T20:34:41.016Z</time>
      </trkpt>
      <trkpt lat="48.8543" lon="2.33571">
        <ele>88.7</ele>
        <time>2013-09-23T20:34:43.066Z</time>
      </trkpt>
      <trkpt lat="48.85427" lon="2.33571">
        <ele>87.4</ele>
        <time>2013-09-23T20:34:44.076Z</time>
      </trkpt>
      <trkpt lat="48.8542" lon="2.33571">
        <ele>86.6</ele>
        <time>2013-09-23T20:34:46.026Z</time>
      </trkpt>
      <trkpt lat="48.85417" lon="2.33572">
        <ele>87.6</ele>
        <time>2013-09-23T20:34:47.072Z</time>
      </trkpt>
      <trkpt lat="48.85424" lon="2.33574">
        <ele>88.7</ele>
        <time>2013-09-23T20:34:57.040Z</time>
      </trkpt>
      <trkpt lat="48.85426" lon="2.33571">
        <ele>88.3</ele>
        <time>2013-09-23T20:34:58.104Z</time>
      </trkpt>
      <trkpt lat="48.85435" lon="2.33572">
        <ele>92.5</ele>
        <time>2013-09-23T20:35:24.009Z</time>
      </trkpt>
      <trkpt lat="48.85438" lon="2.33575">
        <ele>92.9</ele>
        <time>2013-09-23T20:35:25.088Z</time>
      </trkpt>
      <trkpt lat="48.85446" lon="2.3358">
        <ele>92.3</ele>
        <time>2013-09-23T20:35:27.075Z</time>
      </trkpt>
      <trkpt lat="48.85451" lon="2.33582">
        <ele>93.1</ele>
        <time>2013-09-23T20:35:28.137Z</time>
      </trkpt>
      <trkpt lat="48.85456" lon="2.33583">
        <ele>93.3</ele>
        <time>2013-09-23T20:35:29.010Z</time>
      </trkpt>
      <trkpt lat="48.85461" lon="2.33585">
        <ele>92.2</ele>
        <time>2013-09-23T20:35:30.138Z</time>
      </trkpt>
      <trkpt lat="48.85465" lon="2.33588">
        <ele>94.5</ele>
        <time>2013-09-23T20:35:31.017Z</time>
      </trkpt>
      <trkpt lat="48.85469" lon="2.33593">
        <ele>96.1</ele>
        <time>2013-09-23T20:35:32.160Z</time>
      </trkpt>
      <trkpt lat="48.85471" lon="2.33599">
        <ele>95.9</ele>
        <time>2013-09-23T20:35:33.114Z</time>
      </trkpt>
      <trkpt lat="48.85471" lon="2.33608">
        <ele>96.3</ele>
        <time>2013-09-23T20:35:34.119Z</time>
      </trkpt>
      <trkpt lat="48.85469" lon="2.33617">
        <ele>94.9</ele>
        <time>2013-09-23T20:35:35.072Z</time>
      </trkpt>
      <trkpt lat="48.85466" lon="2.33625">
        <ele>93.1</ele>
        <time>2013-09-23T20:35:36.049Z</time>
      </trkpt>
      <trkpt lat="48.85463" lon="2.33634">
        <ele>91.4</ele>
        <time>2013-09-23T20:35:37.084Z</time>
      </trkpt>
      <trkpt lat="48.8546" lon="2.33642">
        <ele>90.6</ele>
        <time>2013-09-23T20:35:38.078Z</time>
      </trkpt>
      <trkpt lat="48.85458" lon="2.33654">
        <ele>92.2</ele>
        <time>2013-09-23T20:35:40.018Z</time>
      </trkpt>
      <trkpt lat="48.85459" lon="2.33659">
        <ele>92.2</ele>
        <time>2013-09-23T20:35:41.082Z</time>
      </trkpt>
      <trkpt lat="48.85464" lon="2.33664">
        <ele>92.3</ele>
        <time>2013-09-23T20:35:43.094Z</time>
      </trkpt>
      <trkpt lat="48.85467" lon="2.33666">
        <ele>92.4</ele>
        <time>2013-09-23T20:35:44.059Z</time>
      </trkpt>
      <trkpt lat="48.85473" lon="2.3367">
        <ele>92.9</ele>
        <time>2013-09-23T20:35:46.080Z</time>
      </trkpt>
      <trkpt lat="48.85477" lon="2.33673">
        <ele>93.5</ele>
        <time>2013-09-23T20:35:47.019Z</time>
      </trkpt>
      <trkpt lat="48.85484" lon="2.33677">
        <ele>93.4</ele>
        <time>2013-09-23T20:35:49.020Z</time>
      </trkpt>
      <trkpt lat="48.85489" lon="2.33679">
        <ele>93.4</ele>
        <time>2013-09-23T20:35:50.094Z</time>
      </trkpt>
      <trkpt lat="48.85493" lon="2.3368">
        <ele>93.2</ele>
        <time>2013-09-23T20:35:51.027Z</time>
      </trkpt>
      <trkpt lat="48.85498" lon="2.3368">
        <ele>93.4</ele>
        <time>2013-09-23T20:35:52.059Z</time>
      </trkpt>
      <trkpt lat="48.85503" lon="2.33679">
        <ele>92.4</ele>
        <time>2013-09-23T20:35:53.102Z</time>
      </trkpt>
      <trkpt lat="48.85508" lon="2.33678">
        <ele>89.2</ele>
        <time>2013-09-23T20:35:54.017Z</time>
      </trkpt>
      <trkpt lat="48.85513" lon="2.33677">
        <ele>89.7</ele>
        <time>2013-09-23T20:35:55.133Z</time>
      </trkpt>
      <trkpt lat="48.85517" lon="2.33676">
        <ele>88.2</ele>
        <time>2013-09-23T20:35:56.021Z</time>
      </trkpt>
      <trkpt lat="48.85526" lon="2.33675">
        <ele>86.4</ele>
        <time>2013-09-23T20:35:58.165Z</time>
      </trkpt>
      <trkpt lat="48.85529" lon="2.33675">
        <ele>86.6</ele>
        <time>2013-09-23T20:35:59.080Z</time>
      </trkpt>
      <trkpt lat="48.85537" lon="2.33674">
        <ele>87.4</ele>
        <time>2013-09-23T20:36:01.023Z</time>
      </trkpt>
      <trkpt lat="48.85542" lon="2.33674">
        <ele>87.3</ele>
        <time>2013-09-23T20:36:02.118Z</time>
      </trkpt>
      <trkpt lat="48.85546" lon="2.33673">
        <ele>87.3</ele>
        <time>2013-09-23T20:36:03.024Z</time>
      </trkpt>
      <trkpt lat="48.85551" lon="2.33672">
        <ele>82.9</ele>
        <time>2013-09-23T20:36:04.139Z</time>
      </trkpt>
      <trkpt lat="48.85556" lon="2.33669">
        <ele>82.4</ele>
        <time>2013-09-23T20:36:05.016Z</time>
      </trkpt>
      <trkpt lat="48.85561" lon="2.33667">
        <ele>82.4</ele>
        <time>2013-09-23T20:36:06.100Z</time>
      </trkpt>
      <trkpt lat="48.85566" lon="2.33665">
        <ele>82.7</ele>
        <time>2013-09-23T20:36:07.022Z</time>
      </trkpt>
      <trkpt lat="48.85571" lon="2.33663">
        <ele>82.9</ele>
        <time>2013-09-23T20:36:08.021Z</time>
      </trkpt>
      <trkpt lat="48.85576" lon="2.33662">
        <ele>83.4</ele>
        <time>2013-09-23T20:36:09.102Z</time>
      </trkpt>
      <trkpt lat="48.8558" lon="2.33662">
        <ele>84</ele>
        <time>2013-09-23T20:36:10.022Z</time>
      </trkpt>
      <trkpt lat="48.85585" lon="2.33663">
        <ele>84.7</ele>
        <time>2013-09-23T20:36:11.028Z</time>
      </trkpt>
      <trkpt lat="48.8559" lon="2.33664">
        <ele>84.7</ele>
        <time>2013-09-23T20:36:12.094Z</time>
      </trkpt>
      <trkpt lat="48.85594" lon="2.33665">
        <ele>85</ele>
        <time>2013-09-23T20:36:13.022Z</time>
      </trkpt>
      <trkpt lat="48.85599" lon="2.33665">
        <ele>84.4</ele>
        <time>2013-09-23T20:36:14.132Z</time>
      </trkpt>
      <trkpt lat="48.85603" lon="2.33666">
        <ele>84.4</ele>
        <time>2013-09-23T20:36:15.022Z</time>
      </trkpt>
      <trkpt lat="48.85609" lon="2.33665">
        <ele>82</ele>
        <time>2013-09-23T20:36:16.125Z</time>
      </trkpt>
      <trkpt lat="48.85615" lon="2.33662">
        <ele>81.3</ele>
        <time>2013-09-23T20:36:17.103Z</time>
      </trkpt>
      <trkpt lat="48.85621" lon="2.3366">
        <ele>81</ele>
        <time>2013-09-23T20:36:18.086Z</time>
      </trkpt>
      <trkpt lat="48.85626" lon="2.33658">
        <ele>81.2</ele>
        <time>2013-09-23T20:36:19.110Z</time>
      </trkpt>
      <trkpt lat="48.85632" lon="2.33659">
        <ele>80.6</ele>
        <time>2013-09-23T20:36:20.071Z</time>
      </trkpt>
      <trkpt lat="48.85637" lon="2.3366">
        <ele>81.1</ele>
        <time>2013-09-23T20:36:21.112Z</time>
      </trkpt>
      <trkpt lat="48.85641" lon="2.33658">
        <ele>81.7</ele>
        <time>2013-09-23T20:36:22.032Z</time>
      </trkpt>
      <trkpt lat="48.85647" lon="2.33656">
        <ele>82.6</ele>
        <time>2013-09-23T20:36:24.044Z</time>
      </trkpt>
      <trkpt lat="48.85651" lon="2.33655">
        <ele>82.7</ele>
        <time>2013-09-23T20:36:25.092Z</time>
      </trkpt>
      <trkpt lat="48.85658" lon="2.33653">
        <ele>83.1</ele>
        <time>2013-09-23T20:36:27.051Z</time>
      </trkpt>
      <trkpt lat="48.85663" lon="2.33651">
        <ele>83.1</ele>
        <time>2013-09-23T20:36:28.143Z</time>
      </trkpt>
      <trkpt lat="48.8567" lon="2.33649">
        <ele>82.1</ele>
        <time>2013-09-23T20:36:29.029Z</time>
      </trkpt>
      <trkpt lat="48.85677" lon="2.33649">
        <ele>81.1</ele>
        <time>2013-09-23T20:36:30.151Z</time>
      </trkpt>
      <trkpt lat="48.85682" lon="2.33648">
        <ele>81.2</ele>
        <time>2013-09-23T20:36:31.013Z</time>
      </trkpt>
      <trkpt lat="48.85687" lon="2.33648">
        <ele>80.9</ele>
        <time>2013-09-23T20:36:32.119Z</time>
      </trkpt>
      <trkpt lat="48.85692" lon="2.33649">
        <ele>81.3</ele>
        <time>2013-09-23T20:36:33.069Z</time>
      </trkpt>
      <trkpt lat="48.85697" lon="2.3365">
        <ele>81</ele>
        <time>2013-09-23T20:36:34.080Z</time>
      </trkpt>
      <trkpt lat="48.85705" lon="2.3365">
        <ele>80.5</ele>
        <time>2013-09-23T20:36:36.039Z</time>
      </trkpt>
      <trkpt lat="48.8571" lon="2.33649">
        <ele>79.5</ele>
        <time>2013-09-23T20:36:37.119Z</time>
      </trkpt>
      <trkpt lat="48.85715" lon="2.33648">
        <ele>78</ele>
        <time>2013-09-23T20:36:38.037Z</time>
      </trkpt>
      <trkpt lat="48.85721" lon="2.33646">
        <ele>77.9</ele>
        <time>2013-09-23T20:36:39.166Z</time>
      </trkpt>
      <trkpt lat="48.85726" lon="2.33645">
        <ele>77.8</ele>
        <time>2013-09-23T20:36:40.022Z</time>
      </trkpt>
      <trkpt lat="48.85732" lon="2.33642">
        <ele>75.2</ele>
        <time>2013-09-23T20:36:41.160Z</time>
      </trkpt>
      <trkpt lat="48.85741" lon="2.33639">
        <ele>74.7</ele>
        <time>2013-09-23T20:36:43.047Z</time>
      </trkpt>
      <trkpt lat="48.85744" lon="2.33639">
        <ele>75.4</ele>
        <time>2013-09-23T20:36:44.174Z</time>
      </trkpt>
      <trkpt lat="48.8575" lon="2.33649">
        <ele>74.2</ele>
        <time>2013-09-23T20:36:59.048Z</time>
      </trkpt>
      <trkpt lat="48.8575" lon="2.3365">
        <ele>75.5</ele>
        <time>2013-09-23T20:37:00.138Z</time>
      </trkpt>
      <trkpt lat="48.85753" lon="2.33655">
        <ele>80.9</ele>
        <time>2013-09-23T20:37:09.168Z</time>
      </trkpt>
      <trkpt lat="48.85753" lon="2.33654">
        <ele>81</ele>
        <time>2013-09-23T20:37:10.015Z</time>
      </trkpt>
      <trkpt lat="48.85754" lon="2.33654">
        <ele>80.5</ele>
        <time>2013-09-23T20:37:24.026Z</time>
      </trkpt>
      <trkpt lat="48.85755" lon="2.33654">
        <ele>80.7</ele>
        <time>2013-09-23T20:37:25.189Z</time>
      </trkpt>
      <trkpt lat="48.85762" lon="2.33659">
        <ele>76.9</ele>
        <time>2013-09-23T20:37:34.165Z</time>
      </trkpt>
      <trkpt lat="48.85763" lon="2.3366">
        <ele>77.5</ele>
        <time>2013-09-23T20:37:35.037Z</time>
      </trkpt>
      <trkpt lat="48.85768" lon="2.33667">
        <ele>78.3</ele>
        <time>2013-09-23T20:37:38.146Z</time>
      </trkpt>
      <trkpt lat="48.8577" lon="2.3367">
        <ele>80</ele>
        <time>2013-09-23T20:37:39.180Z</time>
      </trkpt>
      <trkpt lat="48.85775" lon="2.3368">
        <ele>81.1</ele>
        <time>2013-09-23T20:37:42.028Z</time>
      </trkpt>
      <trkpt lat="48.85777" lon="2.33683">
        <ele>81.5</ele>
        <time>2013-09-23T20:37:43.213Z</time>
      </trkpt>
      <trkpt lat="48.85785" lon="2.33688">
        <ele>80.4</ele>
        <time>2013-09-23T20:37:48.269Z</time>
      </trkpt>
      <trkpt lat="48.85786" lon="2.33686">
        <ele>81.6</ele>
        <time>2013-09-23T20:37:49.028Z</time>
      </trkpt>
      <trkpt lat="48.85787" lon="2.33698">
        <ele>85.4</ele>
        <time>2013-09-23T20:38:07.036Z</time>
      </trkpt>
      <trkpt lat="48.85787" lon="2.337">
        <ele>85.9</ele>
        <time>2013-09-23T20:38:08.184Z</time>
      </trkpt>
      <trkpt lat="48.85788" lon="2.33713">
        <ele>85.1</ele>
        <time>2013-09-23T20:38:18.256Z</time>
      </trkpt>
      <trkpt lat="48.85788" lon="2.33714">
        <ele>84.1</ele>
        <time>2013-09-23T20:38:19.087Z</time>
      </trkpt>
      <trkpt lat="48.85795" lon="2.3372">
        <ele>84</ele>
        <time>2013-09-23T20:38:24.159Z</time>
      </trkpt>
      <trkpt lat="48.85797" lon="2.33721">
        <ele>84.5</ele>
        <time>2013-09-23T20:38:25.243Z</time>
      </trkpt>
      <trkpt lat="48.85804" lon="2.33725">
        <ele>82.4</ele>
        <time>2013-09-23T20:38:28.116Z</time>
      </trkpt>
      <trkpt lat="48.85808" lon="2.33727">
        <ele>82</ele>
        <time>2013-09-23T20:38:29.780Z</time>
      </trkpt>
      <trkpt lat="48.85816" lon="2.33732">
        <ele>81.6</ele>
        <time>2013-09-23T20:38:32.133Z</time>
      </trkpt>
      <trkpt lat="48.85819" lon="2.33734">
        <ele>81.1</ele>
        <time>2013-09-23T20:38:33.141Z</time>
      </trkpt>
      <trkpt lat="48.85824" lon="2.33737">
        <ele>80.5</ele>
        <time>2013-09-23T20:38:35.102Z</time>
      </trkpt>
      <trkpt lat="48.85828" lon="2.33739">
        <ele>80</ele>
        <time>2013-09-23T20:38:36.780Z</time>
      </trkpt>
      <trkpt lat="48.85835" lon="2.33742">
        <ele>78.9</ele>
        <time>2013-09-23T20:38:38.070Z</time>
      </trkpt>
      <trkpt lat="48.85839" lon="2.33744">
        <ele>79</ele>
        <time>2013-09-23T20:38:39.320Z</time>
      </trkpt>
      <trkpt lat="48.85846" lon="2.33748">
        <ele>78.8</ele>
        <time>2013-09-23T20:38:41.778Z</time>
      </trkpt>
      <trkpt lat="48.85848" lon="2.33749">
        <ele>78.8</ele>
        <time>2013-09-23T20:38:42.124Z</time>
      </trkpt>
      <trkpt lat="48.85856" lon="2.33753">
        <ele>78.2</ele>
        <time>2013-09-23T20:38:44.037Z</time>
      </trkpt>
      <trkpt lat="48.85859" lon="2.33755">
        <ele>77.6</ele>
        <time>2013-09-23T20:38:45.023Z</time>
      </trkpt>
      <trkpt lat="48.85866" lon="2.33758">
        <ele>78.1</ele>
        <time>2013-09-23T20:38:47.171Z</time>
      </trkpt>
      <trkpt lat="48.85869" lon="2.3376">
        <ele>78.7</ele>
        <time>2013-09-23T20:38:48.344Z</time>
      </trkpt>
      <trkpt lat="48.85876" lon="2.33763">
        <ele>78.7</ele>
        <time>2013-09-23T20:38:50.734Z</time>
      </trkpt>
      <trkpt lat="48.85877" lon="2.33764">
        <ele>78.1</ele>
        <time>2013-09-23T20:38:50.950Z</time>
      </trkpt>
      <trkpt lat="48.85885" lon="2.33767">
        <ele>78.2</ele>
        <time>2013-09-23T20:38:53.046Z</time>
      </trkpt>
      <trkpt lat="48.85888" lon="2.33768">
        <ele>78.6</ele>
        <time>2013-09-23T20:38:54.107Z</time>
      </trkpt>
      <trkpt lat="48.85893" lon="2.33771">
        <ele>79.5</ele>
        <time>2013-09-23T20:38:56.018Z</time>
      </trkpt>
      <trkpt lat="48.85897" lon="2.33772">
        <ele>79.6</ele>
        <time>2013-09-23T20:38:57.237Z</time>
      </trkpt>
      <trkpt lat="48.85903" lon="2.3378">
        <ele>79.9</ele>
        <time>2013-09-23T20:39:01.118Z</time>
      </trkpt>
      <trkpt lat="48.85904" lon="2.33782">
        <ele>81.1</ele>
        <time>2013-09-23T20:39:02.167Z</time>
      </trkpt>
      <trkpt lat="48.85908" lon="2.33793">
        <ele>79.7</ele>
        <time>2013-09-23T20:39:08.951Z</time>
      </trkpt>
      <trkpt lat="48.85908" lon="2.33795">
        <ele>79.4</ele>
        <time>2013-09-23T20:39:10.158Z</time>
      </trkpt>
      <trkpt lat="48.85909" lon="2.33806">
        <ele>80.1</ele>
        <time>2013-09-23T20:39:15.986Z</time>
      </trkpt>
      <trkpt lat="48.85909" lon="2.3381">
        <ele>80.6</ele>
        <time>2013-09-23T20:39:17.199Z</time>
      </trkpt>
      <trkpt lat="48.8591" lon="2.33819">
        <ele>82.7</ele>
        <time>2013-09-23T20:39:19.963Z</time>
      </trkpt>
      <trkpt lat="48.8591" lon="2.33823">
        <ele>84.2</ele>
        <time>2013-09-23T20:39:21.090Z</time>
      </trkpt>
      <trkpt lat="48.85913" lon="2.33834">
        <ele>86.9</ele>
        <time>2013-09-23T20:39:28.094Z</time>
      </trkpt>
      <trkpt lat="48.85913" lon="2.33834">
        <ele>86.5</ele>
        <time>2013-09-23T20:39:29.129Z</time>
      </trkpt>
      <trkpt lat="48.85912" lon="2.33833">
        <ele>86.1</ele>
        <time>2013-09-23T20:39:31.269Z</time>
      </trkpt>
      <trkpt lat="48.85912" lon="2.33833">
        <ele>85.6</ele>
        <time>2013-09-23T20:39:31.994Z</time>
      </trkpt>
      <trkpt lat="48.85912" lon="2.33834">
        <ele>85.5</ele>
        <time>2013-09-23T20:39:33.967Z</time>
      </trkpt>
      <trkpt lat="48.85912" lon="2.33834">
        <ele>85.1</ele>
        <time>2013-09-23T20:39:35.154Z</time>
      </trkpt>
      <trkpt lat="48.85912" lon="2.33834">
        <ele>86.2</ele>
        <time>2013-09-23T20:39:36.088Z</time>
      </trkpt>
      <trkpt lat="48.85912" lon="2.33834">
        <ele>86.1</ele>
        <time>2013-09-23T20:39:37.056Z</time>
      </trkpt>
      <trkpt lat="48.85912" lon="2.33833">
        <ele>86.2</ele>
        <time>2013-09-23T20:39:38.239Z</time>
      </trkpt>
      <trkpt lat="48.85912" lon="2.33833">
        <ele>86.5</ele>
        <time>2013-09-23T20:39:39.026Z</time>
      </trkpt>
      <trkpt lat="48.85912" lon="2.33833">
        <ele>86.7</ele>
        <time>2013-09-23T20:39:40.245Z</time>
      </trkpt>
      <trkpt lat="48.85912" lon="2.33834">
        <ele>86.8</ele>
        <time>2013-09-23T20:39:40.985Z</time>
      </trkpt>
      <trkpt lat="48.85912" lon="2.33835">
        <ele>86.6</ele>
        <time>2013-09-23T20:39:44.094Z</time>
      </trkpt>
      <trkpt lat="48.85912" lon="2.33835">
        <ele>86.8</ele>
        <time>2013-09-23T20:39:45.186Z</time>
      </trkpt>
      <trkpt lat="48.85912" lon="2.33836">
        <ele>84.1</ele>
        <time>2013-09-23T20:40:09.064Z</time>
      </trkpt>
      <trkpt lat="48.85912" lon="2.33835">
        <ele>83.4</ele>
        <time>2013-09-23T20:40:10.173Z</time>
      </trkpt>
      <trkpt lat="48.85913" lon="2.33824">
        <ele>80.2</ele>
        <time>2013-09-23T20:40:19.051Z</time>
      </trkpt>
      <trkpt lat="48.85913" lon="2.33821">
        <ele>79.7</ele>
        <time>2013-09-23T20:40:20.204Z</time>
      </trkpt>
      <trkpt lat="48.85915" lon="2.33809">
        <ele>79.3</ele>
        <time>2013-09-23T20:40:23.970Z</time>
      </trkpt>
      <trkpt lat="48.85916" lon="2.33806">
        <ele>79.1</ele>
        <time>2013-09-23T20:40:25.011Z</time>
      </trkpt>
      <trkpt lat="48.85918" lon="2.33794">
        <ele>80.4</ele>
        <time>2013-09-23T20:40:33.983Z</time>
      </trkpt>
      <trkpt lat="48.85918" lon="2.33793">
        <ele>79.9</ele>
        <time>2013-09-23T20:40:34.948Z</time>
      </trkpt>
      <trkpt lat="48.85918" lon="2.33792">
        <ele>80</ele>
        <time>2013-09-23T20:40:38.285Z</time>
      </trkpt>
      <trkpt lat="48.85918" lon="2.33792">
        <ele>79.6</ele>
        <time>2013-09-23T20:40:38.960Z</time>
      </trkpt>
      <trkpt lat="48.85917" lon="2.33793">
        <ele>79.7</ele>
        <time>2013-09-23T20:40:40.124Z</time>
      </trkpt>
      <trkpt lat="48.85915" lon="2.33797">
        <ele>81.6</ele>
        <time>2013-09-23T20:40:49.971Z</time>
      </trkpt>
      <trkpt lat="48.85915" lon="2.33797">
        <ele>81.7</ele>
        <time>2013-09-23T20:40:50.951Z</time>
      </trkpt>
      <trkpt lat="48.85915" lon="2.33796">
        <ele>81.7</ele>
        <time>2013-09-23T20:40:58.969Z</time>
      </trkpt>
      <trkpt lat="48.85915" lon="2.33795">
        <ele>82.3</ele>
        <time>2013-09-23T20:40:59.951Z</time>
      </trkpt>
      <trkpt lat="48.85915" lon="2.33792">
        <ele>82.2</ele>
        <time>2013-09-23T20:41:03.952Z</time>
      </trkpt>
      <trkpt lat="48.85915" lon="2.33792">
        <ele>82.3</ele>
        <time>2013-09-23T20:41:04.973Z</time>
      </trkpt>
      <trkpt lat="48.85916" lon="2.33793">
        <ele>82.3</ele>
        <time>2013-09-23T20:41:06.952Z</time>
      </trkpt>
      <trkpt lat="48.85916" lon="2.33793">
        <ele>82.3</ele>
        <time>2013-09-23T20:41:07.975Z</time>
      </trkpt>
      <trkpt lat="48.85916" lon="2.33793">
        <ele>82.5</ele>
        <time>2013-09-23T20:41:08.959Z</time>
      </trkpt>
      <trkpt lat="48.85916" lon="2.33793">
        <ele>83.4</ele>
        <time>2013-09-23T20:41:09.958Z</time>
      </trkpt>
      <trkpt lat="48.85916" lon="2.33792">
        <ele>83</ele>
        <time>2013-09-23T20:41:10.952Z</time>
      </trkpt>
      <trkpt lat="48.85918" lon="2.33781">
        <ele>82.5</ele>
        <time>2013-09-23T20:41:15.959Z</time>
      </trkpt>
      <trkpt lat="48.85919" lon="2.33778">
        <ele>82.3</ele>
        <time>2013-09-23T20:41:16.952Z</time>
      </trkpt>
      <trkpt lat="48.85921" lon="2.33765">
        <ele>80.8</ele>
        <time>2013-09-23T20:41:21.959Z</time>
      </trkpt>
      <trkpt lat="48.85921" lon="2.33762">
        <ele>80.9</ele>
        <time>2013-09-23T20:41:23.048Z</time>
      </trkpt>
      <trkpt lat="48.85923" lon="2.33751">
        <ele>82.7</ele>
        <time>2013-09-23T20:41:27.144Z</time>
      </trkpt>
      <trkpt lat="48.85924" lon="2.33747">
        <ele>83.3</ele>
        <time>2013-09-23T20:41:28.017Z</time>
      </trkpt>
      <trkpt lat="48.85925" lon="2.33738">
        <ele>83.5</ele>
        <time>2013-09-23T20:41:31.018Z</time>
      </trkpt>
      <trkpt lat="48.85925" lon="2.33733">
        <ele>83.6</ele>
        <time>2013-09-23T20:41:32.186Z</time>
      </trkpt>
      <trkpt lat="48.85925" lon="2.3372">
        <ele>83.1</ele>
        <time>2013-09-23T20:41:34.968Z</time>
      </trkpt>
      <trkpt lat="48.85925" lon="2.33715">
        <ele>82.7</ele>
        <time>2013-09-23T20:41:36.105Z</time>
      </trkpt>
      <trkpt lat="48.85925" lon="2.33704">
        <ele>84.4</ele>
        <time>2013-09-23T20:41:38.104Z</time>
      </trkpt>
      <trkpt lat="48.85924" lon="2.33699">
        <ele>84.5</ele>
        <time>2013-09-23T20:41:39.189Z</time>
      </trkpt>
      <trkpt lat="48.85924" lon="2.33687">
        <ele>81.6</ele>
        <time>2013-09-23T20:41:41.960Z</time>
      </trkpt>
      <trkpt lat="48.85925" lon="2.33682">
        <ele>81.1</ele>
        <time>2013-09-23T20:41:43.231Z</time>
      </trkpt>
      <trkpt lat="48.85928" lon="2.33669">
        <ele>81.8</ele>
        <time>2013-09-23T20:41:46.178Z</time>
      </trkpt>
      <trkpt lat="48.85929" lon="2.33665">
        <ele>81.8</ele>
        <time>2013-09-23T20:41:47.026Z</time>
      </trkpt>
      <trkpt lat="48.85931" lon="2.33656">
        <ele>81.5</ele>
        <time>2013-09-23T20:41:48.963Z</time>
      </trkpt>
      <trkpt lat="48.85932" lon="2.3365">
        <ele>82.1</ele>
        <time>2013-09-23T20:41:50.191Z</time>
      </trkpt>
      <trkpt lat="48.85934" lon="2.33637">
        <ele>81</ele>
        <time>2013-09-23T20:41:53.267Z</time>
      </trkpt>
      <trkpt lat="48.85934" lon="2.33634">
        <ele>80.6</ele>
        <time>2013-09-23T20:41:54.066Z</time>
      </trkpt>
      <trkpt lat="48.85937" lon="2.33621">
        <ele>81.1</ele>
        <time>2013-09-23T20:41:57.200Z</time>
      </trkpt>
      <trkpt lat="48.85937" lon="2.33617">
        <ele>80.7</ele>
        <time>2013-09-23T20:41:58.217Z</time>
      </trkpt>
      <trkpt lat="48.8594" lon="2.33606">
        <ele>78.9</ele>
        <time>2013-09-23T20:42:01.066Z</time>
      </trkpt>
      <trkpt lat="48.8594" lon="2.33602">
        <ele>78.7</ele>
        <time>2013-09-23T20:42:02.094Z</time>
      </trkpt>
      <trkpt lat="48.85944" lon="2.33589">
        <ele>79.2</ele>
        <time>2013-09-23T20:42:05.960Z</time>
      </trkpt>
      <trkpt lat="48.85944" lon="2.33586">
        <ele>78.6</ele>
        <time>2013-09-23T20:42:07.232Z</time>
      </trkpt>
      <trkpt lat="48.85946" lon="2.33574">
        <ele>79.8</ele>
        <time>2013-09-23T20:42:11.114Z</time>
      </trkpt>
      <trkpt lat="48.85947" lon="2.3357">
        <ele>80.3</ele>
        <time>2013-09-23T20:42:12.206Z</time>
      </trkpt>
      <trkpt lat="48.85949" lon="2.33559">
        <ele>80.1</ele>
        <time>2013-09-23T20:42:14.983Z</time>
      </trkpt>
      <trkpt lat="48.8595" lon="2.33554">
        <ele>79.7</ele>
        <time>2013-09-23T20:42:16.154Z</time>
      </trkpt>
      <trkpt lat="48.85954" lon="2.33544">
        <ele>79.9</ele>
        <time>2013-09-23T20:42:19.187Z</time>
      </trkpt>
      <trkpt lat="48.85955" lon="2.33541">
        <ele>79.8</ele>
        <time>2013-09-23T20:42:20.020Z</time>
      </trkpt>
      <trkpt lat="48.85958" lon="2.33531">
        <ele>80.2</ele>
        <time>2013-09-23T20:42:23.219Z</time>
      </trkpt>
      <trkpt lat="48.85958" lon="2.33528">
        <ele>80.4</ele>
        <time>2013-09-23T20:42:23.987Z</time>
      </trkpt>
      <trkpt lat="48.85959" lon="2.33518">
        <ele>80.3</ele>
        <time>2013-09-23T20:42:26.189Z</time>
      </trkpt>
      <trkpt lat="48.8596" lon="2.33514">
        <ele>80.8</ele>
        <time>2013-09-23T20:42:27.052Z</time>
      </trkpt>
      <trkpt lat="48.85961" lon="2.33504">
        <ele>81.9</ele>
        <time>2013-09-23T20:42:28.997Z</time>
      </trkpt>
      <trkpt lat="48.85961" lon="2.33498">
        <ele>82.3</ele>
        <time>2013-09-23T20:42:30.216Z</time>
      </trkpt>
      <trkpt lat="48.85962" lon="2.33488">
        <ele>82.9</ele>
        <time>2013-09-23T20:42:32.140Z</time>
      </trkpt>
      <trkpt lat="48.85963" lon="2.33483">
        <ele>83.4</ele>
        <time>2013-09-23T20:42:32.974Z</time>
      </trkpt>
      <trkpt lat="48.85965" lon="2.33471">
        <ele>84.7</ele>
        <time>2013-09-23T20:42:35.188Z</time>
      </trkpt>
      <trkpt lat="48.85966" lon="2.33467">
        <ele>85.7</ele>
        <time>2013-09-23T20:42:36.019Z</time>
      </trkpt>
      <trkpt lat="48.85967" lon="2.33456">
        <ele>86.1</ele>
        <time>2013-09-23T20:42:38.020Z</time>
      </trkpt>
      <trkpt lat="48.85968" lon="2.3345">
        <ele>87.7</ele>
        <time>2013-09-23T20:42:39.173Z</time>
      </trkpt>
      <trkpt lat="48.85968" lon="2.3344">
        <ele>89.6</ele>
        <time>2013-09-23T20:42:41.155Z</time>
      </trkpt>
      <trkpt lat="48.85969" lon="2.33436">
        <ele>89</ele>
        <time>2013-09-23T20:42:42.198Z</time>
      </trkpt>
      <trkpt lat="48.85971" lon="2.33423">
        <ele>89.3</ele>
        <time>2013-09-23T20:42:44.990Z</time>
      </trkpt>
      <trkpt lat="48.85972" lon="2.33418">
        <ele>89.3</ele>
        <time>2013-09-23T20:42:45.964Z</time>
      </trkpt>
      <trkpt lat="48.85974" lon="2.33408">
        <ele>88.7</ele>
        <time>2013-09-23T20:42:48.202Z</time>
      </trkpt>
      <trkpt lat="48.85975" lon="2.33403">
        <ele>87.1</ele>
        <time>2013-09-23T20:42:49.219Z</time>
      </trkpt>
      <trkpt lat="48.85974" lon="2.33399">
        <ele>50</ele>
      </trkpt>
      <trkpt lat="48.86063" lon="2.33042">
        <ele>39</ele>
      </trkpt>
      <trkpt lat="48.86068" lon="2.3302">
        <ele>44</ele>
      </trkpt>
      <trkpt lat="48.86086" lon="2.33012">
        <ele>44</ele>
      </trkpt>
      <trkpt lat="48.86104" lon="2.33011">
        <ele>44</ele>
      </trkpt>
      <trkpt lat="48.86373" lon="2.33205">
        <ele>39</ele>
      </trkpt>
      <trkpt lat="48.8632" lon="2.33371">
        <ele>48</ele>
      </trkpt>
      <trkpt lat="48.86265" lon="2.33538">
        <ele>44</ele>
      </trkpt>
      <trkpt lat="48.86261" lon="2.33555">
        <ele>48</ele>
      </trkpt>
      <trkpt lat="48.86167" lon="2.33495">
        <ele>43</ele>
      </trkpt>
      <trkpt lat="48.8609" lon="2.33453">
        <ele>40</ele>
      </trkpt>
      <trkpt lat="48.86073" lon="2.33525">
        <ele>40</ele>
      </trkpt>
      <trkpt lat="48.86066" lon="2.33562">
        <ele>44</ele>
      </trkpt>
      <trkpt lat="48.86085" lon="2.33631">
        <ele>47</ele>
      </trkpt>
      <trkpt lat="48.86098" lon="2.33653">
        <ele>47</ele>
      </trkpt>
      <trkpt lat="48.86129" lon="2.33665">
        <ele>51</ele>
      </trkpt>
      <trkpt lat="48.86138" lon="2.33644">
        <ele>51</ele>
      </trkpt>
      <trkpt lat="48.86148" lon="2.33607">
        <ele>50</ele>
      </trkpt>
      <trkpt lat="48.86232" lon="2.33653">
        <ele>47</ele>
      </trkpt>
      <trkpt lat="48.86227" lon="2.337">
        <ele>47</ele>
      </trkpt>
      <trkpt lat="48.86266" lon="2.33733">
        <ele>46</ele>
      </trkpt>
      <trkpt lat="48.86214" lon="2.33926">
        <ele>48</ele>
      </trkpt>
      <trkpt lat="48.86185" lon="2.34047">
        <ele>49</ele>
      </trkpt>
      <trkpt lat="48.8615" lon="2.34208">
        <ele>50</ele>
      </trkpt>
      <trkpt lat="48.86131" lon="2.34334">
        <ele>49</ele>
      </trkpt>
      <trkpt lat="48.86113" lon="2.34446">
        <ele>50</ele>
      </trkpt>
      <trkpt lat="48.86102" lon="2.34514">
        <ele>51</ele>
      </trkpt>
      <trkpt lat="48.86086" lon="2.34558">
        <ele>50</ele>
      </trkpt>
      <trkpt lat="48.8606" lon="2.34593">
        <ele>50</ele>
      </trkpt>
      <trkpt lat="48.86047" lon="2.34609">
        <ele>50</ele>
      </trkpt>
      <trkpt lat="48.85979" lon="2.34665">
        <ele>46</ele>
      </trkpt>
      <trkpt lat="48.85961" lon="2.34686">
        <ele>46</ele>
      </trkpt>
      <trkpt lat="48.85964" lon="2.34698">
        <ele>46</ele>
      </trkpt>
      <trkpt lat="48.85963" lon="2.34715">
        <ele>45</ele>
      </trkpt>
      <trkpt lat="48.8596" lon="2.34736">
        <ele>45</ele>
      </trkpt>
    </trkseg>
  </trk>
</gpx>